<?xml version='1.0' encoding='UTF-8'?><gpx version="1.1" creator="JPX - https://github.com/jenetics/jpx" xmlns="http://www.topografix.com/GPX/1/1"><trk><trkseg><trkpt lat="44.5341253" lon="10.7490118"><ele>176.0</ele><time>2026-03-22T08:07:50.893Z</time></trkpt><trkpt lat="44.5341875" lon="10.7490347"><ele>176.0</ele><time>2026-03-22T08:07:51.895Z</time></trkpt><trkpt lat="44.5342505" lon="10.7490607"><ele>176.0</ele><time>2026-03-22T08:07:52.897Z</time></trkpt><trkpt lat="44.5343132" lon="10.7490858"><ele>176.0</ele><time>2026-03-22T08:07:53.901Z</time></trkpt><trkpt lat="44.534387" lon="10.7491142"><ele>176.0</ele><time>2026-03-22T08:07:54.898Z</time></trkpt><trkpt lat="44.5344631" lon="10.7491366"><ele>176.0</ele><time>2026-03-22T08:07:55.894Z</time></trkpt><trkpt lat="44.5345415" lon="10.7491599"><ele>176.0</ele><time>2026-03-22T08:07:56.9Z</time></trkpt><trkpt lat="44.5346194" lon="10.749192"><ele>175.83333333333331</ele><time>2026-03-22T08:07:57.902Z</time></trkpt><trkpt lat="44.5346989" lon="10.7492265"><ele>175.66666666666666</ele><time>2026-03-22T08:07:58.893Z</time></trkpt><trkpt lat="44.5347786" lon="10.7492619"><ele>175.5</ele><time>2026-03-22T08:07:59.897Z</time></trkpt><trkpt lat="44.5348613" lon="10.7492938"><ele>175.33333333333334</ele><time>2026-03-22T08:08:00.888Z</time></trkpt><trkpt lat="44.5349391" lon="10.749323"><ele>175.16666666666669</ele><time>2026-03-22T08:08:01.906Z</time></trkpt><trkpt lat="44.5350115" lon="10.7493413"><ele>175.0</ele><time>2026-03-22T08:08:02.89Z</time></trkpt><trkpt lat="44.5350852" lon="10.7493594"><ele>175.0</ele><time>2026-03-22T08:08:03.897Z</time></trkpt><trkpt lat="44.5351514" lon="10.7493733"><ele>175.0</ele><time>2026-03-22T08:08:04.892Z</time></trkpt><trkpt lat="44.5352697" lon="10.7493822"><ele>175.0</ele><time>2026-03-22T08:08:06.895Z</time></trkpt><trkpt lat="44.5353908" lon="10.7493741"><ele>175.0</ele><time>2026-03-22T08:08:08.895Z</time></trkpt><trkpt lat="44.5354845" lon="10.7493748"><ele>175.0</ele><time>2026-03-22T08:08:10.896Z</time></trkpt><trkpt lat="44.5355639" lon="10.7493729"><ele>174.16666666666669</ele><time>2026-03-22T08:08:12.919Z</time></trkpt><trkpt lat="44.5356457" lon="10.7493618"><ele>173.33333333333334</ele><time>2026-03-22T08:08:14.9Z</time></trkpt><trkpt lat="44.5357249" lon="10.7493582"><ele>172.5</ele><time>2026-03-22T08:08:16.898Z</time></trkpt><trkpt lat="44.535804" lon="10.749359"><ele>171.66666666666666</ele><time>2026-03-22T08:08:18.908Z</time></trkpt><trkpt lat="44.5358877" lon="10.7493675"><ele>170.83333333333331</ele><time>2026-03-22T08:08:20.899Z</time></trkpt><trkpt lat="44.535967" lon="10.749364"><ele>170.0</ele><time>2026-03-22T08:08:22.896Z</time></trkpt><trkpt lat="44.5360437" lon="10.7493707"><ele>171.0</ele><time>2026-03-22T08:08:24.897Z</time></trkpt><trkpt lat="44.5361248" lon="10.7493806"><ele>172.0</ele><time>2026-03-22T08:08:26.902Z</time></trkpt><trkpt lat="44.536207" lon="10.7493947"><ele>173.0</ele><time>2026-03-22T08:08:28.89Z</time></trkpt><trkpt lat="44.5363111" lon="10.7494128"><ele>174.0</ele><time>2026-03-22T08:08:30.893Z</time></trkpt><trkpt lat="44.5364208" lon="10.749429"><ele>175.0</ele><time>2026-03-22T08:08:32.899Z</time></trkpt><trkpt lat="44.536526" lon="10.7494503"><ele>175.0</ele><time>2026-03-22T08:08:34.887Z</time></trkpt><trkpt lat="44.5365894" lon="10.7494655"><ele>175.0</ele><time>2026-03-22T08:08:35.921Z</time></trkpt><trkpt lat="44.5367013" lon="10.7494861"><ele>175.0</ele><time>2026-03-22T08:08:37.902Z</time></trkpt><trkpt lat="44.5367985" lon="10.7494935"><ele>175.0</ele><time>2026-03-22T08:08:39.898Z</time></trkpt><trkpt lat="44.5368728" lon="10.7494845"><ele>175.0</ele><time>2026-03-22T08:08:41.901Z</time></trkpt><trkpt lat="44.5369388" lon="10.7494536"><ele>175.0</ele><time>2026-03-22T08:08:43.902Z</time></trkpt><trkpt lat="44.5370195" lon="10.7493798"><ele>174.8</ele><time>2026-03-22T08:08:45.905Z</time></trkpt><trkpt lat="44.5371257" lon="10.7492456"><ele>174.6</ele><time>2026-03-22T08:08:47.898Z</time></trkpt><trkpt lat="44.5371871" lon="10.7491578"><ele>174.39999999999998</ele><time>2026-03-22T08:08:48.89Z</time></trkpt><trkpt lat="44.5372513" lon="10.7490687"><ele>174.2</ele><time>2026-03-22T08:08:49.903Z</time></trkpt><trkpt lat="44.5373046" lon="10.7489977"><ele>174.0</ele><time>2026-03-22T08:08:50.895Z</time></trkpt><trkpt lat="44.5373654" lon="10.7489714"><ele>174.0</ele><time>2026-03-22T08:08:51.9Z</time></trkpt><trkpt lat="44.5374519" lon="10.7489791"><ele>174.0</ele><time>2026-03-22T08:08:52.897Z</time></trkpt><trkpt lat="44.5375304" lon="10.7490165"><ele>174.0</ele><time>2026-03-22T08:08:53.896Z</time></trkpt><trkpt lat="44.5375977" lon="10.7490281"><ele>174.0</ele><time>2026-03-22T08:08:54.901Z</time></trkpt><trkpt lat="44.5376525" lon="10.7489838"><ele>174.0</ele><time>2026-03-22T08:08:55.891Z</time></trkpt><trkpt lat="44.5377318" lon="10.7488335"><ele>174.0</ele><time>2026-03-22T08:08:57.897Z</time></trkpt><trkpt lat="44.5377604" lon="10.7487218"><ele>174.0</ele><time>2026-03-22T08:08:58.905Z</time></trkpt><trkpt lat="44.5377691" lon="10.7486156"><ele>174.0</ele><time>2026-03-22T08:08:59.889Z</time></trkpt><trkpt lat="44.5378027" lon="10.7484722"><ele>174.0</ele><time>2026-03-22T08:09:01.891Z</time></trkpt><trkpt lat="44.5378835" lon="10.7483828"><ele>174.0</ele><time>2026-03-22T08:09:03.902Z</time></trkpt><trkpt lat="44.5380132" lon="10.7483526"><ele>174.0</ele><time>2026-03-22T08:09:05.901Z</time></trkpt><trkpt lat="44.5380944" lon="10.7483674"><ele>179.0</ele><time>2026-03-22T08:09:06.891Z</time></trkpt><trkpt lat="44.5381597" lon="10.7483617"><ele>184.0</ele><time>2026-03-22T08:09:07.894Z</time></trkpt><trkpt lat="44.5382695" lon="10.7483088"><ele>189.0</ele><time>2026-03-22T08:09:09.89Z</time></trkpt><trkpt lat="44.5383706" lon="10.7482238"><ele>194.0</ele><time>2026-03-22T08:09:11.899Z</time></trkpt><trkpt lat="44.5384602" lon="10.7481204"><ele>199.0</ele><time>2026-03-22T08:09:13.902Z</time></trkpt><trkpt lat="44.5384918" lon="10.7479891"><ele>199.0</ele><time>2026-03-22T08:09:15.9Z</time></trkpt><trkpt lat="44.5384919" lon="10.7478217"><ele>199.0</ele><time>2026-03-22T08:09:17.907Z</time></trkpt><trkpt lat="44.5384634" lon="10.7476681"><ele>199.0</ele><time>2026-03-22T08:09:19.904Z</time></trkpt><trkpt lat="44.5383861" lon="10.747541"><ele>199.0</ele><time>2026-03-22T08:09:21.897Z</time></trkpt><trkpt lat="44.5383313" lon="10.7474948"><ele>199.0</ele><time>2026-03-22T08:09:22.902Z</time></trkpt><trkpt lat="44.5382448" lon="10.7474174"><ele>200.2</ele><time>2026-03-22T08:09:24.892Z</time></trkpt><trkpt lat="44.5381935" lon="10.7473338"><ele>201.39999999999998</ele><time>2026-03-22T08:09:26.899Z</time></trkpt><trkpt lat="44.538241" lon="10.7472018"><ele>202.6</ele><time>2026-03-22T08:09:28.893Z</time></trkpt><trkpt lat="44.5383232" lon="10.747061"><ele>203.8</ele><time>2026-03-22T08:09:30.895Z</time></trkpt><trkpt lat="44.5383685" lon="10.746984"><ele>205.0</ele><time>2026-03-22T08:09:31.899Z</time></trkpt><trkpt lat="44.5384127" lon="10.7468992"><ele>205.14285714285714</ele><time>2026-03-22T08:09:32.89Z</time></trkpt><trkpt lat="44.5384578" lon="10.7468149"><ele>205.28571428571428</ele><time>2026-03-22T08:09:33.903Z</time></trkpt><trkpt lat="44.5385018" lon="10.74673"><ele>205.42857142857142</ele><time>2026-03-22T08:09:34.89Z</time></trkpt><trkpt lat="44.5385464" lon="10.7466453"><ele>205.57142857142856</ele><time>2026-03-22T08:09:35.91Z</time></trkpt><trkpt lat="44.5385919" lon="10.746562"><ele>205.71428571428572</ele><time>2026-03-22T08:09:36.889Z</time></trkpt><trkpt lat="44.5386364" lon="10.7464778"><ele>205.85714285714283</ele><time>2026-03-22T08:09:37.903Z</time></trkpt><trkpt lat="44.5386788" lon="10.7463964"><ele>206.0</ele><time>2026-03-22T08:09:38.898Z</time></trkpt><trkpt lat="44.538725" lon="10.7463036"><ele>206.33333333333334</ele><time>2026-03-22T08:09:39.893Z</time></trkpt><trkpt lat="44.5387722" lon="10.7462083"><ele>206.66666666666669</ele><time>2026-03-22T08:09:40.901Z</time></trkpt><trkpt lat="44.5388196" lon="10.746117"><ele>207.0</ele><time>2026-03-22T08:09:41.894Z</time></trkpt><trkpt lat="44.5388657" lon="10.7460303"><ele>207.33333333333331</ele><time>2026-03-22T08:09:42.918Z</time></trkpt><trkpt lat="44.53891" lon="10.7459462"><ele>207.66666666666666</ele><time>2026-03-22T08:09:43.894Z</time></trkpt><trkpt lat="44.5389552" lon="10.7458636"><ele>208.0</ele><time>2026-03-22T08:09:44.902Z</time></trkpt><trkpt lat="44.5389967" lon="10.7457859"><ele>208.0</ele><time>2026-03-22T08:09:45.899Z</time></trkpt><trkpt lat="44.5390391" lon="10.7457107"><ele>208.0</ele><time>2026-03-22T08:09:46.902Z</time></trkpt><trkpt lat="44.5390864" lon="10.7456354"><ele>208.0</ele><time>2026-03-22T08:09:47.895Z</time></trkpt><trkpt lat="44.5391323" lon="10.7455681"><ele>208.0</ele><time>2026-03-22T08:09:48.9Z</time></trkpt><trkpt lat="44.5392025" lon="10.7454796"><ele>208.0</ele><time>2026-03-22T08:09:50.897Z</time></trkpt><trkpt lat="44.539259" lon="10.7454035"><ele>208.0</ele><time>2026-03-22T08:09:53.921Z</time></trkpt><trkpt lat="44.5392283" lon="10.7453243"><ele>208.0</ele><time>2026-03-22T08:09:55.903Z</time></trkpt><trkpt lat="44.539151" lon="10.7452083"><ele>208.28571428571428</ele><time>2026-03-22T08:09:57.895Z</time></trkpt><trkpt lat="44.5391064" lon="10.7451351"><ele>208.57142857142858</ele><time>2026-03-22T08:09:58.905Z</time></trkpt><trkpt lat="44.539056" lon="10.7450567"><ele>208.85714285714286</ele><time>2026-03-22T08:09:59.9Z</time></trkpt><trkpt lat="44.5390032" lon="10.7449788"><ele>209.14285714285714</ele><time>2026-03-22T08:10:00.912Z</time></trkpt><trkpt lat="44.53895" lon="10.7449049"><ele>209.42857142857144</ele><time>2026-03-22T08:10:01.894Z</time></trkpt><trkpt lat="44.5388978" lon="10.7448324"><ele>209.71428571428572</ele><time>2026-03-22T08:10:02.904Z</time></trkpt><trkpt lat="44.5388421" lon="10.7447608"><ele>210.0</ele><time>2026-03-22T08:10:03.894Z</time></trkpt><trkpt lat="44.5387879" lon="10.744685"><ele>210.0</ele><time>2026-03-22T08:10:04.908Z</time></trkpt><trkpt lat="44.5387305" lon="10.7446095"><ele>210.0</ele><time>2026-03-22T08:10:05.896Z</time></trkpt><trkpt lat="44.5386723" lon="10.7445324"><ele>210.0</ele><time>2026-03-22T08:10:06.897Z</time></trkpt><trkpt lat="44.5386123" lon="10.7444529"><ele>210.0</ele><time>2026-03-22T08:10:07.893Z</time></trkpt><trkpt lat="44.5385517" lon="10.7443699"><ele>210.0</ele><time>2026-03-22T08:10:08.9Z</time></trkpt><trkpt lat="44.5384941" lon="10.7442929"><ele>210.0</ele><time>2026-03-22T08:10:09.892Z</time></trkpt><trkpt lat="44.538443" lon="10.7442247"><ele>210.0</ele><time>2026-03-22T08:10:10.899Z</time></trkpt><trkpt lat="44.5383953" lon="10.7441657"><ele>210.0</ele><time>2026-03-22T08:10:11.897Z</time></trkpt><trkpt lat="44.5383059" lon="10.7440573"><ele>210.0</ele><time>2026-03-22T08:10:13.891Z</time></trkpt><trkpt lat="44.538218" lon="10.7439476"><ele>210.0</ele><time>2026-03-22T08:10:15.9Z</time></trkpt><trkpt lat="44.5381228" lon="10.7438261"><ele>210.0</ele><time>2026-03-22T08:10:17.893Z</time></trkpt><trkpt lat="44.5380735" lon="10.7437586"><ele>210.0</ele><time>2026-03-22T08:10:18.893Z</time></trkpt><trkpt lat="44.5380228" lon="10.7436875"><ele>210.0</ele><time>2026-03-22T08:10:19.91Z</time></trkpt><trkpt lat="44.53797" lon="10.743609"><ele>210.0</ele><time>2026-03-22T08:10:20.903Z</time></trkpt><trkpt lat="44.5379092" lon="10.7435202"><ele>210.0</ele><time>2026-03-22T08:10:21.897Z</time></trkpt><trkpt lat="44.5378388" lon="10.7434313"><ele>210.0</ele><time>2026-03-22T08:10:22.898Z</time></trkpt><trkpt lat="44.53776" lon="10.7433423"><ele>210.0</ele><time>2026-03-22T08:10:23.9Z</time></trkpt><trkpt lat="44.5376768" lon="10.7432491"><ele>210.4</ele><time>2026-03-22T08:10:24.919Z</time></trkpt><trkpt lat="44.5375852" lon="10.7431564"><ele>210.8</ele><time>2026-03-22T08:10:25.891Z</time></trkpt><trkpt lat="44.5374931" lon="10.7430693"><ele>211.2</ele><time>2026-03-22T08:10:26.903Z</time></trkpt><trkpt lat="44.5373995" lon="10.7429824"><ele>211.6</ele><time>2026-03-22T08:10:27.895Z</time></trkpt><trkpt lat="44.5373065" lon="10.7428957"><ele>212.0</ele><time>2026-03-22T08:10:28.898Z</time></trkpt><trkpt lat="44.5372151" lon="10.7428095"><ele>212.0</ele><time>2026-03-22T08:10:29.892Z</time></trkpt><trkpt lat="44.5371244" lon="10.7427222"><ele>212.0</ele><time>2026-03-22T08:10:30.902Z</time></trkpt><trkpt lat="44.5370344" lon="10.7426358"><ele>212.0</ele><time>2026-03-22T08:10:31.896Z</time></trkpt><trkpt lat="44.5369459" lon="10.742552"><ele>212.0</ele><time>2026-03-22T08:10:32.899Z</time></trkpt><trkpt lat="44.5368627" lon="10.7424724"><ele>212.0</ele><time>2026-03-22T08:10:33.903Z</time></trkpt><trkpt lat="44.5367871" lon="10.7424003"><ele>212.66666666666669</ele><time>2026-03-22T08:10:34.909Z</time></trkpt><trkpt lat="44.5367177" lon="10.7423368"><ele>213.33333333333334</ele><time>2026-03-22T08:10:35.894Z</time></trkpt><trkpt lat="44.5366494" lon="10.7422762"><ele>214.0</ele><time>2026-03-22T08:10:36.916Z</time></trkpt><trkpt lat="44.5365809" lon="10.7422157"><ele>214.66666666666669</ele><time>2026-03-22T08:10:37.894Z</time></trkpt><trkpt lat="44.5365093" lon="10.7421613"><ele>215.33333333333334</ele><time>2026-03-22T08:10:38.893Z</time></trkpt><trkpt lat="44.536439" lon="10.742108"><ele>216.0</ele><time>2026-03-22T08:10:39.9Z</time></trkpt><trkpt lat="44.5363709" lon="10.7420519"><ele>216.0</ele><time>2026-03-22T08:10:40.891Z</time></trkpt><trkpt lat="44.5363004" lon="10.7419978"><ele>216.0</ele><time>2026-03-22T08:10:41.9Z</time></trkpt><trkpt lat="44.5362284" lon="10.7419447"><ele>216.0</ele><time>2026-03-22T08:10:42.902Z</time></trkpt><trkpt lat="44.5361559" lon="10.7418924"><ele>216.0</ele><time>2026-03-22T08:10:43.896Z</time></trkpt><trkpt lat="44.5360824" lon="10.741838"><ele>216.0</ele><time>2026-03-22T08:10:44.896Z</time></trkpt><trkpt lat="44.5360076" lon="10.7417814"><ele>216.0</ele><time>2026-03-22T08:10:45.896Z</time></trkpt><trkpt lat="44.5359323" lon="10.7417249"><ele>216.16666666666666</ele><time>2026-03-22T08:10:46.891Z</time></trkpt><trkpt lat="44.5358555" lon="10.7416668"><ele>216.33333333333331</ele><time>2026-03-22T08:10:47.895Z</time></trkpt><trkpt lat="44.5357778" lon="10.7416052"><ele>216.5</ele><time>2026-03-22T08:10:48.893Z</time></trkpt><trkpt lat="44.5357002" lon="10.7415419"><ele>216.66666666666666</ele><time>2026-03-22T08:10:49.897Z</time></trkpt><trkpt lat="44.5356211" lon="10.7414809"><ele>216.83333333333331</ele><time>2026-03-22T08:10:50.893Z</time></trkpt><trkpt lat="44.5355419" lon="10.7414213"><ele>217.0</ele><time>2026-03-22T08:10:51.898Z</time></trkpt><trkpt lat="44.5354628" lon="10.7413607"><ele>216.99999999999997</ele><time>2026-03-22T08:10:52.893Z</time></trkpt><trkpt lat="44.5353856" lon="10.7413023"><ele>217.0</ele><time>2026-03-22T08:10:53.899Z</time></trkpt><trkpt lat="44.5353103" lon="10.7412443"><ele>217.0</ele><time>2026-03-22T08:10:54.899Z</time></trkpt><trkpt lat="44.535238" lon="10.7411903"><ele>217.0</ele><time>2026-03-22T08:10:55.892Z</time></trkpt><trkpt lat="44.5351675" lon="10.7411372"><ele>216.99999999999997</ele><time>2026-03-22T08:10:56.917Z</time></trkpt><trkpt lat="44.5350973" lon="10.7410814"><ele>217.0</ele><time>2026-03-22T08:10:57.889Z</time></trkpt><trkpt lat="44.5350275" lon="10.7410235"><ele>217.16666666666666</ele><time>2026-03-22T08:10:58.9Z</time></trkpt><trkpt lat="44.5349563" lon="10.7409658"><ele>217.33333333333331</ele><time>2026-03-22T08:10:59.896Z</time></trkpt><trkpt lat="44.5348912" lon="10.740913"><ele>217.5</ele><time>2026-03-22T08:11:00.89Z</time></trkpt><trkpt lat="44.5347999" lon="10.7408346"><ele>217.66666666666669</ele><time>2026-03-22T08:11:02.895Z</time></trkpt><trkpt lat="44.534752" lon="10.7407756"><ele>217.83333333333334</ele><time>2026-03-22T08:11:04.9Z</time></trkpt><trkpt lat="44.5347733" lon="10.7406254"><ele>218.0</ele><time>2026-03-22T08:11:07.892Z</time></trkpt><trkpt lat="44.5348463" lon="10.7404804"><ele>218.00000000000003</ele><time>2026-03-22T08:11:09.893Z</time></trkpt><trkpt lat="44.5348865" lon="10.740392"><ele>218.0</ele><time>2026-03-22T08:11:10.895Z</time></trkpt><trkpt lat="44.5349308" lon="10.740299"><ele>218.0</ele><time>2026-03-22T08:11:11.898Z</time></trkpt><trkpt lat="44.5349743" lon="10.7402032"><ele>218.0</ele><time>2026-03-22T08:11:12.892Z</time></trkpt><trkpt lat="44.5350163" lon="10.7401131"><ele>218.00000000000003</ele><time>2026-03-22T08:11:13.891Z</time></trkpt><trkpt lat="44.5350558" lon="10.7400239"><ele>218.0</ele><time>2026-03-22T08:11:14.893Z</time></trkpt><trkpt lat="44.5350967" lon="10.7399351"><ele>218.50000000000003</ele><time>2026-03-22T08:11:15.895Z</time></trkpt><trkpt lat="44.53514" lon="10.7398479"><ele>219.0</ele><time>2026-03-22T08:11:16.895Z</time></trkpt><trkpt lat="44.5351836" lon="10.7397576"><ele>219.5</ele><time>2026-03-22T08:11:17.896Z</time></trkpt><trkpt lat="44.5352269" lon="10.7396673"><ele>220.0</ele><time>2026-03-22T08:11:18.891Z</time></trkpt><trkpt lat="44.5352705" lon="10.7395751"><ele>220.50000000000003</ele><time>2026-03-22T08:11:19.895Z</time></trkpt><trkpt lat="44.5353152" lon="10.739481"><ele>221.0</ele><time>2026-03-22T08:11:20.891Z</time></trkpt><trkpt lat="44.53536" lon="10.7393865"><ele>221.16666666666669</ele><time>2026-03-22T08:11:21.901Z</time></trkpt><trkpt lat="44.5354047" lon="10.7392925"><ele>221.33333333333334</ele><time>2026-03-22T08:11:22.894Z</time></trkpt><trkpt lat="44.5354496" lon="10.7391956"><ele>221.5</ele><time>2026-03-22T08:11:23.892Z</time></trkpt><trkpt lat="44.5354973" lon="10.7390965"><ele>221.66666666666669</ele><time>2026-03-22T08:11:24.896Z</time></trkpt><trkpt lat="44.5355453" lon="10.738996"><ele>221.83333333333334</ele><time>2026-03-22T08:11:25.891Z</time></trkpt><trkpt lat="44.5355949" lon="10.7388929"><ele>222.0</ele><time>2026-03-22T08:11:26.898Z</time></trkpt><trkpt lat="44.5356432" lon="10.7387922"><ele>222.0</ele><time>2026-03-22T08:11:27.9Z</time></trkpt><trkpt lat="44.5356891" lon="10.7386983"><ele>222.0</ele><time>2026-03-22T08:11:28.893Z</time></trkpt><trkpt lat="44.5357332" lon="10.7386137"><ele>222.0</ele><time>2026-03-22T08:11:29.892Z</time></trkpt><trkpt lat="44.535775" lon="10.738535"><ele>222.0</ele><time>2026-03-22T08:11:30.896Z</time></trkpt><trkpt lat="44.5358132" lon="10.7384626"><ele>222.0</ele><time>2026-03-22T08:11:31.9Z</time></trkpt><trkpt lat="44.535881" lon="10.7383373"><ele>222.0</ele><time>2026-03-22T08:11:33.9Z</time></trkpt><trkpt lat="44.5359345" lon="10.7382234"><ele>222.0</ele><time>2026-03-22T08:11:35.9Z</time></trkpt><trkpt lat="44.5359506" lon="10.7381209"><ele>222.0</ele><time>2026-03-22T08:11:37.896Z</time></trkpt><trkpt lat="44.5358835" lon="10.7380286"><ele>222.0</ele><time>2026-03-22T08:11:39.896Z</time></trkpt><trkpt lat="44.5358287" lon="10.7379735"><ele>222.0</ele><time>2026-03-22T08:11:40.896Z</time></trkpt><trkpt lat="44.5357698" lon="10.7379147"><ele>222.0</ele><time>2026-03-22T08:11:41.896Z</time></trkpt><trkpt lat="44.5357062" lon="10.7378367"><ele>222.0</ele><time>2026-03-22T08:11:42.892Z</time></trkpt><trkpt lat="44.5356467" lon="10.7377527"><ele>222.66666666666666</ele><time>2026-03-22T08:11:43.891Z</time></trkpt><trkpt lat="44.5355945" lon="10.7376625"><ele>223.33333333333331</ele><time>2026-03-22T08:11:44.895Z</time></trkpt><trkpt lat="44.5355486" lon="10.7375694"><ele>224.0</ele><time>2026-03-22T08:11:45.9Z</time></trkpt><trkpt lat="44.5355061" lon="10.737478"><ele>224.66666666666666</ele><time>2026-03-22T08:11:46.893Z</time></trkpt><trkpt lat="44.5354638" lon="10.7373887"><ele>225.33333333333331</ele><time>2026-03-22T08:11:47.903Z</time></trkpt><trkpt lat="44.5354215" lon="10.7373028"><ele>226.0</ele><time>2026-03-22T08:11:48.902Z</time></trkpt><trkpt lat="44.5353756" lon="10.7372176"><ele>225.99999999999997</ele><time>2026-03-22T08:11:49.894Z</time></trkpt><trkpt lat="44.5353312" lon="10.7371343"><ele>226.0</ele><time>2026-03-22T08:11:50.894Z</time></trkpt><trkpt lat="44.5352896" lon="10.7370485"><ele>226.0</ele><time>2026-03-22T08:11:51.898Z</time></trkpt><trkpt lat="44.5352588" lon="10.7369458"><ele>226.0</ele><time>2026-03-22T08:11:52.901Z</time></trkpt><trkpt lat="44.5352285" lon="10.7368444"><ele>225.99999999999997</ele><time>2026-03-22T08:11:53.897Z</time></trkpt><trkpt lat="44.535195" lon="10.7367439"><ele>226.0</ele><time>2026-03-22T08:11:54.898Z</time></trkpt><trkpt lat="44.535158" lon="10.7366536"><ele>225.99999999999997</ele><time>2026-03-22T08:11:55.893Z</time></trkpt><trkpt lat="44.5351194" lon="10.7365714"><ele>226.0</ele><time>2026-03-22T08:11:56.891Z</time></trkpt><trkpt lat="44.5350838" lon="10.7364949"><ele>226.0</ele><time>2026-03-22T08:11:57.893Z</time></trkpt><trkpt lat="44.535043" lon="10.7364172"><ele>226.0</ele><time>2026-03-22T08:11:58.89Z</time></trkpt><trkpt lat="44.5350036" lon="10.7363475"><ele>225.99999999999997</ele><time>2026-03-22T08:11:59.893Z</time></trkpt><trkpt lat="44.5349284" lon="10.736218"><ele>226.0</ele><time>2026-03-22T08:12:01.906Z</time></trkpt><trkpt lat="44.5348779" lon="10.7361159"><ele>225.66666666666666</ele><time>2026-03-22T08:12:03.898Z</time></trkpt><trkpt lat="44.5348391" lon="10.7360361"><ele>225.33333333333331</ele><time>2026-03-22T08:12:05.896Z</time></trkpt><trkpt lat="44.5348072" lon="10.7359497"><ele>225.0</ele><time>2026-03-22T08:12:09.894Z</time></trkpt><trkpt lat="44.5347956" lon="10.7358443"><ele>224.66666666666669</ele><time>2026-03-22T08:12:31.905Z</time></trkpt><trkpt lat="44.5347609" lon="10.7357398"><ele>224.33333333333334</ele><time>2026-03-22T08:12:33.9Z</time></trkpt><trkpt lat="44.534729" lon="10.7356101"><ele>224.0</ele><time>2026-03-22T08:12:35.897Z</time></trkpt><trkpt lat="44.5347061" lon="10.7354492"><ele>224.00000000000003</ele><time>2026-03-22T08:12:37.889Z</time></trkpt><trkpt lat="44.5346733" lon="10.735282"><ele>224.0</ele><time>2026-03-22T08:12:39.889Z</time></trkpt><trkpt lat="44.534654" lon="10.7351954"><ele>224.0</ele><time>2026-03-22T08:12:40.89Z</time></trkpt><trkpt lat="44.5346284" lon="10.7351071"><ele>224.0</ele><time>2026-03-22T08:12:41.914Z</time></trkpt><trkpt lat="44.5345962" lon="10.7350221"><ele>224.00000000000003</ele><time>2026-03-22T08:12:42.896Z</time></trkpt><trkpt lat="44.5345593" lon="10.7349398"><ele>224.0</ele><time>2026-03-22T08:12:43.89Z</time></trkpt><trkpt lat="44.5345249" lon="10.7348644"><ele>226.0</ele><time>2026-03-22T08:12:44.896Z</time></trkpt><trkpt lat="44.5344883" lon="10.7347836"><ele>228.0</ele><time>2026-03-22T08:12:45.894Z</time></trkpt><trkpt lat="44.5344535" lon="10.7347046"><ele>230.0</ele><time>2026-03-22T08:12:46.908Z</time></trkpt><trkpt lat="44.5344187" lon="10.7346178"><ele>232.0</ele><time>2026-03-22T08:12:47.89Z</time></trkpt><trkpt lat="44.5343832" lon="10.7345255"><ele>234.0</ele><time>2026-03-22T08:12:48.893Z</time></trkpt><trkpt lat="44.5343498" lon="10.7344405"><ele>236.0</ele><time>2026-03-22T08:12:49.889Z</time></trkpt><trkpt lat="44.5343144" lon="10.7343521"><ele>238.0</ele><time>2026-03-22T08:12:50.899Z</time></trkpt><trkpt lat="44.5342805" lon="10.7342678"><ele>238.85714285714286</ele><time>2026-03-22T08:12:51.898Z</time></trkpt><trkpt lat="44.5342487" lon="10.7341833"><ele>239.71428571428572</ele><time>2026-03-22T08:12:52.897Z</time></trkpt><trkpt lat="44.5342234" lon="10.734078"><ele>240.57142857142856</ele><time>2026-03-22T08:12:53.912Z</time></trkpt><trkpt lat="44.5342075" lon="10.7339764"><ele>241.42857142857142</ele><time>2026-03-22T08:12:54.891Z</time></trkpt><trkpt lat="44.534188" lon="10.7338709"><ele>242.28571428571428</ele><time>2026-03-22T08:12:55.9Z</time></trkpt><trkpt lat="44.534166" lon="10.7337696"><ele>243.1428571428571</ele><time>2026-03-22T08:12:56.898Z</time></trkpt><trkpt lat="44.5341413" lon="10.7336807"><ele>243.99999999999997</ele><time>2026-03-22T08:12:57.893Z</time></trkpt><trkpt lat="44.5341148" lon="10.7335816"><ele>244.33333333333331</ele><time>2026-03-22T08:12:58.895Z</time></trkpt><trkpt lat="44.5340826" lon="10.7334819"><ele>244.66666666666666</ele><time>2026-03-22T08:12:59.892Z</time></trkpt><trkpt lat="44.5340449" lon="10.7333875"><ele>245.0</ele><time>2026-03-22T08:13:00.889Z</time></trkpt><trkpt lat="44.5340037" lon="10.7332933"><ele>245.33333333333331</ele><time>2026-03-22T08:13:01.89Z</time></trkpt><trkpt lat="44.5339567" lon="10.7331983"><ele>245.66666666666666</ele><time>2026-03-22T08:13:02.913Z</time></trkpt><trkpt lat="44.5339105" lon="10.7331064"><ele>246.0</ele><time>2026-03-22T08:13:03.891Z</time></trkpt><trkpt lat="44.5338544" lon="10.733029"><ele>246.0</ele><time>2026-03-22T08:13:04.896Z</time></trkpt><trkpt lat="44.5337847" lon="10.7329572"><ele>246.0</ele><time>2026-03-22T08:13:05.895Z</time></trkpt><trkpt lat="44.5337159" lon="10.7328927"><ele>246.0</ele><time>2026-03-22T08:13:06.896Z</time></trkpt><trkpt lat="44.5336491" lon="10.7328329"><ele>246.0</ele><time>2026-03-22T08:13:07.909Z</time></trkpt><trkpt lat="44.5335863" lon="10.7327735"><ele>246.0</ele><time>2026-03-22T08:13:08.894Z</time></trkpt><trkpt lat="44.53353" lon="10.7327"><ele>246.0</ele><time>2026-03-22T08:13:09.894Z</time></trkpt><trkpt lat="44.5334878" lon="10.7326089"><ele>248.16666666666666</ele><time>2026-03-22T08:13:10.889Z</time></trkpt><trkpt lat="44.5334612" lon="10.7324973"><ele>250.33333333333331</ele><time>2026-03-22T08:13:11.895Z</time></trkpt><trkpt lat="44.5334348" lon="10.7323839"><ele>252.5</ele><time>2026-03-22T08:13:12.899Z</time></trkpt><trkpt lat="44.5334127" lon="10.7322616"><ele>254.66666666666666</ele><time>2026-03-22T08:13:13.897Z</time></trkpt><trkpt lat="44.5333853" lon="10.732136"><ele>256.8333333333333</ele><time>2026-03-22T08:13:14.9Z</time></trkpt><trkpt lat="44.5333592" lon="10.7320123"><ele>259.0</ele><time>2026-03-22T08:13:15.913Z</time></trkpt><trkpt lat="44.5333348" lon="10.7318926"><ele>260.16666666666663</ele><time>2026-03-22T08:13:16.897Z</time></trkpt><trkpt lat="44.5333129" lon="10.731765"><ele>261.3333333333333</ele><time>2026-03-22T08:13:17.894Z</time></trkpt><trkpt lat="44.5332902" lon="10.7316441"><ele>262.5</ele><time>2026-03-22T08:13:18.894Z</time></trkpt><trkpt lat="44.5332679" lon="10.731532"><ele>263.6666666666667</ele><time>2026-03-22T08:13:19.894Z</time></trkpt><trkpt lat="44.5332427" lon="10.7314279"><ele>264.83333333333337</ele><time>2026-03-22T08:13:20.896Z</time></trkpt><trkpt lat="44.5332201" lon="10.7313321"><ele>266.0</ele><time>2026-03-22T08:13:21.896Z</time></trkpt><trkpt lat="44.5331732" lon="10.7311839"><ele>265.8</ele><time>2026-03-22T08:13:23.893Z</time></trkpt><trkpt lat="44.5331168" lon="10.7310248"><ele>265.6</ele><time>2026-03-22T08:13:25.891Z</time></trkpt><trkpt lat="44.5330882" lon="10.7309419"><ele>265.4</ele><time>2026-03-22T08:13:26.89Z</time></trkpt><trkpt lat="44.5330583" lon="10.7308625"><ele>265.2</ele><time>2026-03-22T08:13:27.894Z</time></trkpt><trkpt lat="44.5330259" lon="10.7307811"><ele>265.0</ele><time>2026-03-22T08:13:28.891Z</time></trkpt><trkpt lat="44.5329723" lon="10.7306198"><ele>265.0</ele><time>2026-03-22T08:13:30.889Z</time></trkpt><trkpt lat="44.5329417" lon="10.7305309"><ele>265.0</ele><time>2026-03-22T08:13:31.893Z</time></trkpt><trkpt lat="44.5329124" lon="10.7304438"><ele>265.0</ele><time>2026-03-22T08:13:32.894Z</time></trkpt><trkpt lat="44.5328367" lon="10.7303001"><ele>265.0</ele><time>2026-03-22T08:13:34.914Z</time></trkpt><trkpt lat="44.5328085" lon="10.730207"><ele>265.0</ele><time>2026-03-22T08:13:35.892Z</time></trkpt><trkpt lat="44.5327986" lon="10.7301186"><ele>265.0</ele><time>2026-03-22T08:13:36.894Z</time></trkpt><trkpt lat="44.5327847" lon="10.7300243"><ele>267.3333333333333</ele><time>2026-03-22T08:13:37.897Z</time></trkpt><trkpt lat="44.5327624" lon="10.7298602"><ele>269.66666666666663</ele><time>2026-03-22T08:13:39.897Z</time></trkpt><trkpt lat="44.5327482" lon="10.729747"><ele>272.0</ele><time>2026-03-22T08:13:41.896Z</time></trkpt><trkpt lat="44.5327208" lon="10.7296575"><ele>274.3333333333333</ele><time>2026-03-22T08:13:43.899Z</time></trkpt><trkpt lat="44.5326911" lon="10.7295764"><ele>276.6666666666667</ele><time>2026-03-22T08:13:44.896Z</time></trkpt><trkpt lat="44.5326592" lon="10.7294954"><ele>279.0</ele><time>2026-03-22T08:13:45.893Z</time></trkpt><trkpt lat="44.5326205" lon="10.7293922"><ele>278.3333333333333</ele><time>2026-03-22T08:13:46.899Z</time></trkpt><trkpt lat="44.5325779" lon="10.7292884"><ele>277.6666666666667</ele><time>2026-03-22T08:13:47.89Z</time></trkpt><trkpt lat="44.5325417" lon="10.7291953"><ele>277.0</ele><time>2026-03-22T08:13:48.895Z</time></trkpt><trkpt lat="44.5324977" lon="10.7291003"><ele>276.33333333333337</ele><time>2026-03-22T08:13:49.895Z</time></trkpt><trkpt lat="44.5324473" lon="10.7290075"><ele>275.6666666666667</ele><time>2026-03-22T08:13:50.9Z</time></trkpt><trkpt lat="44.5323819" lon="10.728913"><ele>275.0</ele><time>2026-03-22T08:13:51.893Z</time></trkpt><trkpt lat="44.5323154" lon="10.7288425"><ele>275.0</ele><time>2026-03-22T08:13:52.899Z</time></trkpt><trkpt lat="44.5322466" lon="10.7287749"><ele>275.0</ele><time>2026-03-22T08:13:53.892Z</time></trkpt><trkpt lat="44.532179" lon="10.7287096"><ele>275.0</ele><time>2026-03-22T08:13:54.901Z</time></trkpt><trkpt lat="44.532105" lon="10.7286482"><ele>275.0</ele><time>2026-03-22T08:13:55.895Z</time></trkpt><trkpt lat="44.5320311" lon="10.7286019"><ele>275.0</ele><time>2026-03-22T08:13:56.896Z</time></trkpt><trkpt lat="44.5319541" lon="10.7285633"><ele>275.0</ele><time>2026-03-22T08:13:57.894Z</time></trkpt><trkpt lat="44.5318765" lon="10.7285307"><ele>275.0</ele><time>2026-03-22T08:13:58.896Z</time></trkpt><trkpt lat="44.5317982" lon="10.7284902"><ele>275.0</ele><time>2026-03-22T08:13:59.903Z</time></trkpt><trkpt lat="44.5317214" lon="10.7284561"><ele>275.0</ele><time>2026-03-22T08:14:00.897Z</time></trkpt><trkpt lat="44.5316581" lon="10.7283835"><ele>275.0</ele><time>2026-03-22T08:14:01.901Z</time></trkpt><trkpt lat="44.5315977" lon="10.7283132"><ele>275.0</ele><time>2026-03-22T08:14:02.89Z</time></trkpt><trkpt lat="44.5315409" lon="10.7282468"><ele>275.0</ele><time>2026-03-22T08:14:03.89Z</time></trkpt><trkpt lat="44.5314829" lon="10.7281821"><ele>275.0</ele><time>2026-03-22T08:14:04.892Z</time></trkpt><trkpt lat="44.5314201" lon="10.7281191"><ele>275.0</ele><time>2026-03-22T08:14:05.891Z</time></trkpt><trkpt lat="44.5313495" lon="10.7280573"><ele>275.0</ele><time>2026-03-22T08:14:06.894Z</time></trkpt><trkpt lat="44.5312951" lon="10.7280118"><ele>275.0</ele><time>2026-03-22T08:14:07.893Z</time></trkpt><trkpt lat="44.5312314" lon="10.7279645"><ele>275.0</ele><time>2026-03-22T08:14:08.889Z</time></trkpt><trkpt lat="44.5311642" lon="10.7279184"><ele>275.0</ele><time>2026-03-22T08:14:09.889Z</time></trkpt><trkpt lat="44.5311033" lon="10.7278759"><ele>275.0</ele><time>2026-03-22T08:14:10.897Z</time></trkpt><trkpt lat="44.5310183" lon="10.7277618"><ele>275.83333333333337</ele><time>2026-03-22T08:14:12.896Z</time></trkpt><trkpt lat="44.5309932" lon="10.7276685"><ele>276.6666666666667</ele><time>2026-03-22T08:14:13.891Z</time></trkpt><trkpt lat="44.5309601" lon="10.7275546"><ele>277.5</ele><time>2026-03-22T08:14:14.892Z</time></trkpt><trkpt lat="44.5309124" lon="10.7274469"><ele>278.3333333333333</ele><time>2026-03-22T08:14:15.893Z</time></trkpt><trkpt lat="44.5308496" lon="10.7273487"><ele>279.16666666666663</ele><time>2026-03-22T08:14:16.899Z</time></trkpt><trkpt lat="44.5307961" lon="10.727251"><ele>280.0</ele><time>2026-03-22T08:14:17.898Z</time></trkpt><trkpt lat="44.5307434" lon="10.7271403"><ele>280.0</ele><time>2026-03-22T08:14:18.889Z</time></trkpt><trkpt lat="44.5306885" lon="10.7270299"><ele>280.0</ele><time>2026-03-22T08:14:19.891Z</time></trkpt><trkpt lat="44.5306355" lon="10.7269246"><ele>280.0</ele><time>2026-03-22T08:14:20.888Z</time></trkpt><trkpt lat="44.5305785" lon="10.7268242"><ele>280.0</ele><time>2026-03-22T08:14:21.89Z</time></trkpt><trkpt lat="44.5305255" lon="10.7267303"><ele>280.0</ele><time>2026-03-22T08:14:22.908Z</time></trkpt><trkpt lat="44.5304766" lon="10.7266362"><ele>280.0</ele><time>2026-03-22T08:14:23.896Z</time></trkpt><trkpt lat="44.5304281" lon="10.7265433"><ele>279.85714285714283</ele><time>2026-03-22T08:14:24.889Z</time></trkpt><trkpt lat="44.5303839" lon="10.7264537"><ele>279.7142857142857</ele><time>2026-03-22T08:14:25.887Z</time></trkpt><trkpt lat="44.530339" lon="10.7263605"><ele>279.57142857142856</ele><time>2026-03-22T08:14:26.893Z</time></trkpt><trkpt lat="44.5302959" lon="10.7262722"><ele>279.42857142857144</ele><time>2026-03-22T08:14:27.898Z</time></trkpt><trkpt lat="44.5302548" lon="10.7261957"><ele>279.2857142857143</ele><time>2026-03-22T08:14:28.902Z</time></trkpt><trkpt lat="44.530215" lon="10.7261248"><ele>279.1428571428571</ele><time>2026-03-22T08:14:29.899Z</time></trkpt><trkpt lat="44.530174" lon="10.7260572"><ele>279.0</ele><time>2026-03-22T08:14:30.896Z</time></trkpt><trkpt lat="44.5301273" lon="10.725982"><ele>279.0</ele><time>2026-03-22T08:14:31.904Z</time></trkpt><trkpt lat="44.5300799" lon="10.7259043"><ele>279.0</ele><time>2026-03-22T08:14:32.898Z</time></trkpt><trkpt lat="44.5300078" lon="10.7257798"><ele>279.0</ele><time>2026-03-22T08:14:34.901Z</time></trkpt><trkpt lat="44.5299516" lon="10.7256746"><ele>279.0</ele><time>2026-03-22T08:14:36.917Z</time></trkpt><trkpt lat="44.5298993" lon="10.7255623"><ele>279.0</ele><time>2026-03-22T08:14:38.898Z</time></trkpt><trkpt lat="44.5298389" lon="10.7254446"><ele>279.0</ele><time>2026-03-22T08:14:40.898Z</time></trkpt><trkpt lat="44.5297657" lon="10.7253074"><ele>279.0</ele><time>2026-03-22T08:14:42.899Z</time></trkpt><trkpt lat="44.5296995" lon="10.7251714"><ele>279.0</ele><time>2026-03-22T08:14:44.898Z</time></trkpt><trkpt lat="44.5296331" lon="10.7250271"><ele>279.0</ele><time>2026-03-22T08:14:46.893Z</time></trkpt><trkpt lat="44.5295693" lon="10.7248862"><ele>281.0</ele><time>2026-03-22T08:14:48.899Z</time></trkpt><trkpt lat="44.529509" lon="10.724737"><ele>283.0</ele><time>2026-03-22T08:14:50.892Z</time></trkpt><trkpt lat="44.5294702" lon="10.7245951"><ele>285.0</ele><time>2026-03-22T08:14:52.893Z</time></trkpt><trkpt lat="44.529422" lon="10.7244677"><ele>287.0</ele><time>2026-03-22T08:14:54.898Z</time></trkpt><trkpt lat="44.5293537" lon="10.7243324"><ele>287.0</ele><time>2026-03-22T08:14:56.899Z</time></trkpt><trkpt lat="44.5293167" lon="10.7242543"><ele>287.0</ele><time>2026-03-22T08:14:57.895Z</time></trkpt><trkpt lat="44.5292766" lon="10.7241607"><ele>287.0</ele><time>2026-03-22T08:14:58.898Z</time></trkpt><trkpt lat="44.5292366" lon="10.7240632"><ele>287.0</ele><time>2026-03-22T08:14:59.89Z</time></trkpt><trkpt lat="44.5292031" lon="10.7239661"><ele>287.0</ele><time>2026-03-22T08:15:00.892Z</time></trkpt><trkpt lat="44.5291776" lon="10.7238695"><ele>287.0</ele><time>2026-03-22T08:15:01.891Z</time></trkpt><trkpt lat="44.5291572" lon="10.7237727"><ele>287.0</ele><time>2026-03-22T08:15:02.889Z</time></trkpt><trkpt lat="44.529112" lon="10.7235975"><ele>285.4</ele><time>2026-03-22T08:15:04.904Z</time></trkpt><trkpt lat="44.5290585" lon="10.723444"><ele>283.79999999999995</ele><time>2026-03-22T08:15:06.915Z</time></trkpt><trkpt lat="44.529033" lon="10.7233632"><ele>282.2</ele><time>2026-03-22T08:15:07.896Z</time></trkpt><trkpt lat="44.5289956" lon="10.7232133"><ele>280.59999999999997</ele><time>2026-03-22T08:15:09.892Z</time></trkpt><trkpt lat="44.5289694" lon="10.7231268"><ele>279.0</ele><time>2026-03-22T08:15:10.903Z</time></trkpt><trkpt lat="44.5288844" lon="10.7229826"><ele>279.0</ele><time>2026-03-22T08:15:12.903Z</time></trkpt><trkpt lat="44.5288389" lon="10.7229077"><ele>279.0</ele><time>2026-03-22T08:15:13.9Z</time></trkpt><trkpt lat="44.5287907" lon="10.7228394"><ele>279.0</ele><time>2026-03-22T08:15:14.899Z</time></trkpt><trkpt lat="44.528742" lon="10.7227433"><ele>279.0</ele><time>2026-03-22T08:15:15.894Z</time></trkpt><trkpt lat="44.5286937" lon="10.7226265"><ele>279.0</ele><time>2026-03-22T08:15:16.897Z</time></trkpt><trkpt lat="44.5286383" lon="10.7225154"><ele>279.0</ele><time>2026-03-22T08:15:17.9Z</time></trkpt><trkpt lat="44.5285815" lon="10.7224148"><ele>282.59999999999997</ele><time>2026-03-22T08:15:18.895Z</time></trkpt><trkpt lat="44.5285284" lon="10.7223268"><ele>286.2</ele><time>2026-03-22T08:15:19.905Z</time></trkpt><trkpt lat="44.5284787" lon="10.7222426"><ele>289.79999999999995</ele><time>2026-03-22T08:15:20.897Z</time></trkpt><trkpt lat="44.5284097" lon="10.7221247"><ele>293.4</ele><time>2026-03-22T08:15:22.89Z</time></trkpt><trkpt lat="44.5283579" lon="10.7220006"><ele>297.0</ele><time>2026-03-22T08:15:25.907Z</time></trkpt><trkpt lat="44.5283128" lon="10.7219049"><ele>294.8333333333333</ele><time>2026-03-22T08:15:27.891Z</time></trkpt><trkpt lat="44.5282729" lon="10.7218349"><ele>292.6666666666667</ele><time>2026-03-22T08:15:28.893Z</time></trkpt><trkpt lat="44.5282263" lon="10.7217645"><ele>290.5</ele><time>2026-03-22T08:15:29.89Z</time></trkpt><trkpt lat="44.5281727" lon="10.7216832"><ele>288.33333333333337</ele><time>2026-03-22T08:15:30.895Z</time></trkpt><trkpt lat="44.5281166" lon="10.7216006"><ele>286.1666666666667</ele><time>2026-03-22T08:15:31.897Z</time></trkpt><trkpt lat="44.5280647" lon="10.7215241"><ele>284.0</ele><time>2026-03-22T08:15:32.895Z</time></trkpt><trkpt lat="44.5280226" lon="10.7214249"><ele>284.0</ele><time>2026-03-22T08:15:33.898Z</time></trkpt><trkpt lat="44.5279832" lon="10.7213282"><ele>284.0</ele><time>2026-03-22T08:15:34.892Z</time></trkpt><trkpt lat="44.5279485" lon="10.7212414"><ele>284.0</ele><time>2026-03-22T08:15:35.896Z</time></trkpt><trkpt lat="44.5279088" lon="10.7211553"><ele>284.0</ele><time>2026-03-22T08:15:36.893Z</time></trkpt><trkpt lat="44.5278684" lon="10.7210794"><ele>284.0</ele><time>2026-03-22T08:15:37.9Z</time></trkpt><trkpt lat="44.5278166" lon="10.7209884"><ele>284.0</ele><time>2026-03-22T08:15:38.9Z</time></trkpt><trkpt lat="44.5277729" lon="10.720913"><ele>284.0</ele><time>2026-03-22T08:15:39.895Z</time></trkpt><trkpt lat="44.5277011" lon="10.7208304"><ele>286.2</ele><time>2026-03-22T08:15:41.893Z</time></trkpt><trkpt lat="44.527637" lon="10.7207587"><ele>288.4</ele><time>2026-03-22T08:15:43.902Z</time></trkpt><trkpt lat="44.5275755" lon="10.7207075"><ele>290.6</ele><time>2026-03-22T08:15:45.89Z</time></trkpt><trkpt lat="44.5275149" lon="10.7206389"><ele>292.8</ele><time>2026-03-22T08:15:47.922Z</time></trkpt><trkpt lat="44.5274306" lon="10.7205649"><ele>295.0</ele><time>2026-03-22T08:15:49.905Z</time></trkpt><trkpt lat="44.52734" lon="10.7204557"><ele>295.0</ele><time>2026-03-22T08:15:51.898Z</time></trkpt><trkpt lat="44.5272819" lon="10.7203"><ele>295.0</ele><time>2026-03-22T08:15:53.89Z</time></trkpt><trkpt lat="44.527244" lon="10.7201366"><ele>295.0</ele><time>2026-03-22T08:15:55.892Z</time></trkpt><trkpt lat="44.5272078" lon="10.7199718"><ele>295.0</ele><time>2026-03-22T08:15:57.897Z</time></trkpt><trkpt lat="44.5271874" lon="10.7198843"><ele>295.0</ele><time>2026-03-22T08:15:58.891Z</time></trkpt><trkpt lat="44.5271648" lon="10.7198001"><ele>294.7142857142857</ele><time>2026-03-22T08:15:59.893Z</time></trkpt><trkpt lat="44.5271426" lon="10.7197068"><ele>294.42857142857144</ele><time>2026-03-22T08:16:00.892Z</time></trkpt><trkpt lat="44.5271199" lon="10.719608"><ele>294.1428571428571</ele><time>2026-03-22T08:16:01.895Z</time></trkpt><trkpt lat="44.527089" lon="10.7195171"><ele>293.8571428571429</ele><time>2026-03-22T08:16:02.899Z</time></trkpt><trkpt lat="44.5270579" lon="10.7194289"><ele>293.57142857142856</ele><time>2026-03-22T08:16:03.894Z</time></trkpt><trkpt lat="44.5270166" lon="10.7193548"><ele>293.2857142857143</ele><time>2026-03-22T08:16:04.902Z</time></trkpt><trkpt lat="44.5269704" lon="10.7192828"><ele>293.0</ele><time>2026-03-22T08:16:05.918Z</time></trkpt><trkpt lat="44.5269267" lon="10.7192129"><ele>294.71428571428567</ele><time>2026-03-22T08:16:06.898Z</time></trkpt><trkpt lat="44.5268793" lon="10.7191409"><ele>296.42857142857144</ele><time>2026-03-22T08:16:07.904Z</time></trkpt><trkpt lat="44.52683" lon="10.7190576"><ele>298.1428571428571</ele><time>2026-03-22T08:16:08.908Z</time></trkpt><trkpt lat="44.5267898" lon="10.7189632"><ele>299.85714285714283</ele><time>2026-03-22T08:16:09.898Z</time></trkpt><trkpt lat="44.5267559" lon="10.7188646"><ele>301.57142857142856</ele><time>2026-03-22T08:16:10.903Z</time></trkpt><trkpt lat="44.5267254" lon="10.7187678"><ele>303.2857142857143</ele><time>2026-03-22T08:16:11.897Z</time></trkpt><trkpt lat="44.5266982" lon="10.7186781"><ele>305.0</ele><time>2026-03-22T08:16:12.902Z</time></trkpt><trkpt lat="44.5266731" lon="10.7185956"><ele>307.0</ele><time>2026-03-22T08:16:13.894Z</time></trkpt><trkpt lat="44.526647" lon="10.7185104"><ele>309.0</ele><time>2026-03-22T08:16:14.894Z</time></trkpt><trkpt lat="44.5266191" lon="10.7184157"><ele>311.0</ele><time>2026-03-22T08:16:15.901Z</time></trkpt><trkpt lat="44.5265912" lon="10.7182644"><ele>313.0</ele><time>2026-03-22T08:16:17.895Z</time></trkpt><trkpt lat="44.5265656" lon="10.7181195"><ele>315.0</ele><time>2026-03-22T08:16:19.898Z</time></trkpt><trkpt lat="44.526543" lon="10.7180226"><ele>317.0</ele><time>2026-03-22T08:16:20.904Z</time></trkpt><trkpt lat="44.5265202" lon="10.717932"><ele>317.0</ele><time>2026-03-22T08:16:21.891Z</time></trkpt><trkpt lat="44.5264943" lon="10.7178306"><ele>317.0</ele><time>2026-03-22T08:16:22.91Z</time></trkpt><trkpt lat="44.5264737" lon="10.7177308"><ele>317.0</ele><time>2026-03-22T08:16:23.9Z</time></trkpt><trkpt lat="44.5264542" lon="10.7176322"><ele>317.0</ele><time>2026-03-22T08:16:24.894Z</time></trkpt><trkpt lat="44.5264345" lon="10.7175333"><ele>317.0</ele><time>2026-03-22T08:16:25.894Z</time></trkpt><trkpt lat="44.5264143" lon="10.7174297"><ele>317.0</ele><time>2026-03-22T08:16:26.899Z</time></trkpt><trkpt lat="44.5263939" lon="10.717322"><ele>317.0</ele><time>2026-03-22T08:16:27.895Z</time></trkpt><trkpt lat="44.5263749" lon="10.7172081"><ele>317.0</ele><time>2026-03-22T08:16:28.903Z</time></trkpt><trkpt lat="44.5263573" lon="10.7170907"><ele>317.0</ele><time>2026-03-22T08:16:29.894Z</time></trkpt><trkpt lat="44.5263358" lon="10.7169629"><ele>317.0</ele><time>2026-03-22T08:16:30.897Z</time></trkpt><trkpt lat="44.52631" lon="10.7168258"><ele>317.0</ele><time>2026-03-22T08:16:31.895Z</time></trkpt><trkpt lat="44.5262839" lon="10.7166816"><ele>317.0</ele><time>2026-03-22T08:16:32.896Z</time></trkpt><trkpt lat="44.5262583" lon="10.7165312"><ele>317.0</ele><time>2026-03-22T08:16:33.894Z</time></trkpt><trkpt lat="44.5262334" lon="10.7163735"><ele>317.0</ele><time>2026-03-22T08:16:34.895Z</time></trkpt><trkpt lat="44.5262106" lon="10.71621"><ele>317.0</ele><time>2026-03-22T08:16:35.894Z</time></trkpt><trkpt lat="44.526192" lon="10.7160432"><ele>316.6</ele><time>2026-03-22T08:16:36.916Z</time></trkpt><trkpt lat="44.5261737" lon="10.7158843"><ele>316.2</ele><time>2026-03-22T08:16:37.893Z</time></trkpt><trkpt lat="44.5261685" lon="10.715743"><ele>315.8</ele><time>2026-03-22T08:16:38.891Z</time></trkpt><trkpt lat="44.5261781" lon="10.7156174"><ele>315.4</ele><time>2026-03-22T08:16:39.899Z</time></trkpt><trkpt lat="44.5261977" lon="10.7154912"><ele>315.0</ele><time>2026-03-22T08:16:40.899Z</time></trkpt><trkpt lat="44.5262268" lon="10.7153585"><ele>315.0</ele><time>2026-03-22T08:16:41.913Z</time></trkpt><trkpt lat="44.5262554" lon="10.7152283"><ele>315.0</ele><time>2026-03-22T08:16:42.901Z</time></trkpt><trkpt lat="44.5262949" lon="10.7151093"><ele>315.0</ele><time>2026-03-22T08:16:43.901Z</time></trkpt><trkpt lat="44.5263321" lon="10.7150011"><ele>315.0</ele><time>2026-03-22T08:16:44.894Z</time></trkpt><trkpt lat="44.5263669" lon="10.7148954"><ele>315.0</ele><time>2026-03-22T08:16:45.892Z</time></trkpt><trkpt lat="44.5263997" lon="10.7147895"><ele>315.0</ele><time>2026-03-22T08:16:46.936Z</time></trkpt><trkpt lat="44.5264308" lon="10.7146888"><ele>315.0</ele><time>2026-03-22T08:16:47.9Z</time></trkpt><trkpt lat="44.5264612" lon="10.7145861"><ele>315.0</ele><time>2026-03-22T08:16:48.898Z</time></trkpt><trkpt lat="44.5264945" lon="10.7144734"><ele>315.0</ele><time>2026-03-22T08:16:49.896Z</time></trkpt><trkpt lat="44.5265295" lon="10.7143524"><ele>315.0</ele><time>2026-03-22T08:16:50.902Z</time></trkpt><trkpt lat="44.526563" lon="10.7142232"><ele>315.0</ele><time>2026-03-22T08:16:51.897Z</time></trkpt><trkpt lat="44.5265952" lon="10.7140913"><ele>314.4</ele><time>2026-03-22T08:16:52.892Z</time></trkpt><trkpt lat="44.526627" lon="10.7139618"><ele>313.8</ele><time>2026-03-22T08:16:53.895Z</time></trkpt><trkpt lat="44.5266571" lon="10.7138386"><ele>313.2</ele><time>2026-03-22T08:16:54.895Z</time></trkpt><trkpt lat="44.5266864" lon="10.7137175"><ele>312.6</ele><time>2026-03-22T08:16:55.894Z</time></trkpt><trkpt lat="44.5267157" lon="10.7135925"><ele>312.0</ele><time>2026-03-22T08:16:56.9Z</time></trkpt><trkpt lat="44.526746" lon="10.7134729"><ele>311.0</ele><time>2026-03-22T08:16:57.918Z</time></trkpt><trkpt lat="44.5267783" lon="10.7133607"><ele>310.0</ele><time>2026-03-22T08:16:58.897Z</time></trkpt><trkpt lat="44.5268111" lon="10.713253"><ele>309.0</ele><time>2026-03-22T08:16:59.895Z</time></trkpt><trkpt lat="44.5268441" lon="10.7131489"><ele>308.0</ele><time>2026-03-22T08:17:00.896Z</time></trkpt><trkpt lat="44.5268777" lon="10.7130443"><ele>307.0</ele><time>2026-03-22T08:17:01.897Z</time></trkpt><trkpt lat="44.5269079" lon="10.7129397"><ele>306.0</ele><time>2026-03-22T08:17:02.894Z</time></trkpt><trkpt lat="44.5269308" lon="10.7128312"><ele>305.1666666666667</ele><time>2026-03-22T08:17:03.898Z</time></trkpt><trkpt lat="44.5269453" lon="10.7127178"><ele>304.3333333333333</ele><time>2026-03-22T08:17:04.903Z</time></trkpt><trkpt lat="44.5269578" lon="10.7126006"><ele>303.5</ele><time>2026-03-22T08:17:05.915Z</time></trkpt><trkpt lat="44.5269693" lon="10.712483"><ele>302.66666666666663</ele><time>2026-03-22T08:17:06.904Z</time></trkpt><trkpt lat="44.5269789" lon="10.7123656"><ele>301.8333333333333</ele><time>2026-03-22T08:17:07.9Z</time></trkpt><trkpt lat="44.5269867" lon="10.7122478"><ele>301.0</ele><time>2026-03-22T08:17:08.897Z</time></trkpt><trkpt lat="44.526995" lon="10.7121318"><ele>301.0</ele><time>2026-03-22T08:17:09.902Z</time></trkpt><trkpt lat="44.5270058" lon="10.7120168"><ele>301.0</ele><time>2026-03-22T08:17:10.895Z</time></trkpt><trkpt lat="44.5270179" lon="10.7119018"><ele>301.0</ele><time>2026-03-22T08:17:11.904Z</time></trkpt><trkpt lat="44.5270305" lon="10.7117856"><ele>301.0</ele><time>2026-03-22T08:17:12.895Z</time></trkpt><trkpt lat="44.5270442" lon="10.7116678"><ele>301.0</ele><time>2026-03-22T08:17:13.901Z</time></trkpt><trkpt lat="44.5270572" lon="10.7115485"><ele>301.0</ele><time>2026-03-22T08:17:14.901Z</time></trkpt><trkpt lat="44.5270739" lon="10.7114248"><ele>301.16666666666663</ele><time>2026-03-22T08:17:15.898Z</time></trkpt><trkpt lat="44.5270891" lon="10.7113017"><ele>301.3333333333333</ele><time>2026-03-22T08:17:16.902Z</time></trkpt><trkpt lat="44.5271035" lon="10.7111809"><ele>301.5</ele><time>2026-03-22T08:17:17.899Z</time></trkpt><trkpt lat="44.5271062" lon="10.7110749"><ele>301.6666666666667</ele><time>2026-03-22T08:17:18.897Z</time></trkpt><trkpt lat="44.5271042" lon="10.7109708"><ele>301.83333333333337</ele><time>2026-03-22T08:17:19.894Z</time></trkpt><trkpt lat="44.5271018" lon="10.7108703"><ele>302.0</ele><time>2026-03-22T08:17:20.893Z</time></trkpt><trkpt lat="44.5271086" lon="10.7107689"><ele>302.33333333333337</ele><time>2026-03-22T08:17:21.902Z</time></trkpt><trkpt lat="44.5271481" lon="10.7106326"><ele>302.6666666666667</ele><time>2026-03-22T08:17:23.894Z</time></trkpt><trkpt lat="44.527173" lon="10.7105458"><ele>303.0</ele><time>2026-03-22T08:17:25.897Z</time></trkpt><trkpt lat="44.5271575" lon="10.7104545"><ele>303.3333333333333</ele><time>2026-03-22T08:18:58.898Z</time></trkpt><trkpt lat="44.5271138" lon="10.7103712"><ele>303.66666666666663</ele><time>2026-03-22T08:19:02.899Z</time></trkpt><trkpt lat="44.5270801" lon="10.7102431"><ele>304.0</ele><time>2026-03-22T08:19:04.894Z</time></trkpt><trkpt lat="44.527049" lon="10.7101135"><ele>302.0</ele><time>2026-03-22T08:19:06.897Z</time></trkpt><trkpt lat="44.5270055" lon="10.7099558"><ele>300.0</ele><time>2026-03-22T08:19:08.891Z</time></trkpt><trkpt lat="44.5269806" lon="10.7098557"><ele>298.0</ele><time>2026-03-22T08:19:09.893Z</time></trkpt><trkpt lat="44.5269565" lon="10.7097448"><ele>296.0</ele><time>2026-03-22T08:19:10.893Z</time></trkpt><trkpt lat="44.5269338" lon="10.7096219"><ele>294.0</ele><time>2026-03-22T08:19:11.893Z</time></trkpt><trkpt lat="44.5269117" lon="10.7094858"><ele>295.0</ele><time>2026-03-22T08:19:12.894Z</time></trkpt><trkpt lat="44.5268872" lon="10.7093384"><ele>296.0</ele><time>2026-03-22T08:19:13.894Z</time></trkpt><trkpt lat="44.5268519" lon="10.7091864"><ele>297.0</ele><time>2026-03-22T08:19:14.899Z</time></trkpt><trkpt lat="44.5268078" lon="10.7090337"><ele>298.0</ele><time>2026-03-22T08:19:15.901Z</time></trkpt><trkpt lat="44.5267617" lon="10.7088847"><ele>298.0</ele><time>2026-03-22T08:19:16.907Z</time></trkpt><trkpt lat="44.5267165" lon="10.7087276"><ele>298.0</ele><time>2026-03-22T08:19:17.898Z</time></trkpt><trkpt lat="44.5266674" lon="10.7085646"><ele>298.0</ele><time>2026-03-22T08:19:18.903Z</time></trkpt><trkpt lat="44.5266498" lon="10.7083741"><ele>298.0</ele><time>2026-03-22T08:19:19.901Z</time></trkpt><trkpt lat="44.5266332" lon="10.7081779"><ele>300.0</ele><time>2026-03-22T08:19:20.896Z</time></trkpt><trkpt lat="44.5266254" lon="10.7079595"><ele>302.0</ele><time>2026-03-22T08:19:21.902Z</time></trkpt><trkpt lat="44.5265869" lon="10.7077492"><ele>304.0</ele><time>2026-03-22T08:19:22.9Z</time></trkpt><trkpt lat="44.526552" lon="10.7075496"><ele>304.0</ele><time>2026-03-22T08:19:23.905Z</time></trkpt><trkpt lat="44.5265083" lon="10.7073704"><ele>304.0</ele><time>2026-03-22T08:19:24.905Z</time></trkpt><trkpt lat="44.5265057" lon="10.7071725"><ele>304.0</ele><time>2026-03-22T08:19:25.892Z</time></trkpt><trkpt lat="44.526528" lon="10.7069441"><ele>304.0</ele><time>2026-03-22T08:19:26.901Z</time></trkpt><trkpt lat="44.5265544" lon="10.7067105"><ele>304.3333333333333</ele><time>2026-03-22T08:19:27.897Z</time></trkpt><trkpt lat="44.5265853" lon="10.706485"><ele>304.6666666666667</ele><time>2026-03-22T08:19:28.899Z</time></trkpt><trkpt lat="44.5266157" lon="10.7062802"><ele>305.0</ele><time>2026-03-22T08:19:29.901Z</time></trkpt><trkpt lat="44.5265926" lon="10.7060599"><ele>307.0</ele><time>2026-03-22T08:19:30.898Z</time></trkpt><trkpt lat="44.5265311" lon="10.7058591"><ele>309.0</ele><time>2026-03-22T08:19:31.901Z</time></trkpt><trkpt lat="44.5264349" lon="10.7056741"><ele>311.0</ele><time>2026-03-22T08:19:32.896Z</time></trkpt><trkpt lat="44.5263332" lon="10.7054757"><ele>307.5</ele><time>2026-03-22T08:19:33.898Z</time></trkpt><trkpt lat="44.5262063" lon="10.7053515"><ele>304.0</ele><time>2026-03-22T08:19:34.908Z</time></trkpt><trkpt lat="44.5261106" lon="10.7052277"><ele>300.5</ele><time>2026-03-22T08:19:35.894Z</time></trkpt><trkpt lat="44.526063" lon="10.7050502"><ele>297.0</ele><time>2026-03-22T08:19:36.924Z</time></trkpt><trkpt lat="44.5260532" lon="10.7048524"><ele>297.0</ele><time>2026-03-22T08:19:37.899Z</time></trkpt><trkpt lat="44.5260776" lon="10.7046585"><ele>297.0</ele><time>2026-03-22T08:19:38.896Z</time></trkpt><trkpt lat="44.5261335" lon="10.7044755"><ele>297.0</ele><time>2026-03-22T08:19:39.907Z</time></trkpt><trkpt lat="44.5262064" lon="10.7042818"><ele>297.0</ele><time>2026-03-22T08:19:40.905Z</time></trkpt><trkpt lat="44.5262651" lon="10.704096"><ele>299.75</ele><time>2026-03-22T08:19:41.905Z</time></trkpt><trkpt lat="44.5263169" lon="10.7039228"><ele>302.5</ele><time>2026-03-22T08:19:42.895Z</time></trkpt><trkpt lat="44.5263653" lon="10.7037641"><ele>305.25</ele><time>2026-03-22T08:19:43.9Z</time></trkpt><trkpt lat="44.5264137" lon="10.7036197"><ele>308.0</ele><time>2026-03-22T08:19:44.898Z</time></trkpt><trkpt lat="44.5264587" lon="10.7034888"><ele>308.0</ele><time>2026-03-22T08:19:45.906Z</time></trkpt><trkpt lat="44.5264884" lon="10.7033647"><ele>308.0</ele><time>2026-03-22T08:19:46.894Z</time></trkpt><trkpt lat="44.5264924" lon="10.7032434"><ele>308.0</ele><time>2026-03-22T08:19:47.904Z</time></trkpt><trkpt lat="44.5264921" lon="10.703123"><ele>308.0</ele><time>2026-03-22T08:19:48.899Z</time></trkpt><trkpt lat="44.5264445" lon="10.703017"><ele>308.0</ele><time>2026-03-22T08:19:49.907Z</time></trkpt><trkpt lat="44.5263733" lon="10.702909"><ele>308.0</ele><time>2026-03-22T08:19:50.896Z</time></trkpt><trkpt lat="44.5263003" lon="10.7028141"><ele>308.0</ele><time>2026-03-22T08:19:51.898Z</time></trkpt><trkpt lat="44.5262335" lon="10.7027192"><ele>308.0</ele><time>2026-03-22T08:19:52.903Z</time></trkpt><trkpt lat="44.5261732" lon="10.7026278"><ele>308.0</ele><time>2026-03-22T08:19:53.903Z</time></trkpt><trkpt lat="44.5261082" lon="10.7025229"><ele>308.0</ele><time>2026-03-22T08:19:54.898Z</time></trkpt><trkpt lat="44.5260467" lon="10.7024151"><ele>306.8</ele><time>2026-03-22T08:19:55.9Z</time></trkpt><trkpt lat="44.5259933" lon="10.7023144"><ele>305.6</ele><time>2026-03-22T08:19:56.9Z</time></trkpt><trkpt lat="44.5259396" lon="10.7022149"><ele>304.4</ele><time>2026-03-22T08:19:57.891Z</time></trkpt><trkpt lat="44.5258821" lon="10.7021162"><ele>303.2</ele><time>2026-03-22T08:19:58.914Z</time></trkpt><trkpt lat="44.5258206" lon="10.7020215"><ele>302.0</ele><time>2026-03-22T08:19:59.901Z</time></trkpt><trkpt lat="44.5257517" lon="10.7019331"><ele>302.4</ele><time>2026-03-22T08:20:00.908Z</time></trkpt><trkpt lat="44.5256771" lon="10.7018541"><ele>302.79999999999995</ele><time>2026-03-22T08:20:01.903Z</time></trkpt><trkpt lat="44.5255995" lon="10.7017765"><ele>303.2</ele><time>2026-03-22T08:20:02.893Z</time></trkpt><trkpt lat="44.5255173" lon="10.7017001"><ele>303.59999999999997</ele><time>2026-03-22T08:20:03.902Z</time></trkpt><trkpt lat="44.5254349" lon="10.7016261"><ele>304.0</ele><time>2026-03-22T08:20:04.903Z</time></trkpt><trkpt lat="44.5253515" lon="10.7015513"><ele>304.0</ele><time>2026-03-22T08:20:05.916Z</time></trkpt><trkpt lat="44.5252699" lon="10.7014806"><ele>304.0</ele><time>2026-03-22T08:20:06.899Z</time></trkpt><trkpt lat="44.5251911" lon="10.7014159"><ele>304.0</ele><time>2026-03-22T08:20:07.907Z</time></trkpt><trkpt lat="44.5251136" lon="10.7013582"><ele>304.0</ele><time>2026-03-22T08:20:08.897Z</time></trkpt><trkpt lat="44.525046" lon="10.7012986"><ele>304.0</ele><time>2026-03-22T08:20:09.903Z</time></trkpt><trkpt lat="44.5249855" lon="10.7012399"><ele>304.0</ele><time>2026-03-22T08:20:10.898Z</time></trkpt><trkpt lat="44.5249359" lon="10.701184"><ele>303.59999999999997</ele><time>2026-03-22T08:20:11.906Z</time></trkpt><trkpt lat="44.5248608" lon="10.7010822"><ele>303.2</ele><time>2026-03-22T08:20:13.906Z</time></trkpt><trkpt lat="44.5247769" lon="10.7009506"><ele>302.79999999999995</ele><time>2026-03-22T08:20:15.907Z</time></trkpt><trkpt lat="44.5247275" lon="10.7008722"><ele>302.4</ele><time>2026-03-22T08:20:16.898Z</time></trkpt><trkpt lat="44.5246688" lon="10.7007779"><ele>302.0</ele><time>2026-03-22T08:20:17.905Z</time></trkpt><trkpt lat="44.5246038" lon="10.7006699"><ele>302.0</ele><time>2026-03-22T08:20:18.908Z</time></trkpt><trkpt lat="44.5245311" lon="10.7005523"><ele>302.0</ele><time>2026-03-22T08:20:19.899Z</time></trkpt><trkpt lat="44.5244547" lon="10.700427"><ele>302.0</ele><time>2026-03-22T08:20:20.919Z</time></trkpt><trkpt lat="44.5243872" lon="10.7003103"><ele>302.0</ele><time>2026-03-22T08:20:21.908Z</time></trkpt><trkpt lat="44.5243242" lon="10.7002032"><ele>302.0</ele><time>2026-03-22T08:20:22.896Z</time></trkpt><trkpt lat="44.5242668" lon="10.7000942"><ele>302.5</ele><time>2026-03-22T08:20:23.903Z</time></trkpt><trkpt lat="44.5242122" lon="10.6999738"><ele>303.0</ele><time>2026-03-22T08:20:24.902Z</time></trkpt><trkpt lat="44.5241695" lon="10.6998616"><ele>303.5</ele><time>2026-03-22T08:20:25.904Z</time></trkpt><trkpt lat="44.5241279" lon="10.6997592"><ele>304.0</ele><time>2026-03-22T08:20:26.905Z</time></trkpt><trkpt lat="44.5240864" lon="10.6996683"><ele>304.5</ele><time>2026-03-22T08:20:27.897Z</time></trkpt><trkpt lat="44.5240444" lon="10.699592"><ele>305.0</ele><time>2026-03-22T08:20:28.903Z</time></trkpt><trkpt lat="44.5239975" lon="10.6995249"><ele>305.0</ele><time>2026-03-22T08:20:29.896Z</time></trkpt><trkpt lat="44.5239414" lon="10.6994757"><ele>305.0</ele><time>2026-03-22T08:20:30.902Z</time></trkpt><trkpt lat="44.5238706" lon="10.699446"><ele>305.0</ele><time>2026-03-22T08:20:31.899Z</time></trkpt><trkpt lat="44.5237844" lon="10.699432"><ele>305.0</ele><time>2026-03-22T08:20:32.897Z</time></trkpt><trkpt lat="44.5236835" lon="10.6994252"><ele>305.0</ele><time>2026-03-22T08:20:33.894Z</time></trkpt><trkpt lat="44.5235808" lon="10.6994071"><ele>305.0</ele><time>2026-03-22T08:20:34.897Z</time></trkpt><trkpt lat="44.5234731" lon="10.6993734"><ele>304.5</ele><time>2026-03-22T08:20:35.896Z</time></trkpt><trkpt lat="44.5233659" lon="10.6993189"><ele>304.0</ele><time>2026-03-22T08:20:36.915Z</time></trkpt><trkpt lat="44.5232535" lon="10.6992709"><ele>303.5</ele><time>2026-03-22T08:20:37.901Z</time></trkpt><trkpt lat="44.5231404" lon="10.6992201"><ele>303.0</ele><time>2026-03-22T08:20:38.904Z</time></trkpt><trkpt lat="44.5230255" lon="10.6991685"><ele>303.0</ele><time>2026-03-22T08:20:39.897Z</time></trkpt><trkpt lat="44.5229083" lon="10.6991146"><ele>303.0</ele><time>2026-03-22T08:20:40.902Z</time></trkpt><trkpt lat="44.5227868" lon="10.6990528"><ele>303.0</ele><time>2026-03-22T08:20:41.909Z</time></trkpt><trkpt lat="44.5226608" lon="10.6989865"><ele>303.0</ele><time>2026-03-22T08:20:42.899Z</time></trkpt><trkpt lat="44.5225322" lon="10.6989185"><ele>302.75</ele><time>2026-03-22T08:20:43.913Z</time></trkpt><trkpt lat="44.5224076" lon="10.6988463"><ele>302.5</ele><time>2026-03-22T08:20:44.894Z</time></trkpt><trkpt lat="44.5222817" lon="10.6987757"><ele>302.25</ele><time>2026-03-22T08:20:45.905Z</time></trkpt><trkpt lat="44.5221501" lon="10.6987081"><ele>302.0</ele><time>2026-03-22T08:20:46.896Z</time></trkpt><trkpt lat="44.5220192" lon="10.6986417"><ele>302.0</ele><time>2026-03-22T08:20:47.901Z</time></trkpt><trkpt lat="44.5218863" lon="10.6985725"><ele>302.0</ele><time>2026-03-22T08:20:48.899Z</time></trkpt><trkpt lat="44.5217536" lon="10.698504"><ele>302.0</ele><time>2026-03-22T08:20:49.903Z</time></trkpt><trkpt lat="44.5216171" lon="10.6984346"><ele>302.0</ele><time>2026-03-22T08:20:50.901Z</time></trkpt><trkpt lat="44.5214843" lon="10.6983655"><ele>302.0</ele><time>2026-03-22T08:20:51.907Z</time></trkpt><trkpt lat="44.5213534" lon="10.6982969"><ele>302.0</ele><time>2026-03-22T08:20:52.909Z</time></trkpt><trkpt lat="44.5212273" lon="10.6982292"><ele>302.0</ele><time>2026-03-22T08:20:53.912Z</time></trkpt><trkpt lat="44.5211061" lon="10.6981685"><ele>302.0</ele><time>2026-03-22T08:20:54.923Z</time></trkpt><trkpt lat="44.5209904" lon="10.6981176"><ele>303.6</ele><time>2026-03-22T08:20:55.899Z</time></trkpt><trkpt lat="44.5208837" lon="10.6980904"><ele>305.2</ele><time>2026-03-22T08:20:56.902Z</time></trkpt><trkpt lat="44.5207822" lon="10.6980921"><ele>306.8</ele><time>2026-03-22T08:20:57.899Z</time></trkpt><trkpt lat="44.520683" lon="10.6981224"><ele>308.4</ele><time>2026-03-22T08:20:58.895Z</time></trkpt><trkpt lat="44.5205897" lon="10.6981801"><ele>310.0</ele><time>2026-03-22T08:20:59.903Z</time></trkpt><trkpt lat="44.5205076" lon="10.6982486"><ele>310.0</ele><time>2026-03-22T08:21:00.902Z</time></trkpt><trkpt lat="44.5204259" lon="10.6983182"><ele>310.0</ele><time>2026-03-22T08:21:01.907Z</time></trkpt><trkpt lat="44.5203468" lon="10.6983786"><ele>310.0</ele><time>2026-03-22T08:21:02.897Z</time></trkpt><trkpt lat="44.5202724" lon="10.6984295"><ele>310.0</ele><time>2026-03-22T08:21:03.906Z</time></trkpt><trkpt lat="44.5201954" lon="10.6984721"><ele>310.0</ele><time>2026-03-22T08:21:04.894Z</time></trkpt><trkpt lat="44.5201099" lon="10.698504"><ele>310.0</ele><time>2026-03-22T08:21:05.906Z</time></trkpt><trkpt lat="44.5200171" lon="10.6985253"><ele>310.66666666666663</ele><time>2026-03-22T08:21:06.897Z</time></trkpt><trkpt lat="44.5199203" lon="10.6985382"><ele>311.3333333333333</ele><time>2026-03-22T08:21:07.901Z</time></trkpt><trkpt lat="44.5198244" lon="10.6985531"><ele>312.0</ele><time>2026-03-22T08:21:08.898Z</time></trkpt><trkpt lat="44.5197264" lon="10.6985764"><ele>312.6666666666667</ele><time>2026-03-22T08:21:09.897Z</time></trkpt><trkpt lat="44.5196383" lon="10.6985962"><ele>313.33333333333337</ele><time>2026-03-22T08:21:10.896Z</time></trkpt><trkpt lat="44.5195759" lon="10.698618"><ele>314.0</ele><time>2026-03-22T08:21:11.896Z</time></trkpt><trkpt lat="44.5194979" lon="10.6986555"><ele>316.5</ele><time>2026-03-22T08:21:13.894Z</time></trkpt><trkpt lat="44.5194269" lon="10.6987064"><ele>319.0</ele><time>2026-03-22T08:21:16.897Z</time></trkpt><trkpt lat="44.5193637" lon="10.6987479"><ele>321.5</ele><time>2026-03-22T08:21:19.897Z</time></trkpt><trkpt lat="44.519293" lon="10.698741"><ele>324.0</ele><time>2026-03-22T08:21:22.897Z</time></trkpt><trkpt lat="44.5192077" lon="10.6986643"><ele>326.5</ele><time>2026-03-22T08:21:25.899Z</time></trkpt><trkpt lat="44.5191289" lon="10.6985249"><ele>329.0</ele><time>2026-03-22T08:21:27.896Z</time></trkpt><trkpt lat="44.519082" lon="10.6984431"><ele>331.0</ele><time>2026-03-22T08:21:28.897Z</time></trkpt><trkpt lat="44.5190334" lon="10.698367"><ele>333.0</ele><time>2026-03-22T08:21:29.893Z</time></trkpt><trkpt lat="44.518988" lon="10.6982922"><ele>335.0</ele><time>2026-03-22T08:21:30.892Z</time></trkpt><trkpt lat="44.5188991" lon="10.6981932"><ele>337.0</ele><time>2026-03-22T08:21:32.897Z</time></trkpt><trkpt lat="44.5188276" lon="10.6980848"><ele>339.0</ele><time>2026-03-22T08:21:36.899Z</time></trkpt><trkpt lat="44.5188739" lon="10.6979341"><ele>339.0</ele><time>2026-03-22T08:21:38.903Z</time></trkpt><trkpt lat="44.5188627" lon="10.6977788"><ele>339.0</ele><time>2026-03-22T08:21:40.893Z</time></trkpt><trkpt lat="44.5188547" lon="10.6976793"><ele>339.0</ele><time>2026-03-22T08:21:41.894Z</time></trkpt><trkpt lat="44.5189036" lon="10.6975875"><ele>339.0</ele><time>2026-03-22T08:21:43.896Z</time></trkpt><trkpt lat="44.51881" lon="10.69754"><ele>339.0</ele><time>2026-03-22T08:21:46.898Z</time></trkpt><trkpt lat="44.5187036" lon="10.697606"><ele>342.4</ele><time>2026-03-22T08:21:48.897Z</time></trkpt><trkpt lat="44.5186124" lon="10.6977138"><ele>345.79999999999995</ele><time>2026-03-22T08:21:50.89Z</time></trkpt><trkpt lat="44.5185597" lon="10.6977734"><ele>349.20000000000005</ele><time>2026-03-22T08:21:51.915Z</time></trkpt><trkpt lat="44.5184592" lon="10.6978487"><ele>352.6</ele><time>2026-03-22T08:21:53.901Z</time></trkpt><trkpt lat="44.5183808" lon="10.6978954"><ele>356.0</ele><time>2026-03-22T08:21:55.908Z</time></trkpt><trkpt lat="44.5182755" lon="10.6979549"><ele>357.33333333333337</ele><time>2026-03-22T08:21:57.898Z</time></trkpt><trkpt lat="44.5181602" lon="10.6980043"><ele>358.6666666666667</ele><time>2026-03-22T08:21:59.898Z</time></trkpt><trkpt lat="44.5180925" lon="10.698033"><ele>360.0</ele><time>2026-03-22T08:22:00.893Z</time></trkpt><trkpt lat="44.518024" lon="10.698054"><ele>361.3333333333333</ele><time>2026-03-22T08:22:01.899Z</time></trkpt><trkpt lat="44.5179557" lon="10.698082"><ele>362.66666666666663</ele><time>2026-03-22T08:22:02.897Z</time></trkpt><trkpt lat="44.5178917" lon="10.6981056"><ele>364.0</ele><time>2026-03-22T08:22:03.906Z</time></trkpt><trkpt lat="44.5178061" lon="10.6981531"><ele>366.0</ele><time>2026-03-22T08:22:05.896Z</time></trkpt><trkpt lat="44.5177288" lon="10.6982206"><ele>368.0</ele><time>2026-03-22T08:22:08.9Z</time></trkpt><trkpt lat="44.5176559" lon="10.6982813"><ele>370.0</ele><time>2026-03-22T08:22:11.898Z</time></trkpt><trkpt lat="44.5175722" lon="10.6983209"><ele>372.0</ele><time>2026-03-22T08:22:13.895Z</time></trkpt><trkpt lat="44.5174754" lon="10.6983441"><ele>374.0</ele><time>2026-03-22T08:22:15.9Z</time></trkpt><trkpt lat="44.5173739" lon="10.6983662"><ele>374.0</ele><time>2026-03-22T08:22:17.911Z</time></trkpt><trkpt lat="44.5172528" lon="10.6983959"><ele>374.0</ele><time>2026-03-22T08:22:19.903Z</time></trkpt><trkpt lat="44.5171841" lon="10.6984129"><ele>374.0</ele><time>2026-03-22T08:22:20.903Z</time></trkpt><trkpt lat="44.5171092" lon="10.6984287"><ele>374.0</ele><time>2026-03-22T08:22:21.898Z</time></trkpt><trkpt lat="44.5170315" lon="10.6984387"><ele>374.0</ele><time>2026-03-22T08:22:22.905Z</time></trkpt><trkpt lat="44.5169658" lon="10.6984469"><ele>374.0</ele><time>2026-03-22T08:22:23.896Z</time></trkpt><trkpt lat="44.5168681" lon="10.6984544"><ele>373.2</ele><time>2026-03-22T08:22:25.901Z</time></trkpt><trkpt lat="44.5167989" lon="10.6984482"><ele>372.4</ele><time>2026-03-22T08:22:27.903Z</time></trkpt><trkpt lat="44.5167262" lon="10.6984496"><ele>371.6</ele><time>2026-03-22T08:22:31.903Z</time></trkpt><trkpt lat="44.5166312" lon="10.6984095"><ele>370.8</ele><time>2026-03-22T08:22:34.908Z</time></trkpt><trkpt lat="44.5165412" lon="10.6983742"><ele>370.0</ele><time>2026-03-22T08:22:36.903Z</time></trkpt><trkpt lat="44.5164256" lon="10.6983289"><ele>370.0</ele><time>2026-03-22T08:22:38.923Z</time></trkpt><trkpt lat="44.5163554" lon="10.6983045"><ele>370.0</ele><time>2026-03-22T08:22:39.9Z</time></trkpt><trkpt lat="44.5162901" lon="10.6982825"><ele>370.0</ele><time>2026-03-22T08:22:40.898Z</time></trkpt><trkpt lat="44.5161797" lon="10.6982428"><ele>370.0</ele><time>2026-03-22T08:22:42.902Z</time></trkpt><trkpt lat="44.516088" lon="10.6982087"><ele>370.0</ele><time>2026-03-22T08:22:44.902Z</time></trkpt><trkpt lat="44.5160113" lon="10.6981729"><ele>370.0</ele><time>2026-03-22T08:22:46.91Z</time></trkpt><trkpt lat="44.5159257" lon="10.6981293"><ele>368.0</ele><time>2026-03-22T08:22:48.911Z</time></trkpt><trkpt lat="44.5158241" lon="10.6980721"><ele>366.0</ele><time>2026-03-22T08:22:50.904Z</time></trkpt><trkpt lat="44.5157154" lon="10.6980047"><ele>364.0</ele><time>2026-03-22T08:22:52.901Z</time></trkpt><trkpt lat="44.5156067" lon="10.6979326"><ele>362.0</ele><time>2026-03-22T08:22:54.894Z</time></trkpt><trkpt lat="44.5155038" lon="10.6978696"><ele>362.0</ele><time>2026-03-22T08:22:56.9Z</time></trkpt><trkpt lat="44.5154074" lon="10.6978176"><ele>362.0</ele><time>2026-03-22T08:22:58.897Z</time></trkpt><trkpt lat="44.5153132" lon="10.6977728"><ele>362.0</ele><time>2026-03-22T08:23:00.899Z</time></trkpt><trkpt lat="44.5152102" lon="10.6977561"><ele>362.0</ele><time>2026-03-22T08:23:02.897Z</time></trkpt><trkpt lat="44.5150866" lon="10.6977152"><ele>362.0</ele><time>2026-03-22T08:23:04.893Z</time></trkpt><trkpt lat="44.5150161" lon="10.6976851"><ele>360.0</ele><time>2026-03-22T08:23:05.904Z</time></trkpt><trkpt lat="44.5149346" lon="10.6976575"><ele>358.0</ele><time>2026-03-22T08:23:06.895Z</time></trkpt><trkpt lat="44.5148566" lon="10.697628"><ele>356.0</ele><time>2026-03-22T08:23:07.908Z</time></trkpt><trkpt lat="44.5147788" lon="10.6975954"><ele>354.0</ele><time>2026-03-22T08:23:08.9Z</time></trkpt><trkpt lat="44.5147121" lon="10.6975647"><ele>352.0</ele><time>2026-03-22T08:23:09.904Z</time></trkpt><trkpt lat="44.5146453" lon="10.6975357"><ele>350.0</ele><time>2026-03-22T08:23:10.895Z</time></trkpt><trkpt lat="44.5145763" lon="10.6975075"><ele>349.0</ele><time>2026-03-22T08:23:11.907Z</time></trkpt><trkpt lat="44.5145138" lon="10.6974924"><ele>348.0</ele><time>2026-03-22T08:23:12.893Z</time></trkpt><trkpt lat="44.5144168" lon="10.6974848"><ele>347.0</ele><time>2026-03-22T08:23:14.894Z</time></trkpt><trkpt lat="44.5142974" lon="10.6974207"><ele>346.0</ele><time>2026-03-22T08:23:16.898Z</time></trkpt><trkpt lat="44.5142162" lon="10.6973624"><ele>345.0</ele><time>2026-03-22T08:23:17.903Z</time></trkpt><trkpt lat="44.5141205" lon="10.6973012"><ele>345.0</ele><time>2026-03-22T08:23:18.905Z</time></trkpt><trkpt lat="44.5140138" lon="10.6972496"><ele>345.0</ele><time>2026-03-22T08:23:19.897Z</time></trkpt><trkpt lat="44.5139008" lon="10.6972136"><ele>345.0</ele><time>2026-03-22T08:23:20.904Z</time></trkpt><trkpt lat="44.5137817" lon="10.6971854"><ele>345.0</ele><time>2026-03-22T08:23:21.901Z</time></trkpt><trkpt lat="44.513661" lon="10.6971559"><ele>343.75</ele><time>2026-03-22T08:23:22.903Z</time></trkpt><trkpt lat="44.513546" lon="10.697127"><ele>342.5</ele><time>2026-03-22T08:23:23.902Z</time></trkpt><trkpt lat="44.5134337" lon="10.6970956"><ele>341.25</ele><time>2026-03-22T08:23:24.9Z</time></trkpt><trkpt lat="44.5133166" lon="10.6970474"><ele>340.0</ele><time>2026-03-22T08:23:25.898Z</time></trkpt><trkpt lat="44.5132034" lon="10.6970083"><ele>340.0</ele><time>2026-03-22T08:23:26.913Z</time></trkpt><trkpt lat="44.5130955" lon="10.6969716"><ele>340.0</ele><time>2026-03-22T08:23:27.9Z</time></trkpt><trkpt lat="44.5129954" lon="10.6969557"><ele>340.0</ele><time>2026-03-22T08:23:28.89Z</time></trkpt><trkpt lat="44.5128946" lon="10.696951"><ele>340.0</ele><time>2026-03-22T08:23:29.9Z</time></trkpt><trkpt lat="44.512798" lon="10.6969488"><ele>340.0</ele><time>2026-03-22T08:23:30.893Z</time></trkpt><trkpt lat="44.5127156" lon="10.6969564"><ele>339.66666666666663</ele><time>2026-03-22T08:23:31.905Z</time></trkpt><trkpt lat="44.5126285" lon="10.69696"><ele>339.3333333333333</ele><time>2026-03-22T08:23:32.893Z</time></trkpt><trkpt lat="44.5125485" lon="10.6969636"><ele>339.0</ele><time>2026-03-22T08:23:33.901Z</time></trkpt><trkpt lat="44.5124693" lon="10.6969608"><ele>338.6666666666667</ele><time>2026-03-22T08:23:34.9Z</time></trkpt><trkpt lat="44.5123807" lon="10.6969456"><ele>338.33333333333337</ele><time>2026-03-22T08:23:35.901Z</time></trkpt><trkpt lat="44.5122902" lon="10.6969204"><ele>338.0</ele><time>2026-03-22T08:23:36.898Z</time></trkpt><trkpt lat="44.5122091" lon="10.6968859"><ele>339.33333333333337</ele><time>2026-03-22T08:23:37.898Z</time></trkpt><trkpt lat="44.5121331" lon="10.6968553"><ele>340.6666666666667</ele><time>2026-03-22T08:23:38.92Z</time></trkpt><trkpt lat="44.5120649" lon="10.6968133"><ele>342.0</ele><time>2026-03-22T08:23:39.899Z</time></trkpt><trkpt lat="44.5119963" lon="10.6967664"><ele>343.3333333333333</ele><time>2026-03-22T08:23:40.906Z</time></trkpt><trkpt lat="44.5119177" lon="10.6967045"><ele>344.66666666666663</ele><time>2026-03-22T08:23:41.897Z</time></trkpt><trkpt lat="44.5118432" lon="10.696633"><ele>346.0</ele><time>2026-03-22T08:23:42.901Z</time></trkpt><trkpt lat="44.5117628" lon="10.6965543"><ele>346.0</ele><time>2026-03-22T08:23:43.895Z</time></trkpt><trkpt lat="44.5116778" lon="10.6964777"><ele>346.0</ele><time>2026-03-22T08:23:44.901Z</time></trkpt><trkpt lat="44.5115928" lon="10.6964288"><ele>346.0</ele><time>2026-03-22T08:23:45.905Z</time></trkpt><trkpt lat="44.5115137" lon="10.6963876"><ele>346.0</ele><time>2026-03-22T08:23:46.9Z</time></trkpt><trkpt lat="44.5114238" lon="10.6963513"><ele>346.0</ele><time>2026-03-22T08:23:47.909Z</time></trkpt><trkpt lat="44.5113396" lon="10.6963099"><ele>346.0</ele><time>2026-03-22T08:23:48.901Z</time></trkpt><trkpt lat="44.5112524" lon="10.6962728"><ele>346.0</ele><time>2026-03-22T08:23:49.899Z</time></trkpt><trkpt lat="44.5111651" lon="10.6962347"><ele>346.0</ele><time>2026-03-22T08:23:50.901Z</time></trkpt><trkpt lat="44.5110843" lon="10.6961875"><ele>346.0</ele><time>2026-03-22T08:23:51.901Z</time></trkpt><trkpt lat="44.5110004" lon="10.6961301"><ele>346.0</ele><time>2026-03-22T08:23:52.901Z</time></trkpt><trkpt lat="44.5109171" lon="10.6960615"><ele>347.16666666666663</ele><time>2026-03-22T08:23:53.895Z</time></trkpt><trkpt lat="44.5108495" lon="10.6959844"><ele>348.3333333333333</ele><time>2026-03-22T08:23:54.901Z</time></trkpt><trkpt lat="44.5107828" lon="10.6959068"><ele>349.5</ele><time>2026-03-22T08:23:55.897Z</time></trkpt><trkpt lat="44.5107199" lon="10.6958237"><ele>350.6666666666667</ele><time>2026-03-22T08:23:56.909Z</time></trkpt><trkpt lat="44.5106544" lon="10.6957479"><ele>351.83333333333337</ele><time>2026-03-22T08:23:57.903Z</time></trkpt><trkpt lat="44.5105881" lon="10.6956698"><ele>353.0</ele><time>2026-03-22T08:23:58.901Z</time></trkpt><trkpt lat="44.5105197" lon="10.6955973"><ele>353.0</ele><time>2026-03-22T08:23:59.897Z</time></trkpt><trkpt lat="44.5104518" lon="10.6955242"><ele>353.0</ele><time>2026-03-22T08:24:00.91Z</time></trkpt><trkpt lat="44.5103888" lon="10.695454"><ele>353.0</ele><time>2026-03-22T08:24:01.894Z</time></trkpt><trkpt lat="44.5103239" lon="10.695384"><ele>353.0</ele><time>2026-03-22T08:24:02.902Z</time></trkpt><trkpt lat="44.5102651" lon="10.6953207"><ele>353.0</ele><time>2026-03-22T08:24:03.896Z</time></trkpt><trkpt lat="44.5101874" lon="10.6952288"><ele>353.0</ele><time>2026-03-22T08:24:05.894Z</time></trkpt><trkpt lat="44.510136" lon="10.6951592"><ele>354.33333333333337</ele><time>2026-03-22T08:24:47.908Z</time></trkpt><trkpt lat="44.5100831" lon="10.6951045"><ele>355.6666666666667</ele><time>2026-03-22T08:24:49.904Z</time></trkpt><trkpt lat="44.5100224" lon="10.6949692"><ele>357.0</ele><time>2026-03-22T08:24:51.9Z</time></trkpt><trkpt lat="44.5099911" lon="10.694867"><ele>358.3333333333333</ele><time>2026-03-22T08:24:52.902Z</time></trkpt><trkpt lat="44.5099611" lon="10.6947436"><ele>359.66666666666663</ele><time>2026-03-22T08:24:53.893Z</time></trkpt><trkpt lat="44.5099355" lon="10.6946158"><ele>361.0</ele><time>2026-03-22T08:24:54.9Z</time></trkpt><trkpt lat="44.5099125" lon="10.6944921"><ele>361.4</ele><time>2026-03-22T08:24:55.897Z</time></trkpt><trkpt lat="44.5098923" lon="10.6943757"><ele>361.8</ele><time>2026-03-22T08:24:56.897Z</time></trkpt><trkpt lat="44.5098717" lon="10.694285"><ele>362.2</ele><time>2026-03-22T08:24:57.903Z</time></trkpt><trkpt lat="44.5098142" lon="10.6941825"><ele>362.59999999999997</ele><time>2026-03-22T08:24:59.893Z</time></trkpt><trkpt lat="44.509688" lon="10.6942602"><ele>363.0</ele><time>2026-03-22T08:25:01.894Z</time></trkpt><trkpt lat="44.5096124" lon="10.6943726"><ele>367.5</ele><time>2026-03-22T08:25:02.901Z</time></trkpt><trkpt lat="44.5095321" lon="10.6945137"><ele>372.0</ele><time>2026-03-22T08:25:03.894Z</time></trkpt><trkpt lat="44.5094609" lon="10.69468"><ele>376.5</ele><time>2026-03-22T08:25:04.902Z</time></trkpt><trkpt lat="44.5094017" lon="10.6948567"><ele>381.0</ele><time>2026-03-22T08:25:05.891Z</time></trkpt><trkpt lat="44.5093484" lon="10.6950193"><ele>381.0</ele><time>2026-03-22T08:25:06.895Z</time></trkpt><trkpt lat="44.5092959" lon="10.695137"><ele>381.0</ele><time>2026-03-22T08:25:07.894Z</time></trkpt><trkpt lat="44.5092426" lon="10.6951981"><ele>381.0</ele><time>2026-03-22T08:25:08.897Z</time></trkpt><trkpt lat="44.5091362" lon="10.6951741"><ele>381.0</ele><time>2026-03-22T08:25:10.894Z</time></trkpt><trkpt lat="44.5090655" lon="10.6950953"><ele>381.0</ele><time>2026-03-22T08:25:11.897Z</time></trkpt><trkpt lat="44.5089692" lon="10.6950251"><ele>381.0</ele><time>2026-03-22T08:25:12.897Z</time></trkpt><trkpt lat="44.5088586" lon="10.6949728"><ele>381.0</ele><time>2026-03-22T08:25:13.9Z</time></trkpt><trkpt lat="44.5087647" lon="10.6949384"><ele>381.0</ele><time>2026-03-22T08:25:14.89Z</time></trkpt><trkpt lat="44.5086974" lon="10.6949079"><ele>381.0</ele><time>2026-03-22T08:25:15.898Z</time></trkpt><trkpt lat="44.5086148" lon="10.6948541"><ele>381.0</ele><time>2026-03-22T08:25:17.889Z</time></trkpt><trkpt lat="44.5085658" lon="10.6947937"><ele>381.0</ele><time>2026-03-22T08:25:20.902Z</time></trkpt><trkpt lat="44.5085222" lon="10.6947194"><ele>382.8333333333333</ele><time>2026-03-22T08:25:22.899Z</time></trkpt><trkpt lat="44.5084665" lon="10.6946676"><ele>384.66666666666663</ele><time>2026-03-22T08:25:24.898Z</time></trkpt><trkpt lat="44.5084172" lon="10.6945827"><ele>386.5</ele><time>2026-03-22T08:25:27.895Z</time></trkpt><trkpt lat="44.5083991" lon="10.6944769"><ele>388.3333333333333</ele><time>2026-03-22T08:25:29.899Z</time></trkpt><trkpt lat="44.5083254" lon="10.6943977"><ele>390.16666666666663</ele><time>2026-03-22T08:25:31.896Z</time></trkpt><trkpt lat="44.5082075" lon="10.6943588"><ele>392.0</ele><time>2026-03-22T08:25:33.895Z</time></trkpt><trkpt lat="44.5080856" lon="10.6943546"><ele>394.20000000000005</ele><time>2026-03-22T08:25:35.901Z</time></trkpt><trkpt lat="44.5079817" lon="10.6943158"><ele>396.4</ele><time>2026-03-22T08:25:37.919Z</time></trkpt><trkpt lat="44.5078819" lon="10.6942649"><ele>398.6</ele><time>2026-03-22T08:25:39.904Z</time></trkpt><trkpt lat="44.5077749" lon="10.6941771"><ele>400.79999999999995</ele><time>2026-03-22T08:25:41.899Z</time></trkpt><trkpt lat="44.5076821" lon="10.6941354"><ele>403.0</ele><time>2026-03-22T08:25:43.899Z</time></trkpt><trkpt lat="44.5075801" lon="10.6941106"><ele>403.0</ele><time>2026-03-22T08:25:45.92Z</time></trkpt><trkpt lat="44.5075148" lon="10.6941074"><ele>403.0</ele><time>2026-03-22T08:25:46.893Z</time></trkpt><trkpt lat="44.5073933" lon="10.6940971"><ele>403.0</ele><time>2026-03-22T08:25:48.906Z</time></trkpt><trkpt lat="44.5072733" lon="10.694104"><ele>403.0</ele><time>2026-03-22T08:25:50.893Z</time></trkpt><trkpt lat="44.5072086" lon="10.6941234"><ele>403.0</ele><time>2026-03-22T08:25:51.904Z</time></trkpt><trkpt lat="44.5071033" lon="10.6941423"><ele>405.2</ele><time>2026-03-22T08:25:53.899Z</time></trkpt><trkpt lat="44.5070228" lon="10.6941678"><ele>407.4</ele><time>2026-03-22T08:25:55.889Z</time></trkpt><trkpt lat="44.5069476" lon="10.6941638"><ele>409.59999999999997</ele><time>2026-03-22T08:25:57.916Z</time></trkpt><trkpt lat="44.5068699" lon="10.694148"><ele>411.79999999999995</ele><time>2026-03-22T08:25:59.895Z</time></trkpt><trkpt lat="44.506776" lon="10.6941399"><ele>414.0</ele><time>2026-03-22T08:26:01.895Z</time></trkpt><trkpt lat="44.5066529" lon="10.6941994"><ele>414.0</ele><time>2026-03-22T08:26:03.896Z</time></trkpt><trkpt lat="44.5065941" lon="10.6942344"><ele>414.0</ele><time>2026-03-22T08:26:04.9Z</time></trkpt><trkpt lat="44.5064979" lon="10.694274"><ele>414.0</ele><time>2026-03-22T08:26:06.898Z</time></trkpt><trkpt lat="44.5064259" lon="10.6942604"><ele>414.0</ele><time>2026-03-22T08:26:07.896Z</time></trkpt><trkpt lat="44.506324" lon="10.6942074"><ele>414.0</ele><time>2026-03-22T08:26:09.899Z</time></trkpt><trkpt lat="44.5062746" lon="10.6940993"><ele>414.0</ele><time>2026-03-22T08:26:11.901Z</time></trkpt><trkpt lat="44.5062469" lon="10.6939678"><ele>413.0</ele><time>2026-03-22T08:26:13.898Z</time></trkpt><trkpt lat="44.506239" lon="10.6938232"><ele>412.0</ele><time>2026-03-22T08:26:15.89Z</time></trkpt><trkpt lat="44.5062402" lon="10.6936617"><ele>411.0</ele><time>2026-03-22T08:26:17.89Z</time></trkpt><trkpt lat="44.5062523" lon="10.6934951"><ele>410.0</ele><time>2026-03-22T08:26:19.901Z</time></trkpt><trkpt lat="44.506272" lon="10.6933494"><ele>409.0</ele><time>2026-03-22T08:26:21.908Z</time></trkpt><trkpt lat="44.5062819" lon="10.6932294"><ele>408.83333333333337</ele><time>2026-03-22T08:26:23.898Z</time></trkpt><trkpt lat="44.5062786" lon="10.69311"><ele>408.6666666666667</ele><time>2026-03-22T08:26:25.903Z</time></trkpt><trkpt lat="44.5062714" lon="10.6929928"><ele>408.5</ele><time>2026-03-22T08:26:27.898Z</time></trkpt><trkpt lat="44.5062641" lon="10.6928764"><ele>408.33333333333337</ele><time>2026-03-22T08:26:29.903Z</time></trkpt><trkpt lat="44.5062485" lon="10.6927457"><ele>408.1666666666667</ele><time>2026-03-22T08:26:31.9Z</time></trkpt><trkpt lat="44.5062179" lon="10.6926141"><ele>408.0</ele><time>2026-03-22T08:26:33.899Z</time></trkpt><trkpt lat="44.506172" lon="10.6924929"><ele>408.0</ele><time>2026-03-22T08:26:35.896Z</time></trkpt><trkpt lat="44.5061161" lon="10.6923505"><ele>408.0</ele><time>2026-03-22T08:26:37.903Z</time></trkpt><trkpt lat="44.506068" lon="10.6921893"><ele>408.0</ele><time>2026-03-22T08:26:39.892Z</time></trkpt><trkpt lat="44.506029" lon="10.6920289"><ele>408.0</ele><time>2026-03-22T08:26:41.891Z</time></trkpt><trkpt lat="44.5060062" lon="10.6919443"><ele>408.0</ele><time>2026-03-22T08:26:42.903Z</time></trkpt><trkpt lat="44.5059766" lon="10.6918628"><ele>408.2</ele><time>2026-03-22T08:26:43.894Z</time></trkpt><trkpt lat="44.5059459" lon="10.6917816"><ele>408.4</ele><time>2026-03-22T08:26:44.89Z</time></trkpt><trkpt lat="44.5058948" lon="10.691665"><ele>408.59999999999997</ele><time>2026-03-22T08:26:46.903Z</time></trkpt><trkpt lat="44.505839" lon="10.6915506"><ele>408.79999999999995</ele><time>2026-03-22T08:26:48.923Z</time></trkpt><trkpt lat="44.5057775" lon="10.6914215"><ele>409.0</ele><time>2026-03-22T08:26:50.905Z</time></trkpt><trkpt lat="44.5057223" lon="10.6912931"><ele>409.00000000000006</ele><time>2026-03-22T08:26:52.903Z</time></trkpt><trkpt lat="44.5056775" lon="10.6911661"><ele>409.0</ele><time>2026-03-22T08:26:54.895Z</time></trkpt><trkpt lat="44.5056393" lon="10.6910398"><ele>409.0</ele><time>2026-03-22T08:26:56.899Z</time></trkpt><trkpt lat="44.5055958" lon="10.6909645"><ele>409.0</ele><time>2026-03-22T08:26:58.902Z</time></trkpt><trkpt lat="44.5055381" lon="10.6909256"><ele>409.00000000000006</ele><time>2026-03-22T08:27:01.894Z</time></trkpt><trkpt lat="44.5055041" lon="10.6908225"><ele>409.0</ele><time>2026-03-22T08:27:04.9Z</time></trkpt><trkpt lat="44.5054932" lon="10.6907071"><ele>408.1666666666667</ele><time>2026-03-22T08:27:11.901Z</time></trkpt><trkpt lat="44.505485" lon="10.6906027"><ele>407.33333333333337</ele><time>2026-03-22T08:27:12.921Z</time></trkpt><trkpt lat="44.5054805" lon="10.6904745"><ele>406.5</ele><time>2026-03-22T08:27:13.904Z</time></trkpt><trkpt lat="44.5054727" lon="10.6903367"><ele>405.66666666666663</ele><time>2026-03-22T08:27:14.9Z</time></trkpt><trkpt lat="44.5054645" lon="10.6902052"><ele>404.8333333333333</ele><time>2026-03-22T08:27:15.897Z</time></trkpt><trkpt lat="44.5054506" lon="10.6900825"><ele>404.0</ele><time>2026-03-22T08:27:16.901Z</time></trkpt><trkpt lat="44.5054231" lon="10.6899707"><ele>403.99999999999994</ele><time>2026-03-22T08:27:17.893Z</time></trkpt><trkpt lat="44.505395" lon="10.6898646"><ele>404.0</ele><time>2026-03-22T08:27:18.907Z</time></trkpt><trkpt lat="44.5053425" lon="10.6897798"><ele>404.0</ele><time>2026-03-22T08:27:19.901Z</time></trkpt><trkpt lat="44.5052883" lon="10.6896999"><ele>404.0</ele><time>2026-03-22T08:27:20.901Z</time></trkpt><trkpt lat="44.5052375" lon="10.6896191"><ele>403.99999999999994</ele><time>2026-03-22T08:27:21.901Z</time></trkpt><trkpt lat="44.5051915" lon="10.6895296"><ele>404.0</ele><time>2026-03-22T08:27:22.902Z</time></trkpt><trkpt lat="44.5051508" lon="10.689434"><ele>404.49999999999994</ele><time>2026-03-22T08:27:23.895Z</time></trkpt><trkpt lat="44.5051094" lon="10.6893401"><ele>405.0</ele><time>2026-03-22T08:27:24.924Z</time></trkpt><trkpt lat="44.5050703" lon="10.6892415"><ele>405.5</ele><time>2026-03-22T08:27:25.894Z</time></trkpt><trkpt lat="44.5050309" lon="10.6891467"><ele>406.0</ele><time>2026-03-22T08:27:26.903Z</time></trkpt><trkpt lat="44.5049847" lon="10.6890612"><ele>406.49999999999994</ele><time>2026-03-22T08:27:27.89Z</time></trkpt><trkpt lat="44.5049351" lon="10.6889874"><ele>407.0</ele><time>2026-03-22T08:27:28.905Z</time></trkpt><trkpt lat="44.5048824" lon="10.6889247"><ele>406.99999999999994</ele><time>2026-03-22T08:27:29.891Z</time></trkpt><trkpt lat="44.5048312" lon="10.6888695"><ele>407.0</ele><time>2026-03-22T08:27:30.906Z</time></trkpt><trkpt lat="44.5047691" lon="10.6888336"><ele>407.0</ele><time>2026-03-22T08:27:31.894Z</time></trkpt><trkpt lat="44.504709" lon="10.6887995"><ele>407.0</ele><time>2026-03-22T08:27:32.895Z</time></trkpt><trkpt lat="44.5045844" lon="10.6887663"><ele>406.99999999999994</ele><time>2026-03-22T08:27:34.902Z</time></trkpt><trkpt lat="44.5044623" lon="10.688738"><ele>407.0</ele><time>2026-03-22T08:27:36.898Z</time></trkpt><trkpt lat="44.5044002" lon="10.6887166"><ele>407.16666666666663</ele><time>2026-03-22T08:27:37.893Z</time></trkpt><trkpt lat="44.5043407" lon="10.6886647"><ele>407.3333333333333</ele><time>2026-03-22T08:27:38.908Z</time></trkpt><trkpt lat="44.5042721" lon="10.6886053"><ele>407.5</ele><time>2026-03-22T08:27:39.891Z</time></trkpt><trkpt lat="44.5042053" lon="10.6885396"><ele>407.66666666666663</ele><time>2026-03-22T08:27:40.893Z</time></trkpt><trkpt lat="44.5041364" lon="10.6884631"><ele>407.8333333333333</ele><time>2026-03-22T08:27:41.895Z</time></trkpt><trkpt lat="44.5040775" lon="10.6883872"><ele>408.0</ele><time>2026-03-22T08:27:42.896Z</time></trkpt><trkpt lat="44.5040239" lon="10.6883243"><ele>408.0</ele><time>2026-03-22T08:27:43.902Z</time></trkpt><trkpt lat="44.503969" lon="10.688231"><ele>408.0</ele><time>2026-03-22T08:27:50.901Z</time></trkpt><trkpt lat="44.5039311" lon="10.6881033"><ele>408.0</ele><time>2026-03-22T08:27:53.906Z</time></trkpt><trkpt lat="44.5039129" lon="10.6879508"><ele>408.0</ele><time>2026-03-22T08:27:55.894Z</time></trkpt><trkpt lat="44.5038992" lon="10.6878554"><ele>408.0</ele><time>2026-03-22T08:27:56.904Z</time></trkpt><trkpt lat="44.5038809" lon="10.6877638"><ele>408.0</ele><time>2026-03-22T08:27:57.891Z</time></trkpt><trkpt lat="44.5038608" lon="10.6876547"><ele>407.1666666666667</ele><time>2026-03-22T08:27:58.893Z</time></trkpt><trkpt lat="44.5038459" lon="10.6875322"><ele>406.33333333333337</ele><time>2026-03-22T08:27:59.898Z</time></trkpt><trkpt lat="44.5038452" lon="10.687397"><ele>405.5</ele><time>2026-03-22T08:28:00.887Z</time></trkpt><trkpt lat="44.5038505" lon="10.6872625"><ele>404.6666666666667</ele><time>2026-03-22T08:28:01.89Z</time></trkpt><trkpt lat="44.5038585" lon="10.6871636"><ele>403.83333333333337</ele><time>2026-03-22T08:28:02.895Z</time></trkpt><trkpt lat="44.5038682" lon="10.6870749"><ele>403.0</ele><time>2026-03-22T08:28:03.896Z</time></trkpt><trkpt lat="44.5038536" lon="10.6868605"><ele>400.25</ele><time>2026-03-22T08:28:05.89Z</time></trkpt><trkpt lat="44.5038432" lon="10.6867039"><ele>397.5</ele><time>2026-03-22T08:28:06.89Z</time></trkpt><trkpt lat="44.5038405" lon="10.6865391"><ele>394.75</ele><time>2026-03-22T08:28:07.894Z</time></trkpt><trkpt lat="44.5038402" lon="10.6863649"><ele>392.0</ele><time>2026-03-22T08:28:08.89Z</time></trkpt><trkpt lat="44.5038369" lon="10.6862048"><ele>390.40000000000003</ele><time>2026-03-22T08:28:09.902Z</time></trkpt><trkpt lat="44.5038354" lon="10.6860498"><ele>388.8</ele><time>2026-03-22T08:28:10.889Z</time></trkpt><trkpt lat="44.5038268" lon="10.6859058"><ele>387.2</ele><time>2026-03-22T08:28:11.897Z</time></trkpt><trkpt lat="44.5038151" lon="10.6857837"><ele>385.6</ele><time>2026-03-22T08:28:12.894Z</time></trkpt><trkpt lat="44.5037929" lon="10.6856415"><ele>384.0</ele><time>2026-03-22T08:28:13.894Z</time></trkpt><trkpt lat="44.5037664" lon="10.6854847"><ele>394.5</ele><time>2026-03-22T08:28:14.894Z</time></trkpt><trkpt lat="44.5037413" lon="10.685314"><ele>405.0</ele><time>2026-03-22T08:28:15.888Z</time></trkpt><trkpt lat="44.5037293" lon="10.6851465"><ele>415.5</ele><time>2026-03-22T08:28:16.889Z</time></trkpt><trkpt lat="44.5037263" lon="10.6849892"><ele>426.0</ele><time>2026-03-22T08:28:17.9Z</time></trkpt><trkpt lat="44.5037147" lon="10.6848496"><ele>426.0</ele><time>2026-03-22T08:28:18.897Z</time></trkpt><trkpt lat="44.5036952" lon="10.6847222"><ele>426.0</ele><time>2026-03-22T08:28:19.901Z</time></trkpt><trkpt lat="44.5036713" lon="10.6846169"><ele>426.0</ele><time>2026-03-22T08:28:20.892Z</time></trkpt><trkpt lat="44.5036408" lon="10.684524"><ele>426.0</ele><time>2026-03-22T08:28:21.899Z</time></trkpt><trkpt lat="44.5036171" lon="10.6844364"><ele>426.0</ele><time>2026-03-22T08:28:22.891Z</time></trkpt><trkpt lat="44.5035857" lon="10.6843489"><ele>426.0</ele><time>2026-03-22T08:28:23.905Z</time></trkpt><trkpt lat="44.5035673" lon="10.6842153"><ele>424.6</ele><time>2026-03-22T08:28:25.908Z</time></trkpt><trkpt lat="44.5036332" lon="10.6840882"><ele>423.20000000000005</ele><time>2026-03-22T08:28:27.889Z</time></trkpt><trkpt lat="44.5036832" lon="10.6839977"><ele>421.79999999999995</ele><time>2026-03-22T08:28:28.89Z</time></trkpt><trkpt lat="44.5037303" lon="10.6839129"><ele>420.4</ele><time>2026-03-22T08:28:29.889Z</time></trkpt><trkpt lat="44.503782" lon="10.6838314"><ele>419.0</ele><time>2026-03-22T08:28:30.89Z</time></trkpt><trkpt lat="44.5038489" lon="10.6836636"><ele>413.79999999999995</ele><time>2026-03-22T08:28:32.894Z</time></trkpt><trkpt lat="44.5038843" lon="10.6835681"><ele>408.59999999999997</ele><time>2026-03-22T08:28:33.889Z</time></trkpt><trkpt lat="44.5039316" lon="10.683453"><ele>403.4</ele><time>2026-03-22T08:28:34.899Z</time></trkpt><trkpt lat="44.5040082" lon="10.6833171"><ele>398.2</ele><time>2026-03-22T08:28:36.893Z</time></trkpt><trkpt lat="44.5040516" lon="10.6832463"><ele>393.0</ele><time>2026-03-22T08:28:37.896Z</time></trkpt><trkpt lat="44.5041184" lon="10.6830869"><ele>393.0</ele><time>2026-03-22T08:28:39.889Z</time></trkpt><trkpt lat="44.5041572" lon="10.6829229"><ele>393.0</ele><time>2026-03-22T08:28:41.893Z</time></trkpt><trkpt lat="44.504163" lon="10.6828207"><ele>393.0</ele><time>2026-03-22T08:28:43.896Z</time></trkpt><trkpt lat="44.5041756" lon="10.6826999"><ele>393.0</ele><time>2026-03-22T08:28:47.889Z</time></trkpt><trkpt lat="44.5041873" lon="10.6826038"><ele>393.0</ele><time>2026-03-22T08:28:49.9Z</time></trkpt><trkpt lat="44.5042349" lon="10.682465"><ele>396.1666666666667</ele><time>2026-03-22T08:28:51.905Z</time></trkpt><trkpt lat="44.5042845" lon="10.6823704"><ele>399.33333333333337</ele><time>2026-03-22T08:28:52.902Z</time></trkpt><trkpt lat="44.5043304" lon="10.6822813"><ele>402.5</ele><time>2026-03-22T08:28:53.908Z</time></trkpt><trkpt lat="44.5043811" lon="10.6822083"><ele>405.6666666666667</ele><time>2026-03-22T08:28:54.89Z</time></trkpt><trkpt lat="44.5044464" lon="10.6821372"><ele>408.83333333333337</ele><time>2026-03-22T08:28:55.897Z</time></trkpt><trkpt lat="44.5045049" lon="10.6820647"><ele>412.0</ele><time>2026-03-22T08:28:56.891Z</time></trkpt><trkpt lat="44.5045628" lon="10.6819958"><ele>409.6</ele><time>2026-03-22T08:28:57.892Z</time></trkpt><trkpt lat="44.5046107" lon="10.6819374"><ele>407.20000000000005</ele><time>2026-03-22T08:28:58.894Z</time></trkpt><trkpt lat="44.5046645" lon="10.6818829"><ele>404.8</ele><time>2026-03-22T08:28:59.894Z</time></trkpt><trkpt lat="44.504755" lon="10.6817699"><ele>402.4</ele><time>2026-03-22T08:29:01.899Z</time></trkpt><trkpt lat="44.5048274" lon="10.6816613"><ele>400.0</ele><time>2026-03-22T08:29:03.896Z</time></trkpt><trkpt lat="44.5048684" lon="10.6815334"><ele>400.0</ele><time>2026-03-22T08:29:05.889Z</time></trkpt><trkpt lat="44.5048552" lon="10.6813899"><ele>400.0</ele><time>2026-03-22T08:29:07.9Z</time></trkpt><trkpt lat="44.5047937" lon="10.6812754"><ele>400.0</ele><time>2026-03-22T08:29:09.897Z</time></trkpt><trkpt lat="44.5047968" lon="10.6811437"><ele>400.0</ele><time>2026-03-22T08:29:12.903Z</time></trkpt><trkpt lat="44.5048742" lon="10.6809567"><ele>403.0</ele><time>2026-03-22T08:29:14.894Z</time></trkpt><trkpt lat="44.5049148" lon="10.6808582"><ele>406.0</ele><time>2026-03-22T08:29:15.897Z</time></trkpt><trkpt lat="44.5049683" lon="10.6807771"><ele>409.0</ele><time>2026-03-22T08:29:16.899Z</time></trkpt><trkpt lat="44.5050112" lon="10.6807047"><ele>412.0</ele><time>2026-03-22T08:29:17.899Z</time></trkpt><trkpt lat="44.5050597" lon="10.6805529"><ele>415.0</ele><time>2026-03-22T08:29:19.902Z</time></trkpt><trkpt lat="44.505054" lon="10.6804028"><ele>415.00000000000006</ele><time>2026-03-22T08:29:21.903Z</time></trkpt><trkpt lat="44.5049822" lon="10.6802931"><ele>415.0</ele><time>2026-03-22T08:29:23.898Z</time></trkpt><trkpt lat="44.5049403" lon="10.6802123"><ele>415.0</ele><time>2026-03-22T08:29:25.906Z</time></trkpt><trkpt lat="44.5049275" lon="10.6801202"><ele>415.0</ele><time>2026-03-22T08:29:28.897Z</time></trkpt><trkpt lat="44.5049252" lon="10.6800215"><ele>415.00000000000006</ele><time>2026-03-22T08:29:40.898Z</time></trkpt><trkpt lat="44.5049202" lon="10.6799184"><ele>415.0</ele><time>2026-03-22T08:29:43.899Z</time></trkpt><trkpt lat="44.5049263" lon="10.6798078"><ele>416.8571428571429</ele><time>2026-03-22T08:29:45.891Z</time></trkpt><trkpt lat="44.5049268" lon="10.6796665"><ele>418.7142857142857</ele><time>2026-03-22T08:29:47.891Z</time></trkpt><trkpt lat="44.5049265" lon="10.6795735"><ele>420.57142857142856</ele><time>2026-03-22T08:29:48.897Z</time></trkpt><trkpt lat="44.5049241" lon="10.6794801"><ele>422.42857142857144</ele><time>2026-03-22T08:29:49.914Z</time></trkpt><trkpt lat="44.5049141" lon="10.6793927"><ele>424.2857142857143</ele><time>2026-03-22T08:29:50.894Z</time></trkpt><trkpt lat="44.5048994" lon="10.6793023"><ele>426.14285714285717</ele><time>2026-03-22T08:29:51.9Z</time></trkpt><trkpt lat="44.504878" lon="10.6792142"><ele>428.0</ele><time>2026-03-22T08:29:52.898Z</time></trkpt><trkpt lat="44.5048453" lon="10.6791332"><ele>429.99999999999994</ele><time>2026-03-22T08:29:53.906Z</time></trkpt><trkpt lat="44.5047982" lon="10.6790383"><ele>432.0</ele><time>2026-03-22T08:29:55.903Z</time></trkpt><trkpt lat="44.5048526" lon="10.6789535"><ele>434.0</ele><time>2026-03-22T08:30:06.892Z</time></trkpt><trkpt lat="44.5049189" lon="10.678925"><ele>436.0</ele><time>2026-03-22T08:30:09.9Z</time></trkpt><trkpt lat="44.505009" lon="10.678852"><ele>437.99999999999994</ele><time>2026-03-22T08:30:25.9Z</time></trkpt><trkpt lat="44.5050695" lon="10.6787957"><ele>440.0</ele><time>2026-03-22T08:30:26.906Z</time></trkpt><trkpt lat="44.5051368" lon="10.678722"><ele>439.99999999999994</ele><time>2026-03-22T08:30:27.897Z</time></trkpt><trkpt lat="44.505192" lon="10.6786574"><ele>440.0</ele><time>2026-03-22T08:30:28.896Z</time></trkpt><trkpt lat="44.5052478" lon="10.678566"><ele>440.0</ele><time>2026-03-22T08:30:30.904Z</time></trkpt><trkpt lat="44.5053397" lon="10.6785793"><ele>440.0</ele><time>2026-03-22T08:31:34.905Z</time></trkpt><trkpt lat="44.5052902" lon="10.6786447"><ele>439.99999999999994</ele><time>2026-03-22T08:31:40.906Z</time></trkpt><trkpt lat="44.5052199" lon="10.6787213"><ele>440.0</ele><time>2026-03-22T08:31:44.902Z</time></trkpt><trkpt lat="44.5051495" lon="10.6787939"><ele>439.99999999999994</ele><time>2026-03-22T08:31:48.903Z</time></trkpt><trkpt lat="44.5050879" lon="10.6788382"><ele>440.0</ele><time>2026-03-22T08:31:50.899Z</time></trkpt><trkpt lat="44.5050298" lon="10.6788764"><ele>440.0</ele><time>2026-03-22T08:31:52.909Z</time></trkpt><trkpt lat="44.5049525" lon="10.678908"><ele>440.0</ele><time>2026-03-22T08:31:54.896Z</time></trkpt><trkpt lat="44.5048849" lon="10.6789465"><ele>440.0</ele><time>2026-03-22T08:31:56.911Z</time></trkpt><trkpt lat="44.5048267" lon="10.6789802"><ele>439.99999999999994</ele><time>2026-03-22T08:31:58.906Z</time></trkpt><trkpt lat="44.5047452" lon="10.6789454"><ele>440.0</ele><time>2026-03-22T08:32:01.899Z</time></trkpt><trkpt lat="44.5047135" lon="10.678858"><ele>440.0</ele><time>2026-03-22T08:32:03.896Z</time></trkpt><trkpt lat="44.5046543" lon="10.6787333"><ele>440.0</ele><time>2026-03-22T08:32:05.894Z</time></trkpt><trkpt lat="44.5045947" lon="10.6786161"><ele>440.0</ele><time>2026-03-22T08:32:07.908Z</time></trkpt><trkpt lat="44.5045411" lon="10.6785103"><ele>440.0</ele><time>2026-03-22T08:32:09.895Z</time></trkpt><trkpt lat="44.5045219" lon="10.6783724"><ele>440.0</ele><time>2026-03-22T08:32:11.891Z</time></trkpt><trkpt lat="44.5045503" lon="10.67823"><ele>437.3333333333333</ele><time>2026-03-22T08:32:13.892Z</time></trkpt><trkpt lat="44.5045498" lon="10.6780718"><ele>434.66666666666663</ele><time>2026-03-22T08:32:15.894Z</time></trkpt><trkpt lat="44.5045052" lon="10.6779489"><ele>432.0</ele><time>2026-03-22T08:32:17.898Z</time></trkpt><trkpt lat="44.504467" lon="10.6778592"><ele>429.33333333333337</ele><time>2026-03-22T08:32:19.906Z</time></trkpt><trkpt lat="44.504453" lon="10.6777597"><ele>426.6666666666667</ele><time>2026-03-22T08:32:21.902Z</time></trkpt><trkpt lat="44.5044857" lon="10.6776445"><ele>424.0</ele><time>2026-03-22T08:32:23.891Z</time></trkpt><trkpt lat="44.504535" lon="10.6775176"><ele>423.33333333333337</ele><time>2026-03-22T08:32:25.902Z</time></trkpt><trkpt lat="44.504567" lon="10.6774356"><ele>422.6666666666667</ele><time>2026-03-22T08:32:26.889Z</time></trkpt><trkpt lat="44.5046166" lon="10.6772969"><ele>422.0</ele><time>2026-03-22T08:32:28.902Z</time></trkpt><trkpt lat="44.5046472" lon="10.6771768"><ele>421.33333333333337</ele><time>2026-03-22T08:32:30.922Z</time></trkpt><trkpt lat="44.5046701" lon="10.6770709"><ele>420.6666666666667</ele><time>2026-03-22T08:32:32.898Z</time></trkpt><trkpt lat="44.504692" lon="10.6769856"><ele>420.0</ele><time>2026-03-22T08:32:34.896Z</time></trkpt><trkpt lat="44.5047755" lon="10.6769099"><ele>420.0</ele><time>2026-03-22T08:32:37.904Z</time></trkpt><trkpt lat="44.5048932" lon="10.6768962"><ele>420.0</ele><time>2026-03-22T08:32:39.9Z</time></trkpt><trkpt lat="44.5050088" lon="10.6769205"><ele>420.0</ele><time>2026-03-22T08:32:41.898Z</time></trkpt><trkpt lat="44.5051286" lon="10.6770074"><ele>420.0</ele><time>2026-03-22T08:32:43.905Z</time></trkpt><trkpt lat="44.5051961" lon="10.6770706"><ele>422.8333333333333</ele><time>2026-03-22T08:32:44.9Z</time></trkpt><trkpt lat="44.5052652" lon="10.6771417"><ele>425.66666666666663</ele><time>2026-03-22T08:32:45.925Z</time></trkpt><trkpt lat="44.5053306" lon="10.6772094"><ele>428.5</ele><time>2026-03-22T08:32:46.895Z</time></trkpt><trkpt lat="44.5053894" lon="10.6772701"><ele>431.3333333333333</ele><time>2026-03-22T08:32:47.892Z</time></trkpt><trkpt lat="44.505443" lon="10.6773362"><ele>434.16666666666663</ele><time>2026-03-22T08:32:48.898Z</time></trkpt><trkpt lat="44.5054949" lon="10.677402"><ele>437.0</ele><time>2026-03-22T08:32:49.894Z</time></trkpt><trkpt lat="44.5055431" lon="10.6774699"><ele>437.3333333333333</ele><time>2026-03-22T08:32:50.897Z</time></trkpt><trkpt lat="44.5055854" lon="10.6775598"><ele>437.66666666666663</ele><time>2026-03-22T08:32:51.899Z</time></trkpt><trkpt lat="44.5056133" lon="10.6776509"><ele>438.0</ele><time>2026-03-22T08:32:52.894Z</time></trkpt><trkpt lat="44.505672" lon="10.6777731"><ele>438.33333333333337</ele><time>2026-03-22T08:32:54.896Z</time></trkpt><trkpt lat="44.5057519" lon="10.6778254"><ele>438.6666666666667</ele><time>2026-03-22T08:32:56.905Z</time></trkpt><trkpt lat="44.5058132" lon="10.6777946"><ele>439.0</ele><time>2026-03-22T08:32:57.918Z</time></trkpt><trkpt lat="44.5058817" lon="10.6777348"><ele>439.6666666666667</ele><time>2026-03-22T08:32:58.905Z</time></trkpt><trkpt lat="44.5059533" lon="10.6776608"><ele>440.33333333333337</ele><time>2026-03-22T08:32:59.906Z</time></trkpt><trkpt lat="44.5060119" lon="10.6775956"><ele>441.0</ele><time>2026-03-22T08:33:00.909Z</time></trkpt><trkpt lat="44.5060657" lon="10.6775334"><ele>441.66666666666663</ele><time>2026-03-22T08:33:01.901Z</time></trkpt><trkpt lat="44.506111" lon="10.6774689"><ele>442.3333333333333</ele><time>2026-03-22T08:33:02.902Z</time></trkpt><trkpt lat="44.5061884" lon="10.6773369"><ele>443.0</ele><time>2026-03-22T08:33:04.904Z</time></trkpt><trkpt lat="44.5062478" lon="10.6772038"><ele>442.2</ele><time>2026-03-22T08:33:06.912Z</time></trkpt><trkpt lat="44.5063017" lon="10.6770569"><ele>441.4</ele><time>2026-03-22T08:33:08.919Z</time></trkpt><trkpt lat="44.5063404" lon="10.6768912"><ele>440.59999999999997</ele><time>2026-03-22T08:33:10.893Z</time></trkpt><trkpt lat="44.5063395" lon="10.6767928"><ele>439.79999999999995</ele><time>2026-03-22T08:33:11.908Z</time></trkpt><trkpt lat="44.5063365" lon="10.6766841"><ele>439.0</ele><time>2026-03-22T08:33:12.901Z</time></trkpt><trkpt lat="44.5063339" lon="10.6765768"><ele>439.00000000000006</ele><time>2026-03-22T08:33:13.898Z</time></trkpt><trkpt lat="44.5063299" lon="10.6764683"><ele>439.0</ele><time>2026-03-22T08:33:14.905Z</time></trkpt><trkpt lat="44.5063271" lon="10.6763648"><ele>439.0</ele><time>2026-03-22T08:33:15.906Z</time></trkpt><trkpt lat="44.5063412" lon="10.6762562"><ele>439.0</ele><time>2026-03-22T08:33:16.902Z</time></trkpt><trkpt lat="44.5063528" lon="10.6761469"><ele>439.00000000000006</ele><time>2026-03-22T08:33:17.901Z</time></trkpt><trkpt lat="44.5063584" lon="10.6760425"><ele>439.0</ele><time>2026-03-22T08:33:18.905Z</time></trkpt><trkpt lat="44.506364" lon="10.6759388"><ele>440.1666666666667</ele><time>2026-03-22T08:33:19.906Z</time></trkpt><trkpt lat="44.5063619" lon="10.6758394"><ele>441.33333333333337</ele><time>2026-03-22T08:33:20.909Z</time></trkpt><trkpt lat="44.5063514" lon="10.6756946"><ele>442.5</ele><time>2026-03-22T08:33:22.895Z</time></trkpt><trkpt lat="44.5063697" lon="10.6755988"><ele>443.66666666666663</ele><time>2026-03-22T08:33:24.896Z</time></trkpt><trkpt lat="44.5064375" lon="10.6755577"><ele>444.8333333333333</ele><time>2026-03-22T08:33:26.898Z</time></trkpt><trkpt lat="44.5065147" lon="10.6755822"><ele>446.0</ele><time>2026-03-22T08:33:27.897Z</time></trkpt><trkpt lat="44.5065949" lon="10.6756088"><ele>446.0</ele><time>2026-03-22T08:33:28.898Z</time></trkpt><trkpt lat="44.5066736" lon="10.6756279"><ele>446.0</ele><time>2026-03-22T08:33:29.893Z</time></trkpt><trkpt lat="44.5067524" lon="10.6756479"><ele>446.0</ele><time>2026-03-22T08:33:30.895Z</time></trkpt><trkpt lat="44.50683" lon="10.6756654"><ele>446.0</ele><time>2026-03-22T08:33:31.894Z</time></trkpt><trkpt lat="44.506907" lon="10.6756822"><ele>446.0</ele><time>2026-03-22T08:33:32.902Z</time></trkpt><trkpt lat="44.5069752" lon="10.6756908"><ele>446.0</ele><time>2026-03-22T08:33:33.906Z</time></trkpt><trkpt lat="44.5070383" lon="10.6756915"><ele>446.0</ele><time>2026-03-22T08:33:34.896Z</time></trkpt><trkpt lat="44.5071552" lon="10.675655"><ele>443.99999999999994</ele><time>2026-03-22T08:33:36.889Z</time></trkpt><trkpt lat="44.5072682" lon="10.675579"><ele>442.0</ele><time>2026-03-22T08:33:38.893Z</time></trkpt><trkpt lat="44.5073295" lon="10.6755396"><ele>440.0</ele><time>2026-03-22T08:33:39.906Z</time></trkpt><trkpt lat="44.5073953" lon="10.6754991"><ele>438.0</ele><time>2026-03-22T08:33:40.898Z</time></trkpt><trkpt lat="44.5074633" lon="10.6754574"><ele>435.99999999999994</ele><time>2026-03-22T08:33:41.903Z</time></trkpt><trkpt lat="44.5075247" lon="10.6754191"><ele>434.0</ele><time>2026-03-22T08:33:42.894Z</time></trkpt><trkpt lat="44.5076277" lon="10.6753319"><ele>433.4</ele><time>2026-03-22T08:33:44.911Z</time></trkpt><trkpt lat="44.5077163" lon="10.6752232"><ele>432.79999999999995</ele><time>2026-03-22T08:33:46.897Z</time></trkpt><trkpt lat="44.5078088" lon="10.6751021"><ele>432.20000000000005</ele><time>2026-03-22T08:33:48.901Z</time></trkpt><trkpt lat="44.5079005" lon="10.674989"><ele>431.6</ele><time>2026-03-22T08:33:50.9Z</time></trkpt><trkpt lat="44.50796" lon="10.6749205"><ele>431.0</ele><time>2026-03-22T08:33:51.9Z</time></trkpt><trkpt lat="44.5080188" lon="10.674834"><ele>430.8333333333333</ele><time>2026-03-22T08:33:52.898Z</time></trkpt><trkpt lat="44.5080734" lon="10.6747409"><ele>430.66666666666663</ele><time>2026-03-22T08:33:53.899Z</time></trkpt><trkpt lat="44.5081195" lon="10.6746514"><ele>430.5</ele><time>2026-03-22T08:33:54.919Z</time></trkpt><trkpt lat="44.5081611" lon="10.6745523"><ele>430.33333333333337</ele><time>2026-03-22T08:33:55.901Z</time></trkpt><trkpt lat="44.5081977" lon="10.6744577"><ele>430.1666666666667</ele><time>2026-03-22T08:33:56.901Z</time></trkpt><trkpt lat="44.5082338" lon="10.6743663"><ele>430.0</ele><time>2026-03-22T08:33:57.896Z</time></trkpt><trkpt lat="44.5082681" lon="10.6742776"><ele>430.83333333333337</ele><time>2026-03-22T08:33:58.898Z</time></trkpt><trkpt lat="44.508308" lon="10.6741947"><ele>431.6666666666667</ele><time>2026-03-22T08:33:59.894Z</time></trkpt><trkpt lat="44.5083411" lon="10.6741104"><ele>432.5</ele><time>2026-03-22T08:34:00.897Z</time></trkpt><trkpt lat="44.5083664" lon="10.6740259"><ele>433.33333333333337</ele><time>2026-03-22T08:34:01.902Z</time></trkpt><trkpt lat="44.5083946" lon="10.6738636"><ele>434.1666666666667</ele><time>2026-03-22T08:34:03.92Z</time></trkpt><trkpt lat="44.5083961" lon="10.6737205"><ele>435.0</ele><time>2026-03-22T08:34:05.902Z</time></trkpt><trkpt lat="44.5084097" lon="10.6735907"><ele>433.0</ele><time>2026-03-22T08:34:07.894Z</time></trkpt><trkpt lat="44.5084306" lon="10.6734699"><ele>431.0</ele><time>2026-03-22T08:34:09.896Z</time></trkpt><trkpt lat="44.5084435" lon="10.6733353"><ele>429.0</ele><time>2026-03-22T08:34:11.904Z</time></trkpt><trkpt lat="44.5084905" lon="10.6731949"><ele>427.0</ele><time>2026-03-22T08:34:13.892Z</time></trkpt><trkpt lat="44.5085529" lon="10.6730686"><ele>425.0</ele><time>2026-03-22T08:34:15.9Z</time></trkpt><trkpt lat="44.5086305" lon="10.6729446"><ele>424.99999999999994</ele><time>2026-03-22T08:34:17.909Z</time></trkpt><trkpt lat="44.5087147" lon="10.6728164"><ele>425.0</ele><time>2026-03-22T08:34:19.901Z</time></trkpt><trkpt lat="44.5087648" lon="10.6727528"><ele>425.0</ele><time>2026-03-22T08:34:20.893Z</time></trkpt><trkpt lat="44.5088194" lon="10.6726928"><ele>425.0</ele><time>2026-03-22T08:34:21.902Z</time></trkpt><trkpt lat="44.5089069" lon="10.6726099"><ele>424.99999999999994</ele><time>2026-03-22T08:34:23.918Z</time></trkpt><trkpt lat="44.5089806" lon="10.6725599"><ele>425.0</ele><time>2026-03-22T08:34:25.897Z</time></trkpt><trkpt lat="44.5090513" lon="10.6725313"><ele>422.8333333333333</ele><time>2026-03-22T08:34:27.91Z</time></trkpt><trkpt lat="44.509154" lon="10.6725048"><ele>420.66666666666663</ele><time>2026-03-22T08:34:29.906Z</time></trkpt><trkpt lat="44.5092694" lon="10.6724539"><ele>418.5</ele><time>2026-03-22T08:34:31.907Z</time></trkpt><trkpt lat="44.5093329" lon="10.6724193"><ele>416.33333333333337</ele><time>2026-03-22T08:34:32.894Z</time></trkpt><trkpt lat="44.5093951" lon="10.6723857"><ele>414.1666666666667</ele><time>2026-03-22T08:34:33.902Z</time></trkpt><trkpt lat="44.5094546" lon="10.6723547"><ele>412.0</ele><time>2026-03-22T08:34:34.893Z</time></trkpt><trkpt lat="44.5095639" lon="10.6723217"><ele>409.20000000000005</ele><time>2026-03-22T08:34:36.906Z</time></trkpt><trkpt lat="44.5096708" lon="10.6723188"><ele>406.4</ele><time>2026-03-22T08:34:38.904Z</time></trkpt><trkpt lat="44.5097805" lon="10.6723272"><ele>403.6</ele><time>2026-03-22T08:34:40.93Z</time></trkpt><trkpt lat="44.5098835" lon="10.6723321"><ele>400.79999999999995</ele><time>2026-03-22T08:34:42.903Z</time></trkpt><trkpt lat="44.5099818" lon="10.6723125"><ele>398.0</ele><time>2026-03-22T08:34:44.903Z</time></trkpt><trkpt lat="44.5100695" lon="10.6722854"><ele>398.0</ele><time>2026-03-22T08:34:46.904Z</time></trkpt><trkpt lat="44.5101545" lon="10.6722559"><ele>398.0</ele><time>2026-03-22T08:34:48.892Z</time></trkpt><trkpt lat="44.5102409" lon="10.6722014"><ele>398.0</ele><time>2026-03-22T08:34:50.896Z</time></trkpt><trkpt lat="44.5103186" lon="10.6720947"><ele>398.0</ele><time>2026-03-22T08:34:52.895Z</time></trkpt><trkpt lat="44.5103585" lon="10.6719429"><ele>398.0</ele><time>2026-03-22T08:34:54.91Z</time></trkpt><trkpt lat="44.5103767" lon="10.6717728"><ele>395.4</ele><time>2026-03-22T08:34:56.922Z</time></trkpt><trkpt lat="44.5103841" lon="10.6715907"><ele>392.79999999999995</ele><time>2026-03-22T08:34:58.897Z</time></trkpt><trkpt lat="44.5103746" lon="10.6714148"><ele>390.2</ele><time>2026-03-22T08:35:00.897Z</time></trkpt><trkpt lat="44.5103706" lon="10.6713196"><ele>387.6</ele><time>2026-03-22T08:35:01.906Z</time></trkpt><trkpt lat="44.5103789" lon="10.671223"><ele>385.0</ele><time>2026-03-22T08:35:02.898Z</time></trkpt><trkpt lat="44.5103864" lon="10.6711272"><ele>382.6666666666667</ele><time>2026-03-22T08:35:03.904Z</time></trkpt><trkpt lat="44.5104038" lon="10.6710316"><ele>380.33333333333337</ele><time>2026-03-22T08:35:04.895Z</time></trkpt><trkpt lat="44.5104216" lon="10.6709446"><ele>378.0</ele><time>2026-03-22T08:35:05.908Z</time></trkpt><trkpt lat="44.5104462" lon="10.670794"><ele>375.6666666666667</ele><time>2026-03-22T08:35:07.903Z</time></trkpt><trkpt lat="44.51045" lon="10.6706622"><ele>373.33333333333337</ele><time>2026-03-22T08:35:09.901Z</time></trkpt><trkpt lat="44.5104549" lon="10.6705337"><ele>371.0</ele><time>2026-03-22T08:35:11.906Z</time></trkpt><trkpt lat="44.5104687" lon="10.6704002"><ele>370.4</ele><time>2026-03-22T08:35:13.902Z</time></trkpt><trkpt lat="44.5104994" lon="10.6702444"><ele>369.8</ele><time>2026-03-22T08:35:15.903Z</time></trkpt><trkpt lat="44.5105287" lon="10.6700709"><ele>369.2</ele><time>2026-03-22T08:35:17.895Z</time></trkpt><trkpt lat="44.5105363" lon="10.6699804"><ele>368.59999999999997</ele><time>2026-03-22T08:35:18.901Z</time></trkpt><trkpt lat="44.5105566" lon="10.6698126"><ele>368.0</ele><time>2026-03-22T08:35:20.903Z</time></trkpt><trkpt lat="44.5105776" lon="10.6696402"><ele>368.0</ele><time>2026-03-22T08:35:22.894Z</time></trkpt><trkpt lat="44.5105886" lon="10.6695444"><ele>368.0</ele><time>2026-03-22T08:35:23.905Z</time></trkpt><trkpt lat="44.5106021" lon="10.6694468"><ele>368.0</ele><time>2026-03-22T08:35:24.897Z</time></trkpt><trkpt lat="44.510615" lon="10.6693596"><ele>368.0</ele><time>2026-03-22T08:35:25.901Z</time></trkpt><trkpt lat="44.5106404" lon="10.669193"><ele>368.0</ele><time>2026-03-22T08:35:27.899Z</time></trkpt><trkpt lat="44.510631" lon="10.6691023"><ele>368.0</ele><time>2026-03-22T08:35:28.893Z</time></trkpt><trkpt lat="44.5106139" lon="10.6690017"><ele>367.0</ele><time>2026-03-22T08:35:29.898Z</time></trkpt><trkpt lat="44.5105957" lon="10.6688949"><ele>366.0</ele><time>2026-03-22T08:35:30.893Z</time></trkpt><trkpt lat="44.510561" lon="10.6687906"><ele>365.0</ele><time>2026-03-22T08:35:31.891Z</time></trkpt><trkpt lat="44.5105307" lon="10.6686638"><ele>364.0</ele><time>2026-03-22T08:35:32.906Z</time></trkpt><trkpt lat="44.5104996" lon="10.6685351"><ele>363.0</ele><time>2026-03-22T08:35:33.897Z</time></trkpt><trkpt lat="44.5104696" lon="10.6684094"><ele>362.0</ele><time>2026-03-22T08:35:34.896Z</time></trkpt><trkpt lat="44.5104553" lon="10.6682958"><ele>360.1666666666667</ele><time>2026-03-22T08:35:35.893Z</time></trkpt><trkpt lat="44.510444" lon="10.6681818"><ele>358.33333333333337</ele><time>2026-03-22T08:35:36.893Z</time></trkpt><trkpt lat="44.5104341" lon="10.6680649"><ele>356.5</ele><time>2026-03-22T08:35:37.901Z</time></trkpt><trkpt lat="44.5104304" lon="10.6679437"><ele>354.6666666666667</ele><time>2026-03-22T08:35:38.896Z</time></trkpt><trkpt lat="44.5104293" lon="10.6678257"><ele>352.8333333333333</ele><time>2026-03-22T08:35:39.896Z</time></trkpt><trkpt lat="44.5104341" lon="10.6677094"><ele>351.0</ele><time>2026-03-22T08:35:40.894Z</time></trkpt><trkpt lat="44.5104403" lon="10.6676031"><ele>349.20000000000005</ele><time>2026-03-22T08:35:41.896Z</time></trkpt><trkpt lat="44.510449" lon="10.6675093"><ele>347.40000000000003</ele><time>2026-03-22T08:35:42.899Z</time></trkpt><trkpt lat="44.5104695" lon="10.6673509"><ele>345.6</ele><time>2026-03-22T08:35:44.921Z</time></trkpt><trkpt lat="44.5105024" lon="10.667174"><ele>343.8</ele><time>2026-03-22T08:35:46.905Z</time></trkpt><trkpt lat="44.5105219" lon="10.6670768"><ele>342.0</ele><time>2026-03-22T08:35:47.893Z</time></trkpt><trkpt lat="44.5105442" lon="10.6669825"><ele>341.2857142857143</ele><time>2026-03-22T08:35:48.905Z</time></trkpt><trkpt lat="44.5105682" lon="10.6668863"><ele>340.57142857142856</ele><time>2026-03-22T08:35:49.9Z</time></trkpt><trkpt lat="44.5105935" lon="10.6667887"><ele>339.8571428571429</ele><time>2026-03-22T08:35:50.903Z</time></trkpt><trkpt lat="44.5106214" lon="10.6666924"><ele>339.1428571428571</ele><time>2026-03-22T08:35:51.889Z</time></trkpt><trkpt lat="44.5106502" lon="10.6665953"><ele>338.42857142857144</ele><time>2026-03-22T08:35:52.898Z</time></trkpt><trkpt lat="44.5106807" lon="10.6665016"><ele>337.7142857142857</ele><time>2026-03-22T08:35:53.895Z</time></trkpt><trkpt lat="44.5107122" lon="10.6664127"><ele>337.0</ele><time>2026-03-22T08:35:54.906Z</time></trkpt><trkpt lat="44.5107475" lon="10.6663212"><ele>337.0</ele><time>2026-03-22T08:35:55.893Z</time></trkpt><trkpt lat="44.5107874" lon="10.666227"><ele>337.0</ele><time>2026-03-22T08:35:56.905Z</time></trkpt><trkpt lat="44.5108291" lon="10.6661323"><ele>337.0</ele><time>2026-03-22T08:35:57.896Z</time></trkpt><trkpt lat="44.510871" lon="10.6660448"><ele>337.0</ele><time>2026-03-22T08:35:58.904Z</time></trkpt><trkpt lat="44.5109112" lon="10.6659624"><ele>337.0</ele><time>2026-03-22T08:35:59.9Z</time></trkpt><trkpt lat="44.5109627" lon="10.6658245"><ele>337.0</ele><time>2026-03-22T08:36:01.898Z</time></trkpt><trkpt lat="44.5109464" lon="10.6657123"><ele>336.16666666666663</ele><time>2026-03-22T08:36:03.894Z</time></trkpt><trkpt lat="44.5108943" lon="10.6656221"><ele>335.3333333333333</ele><time>2026-03-22T08:36:05.901Z</time></trkpt><trkpt lat="44.51085" lon="10.6655215"><ele>334.5</ele><time>2026-03-22T08:36:07.898Z</time></trkpt><trkpt lat="44.5108153" lon="10.6654091"><ele>333.6666666666667</ele><time>2026-03-22T08:36:09.898Z</time></trkpt><trkpt lat="44.5107706" lon="10.6652656"><ele>332.83333333333337</ele><time>2026-03-22T08:36:11.9Z</time></trkpt><trkpt lat="44.5107453" lon="10.6651821"><ele>332.0</ele><time>2026-03-22T08:36:12.903Z</time></trkpt><trkpt lat="44.5107047" lon="10.6650267"><ele>329.6</ele><time>2026-03-22T08:36:14.897Z</time></trkpt><trkpt lat="44.5106823" lon="10.6648905"><ele>327.20000000000005</ele><time>2026-03-22T08:36:16.914Z</time></trkpt><trkpt lat="44.5106652" lon="10.6647521"><ele>324.8</ele><time>2026-03-22T08:36:18.895Z</time></trkpt><trkpt lat="44.5106424" lon="10.6646176"><ele>322.4</ele><time>2026-03-22T08:36:20.906Z</time></trkpt><trkpt lat="44.5106074" lon="10.6644871"><ele>320.0</ele><time>2026-03-22T08:36:22.901Z</time></trkpt><trkpt lat="44.5105582" lon="10.6643605"><ele>316.83333333333337</ele><time>2026-03-22T08:36:24.904Z</time></trkpt><trkpt lat="44.5105121" lon="10.6642283"><ele>313.6666666666667</ele><time>2026-03-22T08:36:26.902Z</time></trkpt><trkpt lat="44.5104825" lon="10.6640992"><ele>310.5</ele><time>2026-03-22T08:36:28.902Z</time></trkpt><trkpt lat="44.5104485" lon="10.6639629"><ele>307.3333333333333</ele><time>2026-03-22T08:36:30.9Z</time></trkpt><trkpt lat="44.5104232" lon="10.6638741"><ele>304.16666666666663</ele><time>2026-03-22T08:36:31.895Z</time></trkpt><trkpt lat="44.510394" lon="10.6637789"><ele>301.0</ele><time>2026-03-22T08:36:32.892Z</time></trkpt><trkpt lat="44.5103557" lon="10.6636782"><ele>298.2</ele><time>2026-03-22T08:36:33.899Z</time></trkpt><trkpt lat="44.5103233" lon="10.6635883"><ele>295.40000000000003</ele><time>2026-03-22T08:36:34.901Z</time></trkpt><trkpt lat="44.5102941" lon="10.6635096"><ele>292.6</ele><time>2026-03-22T08:36:35.893Z</time></trkpt><trkpt lat="44.5102406" lon="10.6633584"><ele>289.8</ele><time>2026-03-22T08:36:37.899Z</time></trkpt><trkpt lat="44.5101907" lon="10.6632154"><ele>287.0</ele><time>2026-03-22T08:36:39.892Z</time></trkpt><trkpt lat="44.5101531" lon="10.6631073"><ele>287.0</ele><time>2026-03-22T08:36:41.898Z</time></trkpt><trkpt lat="44.5101278" lon="10.6630013"><ele>287.0</ele><time>2026-03-22T08:36:43.902Z</time></trkpt><trkpt lat="44.5101057" lon="10.6628996"><ele>287.0</ele><time>2026-03-22T08:36:45.892Z</time></trkpt><trkpt lat="44.5100835" lon="10.6628075"><ele>287.0</ele><time>2026-03-22T08:36:47.902Z</time></trkpt><trkpt lat="44.5100319" lon="10.6627003"><ele>287.0</ele><time>2026-03-22T08:36:50.893Z</time></trkpt><trkpt lat="44.509987" lon="10.6626134"><ele>287.0</ele><time>2026-03-22T08:36:52.901Z</time></trkpt><trkpt lat="44.5099883" lon="10.6625115"><ele>285.57142857142856</ele><time>2026-03-22T08:36:55.896Z</time></trkpt><trkpt lat="44.5100606" lon="10.6624914"><ele>284.1428571428571</ele><time>2026-03-22T08:36:59.917Z</time></trkpt><trkpt lat="44.510121" lon="10.662444"><ele>282.7142857142857</ele><time>2026-03-22T08:37:03.911Z</time></trkpt><trkpt lat="44.5101735" lon="10.6623948"><ele>281.2857142857143</ele><time>2026-03-22T08:37:06.896Z</time></trkpt><trkpt lat="44.5102419" lon="10.6623547"><ele>279.85714285714283</ele><time>2026-03-22T08:37:09.899Z</time></trkpt><trkpt lat="44.5103018" lon="10.6622803"><ele>278.42857142857144</ele><time>2026-03-22T08:37:12.895Z</time></trkpt><trkpt lat="44.5103533" lon="10.6622039"><ele>277.0</ele><time>2026-03-22T08:37:15.903Z</time></trkpt><trkpt lat="44.5103943" lon="10.6621312"><ele>275.3333333333333</ele><time>2026-03-22T08:37:18.9Z</time></trkpt><trkpt lat="44.510418" lon="10.6620487"><ele>273.66666666666663</ele><time>2026-03-22T08:37:22.891Z</time></trkpt><trkpt lat="44.5104292" lon="10.6619444"><ele>272.0</ele><time>2026-03-22T08:37:24.901Z</time></trkpt><trkpt lat="44.5104315" lon="10.6618481"><ele>270.3333333333333</ele><time>2026-03-22T08:37:26.894Z</time></trkpt><trkpt lat="44.5104414" lon="10.6617342"><ele>268.6666666666667</ele><time>2026-03-22T08:37:29.895Z</time></trkpt><trkpt lat="44.5104907" lon="10.6616746"><ele>267.0</ele><time>2026-03-22T08:37:32.9Z</time></trkpt><trkpt lat="44.5105353" lon="10.6615559"><ele>264.7142857142857</ele><time>2026-03-22T08:37:35.901Z</time></trkpt><trkpt lat="44.5105478" lon="10.6614244"><ele>262.42857142857144</ele><time>2026-03-22T08:37:37.898Z</time></trkpt><trkpt lat="44.5105463" lon="10.6613224"><ele>260.1428571428571</ele><time>2026-03-22T08:37:39.902Z</time></trkpt><trkpt lat="44.510545" lon="10.6612238"><ele>257.8571428571429</ele><time>2026-03-22T08:37:41.905Z</time></trkpt><trkpt lat="44.5105555" lon="10.6611323"><ele>255.57142857142856</ele><time>2026-03-22T08:37:43.9Z</time></trkpt><trkpt lat="44.5105923" lon="10.6610464"><ele>253.28571428571425</ele><time>2026-03-22T08:37:46.898Z</time></trkpt><trkpt lat="44.5106496" lon="10.6609919"><ele>250.99999999999997</ele><time>2026-03-22T08:37:51.902Z</time></trkpt><trkpt lat="44.5107024" lon="10.6609422"><ele>249.16666666666669</ele><time>2026-03-22T08:37:58.894Z</time></trkpt><trkpt lat="44.5107817" lon="10.6609267"><ele>247.33333333333334</ele><time>2026-03-22T08:38:04.904Z</time></trkpt><trkpt lat="44.5108561" lon="10.6609007"><ele>245.5</ele><time>2026-03-22T08:38:08.898Z</time></trkpt><trkpt lat="44.5109065" lon="10.6608398"><ele>243.66666666666669</ele><time>2026-03-22T08:38:10.901Z</time></trkpt><trkpt lat="44.5109637" lon="10.6607637"><ele>241.83333333333334</ele><time>2026-03-22T08:38:47.9Z</time></trkpt><trkpt lat="44.5110256" lon="10.6607206"><ele>240.0</ele><time>2026-03-22T08:38:49.895Z</time></trkpt><trkpt lat="44.5110944" lon="10.6606335"><ele>240.0</ele><time>2026-03-22T08:38:51.909Z</time></trkpt><trkpt lat="44.5111899" lon="10.660536"><ele>240.0</ele><time>2026-03-22T08:38:53.904Z</time></trkpt><trkpt lat="44.5112977" lon="10.6604823"><ele>240.0</ele><time>2026-03-22T08:38:55.9Z</time></trkpt><trkpt lat="44.5113933" lon="10.6604279"><ele>240.0</ele><time>2026-03-22T08:38:57.905Z</time></trkpt><trkpt lat="44.5114879" lon="10.660362"><ele>240.0</ele><time>2026-03-22T08:38:59.901Z</time></trkpt><trkpt lat="44.5115654" lon="10.6603355"><ele>239.66666666666666</ele><time>2026-03-22T08:39:01.903Z</time></trkpt><trkpt lat="44.5116444" lon="10.6603168"><ele>239.33333333333331</ele><time>2026-03-22T08:39:03.905Z</time></trkpt><trkpt lat="44.5117124" lon="10.6602952"><ele>239.0</ele><time>2026-03-22T08:39:05.899Z</time></trkpt><trkpt lat="44.5118019" lon="10.6602739"><ele>238.66666666666666</ele><time>2026-03-22T08:39:08.914Z</time></trkpt><trkpt lat="44.5118769" lon="10.6602414"><ele>238.33333333333331</ele><time>2026-03-22T08:39:14.91Z</time></trkpt><trkpt lat="44.511943" lon="10.6601735"><ele>238.0</ele><time>2026-03-22T08:39:16.899Z</time></trkpt><trkpt lat="44.512007" lon="10.660077"><ele>237.60000000000002</ele><time>2026-03-22T08:39:18.9Z</time></trkpt><trkpt lat="44.5120413" lon="10.659943"><ele>237.20000000000002</ele><time>2026-03-22T08:39:20.896Z</time></trkpt><trkpt lat="44.5120615" lon="10.6597883"><ele>236.8</ele><time>2026-03-22T08:39:22.896Z</time></trkpt><trkpt lat="44.5121177" lon="10.6596536"><ele>236.4</ele><time>2026-03-22T08:39:24.902Z</time></trkpt><trkpt lat="44.5121837" lon="10.6595545"><ele>236.0</ele><time>2026-03-22T08:39:26.912Z</time></trkpt><trkpt lat="44.5122312" lon="10.6594501"><ele>234.50000000000003</ele><time>2026-03-22T08:39:28.901Z</time></trkpt><trkpt lat="44.5122817" lon="10.6593286"><ele>233.0</ele><time>2026-03-22T08:39:30.897Z</time></trkpt><trkpt lat="44.5123353" lon="10.6592752"><ele>231.5</ele><time>2026-03-22T08:39:33.899Z</time></trkpt><trkpt lat="44.5123908" lon="10.6592323"><ele>230.0</ele><time>2026-03-22T08:39:46.911Z</time></trkpt><trkpt lat="44.5124526" lon="10.6591732"><ele>228.50000000000003</ele><time>2026-03-22T08:39:52.901Z</time></trkpt><trkpt lat="44.512508" lon="10.6591153"><ele>227.0</ele><time>2026-03-22T08:39:54.901Z</time></trkpt><trkpt lat="44.5125919" lon="10.659047"><ele>227.0</ele><time>2026-03-22T08:41:32.898Z</time></trkpt><trkpt lat="44.5126894" lon="10.6590506"><ele>227.0</ele><time>2026-03-22T08:41:34.895Z</time></trkpt><trkpt lat="44.5127884" lon="10.6590764"><ele>227.0</ele><time>2026-03-22T08:41:36.903Z</time></trkpt><trkpt lat="44.5128906" lon="10.6591048"><ele>227.0</ele><time>2026-03-22T08:41:38.897Z</time></trkpt><trkpt lat="44.5129821" lon="10.6591281"><ele>227.0</ele><time>2026-03-22T08:41:40.899Z</time></trkpt><trkpt lat="44.513098" lon="10.6591246"><ele>226.50000000000003</ele><time>2026-03-22T08:41:42.899Z</time></trkpt><trkpt lat="44.5131672" lon="10.6590932"><ele>226.0</ele><time>2026-03-22T08:41:43.893Z</time></trkpt><trkpt lat="44.5132368" lon="10.6590653"><ele>225.5</ele><time>2026-03-22T08:41:44.898Z</time></trkpt><trkpt lat="44.5133067" lon="10.6590459"><ele>225.0</ele><time>2026-03-22T08:41:45.899Z</time></trkpt><trkpt lat="44.5134231" lon="10.6590178"><ele>224.50000000000003</ele><time>2026-03-22T08:41:47.902Z</time></trkpt><trkpt lat="44.5135216" lon="10.6589871"><ele>224.0</ele><time>2026-03-22T08:41:49.901Z</time></trkpt><trkpt lat="44.5136329" lon="10.6589693"><ele>224.00000000000003</ele><time>2026-03-22T08:41:51.901Z</time></trkpt><trkpt lat="44.5136967" lon="10.6589638"><ele>224.0</ele><time>2026-03-22T08:41:52.89Z</time></trkpt><trkpt lat="44.5137694" lon="10.6589792"><ele>224.0</ele><time>2026-03-22T08:41:53.9Z</time></trkpt><trkpt lat="44.5138424" lon="10.6589933"><ele>224.0</ele><time>2026-03-22T08:41:54.904Z</time></trkpt><trkpt lat="44.5139317" lon="10.6590054"><ele>224.00000000000003</ele><time>2026-03-22T08:41:55.898Z</time></trkpt><trkpt lat="44.5140336" lon="10.6589986"><ele>224.0</ele><time>2026-03-22T08:41:56.922Z</time></trkpt><trkpt lat="44.5141328" lon="10.6589931"><ele>223.33333333333334</ele><time>2026-03-22T08:41:57.896Z</time></trkpt><trkpt lat="44.5142294" lon="10.6589869"><ele>222.66666666666669</ele><time>2026-03-22T08:41:58.898Z</time></trkpt><trkpt lat="44.5143172" lon="10.6589858"><ele>222.0</ele><time>2026-03-22T08:41:59.896Z</time></trkpt><trkpt lat="44.5143868" lon="10.6589949"><ele>221.33333333333331</ele><time>2026-03-22T08:42:00.89Z</time></trkpt><trkpt lat="44.5144474" lon="10.6590258"><ele>220.66666666666666</ele><time>2026-03-22T08:42:01.908Z</time></trkpt><trkpt lat="44.5145106" lon="10.6590806"><ele>220.0</ele><time>2026-03-22T08:42:02.896Z</time></trkpt><trkpt lat="44.514561" lon="10.659148"><ele>219.66666666666666</ele><time>2026-03-22T08:42:03.897Z</time></trkpt><trkpt lat="44.514625" lon="10.659203"><ele>219.33333333333331</ele><time>2026-03-22T08:42:04.908Z</time></trkpt><trkpt lat="44.5146918" lon="10.6592571"><ele>219.0</ele><time>2026-03-22T08:42:05.896Z</time></trkpt><trkpt lat="44.5147691" lon="10.6592914"><ele>218.66666666666669</ele><time>2026-03-22T08:42:06.917Z</time></trkpt><trkpt lat="44.5148394" lon="10.6593393"><ele>218.33333333333334</ele><time>2026-03-22T08:42:07.894Z</time></trkpt><trkpt lat="44.5149044" lon="10.6593838"><ele>218.0</ele><time>2026-03-22T08:42:08.901Z</time></trkpt><trkpt lat="44.5149662" lon="10.6594654"><ele>218.66666666666669</ele><time>2026-03-22T08:42:09.906Z</time></trkpt><trkpt lat="44.5150391" lon="10.6595492"><ele>219.33333333333334</ele><time>2026-03-22T08:42:10.9Z</time></trkpt><trkpt lat="44.5151074" lon="10.6596277"><ele>220.0</ele><time>2026-03-22T08:42:11.901Z</time></trkpt><trkpt lat="44.5151725" lon="10.6597081"><ele>220.66666666666669</ele><time>2026-03-22T08:42:12.902Z</time></trkpt><trkpt lat="44.5152314" lon="10.659796"><ele>221.33333333333334</ele><time>2026-03-22T08:42:13.898Z</time></trkpt><trkpt lat="44.5152822" lon="10.6598932"><ele>222.0</ele><time>2026-03-22T08:42:14.902Z</time></trkpt><trkpt lat="44.5153187" lon="10.660001"><ele>222.0</ele><time>2026-03-22T08:42:15.898Z</time></trkpt><trkpt lat="44.5153546" lon="10.6601279"><ele>222.0</ele><time>2026-03-22T08:42:16.9Z</time></trkpt><trkpt lat="44.5153904" lon="10.6602661"><ele>222.0</ele><time>2026-03-22T08:42:17.901Z</time></trkpt><trkpt lat="44.5154242" lon="10.6604014"><ele>222.0</ele><time>2026-03-22T08:42:18.898Z</time></trkpt><trkpt lat="44.5154578" lon="10.6605195"><ele>222.0</ele><time>2026-03-22T08:42:19.905Z</time></trkpt><trkpt lat="44.5154884" lon="10.6606155"><ele>220.8</ele><time>2026-03-22T08:42:20.897Z</time></trkpt><trkpt lat="44.5155614" lon="10.6607135"><ele>219.6</ele><time>2026-03-22T08:42:22.897Z</time></trkpt><trkpt lat="44.5156324" lon="10.6607659"><ele>218.40000000000003</ele><time>2026-03-22T08:42:24.914Z</time></trkpt><trkpt lat="44.5156985" lon="10.6608158"><ele>217.20000000000002</ele><time>2026-03-22T08:42:26.892Z</time></trkpt><trkpt lat="44.5158041" lon="10.6609067"><ele>216.0</ele><time>2026-03-22T08:42:28.899Z</time></trkpt><trkpt lat="44.5158843" lon="10.6609677"><ele>216.0</ele><time>2026-03-22T08:42:29.901Z</time></trkpt><trkpt lat="44.5159684" lon="10.6610144"><ele>216.00000000000003</ele><time>2026-03-22T08:42:30.898Z</time></trkpt><trkpt lat="44.5160671" lon="10.6610424"><ele>216.00000000000003</ele><time>2026-03-22T08:42:31.896Z</time></trkpt><trkpt lat="44.516174" lon="10.6610801"><ele>216.0</ele><time>2026-03-22T08:42:32.89Z</time></trkpt><trkpt lat="44.5162572" lon="10.6611179"><ele>216.0</ele><time>2026-03-22T08:42:33.895Z</time></trkpt><trkpt lat="44.5163238" lon="10.6611471"><ele>216.0</ele><time>2026-03-22T08:42:34.89Z</time></trkpt><trkpt lat="44.516427" lon="10.6611985"><ele>216.0</ele><time>2026-03-22T08:42:36.894Z</time></trkpt><trkpt lat="44.5165032" lon="10.6612249"><ele>216.0</ele><time>2026-03-22T08:42:38.901Z</time></trkpt><trkpt lat="44.5165893" lon="10.6611946"><ele>216.0</ele><time>2026-03-22T08:44:19.905Z</time></trkpt><trkpt lat="44.5166306" lon="10.6611251"><ele>216.0</ele><time>2026-03-22T08:44:21.903Z</time></trkpt><trkpt lat="44.5166812" lon="10.6610696"><ele>216.0</ele><time>2026-03-22T08:44:22.903Z</time></trkpt><trkpt lat="44.5167425" lon="10.6610155"><ele>216.0</ele><time>2026-03-22T08:44:23.893Z</time></trkpt><trkpt lat="44.5168053" lon="10.6609602"><ele>216.0</ele><time>2026-03-22T08:44:24.905Z</time></trkpt><trkpt lat="44.5168792" lon="10.6609059"><ele>216.0</ele><time>2026-03-22T08:44:25.9Z</time></trkpt><trkpt lat="44.5169649" lon="10.6608486"><ele>216.0</ele><time>2026-03-22T08:44:26.905Z</time></trkpt><trkpt lat="44.5170521" lon="10.6607863"><ele>216.0</ele><time>2026-03-22T08:44:27.916Z</time></trkpt><trkpt lat="44.5171373" lon="10.6607232"><ele>216.0</ele><time>2026-03-22T08:44:28.895Z</time></trkpt><trkpt lat="44.5172286" lon="10.6606587"><ele>219.25</ele><time>2026-03-22T08:44:29.901Z</time></trkpt><trkpt lat="44.5173283" lon="10.6606206"><ele>222.5</ele><time>2026-03-22T08:44:30.9Z</time></trkpt><trkpt lat="44.5174278" lon="10.6605837"><ele>225.75</ele><time>2026-03-22T08:44:31.909Z</time></trkpt><trkpt lat="44.517546" lon="10.66057"><ele>229.0</ele><time>2026-03-22T08:44:32.898Z</time></trkpt><trkpt lat="44.5176708" lon="10.6605642"><ele>229.0</ele><time>2026-03-22T08:44:33.9Z</time></trkpt><trkpt lat="44.5177891" lon="10.6605538"><ele>228.99999999999997</ele><time>2026-03-22T08:44:34.898Z</time></trkpt><trkpt lat="44.5178874" lon="10.6605351"><ele>228.99999999999997</ele><time>2026-03-22T08:44:35.906Z</time></trkpt><trkpt lat="44.5179876" lon="10.6604867"><ele>229.0</ele><time>2026-03-22T08:44:36.903Z</time></trkpt><trkpt lat="44.5180906" lon="10.6604372"><ele>229.0</ele><time>2026-03-22T08:44:37.903Z</time></trkpt><trkpt lat="44.5181915" lon="10.6603892"><ele>230.39999999999998</ele><time>2026-03-22T08:44:38.904Z</time></trkpt><trkpt lat="44.5182788" lon="10.6603148"><ele>231.79999999999998</ele><time>2026-03-22T08:44:39.904Z</time></trkpt><trkpt lat="44.5183646" lon="10.6602162"><ele>233.20000000000002</ele><time>2026-03-22T08:44:40.91Z</time></trkpt><trkpt lat="44.5184499" lon="10.6601165"><ele>234.60000000000002</ele><time>2026-03-22T08:44:41.901Z</time></trkpt><trkpt lat="44.5185271" lon="10.6600226"><ele>236.0</ele><time>2026-03-22T08:44:42.907Z</time></trkpt><trkpt lat="44.5185968" lon="10.6599329"><ele>238.75</ele><time>2026-03-22T08:44:43.901Z</time></trkpt><trkpt lat="44.5186548" lon="10.6598069"><ele>241.5</ele><time>2026-03-22T08:44:44.901Z</time></trkpt><trkpt lat="44.5187187" lon="10.6596732"><ele>244.25</ele><time>2026-03-22T08:44:45.904Z</time></trkpt><trkpt lat="44.5187649" lon="10.6595248"><ele>247.0</ele><time>2026-03-22T08:44:46.909Z</time></trkpt><trkpt lat="44.5187931" lon="10.659356"><ele>249.75</ele><time>2026-03-22T08:44:47.898Z</time></trkpt><trkpt lat="44.5188216" lon="10.6591866"><ele>252.5</ele><time>2026-03-22T08:44:48.916Z</time></trkpt><trkpt lat="44.5188302" lon="10.658988"><ele>255.25</ele><time>2026-03-22T08:44:49.899Z</time></trkpt><trkpt lat="44.5188405" lon="10.6587929"><ele>258.0</ele><time>2026-03-22T08:44:50.901Z</time></trkpt><trkpt lat="44.5188541" lon="10.6586084"><ele>261.25</ele><time>2026-03-22T08:44:51.898Z</time></trkpt><trkpt lat="44.5188613" lon="10.6584307"><ele>264.5</ele><time>2026-03-22T08:44:52.904Z</time></trkpt><trkpt lat="44.5188624" lon="10.6582471"><ele>267.75</ele><time>2026-03-22T08:44:53.898Z</time></trkpt><trkpt lat="44.5188624" lon="10.6580709"><ele>271.0</ele><time>2026-03-22T08:44:54.901Z</time></trkpt><trkpt lat="44.5188646" lon="10.6579054"><ele>274.75</ele><time>2026-03-22T08:44:55.899Z</time></trkpt><trkpt lat="44.5188734" lon="10.6577525"><ele>278.5</ele><time>2026-03-22T08:44:56.901Z</time></trkpt><trkpt lat="44.51889" lon="10.6575938"><ele>282.25</ele><time>2026-03-22T08:44:57.901Z</time></trkpt><trkpt lat="44.5189184" lon="10.6574235"><ele>286.0</ele><time>2026-03-22T08:44:58.896Z</time></trkpt><trkpt lat="44.5189473" lon="10.6572517"><ele>286.0</ele><time>2026-03-22T08:44:59.898Z</time></trkpt><trkpt lat="44.5189653" lon="10.6571313"><ele>286.0</ele><time>2026-03-22T08:45:00.9Z</time></trkpt><trkpt lat="44.5189769" lon="10.6570316"><ele>286.0</ele><time>2026-03-22T08:45:01.898Z</time></trkpt><trkpt lat="44.5189291" lon="10.6569175"><ele>286.0</ele><time>2026-03-22T08:45:03.897Z</time></trkpt><trkpt lat="44.5188737" lon="10.6568744"><ele>286.0</ele><time>2026-03-22T08:45:04.927Z</time></trkpt><trkpt lat="44.5187847" lon="10.6568311"><ele>286.0</ele><time>2026-03-22T08:45:05.906Z</time></trkpt><trkpt lat="44.5186939" lon="10.6567825"><ele>286.6</ele><time>2026-03-22T08:45:06.906Z</time></trkpt><trkpt lat="44.5186134" lon="10.656724"><ele>287.20000000000005</ele><time>2026-03-22T08:45:07.905Z</time></trkpt><trkpt lat="44.5185597" lon="10.6566695"><ele>287.79999999999995</ele><time>2026-03-22T08:45:08.9Z</time></trkpt><trkpt lat="44.518564" lon="10.6565131"><ele>288.4</ele><time>2026-03-22T08:45:10.897Z</time></trkpt><trkpt lat="44.51861" lon="10.6564147"><ele>289.0</ele><time>2026-03-22T08:45:11.91Z</time></trkpt><trkpt lat="44.518665" lon="10.6562953"><ele>289.0</ele><time>2026-03-22T08:45:12.899Z</time></trkpt><trkpt lat="44.5187105" lon="10.656182"><ele>289.0</ele><time>2026-03-22T08:45:13.899Z</time></trkpt><trkpt lat="44.5187238" lon="10.6560129"><ele>289.0</ele><time>2026-03-22T08:45:14.899Z</time></trkpt><trkpt lat="44.518735" lon="10.6558776"><ele>289.0</ele><time>2026-03-22T08:45:15.909Z</time></trkpt><trkpt lat="44.518761" lon="10.6557679"><ele>289.0</ele><time>2026-03-22T08:45:16.895Z</time></trkpt><trkpt lat="44.5187982" lon="10.6556739"><ele>292.2</ele><time>2026-03-22T08:45:17.919Z</time></trkpt><trkpt lat="44.518859" lon="10.6555863"><ele>295.4</ele><time>2026-03-22T08:45:18.898Z</time></trkpt><trkpt lat="44.5189185" lon="10.6554856"><ele>298.6</ele><time>2026-03-22T08:45:19.898Z</time></trkpt><trkpt lat="44.5190058" lon="10.655386"><ele>301.8</ele><time>2026-03-22T08:45:20.898Z</time></trkpt><trkpt lat="44.5190976" lon="10.655297"><ele>305.0</ele><time>2026-03-22T08:45:21.904Z</time></trkpt><trkpt lat="44.5191961" lon="10.655211"><ele>306.2</ele><time>2026-03-22T08:45:22.894Z</time></trkpt><trkpt lat="44.5192942" lon="10.6551272"><ele>307.4</ele><time>2026-03-22T08:45:23.897Z</time></trkpt><trkpt lat="44.5193861" lon="10.6550487"><ele>308.6</ele><time>2026-03-22T08:45:24.906Z</time></trkpt><trkpt lat="44.5194677" lon="10.6549865"><ele>309.8</ele><time>2026-03-22T08:45:25.899Z</time></trkpt><trkpt lat="44.5195499" lon="10.6549472"><ele>311.0</ele><time>2026-03-22T08:45:26.902Z</time></trkpt><trkpt lat="44.5196496" lon="10.6549167"><ele>314.20000000000005</ele><time>2026-03-22T08:45:27.906Z</time></trkpt><trkpt lat="44.5197612" lon="10.6548874"><ele>317.40000000000003</ele><time>2026-03-22T08:45:28.901Z</time></trkpt><trkpt lat="44.5198742" lon="10.654859"><ele>320.6</ele><time>2026-03-22T08:45:29.904Z</time></trkpt><trkpt lat="44.5199883" lon="10.6548313"><ele>323.8</ele><time>2026-03-22T08:45:30.903Z</time></trkpt><trkpt lat="44.5200846" lon="10.6548068"><ele>327.0</ele><time>2026-03-22T08:45:31.903Z</time></trkpt><trkpt lat="44.520161" lon="10.6547748"><ele>327.0</ele><time>2026-03-22T08:45:32.903Z</time></trkpt><trkpt lat="44.520228" lon="10.6547269"><ele>327.0</ele><time>2026-03-22T08:45:33.901Z</time></trkpt><trkpt lat="44.5202909" lon="10.65466"><ele>327.0</ele><time>2026-03-22T08:45:34.901Z</time></trkpt><trkpt lat="44.5203503" lon="10.6545782"><ele>327.0</ele><time>2026-03-22T08:45:35.906Z</time></trkpt><trkpt lat="44.5204026" lon="10.6544926"><ele>327.0</ele><time>2026-03-22T08:45:36.896Z</time></trkpt><trkpt lat="44.5204519" lon="10.6544123"><ele>327.0</ele><time>2026-03-22T08:45:37.902Z</time></trkpt><trkpt lat="44.5205024" lon="10.6543389"><ele>330.0</ele><time>2026-03-22T08:45:38.905Z</time></trkpt><trkpt lat="44.5205553" lon="10.6542673"><ele>333.0</ele><time>2026-03-22T08:45:39.903Z</time></trkpt><trkpt lat="44.5206111" lon="10.6541927"><ele>336.0</ele><time>2026-03-22T08:45:40.897Z</time></trkpt><trkpt lat="44.5206709" lon="10.6540929"><ele>339.0</ele><time>2026-03-22T08:45:41.908Z</time></trkpt><trkpt lat="44.5207256" lon="10.6539952"><ele>342.0</ele><time>2026-03-22T08:45:42.905Z</time></trkpt><trkpt lat="44.5207702" lon="10.6538831"><ele>345.0</ele><time>2026-03-22T08:45:43.924Z</time></trkpt><trkpt lat="44.5208067" lon="10.6537601"><ele>345.0</ele><time>2026-03-22T08:45:44.905Z</time></trkpt><trkpt lat="44.5208469" lon="10.6536408"><ele>345.0</ele><time>2026-03-22T08:45:45.901Z</time></trkpt><trkpt lat="44.5208864" lon="10.653533"><ele>345.0</ele><time>2026-03-22T08:45:46.899Z</time></trkpt><trkpt lat="44.5209157" lon="10.6534275"><ele>345.0</ele><time>2026-03-22T08:45:47.905Z</time></trkpt><trkpt lat="44.5209243" lon="10.6533099"><ele>345.0</ele><time>2026-03-22T08:45:48.907Z</time></trkpt><trkpt lat="44.5209255" lon="10.6531893"><ele>345.0</ele><time>2026-03-22T08:45:49.902Z</time></trkpt><trkpt lat="44.5209282" lon="10.6530737"><ele>346.0</ele><time>2026-03-22T08:45:50.906Z</time></trkpt><trkpt lat="44.5209233" lon="10.6529641"><ele>347.0</ele><time>2026-03-22T08:45:51.902Z</time></trkpt><trkpt lat="44.5209104" lon="10.6528246"><ele>348.0</ele><time>2026-03-22T08:45:53.907Z</time></trkpt><trkpt lat="44.520849" lon="10.6527779"><ele>349.0</ele><time>2026-03-22T08:45:56.909Z</time></trkpt><trkpt lat="44.520813" lon="10.6528641"><ele>350.0</ele><time>2026-03-22T08:46:00.91Z</time></trkpt><trkpt lat="44.5207721" lon="10.6529333"><ele>351.0</ele><time>2026-03-22T08:46:03.898Z</time></trkpt><trkpt lat="44.5208865" lon="10.6528877"><ele>351.0</ele><time>2026-03-22T09:08:06.877Z</time></trkpt><trkpt lat="44.5209101" lon="10.6528051"><ele>351.0</ele><time>2026-03-22T09:08:08.905Z</time></trkpt><trkpt lat="44.520931" lon="10.6527166"><ele>351.0</ele><time>2026-03-22T09:08:09.907Z</time></trkpt><trkpt lat="44.5209655" lon="10.6525901"><ele>351.0</ele><time>2026-03-22T09:08:10.901Z</time></trkpt><trkpt lat="44.5210066" lon="10.6524736"><ele>351.0</ele><time>2026-03-22T09:08:11.908Z</time></trkpt><trkpt lat="44.5210547" lon="10.6523588"><ele>351.0</ele><time>2026-03-22T09:08:12.915Z</time></trkpt><trkpt lat="44.5211026" lon="10.6522409"><ele>352.4</ele><time>2026-03-22T09:08:13.898Z</time></trkpt><trkpt lat="44.5211606" lon="10.6521362"><ele>353.8</ele><time>2026-03-22T09:08:14.901Z</time></trkpt><trkpt lat="44.5212277" lon="10.6520482"><ele>355.2</ele><time>2026-03-22T09:08:15.897Z</time></trkpt><trkpt lat="44.5212883" lon="10.6519536"><ele>356.59999999999997</ele><time>2026-03-22T09:08:16.9Z</time></trkpt><trkpt lat="44.5213532" lon="10.6518643"><ele>358.0</ele><time>2026-03-22T09:08:17.906Z</time></trkpt><trkpt lat="44.52142" lon="10.6517687"><ele>358.59999999999997</ele><time>2026-03-22T09:08:18.907Z</time></trkpt><trkpt lat="44.5214842" lon="10.6516613"><ele>359.2</ele><time>2026-03-22T09:08:19.903Z</time></trkpt><trkpt lat="44.5215112" lon="10.65153"><ele>359.8</ele><time>2026-03-22T09:08:20.9Z</time></trkpt><trkpt lat="44.5215361" lon="10.6513825"><ele>360.4</ele><time>2026-03-22T09:08:21.899Z</time></trkpt><trkpt lat="44.5215492" lon="10.6512347"><ele>361.0</ele><time>2026-03-22T09:08:22.901Z</time></trkpt><trkpt lat="44.5215692" lon="10.6510919"><ele>362.16666666666663</ele><time>2026-03-22T09:08:23.901Z</time></trkpt><trkpt lat="44.5215956" lon="10.6509669"><ele>363.3333333333333</ele><time>2026-03-22T09:08:24.902Z</time></trkpt><trkpt lat="44.5216286" lon="10.6508572"><ele>364.5</ele><time>2026-03-22T09:08:25.899Z</time></trkpt><trkpt lat="44.5216612" lon="10.6507647"><ele>365.6666666666667</ele><time>2026-03-22T09:08:26.908Z</time></trkpt><trkpt lat="44.5216903" lon="10.6506864"><ele>366.83333333333337</ele><time>2026-03-22T09:08:27.904Z</time></trkpt><trkpt lat="44.5217292" lon="10.6505629"><ele>368.0</ele><time>2026-03-22T09:08:29.903Z</time></trkpt><trkpt lat="44.5217603" lon="10.650452"><ele>368.0</ele><time>2026-03-22T09:08:31.905Z</time></trkpt><trkpt lat="44.5217951" lon="10.6503217"><ele>368.0</ele><time>2026-03-22T09:08:33.901Z</time></trkpt><trkpt lat="44.5218127" lon="10.6501554"><ele>368.0</ele><time>2026-03-22T09:08:35.906Z</time></trkpt><trkpt lat="44.5218178" lon="10.6500413"><ele>368.0</ele><time>2026-03-22T09:08:36.905Z</time></trkpt><trkpt lat="44.5218222" lon="10.6499188"><ele>368.0</ele><time>2026-03-22T09:08:37.911Z</time></trkpt><trkpt lat="44.5218302" lon="10.6497743"><ele>369.4</ele><time>2026-03-22T09:08:38.907Z</time></trkpt><trkpt lat="44.5218375" lon="10.6496259"><ele>370.79999999999995</ele><time>2026-03-22T09:08:39.905Z</time></trkpt><trkpt lat="44.5218397" lon="10.6494821"><ele>372.2</ele><time>2026-03-22T09:08:40.899Z</time></trkpt><trkpt lat="44.5218376" lon="10.6493379"><ele>373.6</ele><time>2026-03-22T09:08:41.906Z</time></trkpt><trkpt lat="44.5218269" lon="10.649207"><ele>375.0</ele><time>2026-03-22T09:08:42.902Z</time></trkpt><trkpt lat="44.5218086" lon="10.6490976"><ele>375.1666666666667</ele><time>2026-03-22T09:08:43.906Z</time></trkpt><trkpt lat="44.5217887" lon="10.6489868"><ele>375.3333333333333</ele><time>2026-03-22T09:08:44.906Z</time></trkpt><trkpt lat="44.5217612" lon="10.6488724"><ele>375.5</ele><time>2026-03-22T09:08:45.908Z</time></trkpt><trkpt lat="44.5217336" lon="10.6487539"><ele>375.66666666666663</ele><time>2026-03-22T09:08:46.907Z</time></trkpt><trkpt lat="44.5217114" lon="10.648629"><ele>375.8333333333333</ele><time>2026-03-22T09:08:47.905Z</time></trkpt><trkpt lat="44.5216885" lon="10.6484941"><ele>376.0</ele><time>2026-03-22T09:08:48.902Z</time></trkpt><trkpt lat="44.5216688" lon="10.6483506"><ele>376.4</ele><time>2026-03-22T09:08:49.901Z</time></trkpt><trkpt lat="44.5216547" lon="10.648214"><ele>376.8</ele><time>2026-03-22T09:08:50.901Z</time></trkpt><trkpt lat="44.5216421" lon="10.6480787"><ele>377.2</ele><time>2026-03-22T09:08:51.899Z</time></trkpt><trkpt lat="44.5216272" lon="10.64794"><ele>377.59999999999997</ele><time>2026-03-22T09:08:52.901Z</time></trkpt><trkpt lat="44.5216148" lon="10.6477966"><ele>378.0</ele><time>2026-03-22T09:08:53.901Z</time></trkpt><trkpt lat="44.5216074" lon="10.6476474"><ele>378.4</ele><time>2026-03-22T09:08:54.907Z</time></trkpt><trkpt lat="44.5216041" lon="10.6474971"><ele>378.79999999999995</ele><time>2026-03-22T09:08:55.902Z</time></trkpt><trkpt lat="44.5215996" lon="10.6473452"><ele>379.2</ele><time>2026-03-22T09:08:56.899Z</time></trkpt><trkpt lat="44.5215951" lon="10.647191"><ele>379.6</ele><time>2026-03-22T09:08:57.897Z</time></trkpt><trkpt lat="44.5215898" lon="10.6470369"><ele>380.0</ele><time>2026-03-22T09:08:58.904Z</time></trkpt><trkpt lat="44.521588" lon="10.646879"><ele>380.2</ele><time>2026-03-22T09:08:59.907Z</time></trkpt><trkpt lat="44.5215831" lon="10.6467284"><ele>380.4</ele><time>2026-03-22T09:09:00.9Z</time></trkpt><trkpt lat="44.5215888" lon="10.6465829"><ele>380.6</ele><time>2026-03-22T09:09:01.904Z</time></trkpt><trkpt lat="44.5216006" lon="10.6464463"><ele>380.8</ele><time>2026-03-22T09:09:02.908Z</time></trkpt><trkpt lat="44.5216191" lon="10.6463084"><ele>381.0</ele><time>2026-03-22T09:09:03.901Z</time></trkpt><trkpt lat="44.5216391" lon="10.646174"><ele>380.8</ele><time>2026-03-22T09:09:04.909Z</time></trkpt><trkpt lat="44.5216724" lon="10.6460462"><ele>380.6</ele><time>2026-03-22T09:09:05.901Z</time></trkpt><trkpt lat="44.521712" lon="10.6459174"><ele>380.4</ele><time>2026-03-22T09:09:06.909Z</time></trkpt><trkpt lat="44.5217432" lon="10.6457821"><ele>380.2</ele><time>2026-03-22T09:09:07.901Z</time></trkpt><trkpt lat="44.5217644" lon="10.645626"><ele>380.0</ele><time>2026-03-22T09:09:08.902Z</time></trkpt><trkpt lat="44.5217687" lon="10.6454657"><ele>380.0</ele><time>2026-03-22T09:09:09.901Z</time></trkpt><trkpt lat="44.5217666" lon="10.6453058"><ele>380.0</ele><time>2026-03-22T09:09:10.905Z</time></trkpt><trkpt lat="44.5217623" lon="10.6451599"><ele>380.0</ele><time>2026-03-22T09:09:11.904Z</time></trkpt><trkpt lat="44.5217522" lon="10.6450328"><ele>380.0</ele><time>2026-03-22T09:09:12.909Z</time></trkpt><trkpt lat="44.5217352" lon="10.6449234"><ele>380.0</ele><time>2026-03-22T09:09:13.901Z</time></trkpt><trkpt lat="44.5217047" lon="10.6448248"><ele>379.83333333333337</ele><time>2026-03-22T09:09:14.901Z</time></trkpt><trkpt lat="44.5216675" lon="10.6447257"><ele>379.6666666666667</ele><time>2026-03-22T09:09:15.9Z</time></trkpt><trkpt lat="44.5216335" lon="10.644631"><ele>379.5</ele><time>2026-03-22T09:09:16.904Z</time></trkpt><trkpt lat="44.5216072" lon="10.6445355"><ele>379.3333333333333</ele><time>2026-03-22T09:09:17.901Z</time></trkpt><trkpt lat="44.5216011" lon="10.6444348"><ele>379.16666666666663</ele><time>2026-03-22T09:09:18.903Z</time></trkpt><trkpt lat="44.5216131" lon="10.6443269"><ele>379.0</ele><time>2026-03-22T09:09:19.899Z</time></trkpt><trkpt lat="44.5216399" lon="10.6442101"><ele>378.75</ele><time>2026-03-22T09:09:20.905Z</time></trkpt><trkpt lat="44.5216723" lon="10.6440814"><ele>378.5</ele><time>2026-03-22T09:09:21.904Z</time></trkpt><trkpt lat="44.5217087" lon="10.6439327"><ele>378.25</ele><time>2026-03-22T09:09:22.902Z</time></trkpt><trkpt lat="44.521743" lon="10.6437676"><ele>378.0</ele><time>2026-03-22T09:09:23.905Z</time></trkpt><trkpt lat="44.5217703" lon="10.6435982"><ele>377.0</ele><time>2026-03-22T09:09:24.903Z</time></trkpt><trkpt lat="44.5217905" lon="10.6434358"><ele>376.0</ele><time>2026-03-22T09:09:25.902Z</time></trkpt><trkpt lat="44.5218051" lon="10.6432832"><ele>375.0</ele><time>2026-03-22T09:09:26.899Z</time></trkpt><trkpt lat="44.5218166" lon="10.6431431"><ele>374.0</ele><time>2026-03-22T09:09:27.901Z</time></trkpt><trkpt lat="44.5218244" lon="10.6430186"><ele>373.0</ele><time>2026-03-22T09:09:28.902Z</time></trkpt><trkpt lat="44.5218308" lon="10.6428943"><ele>372.59999999999997</ele><time>2026-03-22T09:09:29.904Z</time></trkpt><trkpt lat="44.5218369" lon="10.6427512"><ele>372.2</ele><time>2026-03-22T09:09:30.926Z</time></trkpt><trkpt lat="44.5218425" lon="10.642603"><ele>371.8</ele><time>2026-03-22T09:09:31.896Z</time></trkpt><trkpt lat="44.5218408" lon="10.6424542"><ele>371.4</ele><time>2026-03-22T09:09:32.906Z</time></trkpt><trkpt lat="44.5218379" lon="10.6422939"><ele>371.0</ele><time>2026-03-22T09:09:33.902Z</time></trkpt><trkpt lat="44.5218446" lon="10.6421429"><ele>371.0</ele><time>2026-03-22T09:09:34.904Z</time></trkpt><trkpt lat="44.5218725" lon="10.6419958"><ele>371.0</ele><time>2026-03-22T09:09:35.899Z</time></trkpt><trkpt lat="44.5219133" lon="10.6418626"><ele>371.0</ele><time>2026-03-22T09:09:36.901Z</time></trkpt><trkpt lat="44.5219448" lon="10.6417416"><ele>371.0</ele><time>2026-03-22T09:09:37.907Z</time></trkpt><trkpt lat="44.5219571" lon="10.6416197"><ele>371.0</ele><time>2026-03-22T09:09:38.899Z</time></trkpt><trkpt lat="44.52194" lon="10.6414806"><ele>370.75</ele><time>2026-03-22T09:09:39.906Z</time></trkpt><trkpt lat="44.5219061" lon="10.6413159"><ele>370.5</ele><time>2026-03-22T09:09:40.899Z</time></trkpt><trkpt lat="44.521862" lon="10.6411346"><ele>370.25</ele><time>2026-03-22T09:09:41.899Z</time></trkpt><trkpt lat="44.5218258" lon="10.6409757"><ele>370.0</ele><time>2026-03-22T09:09:42.898Z</time></trkpt><trkpt lat="44.5217929" lon="10.6408301"><ele>370.8</ele><time>2026-03-22T09:09:43.896Z</time></trkpt><trkpt lat="44.5217695" lon="10.6407061"><ele>371.6</ele><time>2026-03-22T09:09:44.901Z</time></trkpt><trkpt lat="44.5217577" lon="10.640565"><ele>372.4</ele><time>2026-03-22T09:09:45.907Z</time></trkpt><trkpt lat="44.5217442" lon="10.6404183"><ele>373.2</ele><time>2026-03-22T09:09:46.898Z</time></trkpt><trkpt lat="44.5217254" lon="10.6402581"><ele>374.0</ele><time>2026-03-22T09:09:47.895Z</time></trkpt><trkpt lat="44.5217065" lon="10.6401019"><ele>375.6</ele><time>2026-03-22T09:09:48.899Z</time></trkpt><trkpt lat="44.5216852" lon="10.6399458"><ele>377.2</ele><time>2026-03-22T09:09:49.902Z</time></trkpt><trkpt lat="44.5216636" lon="10.639797"><ele>378.8</ele><time>2026-03-22T09:09:50.905Z</time></trkpt><trkpt lat="44.5216456" lon="10.639647"><ele>380.40000000000003</ele><time>2026-03-22T09:09:51.901Z</time></trkpt><trkpt lat="44.5216283" lon="10.6394974"><ele>382.0</ele><time>2026-03-22T09:09:52.897Z</time></trkpt><trkpt lat="44.5216128" lon="10.639336"><ele>382.40000000000003</ele><time>2026-03-22T09:09:53.905Z</time></trkpt><trkpt lat="44.521596" lon="10.6391749"><ele>382.8</ele><time>2026-03-22T09:09:54.9Z</time></trkpt><trkpt lat="44.5215728" lon="10.6390095"><ele>383.2</ele><time>2026-03-22T09:09:55.907Z</time></trkpt><trkpt lat="44.521551" lon="10.6388672"><ele>383.6</ele><time>2026-03-22T09:09:56.9Z</time></trkpt><trkpt lat="44.5215238" lon="10.6387229"><ele>384.0</ele><time>2026-03-22T09:09:57.903Z</time></trkpt><trkpt lat="44.5214907" lon="10.6385823"><ele>382.79999999999995</ele><time>2026-03-22T09:09:58.899Z</time></trkpt><trkpt lat="44.5214531" lon="10.6384449"><ele>381.59999999999997</ele><time>2026-03-22T09:09:59.903Z</time></trkpt><trkpt lat="44.5214135" lon="10.638315"><ele>380.4</ele><time>2026-03-22T09:10:00.897Z</time></trkpt><trkpt lat="44.5213732" lon="10.6381937"><ele>379.2</ele><time>2026-03-22T09:10:01.921Z</time></trkpt><trkpt lat="44.5213363" lon="10.6380745"><ele>378.0</ele><time>2026-03-22T09:10:02.898Z</time></trkpt><trkpt lat="44.5212993" lon="10.6379522"><ele>378.0</ele><time>2026-03-22T09:10:03.902Z</time></trkpt><trkpt lat="44.5212652" lon="10.6378233"><ele>378.0</ele><time>2026-03-22T09:10:04.908Z</time></trkpt><trkpt lat="44.5212313" lon="10.6376841"><ele>378.0</ele><time>2026-03-22T09:10:05.901Z</time></trkpt><trkpt lat="44.5212032" lon="10.6375509"><ele>378.0</ele><time>2026-03-22T09:10:06.914Z</time></trkpt><trkpt lat="44.521184" lon="10.6374309"><ele>378.0</ele><time>2026-03-22T09:10:07.9Z</time></trkpt><trkpt lat="44.521166" lon="10.6373276"><ele>378.1666666666667</ele><time>2026-03-22T09:10:08.899Z</time></trkpt><trkpt lat="44.521151" lon="10.6372346"><ele>378.3333333333333</ele><time>2026-03-22T09:10:09.902Z</time></trkpt><trkpt lat="44.5211429" lon="10.6370875"><ele>378.5</ele><time>2026-03-22T09:10:11.901Z</time></trkpt><trkpt lat="44.5211559" lon="10.6369904"><ele>378.66666666666663</ele><time>2026-03-22T09:10:13.899Z</time></trkpt><trkpt lat="44.5211588" lon="10.6368719"><ele>378.8333333333333</ele><time>2026-03-22T09:10:15.903Z</time></trkpt><trkpt lat="44.5211403" lon="10.6367594"><ele>379.0</ele><time>2026-03-22T09:10:17.9Z</time></trkpt><trkpt lat="44.5211155" lon="10.6366326"><ele>379.0</ele><time>2026-03-22T09:10:19.902Z</time></trkpt><trkpt lat="44.521092" lon="10.6364807"><ele>379.0</ele><time>2026-03-22T09:10:21.907Z</time></trkpt><trkpt lat="44.5210664" lon="10.6363292"><ele>379.0</ele><time>2026-03-22T09:10:23.904Z</time></trkpt><trkpt lat="44.5210291" lon="10.6361837"><ele>379.0</ele><time>2026-03-22T09:10:25.898Z</time></trkpt><trkpt lat="44.5209757" lon="10.6360637"><ele>379.0</ele><time>2026-03-22T09:10:27.923Z</time></trkpt><trkpt lat="44.5209592" lon="10.6359645"><ele>379.0</ele><time>2026-03-22T09:10:29.902Z</time></trkpt><trkpt lat="44.5210168" lon="10.6358449"><ele>379.0</ele><time>2026-03-22T09:10:31.903Z</time></trkpt><trkpt lat="44.521078" lon="10.6358054"><ele>379.0</ele><time>2026-03-22T09:10:32.913Z</time></trkpt><trkpt lat="44.5211426" lon="10.6357946"><ele>379.0</ele><time>2026-03-22T09:10:33.903Z</time></trkpt><trkpt lat="44.5212176" lon="10.6358371"><ele>379.0</ele><time>2026-03-22T09:10:34.909Z</time></trkpt><trkpt lat="44.5212858" lon="10.635855"><ele>379.0</ele><time>2026-03-22T09:10:35.9Z</time></trkpt><trkpt lat="44.5213566" lon="10.6358451"><ele>379.5</ele><time>2026-03-22T09:10:36.897Z</time></trkpt><trkpt lat="44.521428" lon="10.6357991"><ele>380.0</ele><time>2026-03-22T09:10:37.895Z</time></trkpt><trkpt lat="44.5214822" lon="10.6357346"><ele>380.5</ele><time>2026-03-22T09:10:38.897Z</time></trkpt><trkpt lat="44.5215314" lon="10.6356461"><ele>381.0</ele><time>2026-03-22T09:10:40.903Z</time></trkpt><trkpt lat="44.5215932" lon="10.6357587"><ele>381.5</ele><time>2026-03-22T09:10:44.9Z</time></trkpt><trkpt lat="44.5216145" lon="10.635863"><ele>382.0</ele><time>2026-03-22T09:10:45.896Z</time></trkpt><trkpt lat="44.5216567" lon="10.6359676"><ele>382.0</ele><time>2026-03-22T09:10:46.9Z</time></trkpt><trkpt lat="44.5217" lon="10.6360828"><ele>382.0</ele><time>2026-03-22T09:10:47.9Z</time></trkpt><trkpt lat="44.5217553" lon="10.6361834"><ele>382.0</ele><time>2026-03-22T09:10:48.894Z</time></trkpt><trkpt lat="44.5218252" lon="10.6362563"><ele>382.0</ele><time>2026-03-22T09:10:49.898Z</time></trkpt><trkpt lat="44.5219002" lon="10.6363025"><ele>382.0</ele><time>2026-03-22T09:10:50.901Z</time></trkpt><trkpt lat="44.5219833" lon="10.6363301"><ele>382.0</ele><time>2026-03-22T09:10:51.898Z</time></trkpt><trkpt lat="44.5220612" lon="10.6363567"><ele>380.8333333333333</ele><time>2026-03-22T09:10:52.899Z</time></trkpt><trkpt lat="44.5221475" lon="10.6363612"><ele>379.66666666666663</ele><time>2026-03-22T09:10:53.903Z</time></trkpt><trkpt lat="44.5222264" lon="10.6363521"><ele>378.5</ele><time>2026-03-22T09:10:54.901Z</time></trkpt><trkpt lat="44.5223027" lon="10.6363269"><ele>377.3333333333333</ele><time>2026-03-22T09:10:55.916Z</time></trkpt><trkpt lat="44.5223711" lon="10.6362737"><ele>376.1666666666667</ele><time>2026-03-22T09:10:56.903Z</time></trkpt><trkpt lat="44.5224329" lon="10.6362307"><ele>375.0</ele><time>2026-03-22T09:10:57.896Z</time></trkpt><trkpt lat="44.5225885" lon="10.636246"><ele>375.0</ele><time>2026-03-22T09:11:01.906Z</time></trkpt><trkpt lat="44.5226025" lon="10.6364"><ele>375.0</ele><time>2026-03-22T09:11:03.9Z</time></trkpt><trkpt lat="44.5225779" lon="10.636503"><ele>375.0</ele><time>2026-03-22T09:11:04.897Z</time></trkpt><trkpt lat="44.5225588" lon="10.6365875"><ele>375.0</ele><time>2026-03-22T09:11:05.903Z</time></trkpt><trkpt lat="44.5225604" lon="10.6366873"><ele>375.0</ele><time>2026-03-22T09:11:06.895Z</time></trkpt><trkpt lat="44.5225845" lon="10.6367882"><ele>375.0</ele><time>2026-03-22T09:11:07.899Z</time></trkpt><trkpt lat="44.5226297" lon="10.6368776"><ele>375.0</ele><time>2026-03-22T09:11:08.899Z</time></trkpt><trkpt lat="44.5226948" lon="10.6369679"><ele>375.0</ele><time>2026-03-22T09:11:09.901Z</time></trkpt><trkpt lat="44.5227803" lon="10.63703"><ele>375.0</ele><time>2026-03-22T09:11:10.904Z</time></trkpt><trkpt lat="44.5228578" lon="10.6370832"><ele>375.0</ele><time>2026-03-22T09:11:11.908Z</time></trkpt><trkpt lat="44.5229478" lon="10.6371164"><ele>375.0</ele><time>2026-03-22T09:11:12.899Z</time></trkpt><trkpt lat="44.5230322" lon="10.6371243"><ele>373.8571428571429</ele><time>2026-03-22T09:11:13.894Z</time></trkpt><trkpt lat="44.5231093" lon="10.637122"><ele>372.71428571428567</ele><time>2026-03-22T09:11:14.905Z</time></trkpt><trkpt lat="44.5231832" lon="10.6371177"><ele>371.57142857142856</ele><time>2026-03-22T09:11:15.899Z</time></trkpt><trkpt lat="44.5232624" lon="10.6371141"><ele>370.42857142857144</ele><time>2026-03-22T09:11:16.9Z</time></trkpt><trkpt lat="44.5233319" lon="10.6371069"><ele>369.28571428571433</ele><time>2026-03-22T09:11:17.899Z</time></trkpt><trkpt lat="44.5233995" lon="10.6371003"><ele>368.1428571428571</ele><time>2026-03-22T09:11:18.9Z</time></trkpt><trkpt lat="44.5234648" lon="10.6371178"><ele>367.0</ele><time>2026-03-22T09:11:19.898Z</time></trkpt><trkpt lat="44.5235346" lon="10.6371356"><ele>367.0</ele><time>2026-03-22T09:11:20.897Z</time></trkpt><trkpt lat="44.5236561" lon="10.6371946"><ele>367.0</ele><time>2026-03-22T09:11:22.898Z</time></trkpt><trkpt lat="44.5237154" lon="10.6372251"><ele>367.0</ele><time>2026-03-22T09:11:23.898Z</time></trkpt><trkpt lat="44.523815" lon="10.6372652"><ele>367.0</ele><time>2026-03-22T09:11:25.899Z</time></trkpt><trkpt lat="44.5238813" lon="10.637273"><ele>367.0</ele><time>2026-03-22T09:11:28.906Z</time></trkpt><trkpt lat="44.5239727" lon="10.6372691"><ele>367.0</ele><time>2026-03-22T09:18:15.905Z</time></trkpt><trkpt lat="44.5239341" lon="10.6371825"><ele>367.0</ele><time>2026-03-22T09:20:57.901Z</time></trkpt><trkpt lat="44.5238308" lon="10.6371196"><ele>367.0</ele><time>2026-03-22T09:20:59.898Z</time></trkpt><trkpt lat="44.5237554" lon="10.6370748"><ele>367.0</ele><time>2026-03-22T09:21:00.902Z</time></trkpt><trkpt lat="44.5236862" lon="10.6370345"><ele>367.0</ele><time>2026-03-22T09:21:01.899Z</time></trkpt><trkpt lat="44.5236296" lon="10.636993"><ele>367.0</ele><time>2026-03-22T09:21:02.925Z</time></trkpt><trkpt lat="44.5235608" lon="10.6369645"><ele>371.8333333333333</ele><time>2026-03-22T09:21:03.895Z</time></trkpt><trkpt lat="44.5234751" lon="10.6369403"><ele>376.66666666666663</ele><time>2026-03-22T09:21:04.897Z</time></trkpt><trkpt lat="44.523395" lon="10.6369118"><ele>381.5</ele><time>2026-03-22T09:21:05.896Z</time></trkpt><trkpt lat="44.5233243" lon="10.6368785"><ele>386.3333333333333</ele><time>2026-03-22T09:21:06.9Z</time></trkpt><trkpt lat="44.5232615" lon="10.6368109"><ele>391.1666666666667</ele><time>2026-03-22T09:21:07.902Z</time></trkpt><trkpt lat="44.5232085" lon="10.6367531"><ele>396.0</ele><time>2026-03-22T09:21:08.902Z</time></trkpt><trkpt lat="44.5231122" lon="10.636652"><ele>396.0</ele><time>2026-03-22T09:21:10.897Z</time></trkpt><trkpt lat="44.5230767" lon="10.6365764"><ele>396.0</ele><time>2026-03-22T09:21:11.903Z</time></trkpt><trkpt lat="44.5230383" lon="10.6364955"><ele>396.0</ele><time>2026-03-22T09:21:12.899Z</time></trkpt><trkpt lat="44.5230486" lon="10.6363949"><ele>396.0</ele><time>2026-03-22T09:21:15.903Z</time></trkpt><trkpt lat="44.5231297" lon="10.6364118"><ele>396.0</ele><time>2026-03-22T09:21:17.899Z</time></trkpt><trkpt lat="44.5232505" lon="10.6364144"><ele>396.0</ele><time>2026-03-22T09:21:19.904Z</time></trkpt><trkpt lat="44.5233641" lon="10.636387"><ele>396.0</ele><time>2026-03-22T09:21:21.904Z</time></trkpt><trkpt lat="44.5234563" lon="10.6363816"><ele>396.0</ele><time>2026-03-22T09:21:23.898Z</time></trkpt><trkpt lat="44.5235567" lon="10.6363753"><ele>396.0</ele><time>2026-03-22T09:21:25.906Z</time></trkpt><trkpt lat="44.5236632" lon="10.636423"><ele>396.0</ele><time>2026-03-22T09:21:27.901Z</time></trkpt><trkpt lat="44.5237308" lon="10.636403"><ele>396.0</ele><time>2026-03-22T09:21:29.902Z</time></trkpt><trkpt lat="44.523787" lon="10.6363319"><ele>396.0</ele><time>2026-03-22T09:21:33.905Z</time></trkpt><trkpt lat="44.5238098" lon="10.6362156"><ele>398.5</ele><time>2026-03-22T09:22:10.895Z</time></trkpt><trkpt lat="44.5237702" lon="10.6360949"><ele>401.0</ele><time>2026-03-22T09:22:39.925Z</time></trkpt><trkpt lat="44.5237757" lon="10.635953"><ele>403.5</ele><time>2026-03-22T09:29:16.872Z</time></trkpt><trkpt lat="44.5237929" lon="10.6358545"><ele>406.0</ele><time>2026-03-22T09:29:18.899Z</time></trkpt><trkpt lat="44.5237971" lon="10.6357561"><ele>408.5</ele><time>2026-03-22T09:29:19.895Z</time></trkpt><trkpt lat="44.5238167" lon="10.6356416"><ele>411.0</ele><time>2026-03-22T09:29:21.901Z</time></trkpt><trkpt lat="44.52386" lon="10.6355659"><ele>411.0</ele><time>2026-03-22T09:29:23.898Z</time></trkpt><trkpt lat="44.5239489" lon="10.6355174"><ele>411.0</ele><time>2026-03-22T09:29:25.895Z</time></trkpt><trkpt lat="44.5239961" lon="10.6354103"><ele>411.0</ele><time>2026-03-22T09:29:27.899Z</time></trkpt><trkpt lat="44.5240355" lon="10.6353037"><ele>411.0</ele><time>2026-03-22T09:29:29.899Z</time></trkpt><trkpt lat="44.5240907" lon="10.6351658"><ele>411.0</ele><time>2026-03-22T09:29:31.899Z</time></trkpt><trkpt lat="44.5240965" lon="10.6350118"><ele>414.6</ele><time>2026-03-22T09:29:33.894Z</time></trkpt><trkpt lat="44.5240556" lon="10.6348682"><ele>418.20000000000005</ele><time>2026-03-22T09:29:35.897Z</time></trkpt><trkpt lat="44.5240053" lon="10.6347258"><ele>421.79999999999995</ele><time>2026-03-22T09:29:37.898Z</time></trkpt><trkpt lat="44.5240081" lon="10.6346332"><ele>425.4</ele><time>2026-03-22T09:29:38.89Z</time></trkpt><trkpt lat="44.5240265" lon="10.6345153"><ele>429.0</ele><time>2026-03-22T09:29:39.894Z</time></trkpt><trkpt lat="44.5240622" lon="10.6344106"><ele>432.0</ele><time>2026-03-22T09:29:40.904Z</time></trkpt><trkpt lat="44.5241033" lon="10.6343146"><ele>435.0</ele><time>2026-03-22T09:29:41.896Z</time></trkpt><trkpt lat="44.5241393" lon="10.6342118"><ele>438.0</ele><time>2026-03-22T09:29:42.9Z</time></trkpt><trkpt lat="44.5241852" lon="10.6340765"><ele>441.0</ele><time>2026-03-22T09:29:44.899Z</time></trkpt><trkpt lat="44.5242833" lon="10.6339518"><ele>444.0</ele><time>2026-03-22T09:29:46.9Z</time></trkpt><trkpt lat="44.5243269" lon="10.6338559"><ele>444.0</ele><time>2026-03-22T09:29:47.895Z</time></trkpt><trkpt lat="44.5243606" lon="10.6337454"><ele>444.0</ele><time>2026-03-22T09:29:48.895Z</time></trkpt><trkpt lat="44.5243885" lon="10.6336404"><ele>444.0</ele><time>2026-03-22T09:29:49.898Z</time></trkpt><trkpt lat="44.5244291" lon="10.633558"><ele>444.0</ele><time>2026-03-22T09:29:50.891Z</time></trkpt><trkpt lat="44.5244661" lon="10.6334785"><ele>444.0</ele><time>2026-03-22T09:29:51.894Z</time></trkpt><trkpt lat="44.5245008" lon="10.6333984"><ele>444.0</ele><time>2026-03-22T09:29:52.898Z</time></trkpt><trkpt lat="44.5245373" lon="10.6333153"><ele>444.0</ele><time>2026-03-22T09:29:53.894Z</time></trkpt><trkpt lat="44.5245734" lon="10.6332305"><ele>444.8333333333333</ele><time>2026-03-22T09:29:54.901Z</time></trkpt><trkpt lat="44.524603" lon="10.633132"><ele>445.66666666666663</ele><time>2026-03-22T09:29:55.894Z</time></trkpt><trkpt lat="44.5246257" lon="10.6330266"><ele>446.5</ele><time>2026-03-22T09:29:56.898Z</time></trkpt><trkpt lat="44.5246384" lon="10.6329097"><ele>447.3333333333333</ele><time>2026-03-22T09:29:57.902Z</time></trkpt><trkpt lat="44.5246424" lon="10.6327897"><ele>448.16666666666663</ele><time>2026-03-22T09:29:58.902Z</time></trkpt><trkpt lat="44.5246383" lon="10.6326689"><ele>449.0</ele><time>2026-03-22T09:29:59.915Z</time></trkpt><trkpt lat="44.5246172" lon="10.6325569"><ele>450.8333333333333</ele><time>2026-03-22T09:30:00.893Z</time></trkpt><trkpt lat="44.5245891" lon="10.6324443"><ele>452.66666666666663</ele><time>2026-03-22T09:30:01.897Z</time></trkpt><trkpt lat="44.5245515" lon="10.6323433"><ele>454.5</ele><time>2026-03-22T09:30:02.894Z</time></trkpt><trkpt lat="44.5245174" lon="10.6322486"><ele>456.33333333333337</ele><time>2026-03-22T09:30:03.902Z</time></trkpt><trkpt lat="44.5244756" lon="10.6321608"><ele>458.1666666666667</ele><time>2026-03-22T09:30:04.893Z</time></trkpt><trkpt lat="44.524419" lon="10.632079"><ele>460.0</ele><time>2026-03-22T09:30:05.902Z</time></trkpt><trkpt lat="44.5243552" lon="10.6319959"><ele>464.00000000000006</ele><time>2026-03-22T09:30:06.901Z</time></trkpt><trkpt lat="44.5242913" lon="10.6319297"><ele>468.0</ele><time>2026-03-22T09:30:07.901Z</time></trkpt><trkpt lat="44.5242131" lon="10.6317941"><ele>472.0</ele><time>2026-03-22T09:30:09.892Z</time></trkpt><trkpt lat="44.5241892" lon="10.6316864"><ele>476.0</ele><time>2026-03-22T09:30:10.901Z</time></trkpt><trkpt lat="44.5241572" lon="10.6315784"><ele>480.00000000000006</ele><time>2026-03-22T09:30:11.896Z</time></trkpt><trkpt lat="44.5241295" lon="10.6314796"><ele>484.0</ele><time>2026-03-22T09:30:12.902Z</time></trkpt><trkpt lat="44.5240962" lon="10.6313867"><ele>484.00000000000006</ele><time>2026-03-22T09:30:13.893Z</time></trkpt><trkpt lat="44.5240594" lon="10.6312828"><ele>484.0</ele><time>2026-03-22T09:30:14.901Z</time></trkpt><trkpt lat="44.524026" lon="10.6311963"><ele>484.0</ele><time>2026-03-22T09:30:15.894Z</time></trkpt><trkpt lat="44.5239783" lon="10.6311159"><ele>484.0</ele><time>2026-03-22T09:30:17.899Z</time></trkpt><trkpt lat="44.5239209" lon="10.6310639"><ele>484.00000000000006</ele><time>2026-03-22T09:30:32.902Z</time></trkpt><trkpt lat="44.5238951" lon="10.6309631"><ele>484.0</ele><time>2026-03-22T09:30:34.904Z</time></trkpt><trkpt lat="44.5238882" lon="10.6308001"><ele>484.33333333333337</ele><time>2026-03-22T09:30:36.898Z</time></trkpt><trkpt lat="44.5238837" lon="10.6306978"><ele>484.6666666666667</ele><time>2026-03-22T09:30:37.899Z</time></trkpt><trkpt lat="44.5238811" lon="10.6305945"><ele>485.0</ele><time>2026-03-22T09:30:38.903Z</time></trkpt><trkpt lat="44.5238744" lon="10.6304823"><ele>485.33333333333337</ele><time>2026-03-22T09:30:39.898Z</time></trkpt><trkpt lat="44.523866" lon="10.6303461"><ele>485.6666666666667</ele><time>2026-03-22T09:30:40.906Z</time></trkpt><trkpt lat="44.5238586" lon="10.6302259"><ele>486.0</ele><time>2026-03-22T09:30:41.901Z</time></trkpt><trkpt lat="44.5238537" lon="10.6301241"><ele>487.20000000000005</ele><time>2026-03-22T09:30:42.9Z</time></trkpt><trkpt lat="44.5238577" lon="10.6299774"><ele>488.40000000000003</ele><time>2026-03-22T09:30:44.906Z</time></trkpt><trkpt lat="44.523902" lon="10.6298535"><ele>489.6</ele><time>2026-03-22T09:30:46.908Z</time></trkpt><trkpt lat="44.5239558" lon="10.6297683"><ele>490.8</ele><time>2026-03-22T09:30:47.901Z</time></trkpt><trkpt lat="44.5240206" lon="10.6296728"><ele>492.0</ele><time>2026-03-22T09:30:48.905Z</time></trkpt><trkpt lat="44.524093" lon="10.629556"><ele>493.3333333333333</ele><time>2026-03-22T09:30:49.901Z</time></trkpt><trkpt lat="44.5241586" lon="10.6294513"><ele>494.66666666666663</ele><time>2026-03-22T09:30:50.903Z</time></trkpt><trkpt lat="44.5242131" lon="10.6293641"><ele>496.0</ele><time>2026-03-22T09:30:51.9Z</time></trkpt><trkpt lat="44.524262" lon="10.6292928"><ele>497.3333333333333</ele><time>2026-03-22T09:30:52.9Z</time></trkpt><trkpt lat="44.5243185" lon="10.6292039"><ele>498.66666666666663</ele><time>2026-03-22T09:30:54.894Z</time></trkpt><trkpt lat="44.5243784" lon="10.6291468"><ele>500.0</ele><time>2026-03-22T09:31:04.912Z</time></trkpt><trkpt lat="44.5244389" lon="10.6290327"><ele>500.0</ele><time>2026-03-22T09:31:06.906Z</time></trkpt><trkpt lat="44.5244888" lon="10.6289457"><ele>500.0</ele><time>2026-03-22T09:31:07.905Z</time></trkpt><trkpt lat="44.5245505" lon="10.6288623"><ele>500.0</ele><time>2026-03-22T09:31:08.902Z</time></trkpt><trkpt lat="44.5246272" lon="10.6287736"><ele>500.0</ele><time>2026-03-22T09:31:09.9Z</time></trkpt><trkpt lat="44.5247142" lon="10.628693"><ele>500.0</ele><time>2026-03-22T09:31:10.902Z</time></trkpt><trkpt lat="44.5248107" lon="10.6286194"><ele>501.2</ele><time>2026-03-22T09:31:11.901Z</time></trkpt><trkpt lat="44.5249056" lon="10.6285523"><ele>502.4</ele><time>2026-03-22T09:31:12.905Z</time></trkpt><trkpt lat="44.5250024" lon="10.6284952"><ele>503.6</ele><time>2026-03-22T09:31:13.907Z</time></trkpt><trkpt lat="44.5251036" lon="10.6284523"><ele>504.8</ele><time>2026-03-22T09:31:14.899Z</time></trkpt><trkpt lat="44.5252099" lon="10.6284243"><ele>506.0</ele><time>2026-03-22T09:31:15.897Z</time></trkpt><trkpt lat="44.5253123" lon="10.628404"><ele>503.6</ele><time>2026-03-22T09:31:16.901Z</time></trkpt><trkpt lat="44.5254088" lon="10.6283774"><ele>501.20000000000005</ele><time>2026-03-22T09:31:17.897Z</time></trkpt><trkpt lat="44.525501" lon="10.6283389"><ele>498.79999999999995</ele><time>2026-03-22T09:31:18.91Z</time></trkpt><trkpt lat="44.5255867" lon="10.6282864"><ele>496.4</ele><time>2026-03-22T09:31:19.901Z</time></trkpt><trkpt lat="44.5256677" lon="10.628223"><ele>494.0</ele><time>2026-03-22T09:31:20.913Z</time></trkpt><trkpt lat="44.5257457" lon="10.6281515"><ele>494.0</ele><time>2026-03-22T09:31:21.902Z</time></trkpt><trkpt lat="44.525825" lon="10.6280833"><ele>494.0</ele><time>2026-03-22T09:31:22.901Z</time></trkpt><trkpt lat="44.5259056" lon="10.6280184"><ele>494.0</ele><time>2026-03-22T09:31:23.904Z</time></trkpt><trkpt lat="44.5259847" lon="10.6279521"><ele>494.0</ele><time>2026-03-22T09:31:24.902Z</time></trkpt><trkpt lat="44.5260606" lon="10.6278787"><ele>494.0</ele><time>2026-03-22T09:31:25.905Z</time></trkpt><trkpt lat="44.5261286" lon="10.6277957"><ele>491.0</ele><time>2026-03-22T09:31:26.906Z</time></trkpt><trkpt lat="44.5261846" lon="10.627695"><ele>488.0</ele><time>2026-03-22T09:31:27.901Z</time></trkpt><trkpt lat="44.5262394" lon="10.6275984"><ele>485.0</ele><time>2026-03-22T09:31:28.93Z</time></trkpt><trkpt lat="44.5262626" lon="10.6274806"><ele>482.0</ele><time>2026-03-22T09:31:29.904Z</time></trkpt><trkpt lat="44.5262831" lon="10.6273447"><ele>479.0</ele><time>2026-03-22T09:31:30.906Z</time></trkpt><trkpt lat="44.526297" lon="10.6272083"><ele>478.99999999999994</ele><time>2026-03-22T09:31:31.906Z</time></trkpt><trkpt lat="44.5263039" lon="10.627073"><ele>479.0</ele><time>2026-03-22T09:31:32.909Z</time></trkpt><trkpt lat="44.5263077" lon="10.6269465"><ele>479.0</ele><time>2026-03-22T09:31:33.904Z</time></trkpt><trkpt lat="44.5263065" lon="10.6268282"><ele>479.0</ele><time>2026-03-22T09:31:34.907Z</time></trkpt><trkpt lat="44.5263002" lon="10.626717"><ele>478.99999999999994</ele><time>2026-03-22T09:31:35.9Z</time></trkpt><trkpt lat="44.5262938" lon="10.6266018"><ele>479.0</ele><time>2026-03-22T09:31:36.902Z</time></trkpt><trkpt lat="44.5262917" lon="10.6264748"><ele>478.99999999999994</ele><time>2026-03-22T09:31:37.906Z</time></trkpt><trkpt lat="44.5263014" lon="10.6263515"><ele>479.0</ele><time>2026-03-22T09:31:38.902Z</time></trkpt><trkpt lat="44.5263286" lon="10.626239"><ele>479.0</ele><time>2026-03-22T09:31:39.918Z</time></trkpt><trkpt lat="44.5263658" lon="10.6261373"><ele>479.0</ele><time>2026-03-22T09:31:40.904Z</time></trkpt><trkpt lat="44.5263996" lon="10.6260453"><ele>478.99999999999994</ele><time>2026-03-22T09:31:41.901Z</time></trkpt><trkpt lat="44.5264264" lon="10.6259444"><ele>479.0</ele><time>2026-03-22T09:31:42.903Z</time></trkpt><trkpt lat="44.5264295" lon="10.6258315"><ele>478.99999999999994</ele><time>2026-03-22T09:31:43.903Z</time></trkpt><trkpt lat="44.5264257" lon="10.6257172"><ele>479.0</ele><time>2026-03-22T09:31:44.898Z</time></trkpt><trkpt lat="44.5264163" lon="10.6256035"><ele>479.0</ele><time>2026-03-22T09:31:45.9Z</time></trkpt><trkpt lat="44.5264175" lon="10.6254861"><ele>479.0</ele><time>2026-03-22T09:31:46.898Z</time></trkpt><trkpt lat="44.526436" lon="10.6253648"><ele>478.99999999999994</ele><time>2026-03-22T09:31:47.905Z</time></trkpt><trkpt lat="44.5264717" lon="10.6252394"><ele>479.0</ele><time>2026-03-22T09:31:48.9Z</time></trkpt><trkpt lat="44.5265179" lon="10.6251144"><ele>479.8333333333333</ele><time>2026-03-22T09:31:49.906Z</time></trkpt><trkpt lat="44.5265674" lon="10.6250001"><ele>480.66666666666663</ele><time>2026-03-22T09:31:50.905Z</time></trkpt><trkpt lat="44.5266147" lon="10.6249028"><ele>481.5</ele><time>2026-03-22T09:31:51.894Z</time></trkpt><trkpt lat="44.5266588" lon="10.624821"><ele>482.33333333333337</ele><time>2026-03-22T09:31:52.898Z</time></trkpt><trkpt lat="44.5266996" lon="10.6247523"><ele>483.1666666666667</ele><time>2026-03-22T09:31:53.9Z</time></trkpt><trkpt lat="44.5267736" lon="10.6246443"><ele>484.0</ele><time>2026-03-22T09:31:55.902Z</time></trkpt><trkpt lat="44.5268284" lon="10.6245848"><ele>484.0</ele><time>2026-03-22T09:31:57.899Z</time></trkpt><trkpt lat="44.5268843" lon="10.6245168"><ele>484.0</ele><time>2026-03-22T09:32:00.902Z</time></trkpt><trkpt lat="44.5268946" lon="10.6243973"><ele>484.0</ele><time>2026-03-22T09:32:03.902Z</time></trkpt><trkpt lat="44.5269027" lon="10.6242188"><ele>484.0</ele><time>2026-03-22T09:32:05.902Z</time></trkpt><trkpt lat="44.5269052" lon="10.6241279"><ele>484.0</ele><time>2026-03-22T09:32:06.904Z</time></trkpt><trkpt lat="44.5268871" lon="10.6239738"><ele>484.0</ele><time>2026-03-22T09:32:08.903Z</time></trkpt><trkpt lat="44.5268516" lon="10.6238844"><ele>483.99999999999994</ele><time>2026-03-22T09:32:10.903Z</time></trkpt><trkpt lat="44.5268593" lon="10.6237724"><ele>484.0</ele><time>2026-03-22T09:32:13.9Z</time></trkpt><trkpt lat="44.5268749" lon="10.6236831"><ele>484.0</ele><time>2026-03-22T09:32:15.907Z</time></trkpt><trkpt lat="44.5268956" lon="10.6235938"><ele>483.99999999999994</ele><time>2026-03-22T09:32:19.907Z</time></trkpt><trkpt lat="44.5269194" lon="10.6234918"><ele>484.0</ele><time>2026-03-22T09:32:51.901Z</time></trkpt><trkpt lat="44.5269207" lon="10.6233983"><ele>484.0</ele><time>2026-03-22T09:33:06.903Z</time></trkpt><trkpt lat="44.5268884" lon="10.6234915"><ele>484.0</ele><time>2026-03-22T09:33:13.907Z</time></trkpt><trkpt lat="44.5268828" lon="10.6235904"><ele>484.0</ele><time>2026-03-22T09:33:14.904Z</time></trkpt><trkpt lat="44.5268358" lon="10.6237548"><ele>484.0</ele><time>2026-03-22T09:33:16.906Z</time></trkpt><trkpt lat="44.5268147" lon="10.6238886"><ele>484.0</ele><time>2026-03-22T09:33:18.902Z</time></trkpt><trkpt lat="44.5268587" lon="10.6239721"><ele>484.0</ele><time>2026-03-22T09:33:20.903Z</time></trkpt><trkpt lat="44.5269607" lon="10.6239586"><ele>484.1666666666667</ele><time>2026-03-22T09:33:23.901Z</time></trkpt><trkpt lat="44.5270525" lon="10.6238746"><ele>484.33333333333337</ele><time>2026-03-22T09:33:25.906Z</time></trkpt><trkpt lat="44.5271033" lon="10.6238175"><ele>484.5</ele><time>2026-03-22T09:33:26.906Z</time></trkpt><trkpt lat="44.5271526" lon="10.6237558"><ele>484.66666666666663</ele><time>2026-03-22T09:33:27.9Z</time></trkpt><trkpt lat="44.5272233" lon="10.6237071"><ele>484.8333333333333</ele><time>2026-03-22T09:33:28.91Z</time></trkpt><trkpt lat="44.5273073" lon="10.6236579"><ele>485.0</ele><time>2026-03-22T09:33:29.907Z</time></trkpt><trkpt lat="44.5273794" lon="10.6236059"><ele>485.49999999999994</ele><time>2026-03-22T09:33:30.897Z</time></trkpt><trkpt lat="44.5274311" lon="10.6235329"><ele>486.0</ele><time>2026-03-22T09:33:32.901Z</time></trkpt><trkpt lat="44.527454" lon="10.6234296"><ele>486.5</ele><time>2026-03-22T09:33:45.896Z</time></trkpt><trkpt lat="44.527435" lon="10.6233185"><ele>487.0</ele><time>2026-03-22T09:33:47.94Z</time></trkpt><trkpt lat="44.5273924" lon="10.6232485"><ele>487.49999999999994</ele><time>2026-03-22T09:33:49.896Z</time></trkpt><trkpt lat="44.5273452" lon="10.6231637"><ele>488.0</ele><time>2026-03-22T09:33:51.905Z</time></trkpt><trkpt lat="44.5272864" lon="10.623058"><ele>487.99999999999994</ele><time>2026-03-22T09:33:53.897Z</time></trkpt><trkpt lat="44.5271996" lon="10.6228961"><ele>488.0</ele><time>2026-03-22T09:33:55.899Z</time></trkpt><trkpt lat="44.5271706" lon="10.6227787"><ele>488.0</ele><time>2026-03-22T09:33:56.899Z</time></trkpt><trkpt lat="44.5271515" lon="10.6226714"><ele>488.0</ele><time>2026-03-22T09:33:57.9Z</time></trkpt><trkpt lat="44.5271432" lon="10.6225779"><ele>487.99999999999994</ele><time>2026-03-22T09:33:58.896Z</time></trkpt><trkpt lat="44.5271459" lon="10.6224889"><ele>488.0</ele><time>2026-03-22T09:33:59.905Z</time></trkpt><trkpt lat="44.5271887" lon="10.6223511"><ele>488.59999999999997</ele><time>2026-03-22T09:34:01.907Z</time></trkpt><trkpt lat="44.527295" lon="10.6222839"><ele>489.19999999999993</ele><time>2026-03-22T09:34:03.897Z</time></trkpt><trkpt lat="44.5274033" lon="10.6222107"><ele>489.8</ele><time>2026-03-22T09:34:05.901Z</time></trkpt><trkpt lat="44.5274626" lon="10.6221702"><ele>490.4</ele><time>2026-03-22T09:34:06.9Z</time></trkpt><trkpt lat="44.5275798" lon="10.6220704"><ele>491.0</ele><time>2026-03-22T09:34:08.897Z</time></trkpt><trkpt lat="44.5276431" lon="10.6220109"><ele>491.3333333333333</ele><time>2026-03-22T09:34:09.904Z</time></trkpt><trkpt lat="44.5276973" lon="10.6219458"><ele>491.66666666666663</ele><time>2026-03-22T09:34:10.9Z</time></trkpt><trkpt lat="44.5277542" lon="10.62186"><ele>492.0</ele><time>2026-03-22T09:34:11.897Z</time></trkpt><trkpt lat="44.5278007" lon="10.621785"><ele>492.33333333333337</ele><time>2026-03-22T09:34:12.899Z</time></trkpt><trkpt lat="44.5278847" lon="10.6216623"><ele>492.6666666666667</ele><time>2026-03-22T09:34:14.903Z</time></trkpt><trkpt lat="44.5279431" lon="10.6216197"><ele>493.0</ele><time>2026-03-22T09:34:15.898Z</time></trkpt><trkpt lat="44.5279982" lon="10.6215645"><ele>493.0</ele><time>2026-03-22T09:34:16.897Z</time></trkpt><trkpt lat="44.5280826" lon="10.6214471"><ele>492.99999999999994</ele><time>2026-03-22T09:34:18.919Z</time></trkpt><trkpt lat="44.5281567" lon="10.6213263"><ele>492.99999999999994</ele><time>2026-03-22T09:34:20.897Z</time></trkpt><trkpt lat="44.5282243" lon="10.6212019"><ele>493.0</ele><time>2026-03-22T09:34:22.899Z</time></trkpt><trkpt lat="44.5282784" lon="10.6211074"><ele>493.0</ele><time>2026-03-22T09:34:24.904Z</time></trkpt><trkpt lat="44.5283283" lon="10.6210165"><ele>491.50000000000006</ele><time>2026-03-22T09:34:26.909Z</time></trkpt><trkpt lat="44.5283619" lon="10.6209297"><ele>490.0</ele><time>2026-03-22T09:34:28.902Z</time></trkpt><trkpt lat="44.5284054" lon="10.6208443"><ele>488.5</ele><time>2026-03-22T09:34:30.899Z</time></trkpt><trkpt lat="44.5284624" lon="10.6207505"><ele>487.0</ele><time>2026-03-22T09:34:32.912Z</time></trkpt><trkpt lat="44.5285214" lon="10.6206639"><ele>485.50000000000006</ele><time>2026-03-22T09:34:34.908Z</time></trkpt><trkpt lat="44.5285988" lon="10.6205634"><ele>484.0</ele><time>2026-03-22T09:34:36.901Z</time></trkpt><trkpt lat="44.5286694" lon="10.6204709"><ele>483.83333333333337</ele><time>2026-03-22T09:34:38.908Z</time></trkpt><trkpt lat="44.5287369" lon="10.6203987"><ele>483.6666666666667</ele><time>2026-03-22T09:34:40.896Z</time></trkpt><trkpt lat="44.5288014" lon="10.6203371"><ele>483.5</ele><time>2026-03-22T09:34:42.899Z</time></trkpt><trkpt lat="44.5288787" lon="10.6202616"><ele>483.33333333333337</ele><time>2026-03-22T09:34:44.897Z</time></trkpt><trkpt lat="44.5289335" lon="10.6201962"><ele>483.1666666666667</ele><time>2026-03-22T09:34:46.904Z</time></trkpt><trkpt lat="44.528982" lon="10.6200941"><ele>483.0</ele><time>2026-03-22T09:34:49.899Z</time></trkpt><trkpt lat="44.5290303" lon="10.6199939"><ele>481.0</ele><time>2026-03-22T09:34:51.895Z</time></trkpt><trkpt lat="44.5290708" lon="10.6198642"><ele>479.0</ele><time>2026-03-22T09:34:53.902Z</time></trkpt><trkpt lat="44.5291044" lon="10.6197747"><ele>477.0</ele><time>2026-03-22T09:34:55.903Z</time></trkpt><trkpt lat="44.5291722" lon="10.6198098"><ele>475.0</ele><time>2026-03-22T09:34:58.897Z</time></trkpt><trkpt lat="44.5291936" lon="10.6199027"><ele>473.0</ele><time>2026-03-22T09:35:00.911Z</time></trkpt><trkpt lat="44.5292475" lon="10.6200013"><ele>471.0</ele><time>2026-03-22T09:35:03.901Z</time></trkpt><trkpt lat="44.5292866" lon="10.620075"><ele>471.0</ele><time>2026-03-22T09:35:05.902Z</time></trkpt><trkpt lat="44.5293229" lon="10.6201534"><ele>471.0</ele><time>2026-03-22T09:35:07.901Z</time></trkpt><trkpt lat="44.5293572" lon="10.6202517"><ele>471.0</ele><time>2026-03-22T09:35:09.905Z</time></trkpt><trkpt lat="44.5293843" lon="10.6203884"><ele>471.0</ele><time>2026-03-22T09:35:11.893Z</time></trkpt><trkpt lat="44.5294133" lon="10.6204873"><ele>471.0</ele><time>2026-03-22T09:35:13.895Z</time></trkpt><trkpt lat="44.5294475" lon="10.6206027"><ele>471.0</ele><time>2026-03-22T09:35:15.897Z</time></trkpt><trkpt lat="44.5294814" lon="10.6207416"><ele>469.20000000000005</ele><time>2026-03-22T09:35:17.9Z</time></trkpt><trkpt lat="44.5295228" lon="10.6208564"><ele>467.40000000000003</ele><time>2026-03-22T09:35:19.898Z</time></trkpt><trkpt lat="44.5295652" lon="10.6209818"><ele>465.6</ele><time>2026-03-22T09:35:21.903Z</time></trkpt><trkpt lat="44.5296102" lon="10.6211204"><ele>463.8</ele><time>2026-03-22T09:35:23.901Z</time></trkpt><trkpt lat="44.5296672" lon="10.6212877"><ele>462.0</ele><time>2026-03-22T09:35:25.898Z</time></trkpt><trkpt lat="44.5296989" lon="10.621366"><ele>462.0</ele><time>2026-03-22T09:35:26.902Z</time></trkpt><trkpt lat="44.5297337" lon="10.6214461"><ele>462.00000000000006</ele><time>2026-03-22T09:35:27.903Z</time></trkpt><trkpt lat="44.5297667" lon="10.6215348"><ele>462.00000000000006</ele><time>2026-03-22T09:35:28.898Z</time></trkpt><trkpt lat="44.5298267" lon="10.6216912"><ele>462.0</ele><time>2026-03-22T09:35:30.902Z</time></trkpt><trkpt lat="44.529875" lon="10.6218222"><ele>462.0</ele><time>2026-03-22T09:35:32.901Z</time></trkpt><trkpt lat="44.5299191" lon="10.621934"><ele>461.0</ele><time>2026-03-22T09:35:34.905Z</time></trkpt><trkpt lat="44.5299628" lon="10.6220306"><ele>460.0</ele><time>2026-03-22T09:35:37.903Z</time></trkpt><trkpt lat="44.5299979" lon="10.6221266"><ele>459.0</ele><time>2026-03-22T09:35:40.904Z</time></trkpt><trkpt lat="44.5300337" lon="10.622223"><ele>458.0</ele><time>2026-03-22T09:35:43.901Z</time></trkpt><trkpt lat="44.5301177" lon="10.622279"><ele>457.0</ele><time>2026-03-22T09:35:46.909Z</time></trkpt><trkpt lat="44.5301974" lon="10.6222929"><ele>456.0</ele><time>2026-03-22T09:35:48.904Z</time></trkpt><trkpt lat="44.5302838" lon="10.6222901"><ele>456.0</ele><time>2026-03-22T09:35:51.907Z</time></trkpt><trkpt lat="44.530332" lon="10.6222295"><ele>456.0</ele><time>2026-03-22T09:35:55.9Z</time></trkpt><trkpt lat="44.5303538" lon="10.6221093"><ele>456.0</ele><time>2026-03-22T09:35:58.899Z</time></trkpt><trkpt lat="44.5303684" lon="10.6220231"><ele>456.0</ele><time>2026-03-22T09:36:00.904Z</time></trkpt><trkpt lat="44.53038" lon="10.6219115"><ele>456.0</ele><time>2026-03-22T09:36:02.917Z</time></trkpt><trkpt lat="44.5303992" lon="10.6217714"><ele>456.0</ele><time>2026-03-22T09:36:04.903Z</time></trkpt><trkpt lat="44.5303933" lon="10.6216271"><ele>455.1666666666667</ele><time>2026-03-22T09:36:06.898Z</time></trkpt><trkpt lat="44.5303771" lon="10.6215182"><ele>454.33333333333337</ele><time>2026-03-22T09:36:08.901Z</time></trkpt><trkpt lat="44.5303571" lon="10.6214059"><ele>453.5</ele><time>2026-03-22T09:36:10.906Z</time></trkpt><trkpt lat="44.5303155" lon="10.6212763"><ele>452.6666666666667</ele><time>2026-03-22T09:36:12.9Z</time></trkpt><trkpt lat="44.5302586" lon="10.6211819"><ele>451.83333333333337</ele><time>2026-03-22T09:36:14.901Z</time></trkpt><trkpt lat="44.53022" lon="10.6210886"><ele>451.0</ele><time>2026-03-22T09:36:16.894Z</time></trkpt><trkpt lat="44.5302111" lon="10.6209796"><ele>451.00000000000006</ele><time>2026-03-22T09:36:19.904Z</time></trkpt><trkpt lat="44.5301937" lon="10.6208786"><ele>451.0</ele><time>2026-03-22T09:36:39.904Z</time></trkpt><trkpt lat="44.5301885" lon="10.6207498"><ele>451.0</ele><time>2026-03-22T09:36:42.908Z</time></trkpt><trkpt lat="44.5301832" lon="10.6206552"><ele>451.0</ele><time>2026-03-22T09:36:45.905Z</time></trkpt><trkpt lat="44.5301853" lon="10.6205516"><ele>451.00000000000006</ele><time>2026-03-22T09:36:47.904Z</time></trkpt><trkpt lat="44.5301875" lon="10.6204486"><ele>451.0</ele><time>2026-03-22T09:36:49.902Z</time></trkpt><trkpt lat="44.5302212" lon="10.6203596"><ele>451.00000000000006</ele><time>2026-03-22T09:36:52.906Z</time></trkpt><trkpt lat="44.530298" lon="10.6203461"><ele>451.0</ele><time>2026-03-22T09:36:55.901Z</time></trkpt><trkpt lat="44.5303734" lon="10.6203558"><ele>451.0</ele><time>2026-03-22T09:36:57.898Z</time></trkpt><trkpt lat="44.5304558" lon="10.6203747"><ele>451.0</ele><time>2026-03-22T09:36:59.897Z</time></trkpt><trkpt lat="44.53057" lon="10.6203658"><ele>451.00000000000006</ele><time>2026-03-22T09:37:01.904Z</time></trkpt><trkpt lat="44.5306529" lon="10.6203596"><ele>451.0</ele><time>2026-03-22T09:37:02.902Z</time></trkpt><trkpt lat="44.5307218" lon="10.6203534"><ele>446.50000000000006</ele><time>2026-03-22T09:37:03.902Z</time></trkpt><trkpt lat="44.5307969" lon="10.6203633"><ele>442.0</ele><time>2026-03-22T09:37:04.909Z</time></trkpt><trkpt lat="44.5308665" lon="10.6204008"><ele>437.5</ele><time>2026-03-22T09:37:10.906Z</time></trkpt><trkpt lat="44.5309436" lon="10.6204228"><ele>433.0</ele><time>2026-03-22T09:37:12.914Z</time></trkpt><trkpt lat="44.5310406" lon="10.6204192"><ele>428.50000000000006</ele><time>2026-03-22T09:37:14.9Z</time></trkpt><trkpt lat="44.5311139" lon="10.6204173"><ele>424.0</ele><time>2026-03-22T09:37:15.899Z</time></trkpt><trkpt lat="44.5312325" lon="10.62041"><ele>426.0</ele><time>2026-03-22T09:37:17.897Z</time></trkpt><trkpt lat="44.5313432" lon="10.6203783"><ele>428.0</ele><time>2026-03-22T09:37:19.899Z</time></trkpt><trkpt lat="44.5314057" lon="10.6203656"><ele>430.0</ele><time>2026-03-22T09:37:20.895Z</time></trkpt><trkpt lat="44.531475" lon="10.6203498"><ele>432.0</ele><time>2026-03-22T09:37:21.903Z</time></trkpt><trkpt lat="44.5315967" lon="10.6203251"><ele>434.0</ele><time>2026-03-22T09:37:23.898Z</time></trkpt><trkpt lat="44.53171" lon="10.6202825"><ele>433.99999999999994</ele><time>2026-03-22T09:37:25.906Z</time></trkpt><trkpt lat="44.5318017" lon="10.6202601"><ele>434.0</ele><time>2026-03-22T09:37:27.897Z</time></trkpt><trkpt lat="44.5318796" lon="10.6202236"><ele>434.0</ele><time>2026-03-22T09:37:29.9Z</time></trkpt><trkpt lat="44.531958" lon="10.6201789"><ele>434.0</ele><time>2026-03-22T09:37:32.902Z</time></trkpt><trkpt lat="44.5320301" lon="10.6201603"><ele>433.99999999999994</ele><time>2026-03-22T09:37:36.907Z</time></trkpt><trkpt lat="44.5320984" lon="10.6201625"><ele>434.0</ele><time>2026-03-22T09:37:40.904Z</time></trkpt><trkpt lat="44.5321564" lon="10.6202036"><ele>430.3333333333333</ele><time>2026-03-22T09:37:44.907Z</time></trkpt><trkpt lat="44.5321532" lon="10.6203015"><ele>426.66666666666663</ele><time>2026-03-22T09:37:49.9Z</time></trkpt><trkpt lat="44.5320987" lon="10.6203899"><ele>423.0</ele><time>2026-03-22T09:37:53.9Z</time></trkpt><trkpt lat="44.5320488" lon="10.6204813"><ele>419.33333333333337</ele><time>2026-03-22T09:37:55.906Z</time></trkpt><trkpt lat="44.5320055" lon="10.6205779"><ele>415.6666666666667</ele><time>2026-03-22T09:37:57.909Z</time></trkpt><trkpt lat="44.5319689" lon="10.6206804"><ele>412.0</ele><time>2026-03-22T09:37:59.906Z</time></trkpt><trkpt lat="44.5319068" lon="10.6207503"><ele>412.00000000000006</ele><time>2026-03-22T09:38:01.902Z</time></trkpt><trkpt lat="44.5318397" lon="10.6207846"><ele>412.0</ele><time>2026-03-22T09:38:03.901Z</time></trkpt><trkpt lat="44.5317766" lon="10.6208265"><ele>412.0</ele><time>2026-03-22T09:38:05.898Z</time></trkpt><trkpt lat="44.5317156" lon="10.6208579"><ele>412.0</ele><time>2026-03-22T09:38:07.904Z</time></trkpt><trkpt lat="44.531641" lon="10.6208895"><ele>412.00000000000006</ele><time>2026-03-22T09:38:10.9Z</time></trkpt><trkpt lat="44.5315711" lon="10.6209188"><ele>412.0</ele><time>2026-03-22T09:38:13.901Z</time></trkpt><trkpt lat="44.5314838" lon="10.6210208"><ele>412.00000000000006</ele><time>2026-03-22T09:38:19.9Z</time></trkpt><trkpt lat="44.5315183" lon="10.6210999"><ele>412.0</ele><time>2026-03-22T09:38:23.899Z</time></trkpt><trkpt lat="44.5315882" lon="10.621164"><ele>412.0</ele><time>2026-03-22T09:38:26.898Z</time></trkpt><trkpt lat="44.5316523" lon="10.621235"><ele>412.0</ele><time>2026-03-22T09:38:30.897Z</time></trkpt><trkpt lat="44.5317057" lon="10.6212823"><ele>412.00000000000006</ele><time>2026-03-22T09:38:34.907Z</time></trkpt><trkpt lat="44.5317674" lon="10.6213246"><ele>412.0</ele><time>2026-03-22T09:38:37.897Z</time></trkpt><trkpt lat="44.5318464" lon="10.6213776"><ele>403.0</ele><time>2026-03-22T09:38:50.904Z</time></trkpt><trkpt lat="44.5319162" lon="10.6214346"><ele>403.0</ele><time>2026-03-22T09:43:16.879Z</time></trkpt><trkpt lat="44.531988" lon="10.6214591"><ele>403.0</ele><time>2026-03-22T09:43:20.907Z</time></trkpt><trkpt lat="44.5320496" lon="10.6214824"><ele>403.0</ele><time>2026-03-22T09:43:23.901Z</time></trkpt><trkpt lat="44.5320996" lon="10.6215368"><ele>382.0</ele><time>2026-03-22T09:43:28.906Z</time></trkpt><trkpt lat="44.5321622" lon="10.6215715"><ele>382.0</ele><time>2026-03-22T09:43:57.906Z</time></trkpt></trkseg><trkseg><trkpt lat="44.5343428" lon="10.6116303"><ele>246.0</ele><time>2026-03-22T10:09:42.679Z</time></trkpt><trkpt lat="44.5342101" lon="10.6113428"><ele>246.0</ele><time>2026-03-22T10:09:44.641Z</time></trkpt><trkpt lat="44.5341545" lon="10.6111664"><ele>246.0</ele><time>2026-03-22T10:09:45.644Z</time></trkpt><trkpt lat="44.5341174" lon="10.6109508"><ele>245.66666666666669</ele><time>2026-03-22T10:09:46.65Z</time></trkpt><trkpt lat="44.5340892" lon="10.6107191"><ele>245.33333333333334</ele><time>2026-03-22T10:09:47.684Z</time></trkpt><trkpt lat="44.5340735" lon="10.6104764"><ele>245.0</ele><time>2026-03-22T10:09:48.661Z</time></trkpt><trkpt lat="44.5340611" lon="10.6102231"><ele>244.66666666666669</ele><time>2026-03-22T10:09:49.674Z</time></trkpt><trkpt lat="44.5340575" lon="10.6099786"><ele>244.33333333333331</ele><time>2026-03-22T10:09:50.653Z</time></trkpt><trkpt lat="44.5340574" lon="10.6097499"><ele>244.0</ele><time>2026-03-22T10:09:51.661Z</time></trkpt><trkpt lat="44.5340563" lon="10.6095321"><ele>244.0</ele><time>2026-03-22T10:09:52.662Z</time></trkpt><trkpt lat="44.5340492" lon="10.6093045"><ele>244.0</ele><time>2026-03-22T10:09:53.666Z</time></trkpt><trkpt lat="44.5340373" lon="10.6090667"><ele>244.0</ele><time>2026-03-22T10:09:54.646Z</time></trkpt><trkpt lat="44.5340252" lon="10.6088153"><ele>242.66666666666666</ele><time>2026-03-22T10:09:55.657Z</time></trkpt><trkpt lat="44.5340096" lon="10.6085554"><ele>241.33333333333331</ele><time>2026-03-22T10:09:56.667Z</time></trkpt><trkpt lat="44.5339897" lon="10.608293"><ele>240.0</ele><time>2026-03-22T10:09:57.642Z</time></trkpt><trkpt lat="44.5339675" lon="10.6080327"><ele>239.33333333333331</ele><time>2026-03-22T10:09:58.657Z</time></trkpt><trkpt lat="44.5339469" lon="10.6077936"><ele>238.66666666666666</ele><time>2026-03-22T10:09:59.671Z</time></trkpt><trkpt lat="44.5339249" lon="10.6075701"><ele>238.0</ele><time>2026-03-22T10:10:00.648Z</time></trkpt><trkpt lat="44.5338962" lon="10.6073502"><ele>238.0</ele><time>2026-03-22T10:10:01.64Z</time></trkpt><trkpt lat="44.5338575" lon="10.6071361"><ele>238.0</ele><time>2026-03-22T10:10:02.648Z</time></trkpt><trkpt lat="44.5338043" lon="10.6069287"><ele>238.0</ele><time>2026-03-22T10:10:03.639Z</time></trkpt><trkpt lat="44.5337436" lon="10.606722"><ele>240.0</ele><time>2026-03-22T10:10:04.65Z</time></trkpt><trkpt lat="44.5336813" lon="10.6065196"><ele>242.0</ele><time>2026-03-22T10:10:05.64Z</time></trkpt><trkpt lat="44.5336183" lon="10.6063139"><ele>244.0</ele><time>2026-03-22T10:10:06.661Z</time></trkpt><trkpt lat="44.5335561" lon="10.6061094"><ele>244.0</ele><time>2026-03-22T10:10:07.639Z</time></trkpt><trkpt lat="44.5334904" lon="10.6058971"><ele>244.0</ele><time>2026-03-22T10:10:08.656Z</time></trkpt><trkpt lat="44.5334228" lon="10.6056821"><ele>244.0</ele><time>2026-03-22T10:10:09.653Z</time></trkpt><trkpt lat="44.5333543" lon="10.6054627"><ele>244.66666666666666</ele><time>2026-03-22T10:10:10.655Z</time></trkpt><trkpt lat="44.533288" lon="10.6052459"><ele>245.33333333333331</ele><time>2026-03-22T10:10:11.649Z</time></trkpt><trkpt lat="44.5332217" lon="10.6050318"><ele>246.0</ele><time>2026-03-22T10:10:12.647Z</time></trkpt><trkpt lat="44.5331534" lon="10.6048204"><ele>246.0</ele><time>2026-03-22T10:10:13.646Z</time></trkpt><trkpt lat="44.5330799" lon="10.6046099"><ele>246.0</ele><time>2026-03-22T10:10:14.672Z</time></trkpt><trkpt lat="44.5329986" lon="10.6044109"><ele>246.0</ele><time>2026-03-22T10:10:15.656Z</time></trkpt><trkpt lat="44.5329027" lon="10.6042208"><ele>250.33333333333331</ele><time>2026-03-22T10:10:16.649Z</time></trkpt><trkpt lat="44.5327953" lon="10.604042"><ele>254.66666666666666</ele><time>2026-03-22T10:10:17.648Z</time></trkpt><trkpt lat="44.5326825" lon="10.6038721"><ele>259.0</ele><time>2026-03-22T10:10:18.657Z</time></trkpt><trkpt lat="44.5325749" lon="10.6037131"><ele>256.75</ele><time>2026-03-22T10:10:19.634Z</time></trkpt><trkpt lat="44.5324669" lon="10.603557"><ele>254.5</ele><time>2026-03-22T10:10:20.644Z</time></trkpt><trkpt lat="44.5323606" lon="10.6034099"><ele>252.25</ele><time>2026-03-22T10:10:21.636Z</time></trkpt><trkpt lat="44.5322608" lon="10.6032657"><ele>250.0</ele><time>2026-03-22T10:10:22.66Z</time></trkpt><trkpt lat="44.5321801" lon="10.6031089"><ele>250.0</ele><time>2026-03-22T10:10:23.644Z</time></trkpt><trkpt lat="44.5321109" lon="10.6029493"><ele>250.0</ele><time>2026-03-22T10:10:24.638Z</time></trkpt><trkpt lat="44.5320434" lon="10.6027824"><ele>250.0</ele><time>2026-03-22T10:10:25.647Z</time></trkpt><trkpt lat="44.5319828" lon="10.6026109"><ele>250.0</ele><time>2026-03-22T10:10:26.659Z</time></trkpt><trkpt lat="44.5319283" lon="10.6024356"><ele>252.25</ele><time>2026-03-22T10:10:27.664Z</time></trkpt><trkpt lat="44.5318693" lon="10.6022684"><ele>254.5</ele><time>2026-03-22T10:10:28.638Z</time></trkpt><trkpt lat="44.5318076" lon="10.6020979"><ele>256.75</ele><time>2026-03-22T10:10:29.647Z</time></trkpt><trkpt lat="44.5317497" lon="10.6019342"><ele>259.0</ele><time>2026-03-22T10:10:30.637Z</time></trkpt><trkpt lat="44.5316907" lon="10.6017671"><ele>259.0</ele><time>2026-03-22T10:10:31.641Z</time></trkpt><trkpt lat="44.5316274" lon="10.6016013"><ele>259.0</ele><time>2026-03-22T10:10:32.665Z</time></trkpt><trkpt lat="44.5315718" lon="10.6014365"><ele>259.0</ele><time>2026-03-22T10:10:33.649Z</time></trkpt><trkpt lat="44.531514" lon="10.6012685"><ele>259.0</ele><time>2026-03-22T10:10:34.634Z</time></trkpt><trkpt lat="44.5314486" lon="10.6011034"><ele>257.5</ele><time>2026-03-22T10:10:35.651Z</time></trkpt><trkpt lat="44.5313929" lon="10.6009471"><ele>256.0</ele><time>2026-03-22T10:10:36.664Z</time></trkpt><trkpt lat="44.5313399" lon="10.6007993"><ele>254.5</ele><time>2026-03-22T10:10:37.665Z</time></trkpt><trkpt lat="44.5312907" lon="10.6006607"><ele>253.0</ele><time>2026-03-22T10:10:38.649Z</time></trkpt><trkpt lat="44.5312482" lon="10.6005259"><ele>253.2</ele><time>2026-03-22T10:10:39.653Z</time></trkpt><trkpt lat="44.5312204" lon="10.6003885"><ele>253.4</ele><time>2026-03-22T10:10:40.661Z</time></trkpt><trkpt lat="44.531202" lon="10.6002475"><ele>253.59999999999997</ele><time>2026-03-22T10:10:41.644Z</time></trkpt><trkpt lat="44.5311947" lon="10.6001047"><ele>253.79999999999998</ele><time>2026-03-22T10:10:42.652Z</time></trkpt><trkpt lat="44.5311933" lon="10.5999565"><ele>254.0</ele><time>2026-03-22T10:10:43.646Z</time></trkpt><trkpt lat="44.5311976" lon="10.5998157"><ele>254.0</ele><time>2026-03-22T10:10:44.65Z</time></trkpt><trkpt lat="44.531197" lon="10.5996814"><ele>253.99999999999997</ele><time>2026-03-22T10:10:45.645Z</time></trkpt><trkpt lat="44.531188" lon="10.599547"><ele>253.99999999999997</ele><time>2026-03-22T10:10:46.647Z</time></trkpt><trkpt lat="44.5311551" lon="10.5994209"><ele>254.0</ele><time>2026-03-22T10:10:47.671Z</time></trkpt><trkpt lat="44.5310952" lon="10.5993095"><ele>254.0</ele><time>2026-03-22T10:10:48.649Z</time></trkpt><trkpt lat="44.5310144" lon="10.5992092"><ele>254.39999999999998</ele><time>2026-03-22T10:10:49.648Z</time></trkpt><trkpt lat="44.5309164" lon="10.5991346"><ele>254.79999999999998</ele><time>2026-03-22T10:10:50.64Z</time></trkpt><trkpt lat="44.5308048" lon="10.5990862"><ele>255.20000000000002</ele><time>2026-03-22T10:10:51.649Z</time></trkpt><trkpt lat="44.5306943" lon="10.5990575"><ele>255.60000000000002</ele><time>2026-03-22T10:10:52.652Z</time></trkpt><trkpt lat="44.5305871" lon="10.5990445"><ele>256.0</ele><time>2026-03-22T10:10:53.653Z</time></trkpt><trkpt lat="44.5304868" lon="10.5990341"><ele>256.0</ele><time>2026-03-22T10:10:54.641Z</time></trkpt><trkpt lat="44.5303854" lon="10.5990243"><ele>256.0</ele><time>2026-03-22T10:10:55.648Z</time></trkpt><trkpt lat="44.5302824" lon="10.5990113"><ele>256.0</ele><time>2026-03-22T10:10:56.662Z</time></trkpt><trkpt lat="44.5301792" lon="10.5989964"><ele>256.0</ele><time>2026-03-22T10:10:57.647Z</time></trkpt><trkpt lat="44.5300716" lon="10.5989723"><ele>256.0</ele><time>2026-03-22T10:10:58.654Z</time></trkpt><trkpt lat="44.529967" lon="10.5989385"><ele>256.0</ele><time>2026-03-22T10:10:59.645Z</time></trkpt><trkpt lat="44.5298655" lon="10.5988972"><ele>256.0</ele><time>2026-03-22T10:11:00.645Z</time></trkpt><trkpt lat="44.5297662" lon="10.598855"><ele>256.0</ele><time>2026-03-22T10:11:01.644Z</time></trkpt><trkpt lat="44.5296671" lon="10.5988139"><ele>256.0</ele><time>2026-03-22T10:11:02.652Z</time></trkpt><trkpt lat="44.5295719" lon="10.5987736"><ele>256.0</ele><time>2026-03-22T10:11:03.644Z</time></trkpt><trkpt lat="44.5294838" lon="10.5987381"><ele>255.85714285714283</ele><time>2026-03-22T10:11:04.66Z</time></trkpt><trkpt lat="44.5294065" lon="10.5987064"><ele>255.7142857142857</ele><time>2026-03-22T10:11:05.652Z</time></trkpt><trkpt lat="44.5293345" lon="10.5986745"><ele>255.57142857142856</ele><time>2026-03-22T10:11:06.65Z</time></trkpt><trkpt lat="44.5292631" lon="10.5986432"><ele>255.42857142857144</ele><time>2026-03-22T10:11:07.659Z</time></trkpt><trkpt lat="44.5291908" lon="10.5986114"><ele>255.2857142857143</ele><time>2026-03-22T10:11:08.657Z</time></trkpt><trkpt lat="44.5291207" lon="10.5985809"><ele>255.14285714285717</ele><time>2026-03-22T10:11:09.679Z</time></trkpt><trkpt lat="44.5290597" lon="10.5985557"><ele>255.0</ele><time>2026-03-22T10:11:10.651Z</time></trkpt><trkpt lat="44.5289681" lon="10.5985162"><ele>255.0</ele><time>2026-03-22T10:11:12.671Z</time></trkpt><trkpt lat="44.5289029" lon="10.5984879"><ele>255.0</ele><time>2026-03-22T10:11:14.664Z</time></trkpt><trkpt lat="44.5287898" lon="10.598419"><ele>255.0</ele><time>2026-03-22T10:11:18.662Z</time></trkpt><trkpt lat="44.5287225" lon="10.5983378"><ele>255.0</ele><time>2026-03-22T10:11:19.643Z</time></trkpt><trkpt lat="44.5286548" lon="10.5982569"><ele>255.0</ele><time>2026-03-22T10:11:20.65Z</time></trkpt><trkpt lat="44.5285895" lon="10.5981851"><ele>255.8</ele><time>2026-03-22T10:11:21.652Z</time></trkpt><trkpt lat="44.528515" lon="10.5981078"><ele>256.6</ele><time>2026-03-22T10:11:22.676Z</time></trkpt><trkpt lat="44.5284582" lon="10.5980366"><ele>257.4</ele><time>2026-03-22T10:11:23.661Z</time></trkpt><trkpt lat="44.5283781" lon="10.5979231"><ele>258.2</ele><time>2026-03-22T10:11:25.651Z</time></trkpt><trkpt lat="44.5283231" lon="10.5978169"><ele>259.0</ele><time>2026-03-22T10:11:27.653Z</time></trkpt><trkpt lat="44.5282758" lon="10.5977065"><ele>261.4</ele><time>2026-03-22T10:11:29.668Z</time></trkpt><trkpt lat="44.528223" lon="10.59759"><ele>263.79999999999995</ele><time>2026-03-22T10:11:31.649Z</time></trkpt><trkpt lat="44.5281618" lon="10.5975407"><ele>266.20000000000005</ele><time>2026-03-22T10:11:34.699Z</time></trkpt><trkpt lat="44.5281378" lon="10.5973129"><ele>268.6</ele><time>2026-03-22T10:11:35.645Z</time></trkpt><trkpt lat="44.5281137" lon="10.5972125"><ele>271.0</ele><time>2026-03-22T10:11:37.682Z</time></trkpt><trkpt lat="44.5280449" lon="10.5971303"><ele>271.0</ele><time>2026-03-22T10:11:40.681Z</time></trkpt><trkpt lat="44.5279727" lon="10.5970979"><ele>271.0</ele><time>2026-03-22T10:11:42.607Z</time></trkpt><trkpt lat="44.5278862" lon="10.5970364"><ele>271.0</ele><time>2026-03-22T10:11:44.936Z</time></trkpt><trkpt lat="44.5278127" lon="10.5969835"><ele>271.0</ele><time>2026-03-22T10:11:46.875Z</time></trkpt><trkpt lat="44.5277463" lon="10.5968605"><ele>271.0</ele><time>2026-03-22T10:11:49.653Z</time></trkpt><trkpt lat="44.5277062" lon="10.5967362"><ele>272.5</ele><time>2026-03-22T10:11:51.712Z</time></trkpt><trkpt lat="44.5276574" lon="10.5966576"><ele>274.0</ele><time>2026-03-22T10:11:55.679Z</time></trkpt><trkpt lat="44.5276603" lon="10.5965601"><ele>275.5</ele><time>2026-03-22T10:12:02.72Z</time></trkpt><trkpt lat="44.5276169" lon="10.5964767"><ele>277.0</ele><time>2026-03-22T10:12:04.648Z</time></trkpt><trkpt lat="44.5275841" lon="10.5963493"><ele>278.5</ele><time>2026-03-22T10:12:07.633Z</time></trkpt><trkpt lat="44.5275458" lon="10.5962423"><ele>280.0</ele><time>2026-03-22T10:12:10.681Z</time></trkpt><trkpt lat="44.5275004" lon="10.596136"><ele>281.3333333333333</ele><time>2026-03-22T10:12:12.64Z</time></trkpt><trkpt lat="44.5274585" lon="10.5960495"><ele>282.66666666666663</ele><time>2026-03-22T10:12:14.64Z</time></trkpt><trkpt lat="44.5273995" lon="10.5959507"><ele>284.0</ele><time>2026-03-22T10:12:16.641Z</time></trkpt><trkpt lat="44.5273359" lon="10.5958531"><ele>285.3333333333333</ele><time>2026-03-22T10:12:18.647Z</time></trkpt><trkpt lat="44.5272896" lon="10.5957749"><ele>286.6666666666667</ele><time>2026-03-22T10:12:19.646Z</time></trkpt><trkpt lat="44.5272329" lon="10.5956739"><ele>288.0</ele><time>2026-03-22T10:12:20.648Z</time></trkpt><trkpt lat="44.5271728" lon="10.5955901"><ele>288.0</ele><time>2026-03-22T10:12:21.652Z</time></trkpt><trkpt lat="44.5271049" lon="10.5954855"><ele>288.0</ele><time>2026-03-22T10:12:23.647Z</time></trkpt><trkpt lat="44.5270796" lon="10.5953936"><ele>288.0</ele><time>2026-03-22T10:13:52.617Z</time></trkpt><trkpt lat="44.5270358" lon="10.5952856"><ele>288.0</ele><time>2026-03-22T10:13:54.641Z</time></trkpt><trkpt lat="44.5269202" lon="10.5951094"><ele>288.0</ele><time>2026-03-22T10:13:57.641Z</time></trkpt><trkpt lat="44.5268706" lon="10.5950039"><ele>290.5</ele><time>2026-03-22T10:13:58.641Z</time></trkpt><trkpt lat="44.5268191" lon="10.5949049"><ele>293.0</ele><time>2026-03-22T10:13:59.644Z</time></trkpt><trkpt lat="44.5267692" lon="10.5948172"><ele>295.5</ele><time>2026-03-22T10:14:00.639Z</time></trkpt><trkpt lat="44.526721" lon="10.5947384"><ele>298.0</ele><time>2026-03-22T10:14:01.649Z</time></trkpt><trkpt lat="44.5266757" lon="10.5946657"><ele>300.5</ele><time>2026-03-22T10:14:02.641Z</time></trkpt><trkpt lat="44.5266336" lon="10.5945947"><ele>303.0</ele><time>2026-03-22T10:14:03.642Z</time></trkpt><trkpt lat="44.5265921" lon="10.5944944"><ele>309.0</ele><time>2026-03-22T10:14:05.638Z</time></trkpt><trkpt lat="44.5266434" lon="10.5943639"><ele>315.0</ele><time>2026-03-22T10:14:08.646Z</time></trkpt><trkpt lat="44.5267015" lon="10.5942172"><ele>321.0</ele><time>2026-03-22T10:14:10.643Z</time></trkpt><trkpt lat="44.526736" lon="10.5941351"><ele>327.0</ele><time>2026-03-22T10:14:11.643Z</time></trkpt><trkpt lat="44.5268286" lon="10.5940264"><ele>333.0</ele><time>2026-03-22T10:14:13.649Z</time></trkpt><trkpt lat="44.5269227" lon="10.5939532"><ele>333.0</ele><time>2026-03-22T10:14:15.644Z</time></trkpt><trkpt lat="44.5270027" lon="10.593847"><ele>333.0</ele><time>2026-03-22T10:14:17.643Z</time></trkpt><trkpt lat="44.5270403" lon="10.5937447"><ele>333.0</ele><time>2026-03-22T10:14:19.647Z</time></trkpt><trkpt lat="44.5270699" lon="10.5938339"><ele>333.0</ele><time>2026-03-22T10:14:20.692Z</time></trkpt><trkpt lat="44.5270452" lon="10.5934694"><ele>335.5</ele><time>2026-03-22T10:14:23.638Z</time></trkpt><trkpt lat="44.5270364" lon="10.5933486"><ele>338.0</ele><time>2026-03-22T10:14:24.641Z</time></trkpt><trkpt lat="44.5270231" lon="10.5932304"><ele>340.5</ele><time>2026-03-22T10:14:25.645Z</time></trkpt><trkpt lat="44.5270058" lon="10.593122"><ele>343.0</ele><time>2026-03-22T10:14:26.641Z</time></trkpt><trkpt lat="44.5269896" lon="10.5930204"><ele>345.5</ele><time>2026-03-22T10:14:27.64Z</time></trkpt><trkpt lat="44.5269795" lon="10.5929235"><ele>348.0</ele><time>2026-03-22T10:14:28.638Z</time></trkpt><trkpt lat="44.5269759" lon="10.5928299"><ele>348.0</ele><time>2026-03-22T10:14:29.642Z</time></trkpt><trkpt lat="44.5269739" lon="10.5927367"><ele>348.0</ele><time>2026-03-22T10:14:30.645Z</time></trkpt><trkpt lat="44.5269712" lon="10.5926448"><ele>348.0</ele><time>2026-03-22T10:14:31.643Z</time></trkpt><trkpt lat="44.5269646" lon="10.592488"><ele>348.0</ele><time>2026-03-22T10:14:33.646Z</time></trkpt><trkpt lat="44.5269489" lon="10.592328"><ele>348.0</ele><time>2026-03-22T10:14:35.637Z</time></trkpt><trkpt lat="44.5269434" lon="10.5922396"><ele>348.0</ele><time>2026-03-22T10:14:36.64Z</time></trkpt><trkpt lat="44.5269298" lon="10.5920549"><ele>348.57142857142856</ele><time>2026-03-22T10:14:38.638Z</time></trkpt><trkpt lat="44.5269172" lon="10.5919468"><ele>349.14285714285717</ele><time>2026-03-22T10:14:39.635Z</time></trkpt><trkpt lat="44.5269031" lon="10.5918517"><ele>349.7142857142857</ele><time>2026-03-22T10:14:40.637Z</time></trkpt><trkpt lat="44.5268901" lon="10.5917591"><ele>350.2857142857143</ele><time>2026-03-22T10:14:41.64Z</time></trkpt><trkpt lat="44.5268775" lon="10.5916542"><ele>350.85714285714283</ele><time>2026-03-22T10:14:42.638Z</time></trkpt><trkpt lat="44.526876" lon="10.5915483"><ele>351.42857142857144</ele><time>2026-03-22T10:14:43.639Z</time></trkpt><trkpt lat="44.5268794" lon="10.5914494"><ele>352.0</ele><time>2026-03-22T10:14:44.644Z</time></trkpt><trkpt lat="44.526885" lon="10.59131"><ele>352.0</ele><time>2026-03-22T10:14:46.645Z</time></trkpt><trkpt lat="44.526894" lon="10.5912167"><ele>352.0</ele><time>2026-03-22T10:14:48.651Z</time></trkpt><trkpt lat="44.5269223" lon="10.5910594"><ele>352.0</ele><time>2026-03-22T10:14:50.639Z</time></trkpt><trkpt lat="44.5269452" lon="10.5908876"><ele>352.0</ele><time>2026-03-22T10:14:52.641Z</time></trkpt><trkpt lat="44.526966" lon="10.5907238"><ele>352.0</ele><time>2026-03-22T10:14:54.642Z</time></trkpt><trkpt lat="44.5269933" lon="10.5906246"><ele>352.40000000000003</ele><time>2026-03-22T10:14:56.721Z</time></trkpt><trkpt lat="44.5270384" lon="10.5905097"><ele>352.8</ele><time>2026-03-22T10:14:59.704Z</time></trkpt><trkpt lat="44.527071" lon="10.5903729"><ele>353.2</ele><time>2026-03-22T10:15:01.665Z</time></trkpt><trkpt lat="44.527101" lon="10.5902424"><ele>353.6</ele><time>2026-03-22T10:15:03.705Z</time></trkpt><trkpt lat="44.5271199" lon="10.5901084"><ele>354.0</ele><time>2026-03-22T10:15:05.641Z</time></trkpt><trkpt lat="44.5271134" lon="10.5900153"><ele>355.4</ele><time>2026-03-22T10:15:07.664Z</time></trkpt><trkpt lat="44.5270846" lon="10.5899363"><ele>356.79999999999995</ele><time>2026-03-22T10:15:10.664Z</time></trkpt><trkpt lat="44.5270628" lon="10.5900526"><ele>358.20000000000005</ele><time>2026-03-22T10:15:49.681Z</time></trkpt><trkpt lat="44.5270731" lon="10.5901706"><ele>359.6</ele><time>2026-03-22T10:15:52.68Z</time></trkpt><trkpt lat="44.5270622" lon="10.5902676"><ele>361.0</ele><time>2026-03-22T10:15:54.723Z</time></trkpt><trkpt lat="44.5269134" lon="10.5903326"><ele>361.0</ele><time>2026-03-22T10:15:56.68Z</time></trkpt><trkpt lat="44.52676" lon="10.5903618"><ele>361.0</ele><time>2026-03-22T10:15:57.65Z</time></trkpt><trkpt lat="44.5266813" lon="10.5903761"><ele>361.0</ele><time>2026-03-22T10:15:59.623Z</time></trkpt><trkpt lat="44.5266328" lon="10.5903026"><ele>361.0</ele><time>2026-03-22T10:16:02.68Z</time></trkpt><trkpt lat="44.5266455" lon="10.590129"><ele>361.0</ele><time>2026-03-22T10:16:05.636Z</time></trkpt><trkpt lat="44.5266577" lon="10.5900077"><ele>361.0</ele><time>2026-03-22T10:16:06.641Z</time></trkpt><trkpt lat="44.5266711" lon="10.5898974"><ele>361.0</ele><time>2026-03-22T10:16:07.637Z</time></trkpt><trkpt lat="44.5266873" lon="10.5897433"><ele>361.0</ele><time>2026-03-22T10:16:09.636Z</time></trkpt><trkpt lat="44.5267126" lon="10.5896429"><ele>361.0</ele><time>2026-03-22T10:16:11.653Z</time></trkpt><trkpt lat="44.5267553" lon="10.5895671"><ele>361.0</ele><time>2026-03-22T10:16:15.641Z</time></trkpt><trkpt lat="44.526833" lon="10.5895189"><ele>361.0</ele><time>2026-03-22T10:16:18.647Z</time></trkpt><trkpt lat="44.5267568" lon="10.5895427"><ele>361.0</ele><time>2026-03-22T10:25:40.657Z</time></trkpt><trkpt lat="44.5267162" lon="10.5896313"><ele>361.0</ele><time>2026-03-22T10:25:43.661Z</time></trkpt><trkpt lat="44.5266976" lon="10.5897174"><ele>361.0</ele><time>2026-03-22T10:25:45.658Z</time></trkpt><trkpt lat="44.5266945" lon="10.5898235"><ele>361.0</ele><time>2026-03-22T10:25:47.651Z</time></trkpt><trkpt lat="44.5266652" lon="10.5899803"><ele>361.0</ele><time>2026-03-22T10:25:49.657Z</time></trkpt><trkpt lat="44.5266371" lon="10.5901176"><ele>361.0</ele><time>2026-03-22T10:25:51.657Z</time></trkpt><trkpt lat="44.5266192" lon="10.5902485"><ele>361.0</ele><time>2026-03-22T10:25:53.653Z</time></trkpt><trkpt lat="44.5266043" lon="10.5903377"><ele>361.0</ele><time>2026-03-22T10:25:55.654Z</time></trkpt><trkpt lat="44.5266297" lon="10.5904204"><ele>361.0</ele><time>2026-03-22T10:25:59.654Z</time></trkpt><trkpt lat="44.526611" lon="10.5905271"><ele>361.0</ele><time>2026-03-22T10:28:21.649Z</time></trkpt><trkpt lat="44.5265884" lon="10.5906819"><ele>361.0</ele><time>2026-03-22T10:28:23.643Z</time></trkpt><trkpt lat="44.5265662" lon="10.5907916"><ele>361.0</ele><time>2026-03-22T10:28:24.64Z</time></trkpt><trkpt lat="44.5265362" lon="10.5908931"><ele>359.8333333333333</ele><time>2026-03-22T10:28:25.641Z</time></trkpt><trkpt lat="44.5265083" lon="10.5909935"><ele>358.66666666666663</ele><time>2026-03-22T10:28:26.652Z</time></trkpt><trkpt lat="44.526504" lon="10.591138"><ele>357.5</ele><time>2026-03-22T10:28:28.649Z</time></trkpt><trkpt lat="44.5264923" lon="10.5912737"><ele>356.3333333333333</ele><time>2026-03-22T10:28:30.647Z</time></trkpt><trkpt lat="44.5264615" lon="10.5913556"><ele>355.1666666666667</ele><time>2026-03-22T10:28:32.65Z</time></trkpt><trkpt lat="44.5263791" lon="10.5914231"><ele>354.0</ele><time>2026-03-22T10:28:34.655Z</time></trkpt><trkpt lat="44.5263264" lon="10.5914726"><ele>354.1666666666667</ele><time>2026-03-22T10:28:35.651Z</time></trkpt><trkpt lat="44.5262603" lon="10.5915548"><ele>354.3333333333333</ele><time>2026-03-22T10:28:36.662Z</time></trkpt><trkpt lat="44.5261985" lon="10.5916512"><ele>354.5</ele><time>2026-03-22T10:28:37.651Z</time></trkpt><trkpt lat="44.5261496" lon="10.5917356"><ele>354.66666666666663</ele><time>2026-03-22T10:28:38.644Z</time></trkpt><trkpt lat="44.5261174" lon="10.5918132"><ele>354.8333333333333</ele><time>2026-03-22T10:28:39.649Z</time></trkpt><trkpt lat="44.5260765" lon="10.591933"><ele>355.0</ele><time>2026-03-22T10:28:41.646Z</time></trkpt><trkpt lat="44.5260302" lon="10.5920182"><ele>355.0</ele><time>2026-03-22T10:28:56.651Z</time></trkpt><trkpt lat="44.5259974" lon="10.5921259"><ele>355.0</ele><time>2026-03-22T10:28:59.646Z</time></trkpt><trkpt lat="44.5260058" lon="10.5922612"><ele>355.0</ele><time>2026-03-22T10:29:01.646Z</time></trkpt><trkpt lat="44.5260149" lon="10.5923748"><ele>355.0</ele><time>2026-03-22T10:29:03.641Z</time></trkpt><trkpt lat="44.5260276" lon="10.5924722"><ele>355.0</ele><time>2026-03-22T10:29:06.644Z</time></trkpt><trkpt lat="44.5259841" lon="10.5925423"><ele>355.0</ele><time>2026-03-22T10:29:14.65Z</time></trkpt><trkpt lat="44.5259608" lon="10.5924442"><ele>355.0</ele><time>2026-03-22T10:29:17.646Z</time></trkpt><trkpt lat="44.5259496" lon="10.59225"><ele>355.0</ele><time>2026-03-22T10:29:19.643Z</time></trkpt><trkpt lat="44.5259412" lon="10.5921323"><ele>355.0</ele><time>2026-03-22T10:29:20.64Z</time></trkpt><trkpt lat="44.525929" lon="10.5920057"><ele>355.0</ele><time>2026-03-22T10:29:21.637Z</time></trkpt><trkpt lat="44.525923" lon="10.5918905"><ele>355.0</ele><time>2026-03-22T10:29:22.641Z</time></trkpt><trkpt lat="44.5259172" lon="10.5917636"><ele>356.6</ele><time>2026-03-22T10:29:23.647Z</time></trkpt><trkpt lat="44.5259033" lon="10.5916121"><ele>358.2</ele><time>2026-03-22T10:29:25.657Z</time></trkpt><trkpt lat="44.5258684" lon="10.5914415"><ele>359.79999999999995</ele><time>2026-03-22T10:29:27.642Z</time></trkpt><trkpt lat="44.5258453" lon="10.5913348"><ele>361.4</ele><time>2026-03-22T10:29:28.646Z</time></trkpt><trkpt lat="44.5258325" lon="10.5912364"><ele>363.0</ele><time>2026-03-22T10:29:29.64Z</time></trkpt><trkpt lat="44.5258249" lon="10.5911461"><ele>364.0</ele><time>2026-03-22T10:29:30.637Z</time></trkpt><trkpt lat="44.525827" lon="10.5909818"><ele>365.0</ele><time>2026-03-22T10:29:32.643Z</time></trkpt><trkpt lat="44.5258446" lon="10.5908399"><ele>366.0</ele><time>2026-03-22T10:29:34.664Z</time></trkpt><trkpt lat="44.5258393" lon="10.5907321"><ele>367.0</ele><time>2026-03-22T10:29:36.643Z</time></trkpt><trkpt lat="44.5258426" lon="10.5905796"><ele>368.0</ele><time>2026-03-22T10:29:38.65Z</time></trkpt><trkpt lat="44.5258456" lon="10.5904302"><ele>369.4</ele><time>2026-03-22T10:29:40.645Z</time></trkpt><trkpt lat="44.5258471" lon="10.5902939"><ele>370.79999999999995</ele><time>2026-03-22T10:29:42.647Z</time></trkpt><trkpt lat="44.5258557" lon="10.5901482"><ele>372.2</ele><time>2026-03-22T10:29:44.648Z</time></trkpt><trkpt lat="44.5258573" lon="10.5900465"><ele>373.6</ele><time>2026-03-22T10:29:45.644Z</time></trkpt><trkpt lat="44.5258712" lon="10.5899112"><ele>375.0</ele><time>2026-03-22T10:29:47.649Z</time></trkpt><trkpt lat="44.5258804" lon="10.58976"><ele>375.0</ele><time>2026-03-22T10:29:49.649Z</time></trkpt><trkpt lat="44.5258655" lon="10.5896408"><ele>375.0</ele><time>2026-03-22T10:29:51.645Z</time></trkpt><trkpt lat="44.5258684" lon="10.5895194"><ele>375.0</ele><time>2026-03-22T10:30:06.65Z</time></trkpt><trkpt lat="44.5258548" lon="10.5894229"><ele>375.0</ele><time>2026-03-22T10:30:08.651Z</time></trkpt><trkpt lat="44.525871" lon="10.589254"><ele>375.0</ele><time>2026-03-22T10:30:10.651Z</time></trkpt><trkpt lat="44.5258877" lon="10.5891572"><ele>375.0</ele><time>2026-03-22T10:30:11.641Z</time></trkpt><trkpt lat="44.5259057" lon="10.5890423"><ele>376.5</ele><time>2026-03-22T10:30:12.645Z</time></trkpt><trkpt lat="44.5259203" lon="10.5889319"><ele>378.0</ele><time>2026-03-22T10:30:13.643Z</time></trkpt><trkpt lat="44.5259414" lon="10.5888299"><ele>379.5</ele><time>2026-03-22T10:30:14.64Z</time></trkpt><trkpt lat="44.5259654" lon="10.5887318"><ele>381.0</ele><time>2026-03-22T10:30:15.65Z</time></trkpt><trkpt lat="44.5260059" lon="10.5886426"><ele>382.5</ele><time>2026-03-22T10:30:16.645Z</time></trkpt><trkpt lat="44.52605" lon="10.5885336"><ele>384.0</ele><time>2026-03-22T10:30:17.669Z</time></trkpt><trkpt lat="44.5260931" lon="10.5884282"><ele>384.8333333333333</ele><time>2026-03-22T10:30:18.648Z</time></trkpt><trkpt lat="44.5261404" lon="10.5883295"><ele>385.66666666666663</ele><time>2026-03-22T10:30:19.639Z</time></trkpt><trkpt lat="44.5261909" lon="10.5882372"><ele>386.5</ele><time>2026-03-22T10:30:20.639Z</time></trkpt><trkpt lat="44.5262345" lon="10.5881559"><ele>387.3333333333333</ele><time>2026-03-22T10:30:21.639Z</time></trkpt><trkpt lat="44.5262782" lon="10.5880841"><ele>388.16666666666663</ele><time>2026-03-22T10:30:22.639Z</time></trkpt><trkpt lat="44.5263343" lon="10.5880116"><ele>389.0</ele><time>2026-03-22T10:30:23.643Z</time></trkpt><trkpt lat="44.5263949" lon="10.587944"><ele>389.49999999999994</ele><time>2026-03-22T10:30:24.662Z</time></trkpt><trkpt lat="44.5264549" lon="10.5878789"><ele>390.0</ele><time>2026-03-22T10:30:25.645Z</time></trkpt><trkpt lat="44.5265126" lon="10.5877892"><ele>390.5</ele><time>2026-03-22T10:30:27.636Z</time></trkpt><trkpt lat="44.526555" lon="10.5877035"><ele>391.0</ele><time>2026-03-22T10:30:38.647Z</time></trkpt><trkpt lat="44.5266132" lon="10.5876582"><ele>391.49999999999994</ele><time>2026-03-22T10:30:40.651Z</time></trkpt><trkpt lat="44.5266709" lon="10.5876111"><ele>392.0</ele><time>2026-03-22T10:30:46.651Z</time></trkpt><trkpt lat="44.5267243" lon="10.5875263"><ele>393.14285714285717</ele><time>2026-03-22T10:30:52.653Z</time></trkpt><trkpt lat="44.5267588" lon="10.5874516"><ele>394.2857142857143</ele><time>2026-03-22T10:31:03.641Z</time></trkpt><trkpt lat="44.5267907" lon="10.587354"><ele>395.42857142857144</ele><time>2026-03-22T10:31:06.653Z</time></trkpt><trkpt lat="44.5268252" lon="10.5872497"><ele>396.57142857142856</ele><time>2026-03-22T10:31:08.647Z</time></trkpt><trkpt lat="44.5268629" lon="10.5871635"><ele>397.7142857142857</ele><time>2026-03-22T10:31:10.645Z</time></trkpt><trkpt lat="44.5268637" lon="10.5870625"><ele>398.8571428571429</ele><time>2026-03-22T10:31:14.641Z</time></trkpt><trkpt lat="44.5268198" lon="10.5869635"><ele>400.0</ele><time>2026-03-22T10:31:17.648Z</time></trkpt><trkpt lat="44.5267609" lon="10.5868813"><ele>400.83333333333337</ele><time>2026-03-22T10:31:20.643Z</time></trkpt><trkpt lat="44.5267091" lon="10.5867808"><ele>401.6666666666667</ele><time>2026-03-22T10:31:22.652Z</time></trkpt><trkpt lat="44.5266681" lon="10.5866743"><ele>402.5</ele><time>2026-03-22T10:31:24.648Z</time></trkpt><trkpt lat="44.5266385" lon="10.5865554"><ele>403.33333333333337</ele><time>2026-03-22T10:31:26.646Z</time></trkpt><trkpt lat="44.5266257" lon="10.586452"><ele>404.1666666666667</ele><time>2026-03-22T10:31:28.647Z</time></trkpt><trkpt lat="44.5266095" lon="10.5863626"><ele>405.0</ele><time>2026-03-22T10:31:30.65Z</time></trkpt><trkpt lat="44.5266284" lon="10.5862612"><ele>406.5</ele><time>2026-03-22T10:31:33.667Z</time></trkpt><trkpt lat="44.5266319" lon="10.5861553"><ele>408.0</ele><time>2026-03-22T10:31:36.648Z</time></trkpt><trkpt lat="44.5265941" lon="10.5860813"><ele>409.5</ele><time>2026-03-22T10:31:38.653Z</time></trkpt><trkpt lat="44.526502" lon="10.5859904"><ele>411.0</ele><time>2026-03-22T10:31:40.645Z</time></trkpt><trkpt lat="44.5264517" lon="10.5859361"><ele>412.5</ele><time>2026-03-22T10:31:41.655Z</time></trkpt><trkpt lat="44.5263538" lon="10.5858352"><ele>414.0</ele><time>2026-03-22T10:31:43.643Z</time></trkpt><trkpt lat="44.5262549" lon="10.5857286"><ele>414.3333333333333</ele><time>2026-03-22T10:31:45.641Z</time></trkpt><trkpt lat="44.5261996" lon="10.5856627"><ele>414.66666666666663</ele><time>2026-03-22T10:31:46.647Z</time></trkpt><trkpt lat="44.5261409" lon="10.5855922"><ele>415.0</ele><time>2026-03-22T10:31:47.648Z</time></trkpt><trkpt lat="44.5260797" lon="10.5855202"><ele>415.3333333333333</ele><time>2026-03-22T10:31:48.647Z</time></trkpt><trkpt lat="44.5260087" lon="10.5854319"><ele>415.66666666666663</ele><time>2026-03-22T10:31:49.644Z</time></trkpt><trkpt lat="44.5259376" lon="10.5853433"><ele>416.0</ele><time>2026-03-22T10:31:50.658Z</time></trkpt><trkpt lat="44.525872" lon="10.585258"><ele>418.66666666666663</ele><time>2026-03-22T10:31:51.648Z</time></trkpt><trkpt lat="44.5258137" lon="10.5851865"><ele>421.3333333333333</ele><time>2026-03-22T10:31:52.651Z</time></trkpt><trkpt lat="44.5257624" lon="10.5851307"><ele>424.0</ele><time>2026-03-22T10:31:53.651Z</time></trkpt><trkpt lat="44.5257079" lon="10.5850804"><ele>426.66666666666663</ele><time>2026-03-22T10:31:54.646Z</time></trkpt><trkpt lat="44.5256033" lon="10.5850006"><ele>429.3333333333333</ele><time>2026-03-22T10:31:56.647Z</time></trkpt><trkpt lat="44.5255132" lon="10.5849441"><ele>432.0</ele><time>2026-03-22T10:31:58.643Z</time></trkpt><trkpt lat="44.5254375" lon="10.5849038"><ele>431.6666666666667</ele><time>2026-03-22T10:32:00.64Z</time></trkpt><trkpt lat="44.5253736" lon="10.5848401"><ele>431.33333333333337</ele><time>2026-03-22T10:32:02.645Z</time></trkpt><trkpt lat="44.5253241" lon="10.5847611"><ele>431.0</ele><time>2026-03-22T10:32:04.653Z</time></trkpt><trkpt lat="44.5252749" lon="10.5846664"><ele>430.6666666666667</ele><time>2026-03-22T10:32:06.656Z</time></trkpt><trkpt lat="44.525237" lon="10.5845586"><ele>430.33333333333337</ele><time>2026-03-22T10:32:08.643Z</time></trkpt><trkpt lat="44.5252037" lon="10.5844666"><ele>430.0</ele><time>2026-03-22T10:32:10.642Z</time></trkpt><trkpt lat="44.5251714" lon="10.5843903"><ele>430.00000000000006</ele><time>2026-03-22T10:32:12.645Z</time></trkpt><trkpt lat="44.5251122" lon="10.5843311"><ele>430.0</ele><time>2026-03-22T10:32:15.653Z</time></trkpt><trkpt lat="44.5250207" lon="10.5843154"><ele>430.0</ele><time>2026-03-22T10:46:28.664Z</time></trkpt><trkpt lat="44.5249357" lon="10.5842625"><ele>430.0</ele><time>2026-03-22T10:46:29.685Z</time></trkpt><trkpt lat="44.524853" lon="10.5842087"><ele>430.00000000000006</ele><time>2026-03-22T10:46:30.656Z</time></trkpt><trkpt lat="44.5247758" lon="10.5841524"><ele>430.0</ele><time>2026-03-22T10:46:31.671Z</time></trkpt><trkpt lat="44.5246925" lon="10.5840931"><ele>430.00000000000006</ele><time>2026-03-22T10:46:32.666Z</time></trkpt><trkpt lat="44.5246234" lon="10.5840486"><ele>430.0</ele><time>2026-03-22T10:46:33.67Z</time></trkpt><trkpt lat="44.5245577" lon="10.5840091"><ele>430.0</ele><time>2026-03-22T10:46:34.685Z</time></trkpt><trkpt lat="44.5244862" lon="10.5839677"><ele>430.0</ele><time>2026-03-22T10:46:35.667Z</time></trkpt><trkpt lat="44.52441" lon="10.583918"><ele>430.00000000000006</ele><time>2026-03-22T10:46:36.692Z</time></trkpt><trkpt lat="44.5243286" lon="10.5838556"><ele>430.0</ele><time>2026-03-22T10:46:37.675Z</time></trkpt><trkpt lat="44.5242506" lon="10.5837878"><ele>429.6</ele><time>2026-03-22T10:46:38.68Z</time></trkpt><trkpt lat="44.5241689" lon="10.5837103"><ele>429.2</ele><time>2026-03-22T10:46:39.669Z</time></trkpt><trkpt lat="44.5240812" lon="10.5836283"><ele>428.79999999999995</ele><time>2026-03-22T10:46:40.68Z</time></trkpt><trkpt lat="44.523991" lon="10.5835441"><ele>428.4</ele><time>2026-03-22T10:46:41.67Z</time></trkpt><trkpt lat="44.5238975" lon="10.5834544"><ele>428.0</ele><time>2026-03-22T10:46:42.675Z</time></trkpt><trkpt lat="44.5238034" lon="10.5833557"><ele>426.0</ele><time>2026-03-22T10:46:43.666Z</time></trkpt><trkpt lat="44.5237128" lon="10.5832456"><ele>424.0</ele><time>2026-03-22T10:46:44.671Z</time></trkpt><trkpt lat="44.523629" lon="10.5831249"><ele>422.0</ele><time>2026-03-22T10:46:45.67Z</time></trkpt><trkpt lat="44.52355" lon="10.5829917"><ele>420.0</ele><time>2026-03-22T10:46:46.678Z</time></trkpt><trkpt lat="44.5234808" lon="10.5828559"><ele>422.0</ele><time>2026-03-22T10:46:47.677Z</time></trkpt><trkpt lat="44.5234182" lon="10.5827166"><ele>424.0</ele><time>2026-03-22T10:46:48.671Z</time></trkpt><trkpt lat="44.5233615" lon="10.5825714"><ele>426.0</ele><time>2026-03-22T10:46:49.677Z</time></trkpt><trkpt lat="44.5233099" lon="10.5824227"><ele>428.0</ele><time>2026-03-22T10:46:50.671Z</time></trkpt><trkpt lat="44.5232704" lon="10.5822751"><ele>428.0</ele><time>2026-03-22T10:46:51.67Z</time></trkpt><trkpt lat="44.5232404" lon="10.5821156"><ele>428.0</ele><time>2026-03-22T10:46:52.674Z</time></trkpt><trkpt lat="44.5232092" lon="10.5819514"><ele>428.0</ele><time>2026-03-22T10:46:53.687Z</time></trkpt><trkpt lat="44.5231662" lon="10.5817722"><ele>428.0</ele><time>2026-03-22T10:46:54.67Z</time></trkpt><trkpt lat="44.5231203" lon="10.5815873"><ele>428.4</ele><time>2026-03-22T10:46:55.682Z</time></trkpt><trkpt lat="44.5230779" lon="10.5814157"><ele>428.79999999999995</ele><time>2026-03-22T10:46:56.674Z</time></trkpt><trkpt lat="44.5230381" lon="10.5812582"><ele>429.2</ele><time>2026-03-22T10:46:57.665Z</time></trkpt><trkpt lat="44.5230023" lon="10.5811262"><ele>429.6</ele><time>2026-03-22T10:46:58.689Z</time></trkpt><trkpt lat="44.5229706" lon="10.5810228"><ele>430.0</ele><time>2026-03-22T10:46:59.671Z</time></trkpt><trkpt lat="44.5228959" lon="10.5809249"><ele>433.83333333333337</ele><time>2026-03-22T10:47:01.677Z</time></trkpt><trkpt lat="44.5228298" lon="10.5809789"><ele>437.6666666666667</ele><time>2026-03-22T10:47:03.668Z</time></trkpt><trkpt lat="44.5228126" lon="10.5810644"><ele>441.5</ele><time>2026-03-22T10:47:04.677Z</time></trkpt><trkpt lat="44.5228104" lon="10.5811834"><ele>445.33333333333337</ele><time>2026-03-22T10:47:05.672Z</time></trkpt><trkpt lat="44.5228076" lon="10.5813062"><ele>449.1666666666667</ele><time>2026-03-22T10:47:06.67Z</time></trkpt><trkpt lat="44.5227963" lon="10.5814153"><ele>453.0</ele><time>2026-03-22T10:47:07.667Z</time></trkpt><trkpt lat="44.5227283" lon="10.581509"><ele>453.1666666666667</ele><time>2026-03-22T10:47:09.672Z</time></trkpt><trkpt lat="44.5226434" lon="10.5814104"><ele>453.33333333333337</ele><time>2026-03-22T10:47:11.675Z</time></trkpt><trkpt lat="44.5226009" lon="10.581321"><ele>453.5</ele><time>2026-03-22T10:47:12.665Z</time></trkpt><trkpt lat="44.5225441" lon="10.5812549"><ele>453.6666666666667</ele><time>2026-03-22T10:47:13.649Z</time></trkpt><trkpt lat="44.5224914" lon="10.581199"><ele>453.83333333333337</ele><time>2026-03-22T10:47:14.653Z</time></trkpt><trkpt lat="44.5224041" lon="10.5812001"><ele>454.0</ele><time>2026-03-22T10:47:15.65Z</time></trkpt><trkpt lat="44.5223103" lon="10.5812083"><ele>454.0</ele><time>2026-03-22T10:47:16.651Z</time></trkpt><trkpt lat="44.5222048" lon="10.5812088"><ele>454.0</ele><time>2026-03-22T10:47:17.654Z</time></trkpt><trkpt lat="44.5220918" lon="10.5812015"><ele>454.0</ele><time>2026-03-22T10:47:18.644Z</time></trkpt><trkpt lat="44.5219823" lon="10.5811859"><ele>454.0</ele><time>2026-03-22T10:47:19.668Z</time></trkpt><trkpt lat="44.5218696" lon="10.5811622"><ele>454.0</ele><time>2026-03-22T10:47:20.653Z</time></trkpt><trkpt lat="44.5217637" lon="10.5811246"><ele>455.50000000000006</ele><time>2026-03-22T10:47:21.651Z</time></trkpt><trkpt lat="44.5216681" lon="10.5810963"><ele>457.0</ele><time>2026-03-22T10:47:22.652Z</time></trkpt><trkpt lat="44.521589" lon="10.5810914"><ele>458.5</ele><time>2026-03-22T10:47:23.658Z</time></trkpt><trkpt lat="44.5215163" lon="10.5811332"><ele>460.0</ele><time>2026-03-22T10:47:24.658Z</time></trkpt><trkpt lat="44.5214483" lon="10.5812074"><ele>461.50000000000006</ele><time>2026-03-22T10:47:25.649Z</time></trkpt><trkpt lat="44.5213859" lon="10.5812891"><ele>463.0</ele><time>2026-03-22T10:47:26.657Z</time></trkpt><trkpt lat="44.5213325" lon="10.5813585"><ele>463.33333333333337</ele><time>2026-03-22T10:47:27.655Z</time></trkpt><trkpt lat="44.5212748" lon="10.5813974"><ele>463.6666666666667</ele><time>2026-03-22T10:47:28.66Z</time></trkpt><trkpt lat="44.5212077" lon="10.5814107"><ele>464.0</ele><time>2026-03-22T10:47:29.659Z</time></trkpt><trkpt lat="44.5211189" lon="10.5813972"><ele>464.33333333333337</ele><time>2026-03-22T10:47:30.66Z</time></trkpt><trkpt lat="44.5210214" lon="10.5814153"><ele>464.6666666666667</ele><time>2026-03-22T10:47:31.656Z</time></trkpt><trkpt lat="44.5209222" lon="10.5814597"><ele>465.0</ele><time>2026-03-22T10:47:32.647Z</time></trkpt><trkpt lat="44.5208241" lon="10.5815041"><ele>468.0</ele><time>2026-03-22T10:47:33.659Z</time></trkpt><trkpt lat="44.5207427" lon="10.5815646"><ele>471.0</ele><time>2026-03-22T10:47:34.658Z</time></trkpt><trkpt lat="44.5206724" lon="10.5816105"><ele>474.0</ele><time>2026-03-22T10:47:35.658Z</time></trkpt><trkpt lat="44.5206038" lon="10.5816487"><ele>477.0</ele><time>2026-03-22T10:47:36.651Z</time></trkpt><trkpt lat="44.5205298" lon="10.5816815"><ele>480.0</ele><time>2026-03-22T10:47:37.658Z</time></trkpt><trkpt lat="44.5204557" lon="10.5816978"><ele>483.0</ele><time>2026-03-22T10:47:38.66Z</time></trkpt><trkpt lat="44.5203843" lon="10.5817036"><ele>483.8333333333333</ele><time>2026-03-22T10:47:39.651Z</time></trkpt><trkpt lat="44.5203173" lon="10.5817134"><ele>484.66666666666663</ele><time>2026-03-22T10:47:40.656Z</time></trkpt><trkpt lat="44.5202222" lon="10.5818009"><ele>485.5</ele><time>2026-03-22T10:47:42.654Z</time></trkpt><trkpt lat="44.5201737" lon="10.581877"><ele>486.3333333333333</ele><time>2026-03-22T10:47:43.653Z</time></trkpt><trkpt lat="44.5201277" lon="10.5819504"><ele>487.16666666666663</ele><time>2026-03-22T10:47:44.65Z</time></trkpt><trkpt lat="44.5200692" lon="10.582073"><ele>488.0</ele><time>2026-03-22T10:47:46.65Z</time></trkpt><trkpt lat="44.5199652" lon="10.5821225"><ele>488.0</ele><time>2026-03-22T10:47:48.64Z</time></trkpt><trkpt lat="44.5199061" lon="10.582062"><ele>487.99999999999994</ele><time>2026-03-22T10:47:50.652Z</time></trkpt><trkpt lat="44.5199016" lon="10.5819456"><ele>487.99999999999994</ele><time>2026-03-22T10:47:52.644Z</time></trkpt><trkpt lat="44.5198762" lon="10.5817978"><ele>488.0</ele><time>2026-03-22T10:47:54.644Z</time></trkpt><trkpt lat="44.5197867" lon="10.5816771"><ele>488.0</ele><time>2026-03-22T10:47:56.639Z</time></trkpt><trkpt lat="44.5197234" lon="10.5816156"><ele>489.66666666666663</ele><time>2026-03-22T10:47:57.644Z</time></trkpt><trkpt lat="44.519646" lon="10.5815648"><ele>491.3333333333333</ele><time>2026-03-22T10:47:58.653Z</time></trkpt><trkpt lat="44.519572" lon="10.5815004"><ele>493.0</ele><time>2026-03-22T10:47:59.658Z</time></trkpt><trkpt lat="44.5195029" lon="10.5814465"><ele>494.66666666666663</ele><time>2026-03-22T10:48:00.649Z</time></trkpt><trkpt lat="44.5194394" lon="10.5813685"><ele>496.3333333333333</ele><time>2026-03-22T10:48:01.651Z</time></trkpt><trkpt lat="44.5193997" lon="10.5812697"><ele>498.0</ele><time>2026-03-22T10:48:02.645Z</time></trkpt><trkpt lat="44.5193728" lon="10.5811422"><ele>499.59999999999997</ele><time>2026-03-22T10:48:03.651Z</time></trkpt><trkpt lat="44.5193384" lon="10.5810182"><ele>501.19999999999993</ele><time>2026-03-22T10:48:04.654Z</time></trkpt><trkpt lat="44.5193007" lon="10.5809165"><ele>502.8</ele><time>2026-03-22T10:48:05.654Z</time></trkpt><trkpt lat="44.5192472" lon="10.5808435"><ele>504.4</ele><time>2026-03-22T10:48:06.651Z</time></trkpt><trkpt lat="44.5191574" lon="10.5807821"><ele>506.0</ele><time>2026-03-22T10:48:07.654Z</time></trkpt><trkpt lat="44.5190634" lon="10.5807198"><ele>506.0</ele><time>2026-03-22T10:48:08.657Z</time></trkpt><trkpt lat="44.518958" lon="10.5806624"><ele>506.0</ele><time>2026-03-22T10:48:09.655Z</time></trkpt><trkpt lat="44.5188581" lon="10.5806062"><ele>506.0</ele><time>2026-03-22T10:48:10.651Z</time></trkpt><trkpt lat="44.5187574" lon="10.580539"><ele>506.0</ele><time>2026-03-22T10:48:11.657Z</time></trkpt><trkpt lat="44.5186653" lon="10.5804412"><ele>506.0</ele><time>2026-03-22T10:48:12.659Z</time></trkpt><trkpt lat="44.5185767" lon="10.5803427"><ele>508.20000000000005</ele><time>2026-03-22T10:48:13.654Z</time></trkpt><trkpt lat="44.5184722" lon="10.5802815"><ele>510.40000000000003</ele><time>2026-03-22T10:48:14.655Z</time></trkpt><trkpt lat="44.5183737" lon="10.5802424"><ele>512.6</ele><time>2026-03-22T10:48:15.657Z</time></trkpt><trkpt lat="44.5182824" lon="10.580198"><ele>514.8000000000001</ele><time>2026-03-22T10:48:16.66Z</time></trkpt><trkpt lat="44.5182117" lon="10.5801286"><ele>517.0</ele><time>2026-03-22T10:48:17.656Z</time></trkpt><trkpt lat="44.5181521" lon="10.5800644"><ele>517.0</ele><time>2026-03-22T10:48:18.656Z</time></trkpt><trkpt lat="44.5181415" lon="10.5799598"><ele>517.0</ele><time>2026-03-22T10:48:19.658Z</time></trkpt><trkpt lat="44.5181296" lon="10.5798373"><ele>517.0</ele><time>2026-03-22T10:48:20.653Z</time></trkpt><trkpt lat="44.5181413" lon="10.5796862"><ele>517.0</ele><time>2026-03-22T10:48:21.664Z</time></trkpt><trkpt lat="44.5181561" lon="10.5795365"><ele>517.0</ele><time>2026-03-22T10:48:22.665Z</time></trkpt><trkpt lat="44.5181628" lon="10.5793799"><ele>517.0</ele><time>2026-03-22T10:48:23.651Z</time></trkpt><trkpt lat="44.5181645" lon="10.5792194"><ele>517.0</ele><time>2026-03-22T10:48:24.654Z</time></trkpt><trkpt lat="44.5181719" lon="10.579052"><ele>517.0</ele><time>2026-03-22T10:48:25.659Z</time></trkpt><trkpt lat="44.518188" lon="10.5788872"><ele>517.0</ele><time>2026-03-22T10:48:26.658Z</time></trkpt><trkpt lat="44.5182071" lon="10.5787196"><ele>517.0</ele><time>2026-03-22T10:48:27.656Z</time></trkpt><trkpt lat="44.5182229" lon="10.5785486"><ele>517.0</ele><time>2026-03-22T10:48:28.664Z</time></trkpt><trkpt lat="44.5182266" lon="10.5783785"><ele>517.0</ele><time>2026-03-22T10:48:29.659Z</time></trkpt><trkpt lat="44.5182213" lon="10.5782144"><ele>517.0</ele><time>2026-03-22T10:48:30.663Z</time></trkpt><trkpt lat="44.5182139" lon="10.5780569"><ele>517.0</ele><time>2026-03-22T10:48:31.66Z</time></trkpt><trkpt lat="44.5182042" lon="10.5779007"><ele>517.0</ele><time>2026-03-22T10:48:32.659Z</time></trkpt><trkpt lat="44.5181939" lon="10.5777409"><ele>517.0</ele><time>2026-03-22T10:48:33.652Z</time></trkpt><trkpt lat="44.5181842" lon="10.577584"><ele>517.0</ele><time>2026-03-22T10:48:34.652Z</time></trkpt><trkpt lat="44.518173" lon="10.5774354"><ele>517.0</ele><time>2026-03-22T10:48:35.661Z</time></trkpt><trkpt lat="44.518161" lon="10.5772956"><ele>517.6</ele><time>2026-03-22T10:48:36.647Z</time></trkpt><trkpt lat="44.5181369" lon="10.5771587"><ele>518.2</ele><time>2026-03-22T10:48:37.659Z</time></trkpt><trkpt lat="44.5181077" lon="10.5770239"><ele>518.8</ele><time>2026-03-22T10:48:38.655Z</time></trkpt><trkpt lat="44.5180769" lon="10.5768882"><ele>519.4</ele><time>2026-03-22T10:48:39.67Z</time></trkpt><trkpt lat="44.5180463" lon="10.5767477"><ele>520.0</ele><time>2026-03-22T10:48:40.661Z</time></trkpt><trkpt lat="44.5180171" lon="10.5766069"><ele>520.0</ele><time>2026-03-22T10:48:41.671Z</time></trkpt><trkpt lat="44.5179866" lon="10.5764677"><ele>520.0</ele><time>2026-03-22T10:48:42.664Z</time></trkpt><trkpt lat="44.5179533" lon="10.5763265"><ele>520.0</ele><time>2026-03-22T10:48:43.656Z</time></trkpt><trkpt lat="44.5179098" lon="10.5762078"><ele>520.0</ele><time>2026-03-22T10:48:44.663Z</time></trkpt><trkpt lat="44.5178588" lon="10.5760924"><ele>520.0</ele><time>2026-03-22T10:48:45.658Z</time></trkpt><trkpt lat="44.5178015" lon="10.5759907"><ele>520.3333333333334</ele><time>2026-03-22T10:48:46.655Z</time></trkpt><trkpt lat="44.5177405" lon="10.5759048"><ele>520.6666666666667</ele><time>2026-03-22T10:48:47.654Z</time></trkpt><trkpt lat="44.5176752" lon="10.5758297"><ele>521.0</ele><time>2026-03-22T10:48:48.655Z</time></trkpt><trkpt lat="44.5176082" lon="10.5757528"><ele>521.3333333333334</ele><time>2026-03-22T10:48:49.66Z</time></trkpt><trkpt lat="44.5175374" lon="10.5756765"><ele>521.6666666666666</ele><time>2026-03-22T10:48:50.652Z</time></trkpt><trkpt lat="44.5174578" lon="10.5756063"><ele>522.0</ele><time>2026-03-22T10:48:51.658Z</time></trkpt><trkpt lat="44.5173723" lon="10.5755329"><ele>522.0</ele><time>2026-03-22T10:48:52.657Z</time></trkpt><trkpt lat="44.5172804" lon="10.5754524"><ele>522.0</ele><time>2026-03-22T10:48:53.661Z</time></trkpt><trkpt lat="44.517183" lon="10.5753688"><ele>522.0</ele><time>2026-03-22T10:48:54.659Z</time></trkpt><trkpt lat="44.5170825" lon="10.5752853"><ele>522.0</ele><time>2026-03-22T10:48:55.67Z</time></trkpt><trkpt lat="44.516982" lon="10.5751976"><ele>523.25</ele><time>2026-03-22T10:48:56.665Z</time></trkpt><trkpt lat="44.516876" lon="10.5751072"><ele>524.5</ele><time>2026-03-22T10:48:57.659Z</time></trkpt><trkpt lat="44.5167651" lon="10.5750132"><ele>525.75</ele><time>2026-03-22T10:48:58.649Z</time></trkpt><trkpt lat="44.5166537" lon="10.5749182"><ele>527.0</ele><time>2026-03-22T10:48:59.667Z</time></trkpt><trkpt lat="44.516542" lon="10.5748226"><ele>527.0</ele><time>2026-03-22T10:49:00.665Z</time></trkpt><trkpt lat="44.5164292" lon="10.5747274"><ele>527.0</ele><time>2026-03-22T10:49:01.655Z</time></trkpt><trkpt lat="44.5163174" lon="10.5746324"><ele>527.0</ele><time>2026-03-22T10:49:02.663Z</time></trkpt><trkpt lat="44.5162172" lon="10.5745451"><ele>527.0</ele><time>2026-03-22T10:49:03.656Z</time></trkpt><trkpt lat="44.5161314" lon="10.5744713"><ele>527.8333333333333</ele><time>2026-03-22T10:49:04.656Z</time></trkpt><trkpt lat="44.5160611" lon="10.5744213"><ele>528.6666666666666</ele><time>2026-03-22T10:49:05.662Z</time></trkpt><trkpt lat="44.5159985" lon="10.5743915"><ele>529.5</ele><time>2026-03-22T10:49:06.659Z</time></trkpt><trkpt lat="44.5159364" lon="10.5743648"><ele>530.3333333333334</ele><time>2026-03-22T10:49:07.661Z</time></trkpt><trkpt lat="44.5158605" lon="10.5743239"><ele>531.1666666666667</ele><time>2026-03-22T10:49:08.645Z</time></trkpt><trkpt lat="44.5157834" lon="10.574265"><ele>532.0</ele><time>2026-03-22T10:49:09.674Z</time></trkpt><trkpt lat="44.515699" lon="10.5741979"><ele>532.0</ele><time>2026-03-22T10:49:10.673Z</time></trkpt><trkpt lat="44.5156114" lon="10.5741288"><ele>532.0</ele><time>2026-03-22T10:49:11.655Z</time></trkpt><trkpt lat="44.5155234" lon="10.574062"><ele>532.0</ele><time>2026-03-22T10:49:12.655Z</time></trkpt><trkpt lat="44.515435" lon="10.5739938"><ele>532.0</ele><time>2026-03-22T10:49:13.657Z</time></trkpt><trkpt lat="44.5153594" lon="10.5739175"><ele>532.0</ele><time>2026-03-22T10:49:14.664Z</time></trkpt><trkpt lat="44.5152906" lon="10.5738396"><ele>533.1666666666667</ele><time>2026-03-22T10:49:15.657Z</time></trkpt><trkpt lat="44.5152459" lon="10.5737544"><ele>534.3333333333334</ele><time>2026-03-22T10:49:16.653Z</time></trkpt><trkpt lat="44.5152017" lon="10.5736308"><ele>535.5</ele><time>2026-03-22T10:49:18.661Z</time></trkpt><trkpt lat="44.5151676" lon="10.5735422"><ele>536.6666666666666</ele><time>2026-03-22T10:49:21.656Z</time></trkpt><trkpt lat="44.5150709" lon="10.5734859"><ele>537.8333333333333</ele><time>2026-03-22T10:49:24.651Z</time></trkpt><trkpt lat="44.5149989" lon="10.573448"><ele>539.0</ele><time>2026-03-22T10:49:26.657Z</time></trkpt><trkpt lat="44.5149624" lon="10.5733749"><ele>539.2</ele><time>2026-03-22T10:49:27.668Z</time></trkpt><trkpt lat="44.5149161" lon="10.5732886"><ele>539.4</ele><time>2026-03-22T10:49:28.664Z</time></trkpt><trkpt lat="44.5148665" lon="10.5731669"><ele>539.6</ele><time>2026-03-22T10:49:29.66Z</time></trkpt><trkpt lat="44.5148071" lon="10.5730507"><ele>539.8</ele><time>2026-03-22T10:49:30.656Z</time></trkpt><trkpt lat="44.5147531" lon="10.5729455"><ele>540.0</ele><time>2026-03-22T10:49:31.662Z</time></trkpt><trkpt lat="44.5146997" lon="10.5728337"><ele>540.0</ele><time>2026-03-22T10:49:32.652Z</time></trkpt><trkpt lat="44.5146951" lon="10.5727285"><ele>540.0</ele><time>2026-03-22T10:49:33.649Z</time></trkpt><trkpt lat="44.5146923" lon="10.5726151"><ele>540.0</ele><time>2026-03-22T10:49:34.66Z</time></trkpt><trkpt lat="44.5147068" lon="10.5725023"><ele>540.0</ele><time>2026-03-22T10:49:35.658Z</time></trkpt><trkpt lat="44.5146841" lon="10.5723979"><ele>540.0</ele><time>2026-03-22T10:49:36.658Z</time></trkpt><trkpt lat="44.5146373" lon="10.5722949"><ele>540.0</ele><time>2026-03-22T10:49:37.66Z</time></trkpt><trkpt lat="44.5146001" lon="10.572202"><ele>540.0</ele><time>2026-03-22T10:49:38.663Z</time></trkpt><trkpt lat="44.5145821" lon="10.5721064"><ele>540.0</ele><time>2026-03-22T10:49:39.658Z</time></trkpt><trkpt lat="44.5145799" lon="10.5720108"><ele>540.0</ele><time>2026-03-22T10:49:40.658Z</time></trkpt><trkpt lat="44.5144948" lon="10.5718784"><ele>540.0</ele><time>2026-03-22T10:49:42.658Z</time></trkpt><trkpt lat="44.5144253" lon="10.5718053"><ele>540.0</ele><time>2026-03-22T10:49:43.659Z</time></trkpt><trkpt lat="44.5143634" lon="10.5717185"><ele>540.0</ele><time>2026-03-22T10:49:44.66Z</time></trkpt><trkpt lat="44.5143106" lon="10.5716469"><ele>541.8333333333334</ele><time>2026-03-22T10:49:45.658Z</time></trkpt><trkpt lat="44.5142437" lon="10.5715778"><ele>543.6666666666666</ele><time>2026-03-22T10:49:46.654Z</time></trkpt><trkpt lat="44.5141812" lon="10.5715231"><ele>545.5</ele><time>2026-03-22T10:49:47.659Z</time></trkpt><trkpt lat="44.5141045" lon="10.5714853"><ele>547.3333333333333</ele><time>2026-03-22T10:49:48.66Z</time></trkpt><trkpt lat="44.5140296" lon="10.5714365"><ele>549.1666666666666</ele><time>2026-03-22T10:49:49.667Z</time></trkpt><trkpt lat="44.5139675" lon="10.5713753"><ele>551.0</ele><time>2026-03-22T10:49:50.654Z</time></trkpt><trkpt lat="44.5139202" lon="10.5712918"><ele>551.8</ele><time>2026-03-22T10:49:51.662Z</time></trkpt><trkpt lat="44.5138915" lon="10.5711789"><ele>552.6</ele><time>2026-03-22T10:49:52.654Z</time></trkpt><trkpt lat="44.5138597" lon="10.5710463"><ele>553.4</ele><time>2026-03-22T10:49:53.654Z</time></trkpt><trkpt lat="44.5138272" lon="10.5709089"><ele>554.2</ele><time>2026-03-22T10:49:54.663Z</time></trkpt><trkpt lat="44.5137914" lon="10.5707782"><ele>555.0</ele><time>2026-03-22T10:49:55.66Z</time></trkpt><trkpt lat="44.5137379" lon="10.5706659"><ele>555.0</ele><time>2026-03-22T10:49:56.666Z</time></trkpt><trkpt lat="44.5136872" lon="10.5705716"><ele>555.0</ele><time>2026-03-22T10:49:57.661Z</time></trkpt><trkpt lat="44.5136382" lon="10.570488"><ele>555.0</ele><time>2026-03-22T10:49:58.655Z</time></trkpt><trkpt lat="44.5135926" lon="10.5704023"><ele>555.0</ele><time>2026-03-22T10:49:59.657Z</time></trkpt><trkpt lat="44.5135478" lon="10.5703138"><ele>555.0</ele><time>2026-03-22T10:50:00.658Z</time></trkpt><trkpt lat="44.5135075" lon="10.5702283"><ele>555.0</ele><time>2026-03-22T10:50:01.659Z</time></trkpt><trkpt lat="44.5134481" lon="10.5700963"><ele>556.0</ele><time>2026-03-22T10:50:03.655Z</time></trkpt><trkpt lat="44.5134001" lon="10.5700298"><ele>557.0</ele><time>2026-03-22T10:50:05.656Z</time></trkpt><trkpt lat="44.5133338" lon="10.5699443"><ele>558.0</ele><time>2026-03-22T10:50:08.649Z</time></trkpt><trkpt lat="44.5133168" lon="10.5698591"><ele>559.0</ele><time>2026-03-22T10:50:10.647Z</time></trkpt><trkpt lat="44.5133348" lon="10.5697744"><ele>560.0</ele><time>2026-03-22T10:50:12.669Z</time></trkpt><trkpt lat="44.5134224" lon="10.5697268"><ele>561.0</ele><time>2026-03-22T10:50:14.655Z</time></trkpt><trkpt lat="44.5134931" lon="10.5696807"><ele>561.0</ele><time>2026-03-22T10:50:15.653Z</time></trkpt><trkpt lat="44.5135638" lon="10.5696055"><ele>561.0</ele><time>2026-03-22T10:50:16.654Z</time></trkpt><trkpt lat="44.513635" lon="10.5695029"><ele>561.0</ele><time>2026-03-22T10:50:17.663Z</time></trkpt><trkpt lat="44.5137037" lon="10.5694017"><ele>561.0</ele><time>2026-03-22T10:50:18.654Z</time></trkpt><trkpt lat="44.5137719" lon="10.5693209"><ele>561.0</ele><time>2026-03-22T10:50:19.663Z</time></trkpt><trkpt lat="44.5138364" lon="10.5692457"><ele>561.0</ele><time>2026-03-22T10:50:20.652Z</time></trkpt><trkpt lat="44.5139086" lon="10.5691982"><ele>561.0</ele><time>2026-03-22T10:50:21.657Z</time></trkpt><trkpt lat="44.5139959" lon="10.569137"><ele>561.0</ele><time>2026-03-22T10:50:22.658Z</time></trkpt><trkpt lat="44.5140856" lon="10.5690516"><ele>561.0</ele><time>2026-03-22T10:50:23.654Z</time></trkpt><trkpt lat="44.5141627" lon="10.5689605"><ele>561.0</ele><time>2026-03-22T10:50:24.654Z</time></trkpt><trkpt lat="44.5142319" lon="10.5688661"><ele>561.0</ele><time>2026-03-22T10:50:25.662Z</time></trkpt><trkpt lat="44.5142913" lon="10.5687737"><ele>561.0</ele><time>2026-03-22T10:50:26.654Z</time></trkpt><trkpt lat="44.5143531" lon="10.5686762"><ele>561.0</ele><time>2026-03-22T10:50:27.658Z</time></trkpt><trkpt lat="44.5144088" lon="10.5685754"><ele>561.0</ele><time>2026-03-22T10:50:28.655Z</time></trkpt><trkpt lat="44.5144657" lon="10.5684699"><ele>561.0</ele><time>2026-03-22T10:50:29.658Z</time></trkpt><trkpt lat="44.5145222" lon="10.5683663"><ele>559.6</ele><time>2026-03-22T10:50:30.655Z</time></trkpt><trkpt lat="44.5145791" lon="10.5682668"><ele>558.2</ele><time>2026-03-22T10:50:31.658Z</time></trkpt><trkpt lat="44.5146357" lon="10.5681672"><ele>556.8</ele><time>2026-03-22T10:50:32.659Z</time></trkpt><trkpt lat="44.5146854" lon="10.5680813"><ele>555.4</ele><time>2026-03-22T10:50:33.663Z</time></trkpt><trkpt lat="44.5147326" lon="10.5680054"><ele>554.0</ele><time>2026-03-22T10:50:34.656Z</time></trkpt><trkpt lat="44.5148096" lon="10.567878"><ele>554.8</ele><time>2026-03-22T10:50:36.66Z</time></trkpt><trkpt lat="44.5148855" lon="10.5678021"><ele>555.5999999999999</ele><time>2026-03-22T10:50:38.659Z</time></trkpt><trkpt lat="44.5149614" lon="10.5677338"><ele>556.4</ele><time>2026-03-22T10:50:40.656Z</time></trkpt><trkpt lat="44.5150129" lon="10.5676212"><ele>557.1999999999999</ele><time>2026-03-22T10:50:42.654Z</time></trkpt><trkpt lat="44.5150489" lon="10.5674979"><ele>558.0</ele><time>2026-03-22T10:50:44.653Z</time></trkpt><trkpt lat="44.515087" lon="10.567333"><ele>558.0</ele><time>2026-03-22T10:50:46.656Z</time></trkpt><trkpt lat="44.5151135" lon="10.5672417"><ele>558.0</ele><time>2026-03-22T10:50:47.658Z</time></trkpt><trkpt lat="44.5151434" lon="10.5671473"><ele>558.0</ele><time>2026-03-22T10:50:48.656Z</time></trkpt><trkpt lat="44.5151767" lon="10.5670496"><ele>558.0</ele><time>2026-03-22T10:50:49.657Z</time></trkpt><trkpt lat="44.5152104" lon="10.5669445"><ele>558.0</ele><time>2026-03-22T10:50:50.655Z</time></trkpt><trkpt lat="44.5152467" lon="10.5668358"><ele>558.0</ele><time>2026-03-22T10:50:51.65Z</time></trkpt><trkpt lat="44.5152865" lon="10.5667262"><ele>558.0</ele><time>2026-03-22T10:50:52.653Z</time></trkpt><trkpt lat="44.5153318" lon="10.5666155"><ele>558.0</ele><time>2026-03-22T10:50:53.653Z</time></trkpt><trkpt lat="44.5153849" lon="10.5665061"><ele>558.0</ele><time>2026-03-22T10:50:54.653Z</time></trkpt><trkpt lat="44.5154456" lon="10.5663993"><ele>558.0</ele><time>2026-03-22T10:50:55.65Z</time></trkpt><trkpt lat="44.515511" lon="10.5662816"><ele>558.0</ele><time>2026-03-22T10:50:56.663Z</time></trkpt><trkpt lat="44.5155786" lon="10.5661516"><ele>558.75</ele><time>2026-03-22T10:50:57.657Z</time></trkpt><trkpt lat="44.5156415" lon="10.5660094"><ele>559.5</ele><time>2026-03-22T10:50:58.661Z</time></trkpt><trkpt lat="44.5156913" lon="10.5658585"><ele>560.25</ele><time>2026-03-22T10:50:59.662Z</time></trkpt><trkpt lat="44.5157263" lon="10.5656989"><ele>561.0</ele><time>2026-03-22T10:51:00.653Z</time></trkpt><trkpt lat="44.5157614" lon="10.5655357"><ele>561.0</ele><time>2026-03-22T10:51:01.655Z</time></trkpt><trkpt lat="44.5157912" lon="10.5653665"><ele>561.0</ele><time>2026-03-22T10:51:02.654Z</time></trkpt><trkpt lat="44.5158279" lon="10.5652128"><ele>561.0</ele><time>2026-03-22T10:51:03.66Z</time></trkpt><trkpt lat="44.5158716" lon="10.5650786"><ele>561.0</ele><time>2026-03-22T10:51:04.651Z</time></trkpt><trkpt lat="44.515926" lon="10.5649466"><ele>561.75</ele><time>2026-03-22T10:51:05.658Z</time></trkpt><trkpt lat="44.5159926" lon="10.564818"><ele>562.5</ele><time>2026-03-22T10:51:06.656Z</time></trkpt><trkpt lat="44.516061" lon="10.564688"><ele>563.25</ele><time>2026-03-22T10:51:07.658Z</time></trkpt><trkpt lat="44.5161548" lon="10.5645807"><ele>564.0</ele><time>2026-03-22T10:51:08.67Z</time></trkpt><trkpt lat="44.5162646" lon="10.5644909"><ele>561.5</ele><time>2026-03-22T10:51:09.658Z</time></trkpt><trkpt lat="44.5163761" lon="10.5644092"><ele>559.0</ele><time>2026-03-22T10:51:10.671Z</time></trkpt><trkpt lat="44.5164748" lon="10.5643192"><ele>556.5</ele><time>2026-03-22T10:51:11.675Z</time></trkpt><trkpt lat="44.5165614" lon="10.5642184"><ele>554.0</ele><time>2026-03-22T10:51:12.669Z</time></trkpt><trkpt lat="44.5166389" lon="10.5641081"><ele>554.0</ele><time>2026-03-22T10:51:13.67Z</time></trkpt><trkpt lat="44.5167078" lon="10.5639855"><ele>554.0</ele><time>2026-03-22T10:51:14.667Z</time></trkpt><trkpt lat="44.5167695" lon="10.5638493"><ele>554.0</ele><time>2026-03-22T10:51:15.661Z</time></trkpt><trkpt lat="44.5168233" lon="10.5637065"><ele>554.0</ele><time>2026-03-22T10:51:16.657Z</time></trkpt><trkpt lat="44.5168746" lon="10.5635608"><ele>554.5</ele><time>2026-03-22T10:51:17.668Z</time></trkpt><trkpt lat="44.5169244" lon="10.5634155"><ele>555.0</ele><time>2026-03-22T10:51:18.665Z</time></trkpt><trkpt lat="44.5169773" lon="10.5632723"><ele>555.5</ele><time>2026-03-22T10:51:19.662Z</time></trkpt><trkpt lat="44.5170262" lon="10.5631297"><ele>556.0</ele><time>2026-03-22T10:51:20.661Z</time></trkpt><trkpt lat="44.5170716" lon="10.5629827"><ele>556.0</ele><time>2026-03-22T10:51:21.672Z</time></trkpt><trkpt lat="44.5171187" lon="10.562826"><ele>556.0</ele><time>2026-03-22T10:51:22.684Z</time></trkpt><trkpt lat="44.517165" lon="10.5626645"><ele>556.0</ele><time>2026-03-22T10:51:23.666Z</time></trkpt><trkpt lat="44.5172113" lon="10.562502"><ele>556.0</ele><time>2026-03-22T10:51:24.671Z</time></trkpt><trkpt lat="44.51726" lon="10.5623452"><ele>556.0</ele><time>2026-03-22T10:51:25.666Z</time></trkpt><trkpt lat="44.5173143" lon="10.5621965"><ele>556.0</ele><time>2026-03-22T10:51:26.665Z</time></trkpt><trkpt lat="44.5173762" lon="10.5620561"><ele>556.0</ele><time>2026-03-22T10:51:27.684Z</time></trkpt><trkpt lat="44.5174416" lon="10.561923"><ele>556.0</ele><time>2026-03-22T10:51:28.673Z</time></trkpt><trkpt lat="44.5175063" lon="10.5617935"><ele>555.6</ele><time>2026-03-22T10:51:29.672Z</time></trkpt><trkpt lat="44.5175698" lon="10.5616627"><ele>555.2</ele><time>2026-03-22T10:51:30.671Z</time></trkpt><trkpt lat="44.517628" lon="10.561534"><ele>554.8</ele><time>2026-03-22T10:51:31.68Z</time></trkpt><trkpt lat="44.5176792" lon="10.5614135"><ele>554.4</ele><time>2026-03-22T10:51:32.667Z</time></trkpt><trkpt lat="44.5177224" lon="10.561305"><ele>554.0</ele><time>2026-03-22T10:51:33.67Z</time></trkpt><trkpt lat="44.5177604" lon="10.5612084"><ele>553.8</ele><time>2026-03-22T10:51:34.668Z</time></trkpt><trkpt lat="44.5177947" lon="10.5611219"><ele>553.5999999999999</ele><time>2026-03-22T10:51:35.647Z</time></trkpt><trkpt lat="44.5178513" lon="10.560986"><ele>553.4</ele><time>2026-03-22T10:51:37.667Z</time></trkpt><trkpt lat="44.5178946" lon="10.560891"><ele>553.1999999999999</ele><time>2026-03-22T10:51:39.672Z</time></trkpt><trkpt lat="44.5179452" lon="10.560818"><ele>553.0</ele><time>2026-03-22T10:51:41.676Z</time></trkpt><trkpt lat="44.5180856" lon="10.5607839"><ele>553.0</ele><time>2026-03-22T10:51:43.67Z</time></trkpt><trkpt lat="44.5181877" lon="10.5607689"><ele>553.0</ele><time>2026-03-22T10:51:44.659Z</time></trkpt><trkpt lat="44.5182965" lon="10.5607445"><ele>553.0</ele><time>2026-03-22T10:51:45.664Z</time></trkpt><trkpt lat="44.518391" lon="10.560719"><ele>553.0</ele><time>2026-03-22T10:51:46.666Z</time></trkpt><trkpt lat="44.518474" lon="10.560697"><ele>553.0</ele><time>2026-03-22T10:51:47.67Z</time></trkpt><trkpt lat="44.5185475" lon="10.5606697"><ele>553.0</ele><time>2026-03-22T10:51:48.673Z</time></trkpt><trkpt lat="44.5186105" lon="10.5606439"><ele>553.0</ele><time>2026-03-22T10:51:49.666Z</time></trkpt><trkpt lat="44.5187109" lon="10.5605882"><ele>553.0</ele><time>2026-03-22T10:51:51.669Z</time></trkpt><trkpt lat="44.5187737" lon="10.5605528"><ele>553.0</ele><time>2026-03-22T10:51:53.666Z</time></trkpt><trkpt lat="44.5188394" lon="10.5605061"><ele>553.0</ele><time>2026-03-22T10:51:56.665Z</time></trkpt><trkpt lat="44.5189014" lon="10.5604505"><ele>553.0</ele><time>2026-03-22T10:51:58.667Z</time></trkpt><trkpt lat="44.5189954" lon="10.5603573"><ele>553.0</ele><time>2026-03-22T10:52:00.668Z</time></trkpt><trkpt lat="44.5190489" lon="10.560297"><ele>553.0</ele><time>2026-03-22T10:52:01.661Z</time></trkpt><trkpt lat="44.5191028" lon="10.5602319"><ele>553.0</ele><time>2026-03-22T10:52:02.675Z</time></trkpt><trkpt lat="44.5191566" lon="10.5601639"><ele>553.0</ele><time>2026-03-22T10:52:03.672Z</time></trkpt><trkpt lat="44.5192095" lon="10.5601019"><ele>553.0</ele><time>2026-03-22T10:52:04.669Z</time></trkpt><trkpt lat="44.5192654" lon="10.5600473"><ele>553.0</ele><time>2026-03-22T10:52:05.673Z</time></trkpt><trkpt lat="44.5193266" lon="10.5600085"><ele>553.0</ele><time>2026-03-22T10:52:06.668Z</time></trkpt><trkpt lat="44.5193922" lon="10.5599858"><ele>553.0</ele><time>2026-03-22T10:52:07.665Z</time></trkpt><trkpt lat="44.5194652" lon="10.5599647"><ele>553.0</ele><time>2026-03-22T10:52:08.669Z</time></trkpt><trkpt lat="44.5195464" lon="10.5599455"><ele>553.0</ele><time>2026-03-22T10:52:09.667Z</time></trkpt><trkpt lat="44.5196404" lon="10.559917"><ele>553.0</ele><time>2026-03-22T10:52:10.663Z</time></trkpt><trkpt lat="44.5197401" lon="10.5598865"><ele>553.0</ele><time>2026-03-22T10:52:11.67Z</time></trkpt><trkpt lat="44.5198417" lon="10.559853"><ele>552.6</ele><time>2026-03-22T10:52:12.67Z</time></trkpt><trkpt lat="44.5199544" lon="10.5598177"><ele>552.1999999999999</ele><time>2026-03-22T10:52:13.668Z</time></trkpt><trkpt lat="44.5200564" lon="10.5597913"><ele>551.8</ele><time>2026-03-22T10:52:14.667Z</time></trkpt><trkpt lat="44.5201545" lon="10.5597707"><ele>551.4</ele><time>2026-03-22T10:52:15.668Z</time></trkpt><trkpt lat="44.520249" lon="10.5597518"><ele>551.0</ele><time>2026-03-22T10:52:16.67Z</time></trkpt><trkpt lat="44.5203416" lon="10.5597347"><ele>551.2</ele><time>2026-03-22T10:52:17.659Z</time></trkpt><trkpt lat="44.520436" lon="10.5597196"><ele>551.4000000000001</ele><time>2026-03-22T10:52:18.668Z</time></trkpt><trkpt lat="44.5205299" lon="10.5597038"><ele>551.6</ele><time>2026-03-22T10:52:19.669Z</time></trkpt><trkpt lat="44.5206285" lon="10.5596842"><ele>551.8000000000001</ele><time>2026-03-22T10:52:20.668Z</time></trkpt><trkpt lat="44.5207218" lon="10.5596618"><ele>552.0</ele><time>2026-03-22T10:52:21.668Z</time></trkpt><trkpt lat="44.5208087" lon="10.5596365"><ele>552.0</ele><time>2026-03-22T10:52:22.667Z</time></trkpt><trkpt lat="44.52089" lon="10.5595949"><ele>552.0</ele><time>2026-03-22T10:52:23.663Z</time></trkpt><trkpt lat="44.5209641" lon="10.5595223"><ele>552.0</ele><time>2026-03-22T10:52:24.668Z</time></trkpt><trkpt lat="44.521028" lon="10.5594132"><ele>552.0</ele><time>2026-03-22T10:52:25.662Z</time></trkpt><trkpt lat="44.5210768" lon="10.5592839"><ele>552.0</ele><time>2026-03-22T10:52:26.66Z</time></trkpt><trkpt lat="44.5211091" lon="10.5591587"><ele>552.0</ele><time>2026-03-22T10:52:27.668Z</time></trkpt><trkpt lat="44.5211356" lon="10.5590381"><ele>552.0</ele><time>2026-03-22T10:52:28.66Z</time></trkpt><trkpt lat="44.521166" lon="10.5589183"><ele>552.0</ele><time>2026-03-22T10:52:29.67Z</time></trkpt><trkpt lat="44.5211994" lon="10.5588011"><ele>552.0</ele><time>2026-03-22T10:52:30.67Z</time></trkpt><trkpt lat="44.52124" lon="10.5586858"><ele>552.0</ele><time>2026-03-22T10:52:31.662Z</time></trkpt><trkpt lat="44.5212906" lon="10.558572"><ele>552.0</ele><time>2026-03-22T10:52:32.683Z</time></trkpt><trkpt lat="44.5213528" lon="10.5584584"><ele>552.0</ele><time>2026-03-22T10:52:33.665Z</time></trkpt><trkpt lat="44.5214268" lon="10.5583481"><ele>552.0</ele><time>2026-03-22T10:52:34.667Z</time></trkpt><trkpt lat="44.521514" lon="10.55825"><ele>552.0</ele><time>2026-03-22T10:52:35.669Z</time></trkpt><trkpt lat="44.5216109" lon="10.558164"><ele>552.0</ele><time>2026-03-22T10:52:36.672Z</time></trkpt><trkpt lat="44.5217091" lon="10.5580866"><ele>552.0</ele><time>2026-03-22T10:52:37.669Z</time></trkpt><trkpt lat="44.5218002" lon="10.5580154"><ele>552.0</ele><time>2026-03-22T10:52:38.64Z</time></trkpt><trkpt lat="44.5218836" lon="10.5579504"><ele>552.0</ele><time>2026-03-22T10:52:39.643Z</time></trkpt><trkpt lat="44.5219646" lon="10.5578865"><ele>552.0</ele><time>2026-03-22T10:52:40.641Z</time></trkpt><trkpt lat="44.5220459" lon="10.5578239"><ele>552.0</ele><time>2026-03-22T10:52:41.659Z</time></trkpt><trkpt lat="44.5221282" lon="10.5577572"><ele>552.2</ele><time>2026-03-22T10:52:42.659Z</time></trkpt><trkpt lat="44.5222145" lon="10.5576856"><ele>552.4000000000001</ele><time>2026-03-22T10:52:43.666Z</time></trkpt><trkpt lat="44.522297" lon="10.5576145"><ele>552.5999999999999</ele><time>2026-03-22T10:52:44.67Z</time></trkpt><trkpt lat="44.5223726" lon="10.5575499"><ele>552.8</ele><time>2026-03-22T10:52:45.671Z</time></trkpt><trkpt lat="44.5224448" lon="10.5574886"><ele>553.0</ele><time>2026-03-22T10:52:46.658Z</time></trkpt><trkpt lat="44.5225151" lon="10.5574302"><ele>553.0</ele><time>2026-03-22T10:52:47.666Z</time></trkpt><trkpt lat="44.5225802" lon="10.5573764"><ele>553.0</ele><time>2026-03-22T10:52:48.676Z</time></trkpt><trkpt lat="44.5226474" lon="10.5573246"><ele>553.0</ele><time>2026-03-22T10:52:49.661Z</time></trkpt><trkpt lat="44.5227121" lon="10.5572767"><ele>553.0</ele><time>2026-03-22T10:52:50.662Z</time></trkpt><trkpt lat="44.5227721" lon="10.5572336"><ele>553.0</ele><time>2026-03-22T10:52:51.661Z</time></trkpt><trkpt lat="44.5228358" lon="10.5571857"><ele>553.0</ele><time>2026-03-22T10:52:52.667Z</time></trkpt><trkpt lat="44.5229008" lon="10.5571349"><ele>553.0</ele><time>2026-03-22T10:52:53.663Z</time></trkpt><trkpt lat="44.5229678" lon="10.5570781"><ele>553.5</ele><time>2026-03-22T10:52:54.666Z</time></trkpt><trkpt lat="44.5230394" lon="10.5570278"><ele>554.0</ele><time>2026-03-22T10:52:55.67Z</time></trkpt><trkpt lat="44.5231081" lon="10.5569753"><ele>554.5</ele><time>2026-03-22T10:52:56.653Z</time></trkpt><trkpt lat="44.5231725" lon="10.5569252"><ele>555.0</ele><time>2026-03-22T10:52:57.665Z</time></trkpt><trkpt lat="44.5232307" lon="10.556884"><ele>555.5</ele><time>2026-03-22T10:52:58.669Z</time></trkpt><trkpt lat="44.5232882" lon="10.5568455"><ele>556.0</ele><time>2026-03-22T10:52:59.673Z</time></trkpt><trkpt lat="44.5233944" lon="10.5568431"><ele>556.0</ele><time>2026-03-22T10:53:01.663Z</time></trkpt><trkpt lat="44.5234414" lon="10.5569905"><ele>556.0</ele><time>2026-03-22T10:53:03.667Z</time></trkpt><trkpt lat="44.5234645" lon="10.5571087"><ele>556.0</ele><time>2026-03-22T10:53:04.67Z</time></trkpt><trkpt lat="44.5234916" lon="10.5572393"><ele>556.0</ele><time>2026-03-22T10:53:05.669Z</time></trkpt><trkpt lat="44.5235248" lon="10.5573709"><ele>556.0</ele><time>2026-03-22T10:53:06.668Z</time></trkpt><trkpt lat="44.5235622" lon="10.557502"><ele>553.4</ele><time>2026-03-22T10:53:07.657Z</time></trkpt><trkpt lat="44.523602" lon="10.5576333"><ele>550.8</ele><time>2026-03-22T10:53:08.66Z</time></trkpt><trkpt lat="44.5236444" lon="10.5577672"><ele>548.1999999999999</ele><time>2026-03-22T10:53:09.676Z</time></trkpt><trkpt lat="44.5236874" lon="10.5579028"><ele>545.6</ele><time>2026-03-22T10:53:10.662Z</time></trkpt><trkpt lat="44.5237353" lon="10.5580339"><ele>543.0</ele><time>2026-03-22T10:53:11.664Z</time></trkpt><trkpt lat="44.5237847" lon="10.5581637"><ele>541.1999999999999</ele><time>2026-03-22T10:53:12.665Z</time></trkpt><trkpt lat="44.5238431" lon="10.5582825"><ele>539.4</ele><time>2026-03-22T10:53:13.676Z</time></trkpt><trkpt lat="44.5238984" lon="10.5583937"><ele>537.5999999999999</ele><time>2026-03-22T10:53:14.683Z</time></trkpt><trkpt lat="44.5239493" lon="10.5584963"><ele>535.8</ele><time>2026-03-22T10:53:15.674Z</time></trkpt><trkpt lat="44.5239922" lon="10.5585935"><ele>534.0</ele><time>2026-03-22T10:53:16.674Z</time></trkpt><trkpt lat="44.5240363" lon="10.5586868"><ele>532.0</ele><time>2026-03-22T10:53:17.664Z</time></trkpt><trkpt lat="44.5240836" lon="10.5587766"><ele>530.0</ele><time>2026-03-22T10:53:18.666Z</time></trkpt><trkpt lat="44.5241354" lon="10.5588654"><ele>528.0</ele><time>2026-03-22T10:53:19.675Z</time></trkpt><trkpt lat="44.5241873" lon="10.558954"><ele>526.0</ele><time>2026-03-22T10:53:20.669Z</time></trkpt><trkpt lat="44.5242373" lon="10.5590427"><ele>524.0</ele><time>2026-03-22T10:53:21.662Z</time></trkpt><trkpt lat="44.5242866" lon="10.5591316"><ele>522.0</ele><time>2026-03-22T10:53:22.663Z</time></trkpt><trkpt lat="44.5243374" lon="10.5592169"><ele>522.0</ele><time>2026-03-22T10:53:23.661Z</time></trkpt><trkpt lat="44.5243875" lon="10.5593039"><ele>522.0</ele><time>2026-03-22T10:53:24.661Z</time></trkpt><trkpt lat="44.5244359" lon="10.559391"><ele>522.0</ele><time>2026-03-22T10:53:25.664Z</time></trkpt><trkpt lat="44.5244825" lon="10.5594725"><ele>522.0</ele><time>2026-03-22T10:53:26.667Z</time></trkpt><trkpt lat="44.5245409" lon="10.5595382"><ele>522.0</ele><time>2026-03-22T10:53:27.663Z</time></trkpt><trkpt lat="44.5245962" lon="10.5595824"><ele>522.0</ele><time>2026-03-22T10:53:28.664Z</time></trkpt><trkpt lat="44.5247043" lon="10.5596471"><ele>521.1666666666666</ele><time>2026-03-22T10:53:30.672Z</time></trkpt><trkpt lat="44.5247828" lon="10.5597204"><ele>520.3333333333334</ele><time>2026-03-22T10:53:32.668Z</time></trkpt><trkpt lat="44.5248029" lon="10.5598133"><ele>519.5</ele><time>2026-03-22T10:53:34.665Z</time></trkpt><trkpt lat="44.5247359" lon="10.5598685"><ele>518.6666666666667</ele><time>2026-03-22T10:53:37.654Z</time></trkpt><trkpt lat="44.524666" lon="10.5598606"><ele>517.8333333333334</ele><time>2026-03-22T10:53:39.659Z</time></trkpt><trkpt lat="44.5245945" lon="10.5598472"><ele>517.0</ele><time>2026-03-22T10:53:42.671Z</time></trkpt><trkpt lat="44.5245246" lon="10.5598487"><ele>517.0</ele><time>2026-03-22T10:53:47.67Z</time></trkpt></trkseg><trkseg><trkpt lat="44.5245817" lon="10.5599091"><ele>514.0</ele><time>2026-03-22T12:36:57.845Z</time></trkpt><trkpt lat="44.5246425" lon="10.5599328"><ele>514.0</ele><time>2026-03-22T12:36:59.898Z</time></trkpt><trkpt lat="44.5247066" lon="10.5599286"><ele>514.0</ele><time>2026-03-22T12:37:01.913Z</time></trkpt><trkpt lat="44.5247765" lon="10.5598413"><ele>514.0</ele><time>2026-03-22T12:37:04.911Z</time></trkpt><trkpt lat="44.5247766" lon="10.5597456"><ele>514.0</ele><time>2026-03-22T12:37:06.893Z</time></trkpt><trkpt lat="44.5247155" lon="10.5596747"><ele>514.0</ele><time>2026-03-22T12:37:08.772Z</time></trkpt><trkpt lat="44.5246007" lon="10.5595867"><ele>515.6</ele><time>2026-03-22T12:37:10.889Z</time></trkpt><trkpt lat="44.5245091" lon="10.5594621"><ele>517.2</ele><time>2026-03-22T12:37:11.896Z</time></trkpt><trkpt lat="44.5244434" lon="10.5593649"><ele>518.8000000000001</ele><time>2026-03-22T12:37:12.884Z</time></trkpt><trkpt lat="44.5243893" lon="10.559278"><ele>520.4</ele><time>2026-03-22T12:37:13.902Z</time></trkpt><trkpt lat="44.5243421" lon="10.5592026"><ele>522.0</ele><time>2026-03-22T12:37:14.88Z</time></trkpt><trkpt lat="44.5242939" lon="10.5591217"><ele>522.0</ele><time>2026-03-22T12:37:15.891Z</time></trkpt><trkpt lat="44.524246" lon="10.5590408"><ele>522.0</ele><time>2026-03-22T12:37:16.883Z</time></trkpt><trkpt lat="44.5241951" lon="10.5589522"><ele>522.0</ele><time>2026-03-22T12:37:17.892Z</time></trkpt><trkpt lat="44.5241456" lon="10.5588646"><ele>522.0</ele><time>2026-03-22T12:37:18.888Z</time></trkpt><trkpt lat="44.5240953" lon="10.5587811"><ele>522.0</ele><time>2026-03-22T12:37:19.895Z</time></trkpt><trkpt lat="44.5240479" lon="10.5586933"><ele>522.0</ele><time>2026-03-22T12:37:20.892Z</time></trkpt><trkpt lat="44.5240012" lon="10.5585979"><ele>523.8333333333334</ele><time>2026-03-22T12:37:21.888Z</time></trkpt><trkpt lat="44.5239524" lon="10.5584982"><ele>525.6666666666666</ele><time>2026-03-22T12:37:22.901Z</time></trkpt><trkpt lat="44.523902" lon="10.5583979"><ele>527.5</ele><time>2026-03-22T12:37:23.885Z</time></trkpt><trkpt lat="44.523848" lon="10.5582936"><ele>529.3333333333333</ele><time>2026-03-22T12:37:24.889Z</time></trkpt><trkpt lat="44.523796" lon="10.5581889"><ele>531.1666666666666</ele><time>2026-03-22T12:37:25.888Z</time></trkpt><trkpt lat="44.5237494" lon="10.5580883"><ele>533.0</ele><time>2026-03-22T12:37:26.888Z</time></trkpt><trkpt lat="44.5237092" lon="10.5579868"><ele>533.0</ele><time>2026-03-22T12:37:27.896Z</time></trkpt><trkpt lat="44.5236721" lon="10.5578734"><ele>533.0</ele><time>2026-03-22T12:37:28.892Z</time></trkpt><trkpt lat="44.5236328" lon="10.5577501"><ele>533.0</ele><time>2026-03-22T12:37:29.89Z</time></trkpt><trkpt lat="44.5235959" lon="10.5576342"><ele>533.0</ele><time>2026-03-22T12:37:30.894Z</time></trkpt><trkpt lat="44.5235601" lon="10.5575185"><ele>533.0</ele><time>2026-03-22T12:37:31.883Z</time></trkpt><trkpt lat="44.5235255" lon="10.5574023"><ele>534.6666666666666</ele><time>2026-03-22T12:37:32.882Z</time></trkpt><trkpt lat="44.5234987" lon="10.5572811"><ele>536.3333333333333</ele><time>2026-03-22T12:37:33.891Z</time></trkpt><trkpt lat="44.5234754" lon="10.5571647"><ele>538.0</ele><time>2026-03-22T12:37:34.896Z</time></trkpt><trkpt lat="44.5234566" lon="10.5570569"><ele>539.6666666666666</ele><time>2026-03-22T12:37:35.895Z</time></trkpt><trkpt lat="44.5234427" lon="10.5569566"><ele>541.3333333333334</ele><time>2026-03-22T12:37:36.889Z</time></trkpt><trkpt lat="44.5234287" lon="10.5568371"><ele>543.0</ele><time>2026-03-22T12:37:38.884Z</time></trkpt><trkpt lat="44.5233657" lon="10.5567811"><ele>543.0</ele><time>2026-03-22T12:37:40.893Z</time></trkpt><trkpt lat="44.5232582" lon="10.556819"><ele>543.0</ele><time>2026-03-22T12:37:42.89Z</time></trkpt><trkpt lat="44.5231997" lon="10.5568571"><ele>543.0</ele><time>2026-03-22T12:37:43.898Z</time></trkpt><trkpt lat="44.5231393" lon="10.5569025"><ele>543.0</ele><time>2026-03-22T12:37:44.896Z</time></trkpt><trkpt lat="44.5230763" lon="10.5569506"><ele>543.0</ele><time>2026-03-22T12:37:45.893Z</time></trkpt><trkpt lat="44.5230114" lon="10.5569985"><ele>543.0</ele><time>2026-03-22T12:37:46.894Z</time></trkpt><trkpt lat="44.5229476" lon="10.5570492"><ele>544.6666666666666</ele><time>2026-03-22T12:37:47.884Z</time></trkpt><trkpt lat="44.5228807" lon="10.557105"><ele>546.3333333333334</ele><time>2026-03-22T12:37:48.889Z</time></trkpt><trkpt lat="44.5228112" lon="10.5571619"><ele>548.0</ele><time>2026-03-22T12:37:49.886Z</time></trkpt><trkpt lat="44.5227426" lon="10.5572196"><ele>549.6666666666667</ele><time>2026-03-22T12:37:50.899Z</time></trkpt><trkpt lat="44.522676" lon="10.5572762"><ele>551.3333333333334</ele><time>2026-03-22T12:37:51.893Z</time></trkpt><trkpt lat="44.5226079" lon="10.5573318"><ele>553.0</ele><time>2026-03-22T12:37:52.889Z</time></trkpt><trkpt lat="44.5225385" lon="10.5573887"><ele>553.0</ele><time>2026-03-22T12:37:53.895Z</time></trkpt><trkpt lat="44.5224652" lon="10.5574474"><ele>553.0</ele><time>2026-03-22T12:37:54.881Z</time></trkpt><trkpt lat="44.5223855" lon="10.5575097"><ele>553.0</ele><time>2026-03-22T12:37:55.892Z</time></trkpt><trkpt lat="44.5223099" lon="10.5575705"><ele>553.0</ele><time>2026-03-22T12:37:56.891Z</time></trkpt><trkpt lat="44.5222337" lon="10.5576307"><ele>553.0</ele><time>2026-03-22T12:37:57.887Z</time></trkpt><trkpt lat="44.5221392" lon="10.5577004"><ele>552.75</ele><time>2026-03-22T12:37:58.884Z</time></trkpt><trkpt lat="44.5220402" lon="10.5577734"><ele>552.5</ele><time>2026-03-22T12:37:59.886Z</time></trkpt><trkpt lat="44.5219388" lon="10.5578478"><ele>552.25</ele><time>2026-03-22T12:38:00.885Z</time></trkpt><trkpt lat="44.5218371" lon="10.5579261"><ele>552.0</ele><time>2026-03-22T12:38:01.884Z</time></trkpt><trkpt lat="44.5217373" lon="10.5580039"><ele>552.0</ele><time>2026-03-22T12:38:02.884Z</time></trkpt><trkpt lat="44.5216394" lon="10.5580817"><ele>552.0</ele><time>2026-03-22T12:38:03.901Z</time></trkpt><trkpt lat="44.521549" lon="10.5581579"><ele>552.0</ele><time>2026-03-22T12:38:04.886Z</time></trkpt><trkpt lat="44.5214626" lon="10.5582349"><ele>552.0</ele><time>2026-03-22T12:38:05.886Z</time></trkpt><trkpt lat="44.5213833" lon="10.5583208"><ele>552.0</ele><time>2026-03-22T12:38:06.884Z</time></trkpt><trkpt lat="44.521309" lon="10.5584117"><ele>552.0</ele><time>2026-03-22T12:38:07.889Z</time></trkpt><trkpt lat="44.521247" lon="10.5585277"><ele>552.0</ele><time>2026-03-22T12:38:08.89Z</time></trkpt><trkpt lat="44.5211869" lon="10.5586509"><ele>552.0</ele><time>2026-03-22T12:38:09.896Z</time></trkpt><trkpt lat="44.5211468" lon="10.5587921"><ele>552.0</ele><time>2026-03-22T12:38:10.885Z</time></trkpt><trkpt lat="44.5211077" lon="10.5589416"><ele>552.0</ele><time>2026-03-22T12:38:11.889Z</time></trkpt><trkpt lat="44.5210804" lon="10.5590934"><ele>552.0</ele><time>2026-03-22T12:38:12.891Z</time></trkpt><trkpt lat="44.5210565" lon="10.5592315"><ele>552.0</ele><time>2026-03-22T12:38:13.884Z</time></trkpt><trkpt lat="44.5210249" lon="10.5593517"><ele>552.0</ele><time>2026-03-22T12:38:14.898Z</time></trkpt><trkpt lat="44.5209772" lon="10.5594587"><ele>552.0</ele><time>2026-03-22T12:38:15.895Z</time></trkpt><trkpt lat="44.5209056" lon="10.5595414"><ele>552.0</ele><time>2026-03-22T12:38:16.884Z</time></trkpt><trkpt lat="44.5208208" lon="10.5595942"><ele>552.0</ele><time>2026-03-22T12:38:17.887Z</time></trkpt><trkpt lat="44.5207306" lon="10.5596238"><ele>552.0</ele><time>2026-03-22T12:38:18.891Z</time></trkpt><trkpt lat="44.5206418" lon="10.5596438"><ele>552.0</ele><time>2026-03-22T12:38:19.887Z</time></trkpt><trkpt lat="44.520554" lon="10.5596609"><ele>552.0</ele><time>2026-03-22T12:38:20.896Z</time></trkpt><trkpt lat="44.5204728" lon="10.5596768"><ele>552.0</ele><time>2026-03-22T12:38:21.884Z</time></trkpt><trkpt lat="44.5203962" lon="10.5596935"><ele>552.0</ele><time>2026-03-22T12:38:22.89Z</time></trkpt><trkpt lat="44.5203231" lon="10.5597104"><ele>551.8333333333334</ele><time>2026-03-22T12:38:23.892Z</time></trkpt><trkpt lat="44.5202477" lon="10.5597208"><ele>551.6666666666666</ele><time>2026-03-22T12:38:24.889Z</time></trkpt><trkpt lat="44.5201685" lon="10.5597333"><ele>551.5</ele><time>2026-03-22T12:38:25.894Z</time></trkpt><trkpt lat="44.5200873" lon="10.5597484"><ele>551.3333333333333</ele><time>2026-03-22T12:38:26.888Z</time></trkpt><trkpt lat="44.5200067" lon="10.5597668"><ele>551.1666666666666</ele><time>2026-03-22T12:38:27.886Z</time></trkpt><trkpt lat="44.5199178" lon="10.5597891"><ele>551.0</ele><time>2026-03-22T12:38:28.892Z</time></trkpt><trkpt lat="44.5198307" lon="10.5598166"><ele>551.0</ele><time>2026-03-22T12:38:29.888Z</time></trkpt><trkpt lat="44.5197454" lon="10.5598464"><ele>551.0</ele><time>2026-03-22T12:38:30.895Z</time></trkpt><trkpt lat="44.5196637" lon="10.559876"><ele>551.0</ele><time>2026-03-22T12:38:31.886Z</time></trkpt><trkpt lat="44.5195824" lon="10.5599028"><ele>551.0</ele><time>2026-03-22T12:38:32.888Z</time></trkpt><trkpt lat="44.5195044" lon="10.5599258"><ele>551.0</ele><time>2026-03-22T12:38:33.89Z</time></trkpt><trkpt lat="44.5194293" lon="10.5599479"><ele>551.0</ele><time>2026-03-22T12:38:34.889Z</time></trkpt><trkpt lat="44.5193574" lon="10.5599777"><ele>551.4</ele><time>2026-03-22T12:38:35.89Z</time></trkpt><trkpt lat="44.5192832" lon="10.5600205"><ele>551.8</ele><time>2026-03-22T12:38:36.892Z</time></trkpt><trkpt lat="44.5192063" lon="10.560076"><ele>552.1999999999999</ele><time>2026-03-22T12:38:37.893Z</time></trkpt><trkpt lat="44.519128" lon="10.5601379"><ele>552.6</ele><time>2026-03-22T12:38:38.89Z</time></trkpt><trkpt lat="44.5190494" lon="10.5602209"><ele>553.0</ele><time>2026-03-22T12:38:39.893Z</time></trkpt><trkpt lat="44.5189683" lon="10.5603084"><ele>553.0</ele><time>2026-03-22T12:38:40.896Z</time></trkpt><trkpt lat="44.5188829" lon="10.5603928"><ele>553.0</ele><time>2026-03-22T12:38:41.894Z</time></trkpt><trkpt lat="44.5187999" lon="10.56048"><ele>553.0</ele><time>2026-03-22T12:38:42.899Z</time></trkpt><trkpt lat="44.5187125" lon="10.560555"><ele>553.0</ele><time>2026-03-22T12:38:43.887Z</time></trkpt><trkpt lat="44.5186184" lon="10.5606164"><ele>553.0</ele><time>2026-03-22T12:38:44.9Z</time></trkpt><trkpt lat="44.5185211" lon="10.5606652"><ele>553.0</ele><time>2026-03-22T12:38:45.881Z</time></trkpt><trkpt lat="44.5184248" lon="10.5607004"><ele>553.0</ele><time>2026-03-22T12:38:46.906Z</time></trkpt><trkpt lat="44.5183316" lon="10.5607248"><ele>553.0</ele><time>2026-03-22T12:38:47.894Z</time></trkpt><trkpt lat="44.5182416" lon="10.5607415"><ele>553.0</ele><time>2026-03-22T12:38:48.896Z</time></trkpt><trkpt lat="44.5181582" lon="10.5607516"><ele>553.0</ele><time>2026-03-22T12:38:49.888Z</time></trkpt><trkpt lat="44.5180809" lon="10.5607627"><ele>553.0</ele><time>2026-03-22T12:38:50.89Z</time></trkpt><trkpt lat="44.5180102" lon="10.5607797"><ele>553.0</ele><time>2026-03-22T12:38:51.894Z</time></trkpt><trkpt lat="44.5179486" lon="10.5608064"><ele>553.0</ele><time>2026-03-22T12:38:52.889Z</time></trkpt><trkpt lat="44.517843" lon="10.560915"><ele>553.0</ele><time>2026-03-22T12:38:54.896Z</time></trkpt><trkpt lat="44.5178032" lon="10.5610142"><ele>553.0</ele><time>2026-03-22T12:38:55.898Z</time></trkpt><trkpt lat="44.5177637" lon="10.5611248"><ele>553.0</ele><time>2026-03-22T12:38:56.891Z</time></trkpt><trkpt lat="44.5177176" lon="10.5612456"><ele>553.1999999999999</ele><time>2026-03-22T12:38:57.89Z</time></trkpt><trkpt lat="44.517666" lon="10.5613744"><ele>553.4</ele><time>2026-03-22T12:38:58.887Z</time></trkpt><trkpt lat="44.5176089" lon="10.5615057"><ele>553.5999999999999</ele><time>2026-03-22T12:38:59.888Z</time></trkpt><trkpt lat="44.5175466" lon="10.5616361"><ele>553.8</ele><time>2026-03-22T12:39:00.908Z</time></trkpt><trkpt lat="44.5174829" lon="10.5617614"><ele>554.0</ele><time>2026-03-22T12:39:01.889Z</time></trkpt><trkpt lat="44.5174216" lon="10.5618809"><ele>554.0</ele><time>2026-03-22T12:39:02.887Z</time></trkpt><trkpt lat="44.5173659" lon="10.5619955"><ele>554.0</ele><time>2026-03-22T12:39:03.889Z</time></trkpt><trkpt lat="44.5173122" lon="10.5621118"><ele>554.0</ele><time>2026-03-22T12:39:04.894Z</time></trkpt><trkpt lat="44.5172633" lon="10.5622288"><ele>554.0</ele><time>2026-03-22T12:39:05.889Z</time></trkpt><trkpt lat="44.5172193" lon="10.5623487"><ele>554.0</ele><time>2026-03-22T12:39:06.889Z</time></trkpt><trkpt lat="44.5171786" lon="10.562474"><ele>554.4</ele><time>2026-03-22T12:39:07.896Z</time></trkpt><trkpt lat="44.5171398" lon="10.562603"><ele>554.8</ele><time>2026-03-22T12:39:08.885Z</time></trkpt><trkpt lat="44.5171012" lon="10.5627354"><ele>555.2</ele><time>2026-03-22T12:39:09.889Z</time></trkpt><trkpt lat="44.5170617" lon="10.5628672"><ele>555.6</ele><time>2026-03-22T12:39:10.889Z</time></trkpt><trkpt lat="44.5170209" lon="10.562998"><ele>556.0</ele><time>2026-03-22T12:39:11.889Z</time></trkpt><trkpt lat="44.5169787" lon="10.5631275"><ele>556.0</ele><time>2026-03-22T12:39:12.908Z</time></trkpt><trkpt lat="44.5169375" lon="10.5632508"><ele>556.0</ele><time>2026-03-22T12:39:13.889Z</time></trkpt><trkpt lat="44.5168994" lon="10.5633711"><ele>556.0</ele><time>2026-03-22T12:39:14.889Z</time></trkpt><trkpt lat="44.5168621" lon="10.5634901"><ele>556.0</ele><time>2026-03-22T12:39:15.889Z</time></trkpt><trkpt lat="44.5168245" lon="10.5636097"><ele>556.0</ele><time>2026-03-22T12:39:16.894Z</time></trkpt><trkpt lat="44.5167871" lon="10.5637312"><ele>555.6</ele><time>2026-03-22T12:39:17.89Z</time></trkpt><trkpt lat="44.5167486" lon="10.563849"><ele>555.2</ele><time>2026-03-22T12:39:18.889Z</time></trkpt><trkpt lat="44.5167034" lon="10.5639654"><ele>554.8</ele><time>2026-03-22T12:39:19.902Z</time></trkpt><trkpt lat="44.5166475" lon="10.5640794"><ele>554.4</ele><time>2026-03-22T12:39:20.889Z</time></trkpt><trkpt lat="44.5165774" lon="10.564191"><ele>554.0</ele><time>2026-03-22T12:39:21.889Z</time></trkpt><trkpt lat="44.5164968" lon="10.5642918"><ele>554.0</ele><time>2026-03-22T12:39:22.924Z</time></trkpt><trkpt lat="44.5164083" lon="10.5643723"><ele>554.0</ele><time>2026-03-22T12:39:23.916Z</time></trkpt><trkpt lat="44.5163072" lon="10.5644426"><ele>554.0</ele><time>2026-03-22T12:39:24.889Z</time></trkpt><trkpt lat="44.5161969" lon="10.564519"><ele>554.0</ele><time>2026-03-22T12:39:25.891Z</time></trkpt><trkpt lat="44.5160903" lon="10.5646166"><ele>556.5</ele><time>2026-03-22T12:39:26.889Z</time></trkpt><trkpt lat="44.5159938" lon="10.5647409"><ele>559.0</ele><time>2026-03-22T12:39:27.906Z</time></trkpt><trkpt lat="44.5159121" lon="10.5648837"><ele>561.5</ele><time>2026-03-22T12:39:28.902Z</time></trkpt><trkpt lat="44.5158453" lon="10.5650369"><ele>564.0</ele><time>2026-03-22T12:39:29.888Z</time></trkpt><trkpt lat="44.5157838" lon="10.5651915"><ele>564.0</ele><time>2026-03-22T12:39:30.888Z</time></trkpt><trkpt lat="44.5157437" lon="10.565354"><ele>564.0</ele><time>2026-03-22T12:39:31.891Z</time></trkpt><trkpt lat="44.5157176" lon="10.5655238"><ele>564.0</ele><time>2026-03-22T12:39:32.886Z</time></trkpt><trkpt lat="44.5156937" lon="10.5656934"><ele>564.0</ele><time>2026-03-22T12:39:33.896Z</time></trkpt><trkpt lat="44.5156601" lon="10.5658498"><ele>563.6</ele><time>2026-03-22T12:39:34.892Z</time></trkpt><trkpt lat="44.5156098" lon="10.565993"><ele>563.2</ele><time>2026-03-22T12:39:35.888Z</time></trkpt><trkpt lat="44.5155476" lon="10.5661269"><ele>562.8000000000001</ele><time>2026-03-22T12:39:36.899Z</time></trkpt><trkpt lat="44.5154793" lon="10.5662507"><ele>562.4</ele><time>2026-03-22T12:39:37.888Z</time></trkpt><trkpt lat="44.5154102" lon="10.5663704"><ele>562.0</ele><time>2026-03-22T12:39:38.898Z</time></trkpt><trkpt lat="44.5153466" lon="10.5664866"><ele>562.0</ele><time>2026-03-22T12:39:39.892Z</time></trkpt><trkpt lat="44.5152924" lon="10.5666013"><ele>562.0</ele><time>2026-03-22T12:39:40.889Z</time></trkpt><trkpt lat="44.5152471" lon="10.5667131"><ele>562.0</ele><time>2026-03-22T12:39:41.895Z</time></trkpt><trkpt lat="44.5152067" lon="10.5668255"><ele>562.0</ele><time>2026-03-22T12:39:42.89Z</time></trkpt><trkpt lat="44.5151682" lon="10.5669417"><ele>562.0</ele><time>2026-03-22T12:39:43.889Z</time></trkpt><trkpt lat="44.5151308" lon="10.567059"><ele>561.3333333333334</ele><time>2026-03-22T12:39:44.892Z</time></trkpt><trkpt lat="44.5150941" lon="10.567176"><ele>560.6666666666667</ele><time>2026-03-22T12:39:45.886Z</time></trkpt><trkpt lat="44.5150604" lon="10.5672934"><ele>560.0</ele><time>2026-03-22T12:39:46.891Z</time></trkpt><trkpt lat="44.515035" lon="10.5674083"><ele>559.3333333333334</ele><time>2026-03-22T12:39:47.894Z</time></trkpt><trkpt lat="44.5150154" lon="10.567514"><ele>558.6666666666666</ele><time>2026-03-22T12:39:48.89Z</time></trkpt><trkpt lat="44.5149977" lon="10.5676012"><ele>558.0</ele><time>2026-03-22T12:39:49.896Z</time></trkpt><trkpt lat="44.5149553" lon="10.5677219"><ele>558.0</ele><time>2026-03-22T12:39:51.888Z</time></trkpt><trkpt lat="44.5148672" lon="10.5678384"><ele>558.0</ele><time>2026-03-22T12:39:53.894Z</time></trkpt><trkpt lat="44.5147952" lon="10.5679259"><ele>558.0</ele><time>2026-03-22T12:39:54.899Z</time></trkpt><trkpt lat="44.5147234" lon="10.5680426"><ele>558.0</ele><time>2026-03-22T12:39:55.884Z</time></trkpt><trkpt lat="44.5146514" lon="10.5681724"><ele>558.0</ele><time>2026-03-22T12:39:56.885Z</time></trkpt><trkpt lat="44.5145756" lon="10.5683073"><ele>558.5</ele><time>2026-03-22T12:39:57.885Z</time></trkpt><trkpt lat="44.514499" lon="10.5684441"><ele>559.0</ele><time>2026-03-22T12:39:58.887Z</time></trkpt><trkpt lat="44.514422" lon="10.5685855"><ele>559.5</ele><time>2026-03-22T12:39:59.89Z</time></trkpt><trkpt lat="44.51435" lon="10.5687136"><ele>560.0</ele><time>2026-03-22T12:40:00.887Z</time></trkpt><trkpt lat="44.5142881" lon="10.5688185"><ele>560.1666666666666</ele><time>2026-03-22T12:40:01.898Z</time></trkpt><trkpt lat="44.5142308" lon="10.5689053"><ele>560.3333333333333</ele><time>2026-03-22T12:40:02.887Z</time></trkpt><trkpt lat="44.5141773" lon="10.5689869"><ele>560.5</ele><time>2026-03-22T12:40:03.891Z</time></trkpt><trkpt lat="44.5141248" lon="10.5690582"><ele>560.6666666666666</ele><time>2026-03-22T12:40:04.886Z</time></trkpt><trkpt lat="44.5140343" lon="10.5691533"><ele>560.8333333333334</ele><time>2026-03-22T12:40:06.886Z</time></trkpt><trkpt lat="44.5139559" lon="10.5692194"><ele>561.0</ele><time>2026-03-22T12:40:08.89Z</time></trkpt><trkpt lat="44.5138501" lon="10.5692963"><ele>561.0</ele><time>2026-03-22T12:40:10.885Z</time></trkpt><trkpt lat="44.5137901" lon="10.5693426"><ele>561.0</ele><time>2026-03-22T12:40:11.9Z</time></trkpt><trkpt lat="44.513729" lon="10.5694018"><ele>561.0</ele><time>2026-03-22T12:40:12.895Z</time></trkpt><trkpt lat="44.5136724" lon="10.569475"><ele>561.0</ele><time>2026-03-22T12:40:13.891Z</time></trkpt><trkpt lat="44.513621" lon="10.5695534"><ele>561.0</ele><time>2026-03-22T12:40:14.885Z</time></trkpt><trkpt lat="44.5135752" lon="10.569632"><ele>561.0</ele><time>2026-03-22T12:40:15.89Z</time></trkpt><trkpt lat="44.5135254" lon="10.5697106"><ele>561.0</ele><time>2026-03-22T12:40:16.893Z</time></trkpt><trkpt lat="44.51347" lon="10.5697656"><ele>561.0</ele><time>2026-03-22T12:40:17.888Z</time></trkpt><trkpt lat="44.5134111" lon="10.5698021"><ele>561.0</ele><time>2026-03-22T12:40:18.886Z</time></trkpt><trkpt lat="44.5133221" lon="10.5698279"><ele>561.0</ele><time>2026-03-22T12:40:20.882Z</time></trkpt><trkpt lat="44.513301" lon="10.5699152"><ele>561.0</ele><time>2026-03-22T12:40:23.89Z</time></trkpt><trkpt lat="44.5133791" lon="10.5700523"><ele>561.0</ele><time>2026-03-22T12:40:25.896Z</time></trkpt><trkpt lat="44.5134251" lon="10.5701246"><ele>561.0</ele><time>2026-03-22T12:40:26.886Z</time></trkpt><trkpt lat="44.5134686" lon="10.5702127"><ele>561.0</ele><time>2026-03-22T12:40:27.891Z</time></trkpt><trkpt lat="44.5135171" lon="10.5703112"><ele>561.0</ele><time>2026-03-22T12:40:28.889Z</time></trkpt><trkpt lat="44.5135666" lon="10.570409"><ele>561.0</ele><time>2026-03-22T12:40:29.889Z</time></trkpt><trkpt lat="44.5136141" lon="10.5705058"><ele>561.0</ele><time>2026-03-22T12:40:30.896Z</time></trkpt><trkpt lat="44.5136623" lon="10.5705943"><ele>561.0</ele><time>2026-03-22T12:40:31.893Z</time></trkpt><trkpt lat="44.5137094" lon="10.570681"><ele>561.0</ele><time>2026-03-22T12:40:32.892Z</time></trkpt><trkpt lat="44.5137562" lon="10.5707732"><ele>560.1666666666666</ele><time>2026-03-22T12:40:33.895Z</time></trkpt><trkpt lat="44.5138018" lon="10.5708669"><ele>559.3333333333334</ele><time>2026-03-22T12:40:34.897Z</time></trkpt><trkpt lat="44.5138358" lon="10.570972"><ele>558.5</ele><time>2026-03-22T12:40:35.899Z</time></trkpt><trkpt lat="44.5138655" lon="10.5710793"><ele>557.6666666666667</ele><time>2026-03-22T12:40:36.885Z</time></trkpt><trkpt lat="44.5138941" lon="10.5711873"><ele>556.8333333333334</ele><time>2026-03-22T12:40:37.895Z</time></trkpt><trkpt lat="44.5139207" lon="10.5712858"><ele>556.0</ele><time>2026-03-22T12:40:38.89Z</time></trkpt><trkpt lat="44.5139525" lon="10.5713675"><ele>555.1666666666667</ele><time>2026-03-22T12:40:39.885Z</time></trkpt><trkpt lat="44.5139936" lon="10.5714383"><ele>554.3333333333334</ele><time>2026-03-22T12:40:40.916Z</time></trkpt><trkpt lat="44.514063" lon="10.5714972"><ele>553.5</ele><time>2026-03-22T12:40:41.893Z</time></trkpt><trkpt lat="44.5141394" lon="10.5715455"><ele>552.6666666666666</ele><time>2026-03-22T12:40:42.889Z</time></trkpt><trkpt lat="44.5142113" lon="10.5715796"><ele>551.8333333333333</ele><time>2026-03-22T12:40:43.893Z</time></trkpt><trkpt lat="44.5143074" lon="10.5716688"><ele>551.0</ele><time>2026-03-22T12:40:45.891Z</time></trkpt><trkpt lat="44.5143861" lon="10.5717776"><ele>551.0</ele><time>2026-03-22T12:40:47.887Z</time></trkpt><trkpt lat="44.5144753" lon="10.5718946"><ele>551.0</ele><time>2026-03-22T12:40:49.887Z</time></trkpt><trkpt lat="44.514534" lon="10.5719524"><ele>551.0</ele><time>2026-03-22T12:40:50.89Z</time></trkpt><trkpt lat="44.5145971" lon="10.5720753"><ele>551.0</ele><time>2026-03-22T12:40:52.888Z</time></trkpt><trkpt lat="44.5146026" lon="10.5722348"><ele>551.0</ele><time>2026-03-22T12:40:54.889Z</time></trkpt><trkpt lat="44.5146195" lon="10.5723688"><ele>549.2</ele><time>2026-03-22T12:40:56.888Z</time></trkpt><trkpt lat="44.5146677" lon="10.5725085"><ele>547.4000000000001</ele><time>2026-03-22T12:40:58.919Z</time></trkpt><trkpt lat="44.5147038" lon="10.5726679"><ele>545.6</ele><time>2026-03-22T12:41:00.894Z</time></trkpt><trkpt lat="44.5147111" lon="10.5728414"><ele>543.8000000000001</ele><time>2026-03-22T12:41:02.889Z</time></trkpt><trkpt lat="44.5147364" lon="10.5729248"><ele>542.0</ele><time>2026-03-22T12:41:03.895Z</time></trkpt><trkpt lat="44.5147717" lon="10.5730072"><ele>542.0</ele><time>2026-03-22T12:41:04.892Z</time></trkpt><trkpt lat="44.5148324" lon="10.5731361"><ele>542.0</ele><time>2026-03-22T12:41:06.891Z</time></trkpt><trkpt lat="44.5148861" lon="10.573249"><ele>542.0</ele><time>2026-03-22T12:41:08.892Z</time></trkpt><trkpt lat="44.5149517" lon="10.5733727"><ele>542.0</ele><time>2026-03-22T12:41:10.905Z</time></trkpt><trkpt lat="44.5150335" lon="10.5734667"><ele>542.0</ele><time>2026-03-22T12:41:12.888Z</time></trkpt><trkpt lat="44.5151088" lon="10.5735034"><ele>542.0</ele><time>2026-03-22T12:41:15.961Z</time></trkpt><trkpt lat="44.5151574" lon="10.5735817"><ele>542.0</ele><time>2026-03-22T12:41:16.882Z</time></trkpt><trkpt lat="44.5152237" lon="10.573735"><ele>542.0</ele><time>2026-03-22T12:41:18.888Z</time></trkpt><trkpt lat="44.5152617" lon="10.5738259"><ele>542.0</ele><time>2026-03-22T12:41:19.888Z</time></trkpt><trkpt lat="44.5153147" lon="10.5739204"><ele>542.0</ele><time>2026-03-22T12:41:20.896Z</time></trkpt><trkpt lat="44.5153886" lon="10.5740069"><ele>540.3333333333333</ele><time>2026-03-22T12:41:21.886Z</time></trkpt><trkpt lat="44.5154707" lon="10.5740809"><ele>538.6666666666666</ele><time>2026-03-22T12:41:22.892Z</time></trkpt><trkpt lat="44.5155538" lon="10.5741424"><ele>537.0</ele><time>2026-03-22T12:41:23.884Z</time></trkpt><trkpt lat="44.5156347" lon="10.574191"><ele>535.3333333333334</ele><time>2026-03-22T12:41:24.887Z</time></trkpt><trkpt lat="44.5157063" lon="10.574238"><ele>533.6666666666667</ele><time>2026-03-22T12:41:25.884Z</time></trkpt><trkpt lat="44.5157629" lon="10.5742827"><ele>532.0</ele><time>2026-03-22T12:41:26.887Z</time></trkpt><trkpt lat="44.5158647" lon="10.5743619"><ele>532.0</ele><time>2026-03-22T12:41:28.89Z</time></trkpt><trkpt lat="44.5159669" lon="10.5744022"><ele>532.0</ele><time>2026-03-22T12:41:30.902Z</time></trkpt><trkpt lat="44.5160385" lon="10.5744218"><ele>532.0</ele><time>2026-03-22T12:41:31.886Z</time></trkpt><trkpt lat="44.5161258" lon="10.5744737"><ele>532.0</ele><time>2026-03-22T12:41:32.893Z</time></trkpt><trkpt lat="44.5162271" lon="10.5745713"><ele>532.0</ele><time>2026-03-22T12:41:33.886Z</time></trkpt><trkpt lat="44.5163219" lon="10.574658"><ele>531.0</ele><time>2026-03-22T12:41:34.889Z</time></trkpt><trkpt lat="44.5164083" lon="10.5747431"><ele>530.0</ele><time>2026-03-22T12:41:35.888Z</time></trkpt><trkpt lat="44.5165003" lon="10.5748268"><ele>529.0</ele><time>2026-03-22T12:41:36.889Z</time></trkpt><trkpt lat="44.5165978" lon="10.5749113"><ele>528.0</ele><time>2026-03-22T12:41:37.89Z</time></trkpt><trkpt lat="44.5166931" lon="10.5749928"><ele>527.0</ele><time>2026-03-22T12:41:38.892Z</time></trkpt><trkpt lat="44.5167882" lon="10.5750737"><ele>527.0</ele><time>2026-03-22T12:41:39.897Z</time></trkpt><trkpt lat="44.5168847" lon="10.5751556"><ele>527.0</ele><time>2026-03-22T12:41:40.888Z</time></trkpt><trkpt lat="44.5169799" lon="10.5752367"><ele>527.0</ele><time>2026-03-22T12:41:41.892Z</time></trkpt><trkpt lat="44.5170691" lon="10.5753166"><ele>527.0</ele><time>2026-03-22T12:41:42.887Z</time></trkpt><trkpt lat="44.5171542" lon="10.5753924"><ele>527.0</ele><time>2026-03-22T12:41:43.892Z</time></trkpt><trkpt lat="44.5172352" lon="10.575466"><ele>526.1666666666666</ele><time>2026-03-22T12:41:44.888Z</time></trkpt><trkpt lat="44.5173121" lon="10.5755363"><ele>525.3333333333333</ele><time>2026-03-22T12:41:45.885Z</time></trkpt><trkpt lat="44.5173863" lon="10.5756024"><ele>524.5</ele><time>2026-03-22T12:41:46.897Z</time></trkpt><trkpt lat="44.5174557" lon="10.5756624"><ele>523.6666666666666</ele><time>2026-03-22T12:41:47.886Z</time></trkpt><trkpt lat="44.5175224" lon="10.5757198"><ele>522.8333333333334</ele><time>2026-03-22T12:41:48.89Z</time></trkpt><trkpt lat="44.517584" lon="10.5757781"><ele>522.0</ele><time>2026-03-22T12:41:49.886Z</time></trkpt><trkpt lat="44.5176404" lon="10.5758355"><ele>522.0</ele><time>2026-03-22T12:41:50.883Z</time></trkpt><trkpt lat="44.5176892" lon="10.5758933"><ele>522.0</ele><time>2026-03-22T12:41:51.894Z</time></trkpt><trkpt lat="44.5177388" lon="10.5759566"><ele>522.0</ele><time>2026-03-22T12:41:52.885Z</time></trkpt><trkpt lat="44.5177908" lon="10.5760351"><ele>522.0</ele><time>2026-03-22T12:41:53.884Z</time></trkpt><trkpt lat="44.517844" lon="10.576128"><ele>522.0</ele><time>2026-03-22T12:41:54.889Z</time></trkpt><trkpt lat="44.5178915" lon="10.5762352"><ele>522.0</ele><time>2026-03-22T12:41:55.887Z</time></trkpt><trkpt lat="44.5179299" lon="10.5763568"><ele>521.6</ele><time>2026-03-22T12:41:56.888Z</time></trkpt><trkpt lat="44.5179622" lon="10.5764906"><ele>521.2</ele><time>2026-03-22T12:41:57.896Z</time></trkpt><trkpt lat="44.5179914" lon="10.5766359"><ele>520.8</ele><time>2026-03-22T12:41:58.895Z</time></trkpt><trkpt lat="44.5180215" lon="10.5767874"><ele>520.4</ele><time>2026-03-22T12:41:59.897Z</time></trkpt><trkpt lat="44.5180539" lon="10.5769304"><ele>520.0</ele><time>2026-03-22T12:42:00.89Z</time></trkpt><trkpt lat="44.5180855" lon="10.5770577"><ele>520.0</ele><time>2026-03-22T12:42:01.891Z</time></trkpt><trkpt lat="44.5181126" lon="10.5771807"><ele>520.0</ele><time>2026-03-22T12:42:02.894Z</time></trkpt><trkpt lat="44.5181317" lon="10.5773031"><ele>520.0</ele><time>2026-03-22T12:42:03.889Z</time></trkpt><trkpt lat="44.5181443" lon="10.577435"><ele>520.0</ele><time>2026-03-22T12:42:04.884Z</time></trkpt><trkpt lat="44.5181527" lon="10.5775813"><ele>520.0</ele><time>2026-03-22T12:42:05.89Z</time></trkpt><trkpt lat="44.518161" lon="10.5777388"><ele>519.4</ele><time>2026-03-22T12:42:06.892Z</time></trkpt><trkpt lat="44.5181717" lon="10.5778965"><ele>518.8</ele><time>2026-03-22T12:42:07.882Z</time></trkpt><trkpt lat="44.5181834" lon="10.5780528"><ele>518.2</ele><time>2026-03-22T12:42:08.89Z</time></trkpt><trkpt lat="44.5181926" lon="10.5782048"><ele>517.6</ele><time>2026-03-22T12:42:09.896Z</time></trkpt><trkpt lat="44.5181982" lon="10.5783515"><ele>517.0</ele><time>2026-03-22T12:42:10.888Z</time></trkpt><trkpt lat="44.5181983" lon="10.5784985"><ele>517.0</ele><time>2026-03-22T12:42:11.885Z</time></trkpt><trkpt lat="44.5181916" lon="10.5786482"><ele>517.0</ele><time>2026-03-22T12:42:12.895Z</time></trkpt><trkpt lat="44.5181782" lon="10.578801"><ele>517.0</ele><time>2026-03-22T12:42:13.891Z</time></trkpt><trkpt lat="44.5181625" lon="10.5789567"><ele>517.0</ele><time>2026-03-22T12:42:14.9Z</time></trkpt><trkpt lat="44.5181492" lon="10.5791081"><ele>517.0</ele><time>2026-03-22T12:42:15.889Z</time></trkpt><trkpt lat="44.5181425" lon="10.57925"><ele>517.0</ele><time>2026-03-22T12:42:16.888Z</time></trkpt><trkpt lat="44.5181418" lon="10.5793824"><ele>517.0</ele><time>2026-03-22T12:42:17.886Z</time></trkpt><trkpt lat="44.5181411" lon="10.5795092"><ele>517.0</ele><time>2026-03-22T12:42:18.89Z</time></trkpt><trkpt lat="44.5181344" lon="10.5796242"><ele>517.0</ele><time>2026-03-22T12:42:19.887Z</time></trkpt><trkpt lat="44.5181243" lon="10.5797244"><ele>517.0</ele><time>2026-03-22T12:42:20.902Z</time></trkpt><trkpt lat="44.5181133" lon="10.579892"><ele>517.0</ele><time>2026-03-22T12:42:22.889Z</time></trkpt><trkpt lat="44.5181351" lon="10.5800629"><ele>517.0</ele><time>2026-03-22T12:42:24.886Z</time></trkpt><trkpt lat="44.5181668" lon="10.5801413"><ele>517.0</ele><time>2026-03-22T12:42:25.895Z</time></trkpt><trkpt lat="44.5182165" lon="10.5802"><ele>517.0</ele><time>2026-03-22T12:42:26.89Z</time></trkpt><trkpt lat="44.5182836" lon="10.5802411"><ele>517.0</ele><time>2026-03-22T12:42:27.888Z</time></trkpt><trkpt lat="44.5183606" lon="10.5802746"><ele>517.0</ele><time>2026-03-22T12:42:28.892Z</time></trkpt><trkpt lat="44.5184393" lon="10.5803049"><ele>517.0</ele><time>2026-03-22T12:42:29.887Z</time></trkpt><trkpt lat="44.5185172" lon="10.5803364"><ele>517.0</ele><time>2026-03-22T12:42:30.89Z</time></trkpt><trkpt lat="44.5185851" lon="10.5803864"><ele>517.0</ele><time>2026-03-22T12:42:31.892Z</time></trkpt><trkpt lat="44.5186485" lon="10.5804441"><ele>517.0</ele><time>2026-03-22T12:42:32.89Z</time></trkpt><trkpt lat="44.5187109" lon="10.5805029"><ele>517.0</ele><time>2026-03-22T12:42:33.887Z</time></trkpt><trkpt lat="44.5187733" lon="10.5805695"><ele>517.0</ele><time>2026-03-22T12:42:34.899Z</time></trkpt><trkpt lat="44.5188386" lon="10.580639"><ele>515.4285714285714</ele><time>2026-03-22T12:42:35.892Z</time></trkpt><trkpt lat="44.5189125" lon="10.580688"><ele>513.8571428571429</ele><time>2026-03-22T12:42:36.892Z</time></trkpt><trkpt lat="44.5189912" lon="10.5807339"><ele>512.2857142857143</ele><time>2026-03-22T12:42:37.895Z</time></trkpt><trkpt lat="44.5190656" lon="10.5807743"><ele>510.7142857142858</ele><time>2026-03-22T12:42:38.889Z</time></trkpt><trkpt lat="44.5191325" lon="10.5808081"><ele>509.14285714285717</ele><time>2026-03-22T12:42:39.899Z</time></trkpt><trkpt lat="44.5191934" lon="10.5808475"><ele>507.57142857142867</ele><time>2026-03-22T12:42:40.891Z</time></trkpt><trkpt lat="44.5192502" lon="10.5808894"><ele>506.00000000000006</ele><time>2026-03-22T12:42:41.888Z</time></trkpt><trkpt lat="44.5192998" lon="10.5809555"><ele>505.99999999999994</ele><time>2026-03-22T12:42:42.888Z</time></trkpt><trkpt lat="44.5193366" lon="10.5810484"><ele>506.0</ele><time>2026-03-22T12:42:43.886Z</time></trkpt><trkpt lat="44.5193679" lon="10.5811567"><ele>506.0</ele><time>2026-03-22T12:42:44.908Z</time></trkpt><trkpt lat="44.5193923" lon="10.58126"><ele>506.0</ele><time>2026-03-22T12:42:45.897Z</time></trkpt><trkpt lat="44.5194205" lon="10.5813539"><ele>505.99999999999994</ele><time>2026-03-22T12:42:46.887Z</time></trkpt><trkpt lat="44.5195049" lon="10.5814785"><ele>506.0</ele><time>2026-03-22T12:42:48.887Z</time></trkpt><trkpt lat="44.5195692" lon="10.5815293"><ele>505.49999999999994</ele><time>2026-03-22T12:42:49.893Z</time></trkpt><trkpt lat="44.5196471" lon="10.5815878"><ele>505.0</ele><time>2026-03-22T12:42:50.886Z</time></trkpt><trkpt lat="44.5197257" lon="10.5816464"><ele>504.5</ele><time>2026-03-22T12:42:51.888Z</time></trkpt><trkpt lat="44.5197904" lon="10.5817105"><ele>504.0</ele><time>2026-03-22T12:42:52.883Z</time></trkpt><trkpt lat="44.5198463" lon="10.5817652"><ele>503.49999999999994</ele><time>2026-03-22T12:42:53.898Z</time></trkpt><trkpt lat="44.5198785" lon="10.5818523"><ele>503.0</ele><time>2026-03-22T12:42:54.889Z</time></trkpt><trkpt lat="44.519903" lon="10.5819429"><ele>503.0</ele><time>2026-03-22T12:42:55.885Z</time></trkpt><trkpt lat="44.5199247" lon="10.5820904"><ele>502.99999999999994</ele><time>2026-03-22T12:42:57.884Z</time></trkpt><trkpt lat="44.5199996" lon="10.5821416"><ele>502.99999999999994</ele><time>2026-03-22T12:42:59.893Z</time></trkpt><trkpt lat="44.5200702" lon="10.5820792"><ele>503.0</ele><time>2026-03-22T12:43:01.902Z</time></trkpt><trkpt lat="44.5201196" lon="10.5819449"><ele>503.0</ele><time>2026-03-22T12:43:03.889Z</time></trkpt><trkpt lat="44.5201678" lon="10.5818712"><ele>502.99999999999994</ele><time>2026-03-22T12:43:04.889Z</time></trkpt><trkpt lat="44.5202209" lon="10.5818053"><ele>503.0</ele><time>2026-03-22T12:43:05.889Z</time></trkpt><trkpt lat="44.5203321" lon="10.5817397"><ele>503.0</ele><time>2026-03-22T12:43:07.884Z</time></trkpt><trkpt lat="44.5204057" lon="10.5817424"><ele>503.0</ele><time>2026-03-22T12:43:08.887Z</time></trkpt><trkpt lat="44.5204936" lon="10.5817375"><ele>502.99999999999994</ele><time>2026-03-22T12:43:09.887Z</time></trkpt><trkpt lat="44.520575" lon="10.581709"><ele>503.0</ele><time>2026-03-22T12:43:10.885Z</time></trkpt><trkpt lat="44.5206395" lon="10.5816643"><ele>499.66666666666663</ele><time>2026-03-22T12:43:11.891Z</time></trkpt><trkpt lat="44.5206966" lon="10.5816197"><ele>496.3333333333333</ele><time>2026-03-22T12:43:12.898Z</time></trkpt><trkpt lat="44.5207906" lon="10.5815399"><ele>493.0</ele><time>2026-03-22T12:43:14.889Z</time></trkpt><trkpt lat="44.5208996" lon="10.5814773"><ele>489.66666666666663</ele><time>2026-03-22T12:43:16.888Z</time></trkpt><trkpt lat="44.5209631" lon="10.5814435"><ele>486.3333333333333</ele><time>2026-03-22T12:43:17.886Z</time></trkpt><trkpt lat="44.5210321" lon="10.5814236"><ele>483.0</ele><time>2026-03-22T12:43:18.885Z</time></trkpt><trkpt lat="44.5211004" lon="10.5814244"><ele>483.0</ele><time>2026-03-22T12:43:19.885Z</time></trkpt><trkpt lat="44.5212207" lon="10.5814349"><ele>482.99999999999994</ele><time>2026-03-22T12:43:21.891Z</time></trkpt><trkpt lat="44.5213262" lon="10.5813855"><ele>482.99999999999994</ele><time>2026-03-22T12:43:23.893Z</time></trkpt><trkpt lat="44.5214171" lon="10.5812623"><ele>483.0</ele><time>2026-03-22T12:43:25.885Z</time></trkpt><trkpt lat="44.5214716" lon="10.5812036"><ele>483.0</ele><time>2026-03-22T12:43:26.891Z</time></trkpt><trkpt lat="44.5215397" lon="10.5811616"><ele>479.4</ele><time>2026-03-22T12:43:27.887Z</time></trkpt><trkpt lat="44.5216219" lon="10.5811476"><ele>475.79999999999995</ele><time>2026-03-22T12:43:28.892Z</time></trkpt><trkpt lat="44.5217138" lon="10.5811753"><ele>472.2</ele><time>2026-03-22T12:43:29.884Z</time></trkpt><trkpt lat="44.5218115" lon="10.5812081"><ele>468.6</ele><time>2026-03-22T12:43:30.891Z</time></trkpt><trkpt lat="44.5219127" lon="10.5812368"><ele>465.0</ele><time>2026-03-22T12:43:31.888Z</time></trkpt><trkpt lat="44.5220152" lon="10.5812581"><ele>463.1666666666667</ele><time>2026-03-22T12:43:32.894Z</time></trkpt><trkpt lat="44.5221194" lon="10.5812663"><ele>461.33333333333337</ele><time>2026-03-22T12:43:33.902Z</time></trkpt><trkpt lat="44.522218" lon="10.5812631"><ele>459.5</ele><time>2026-03-22T12:43:34.885Z</time></trkpt><trkpt lat="44.5223047" lon="10.5812508"><ele>457.6666666666667</ele><time>2026-03-22T12:43:35.887Z</time></trkpt><trkpt lat="44.5223824" lon="10.5812404"><ele>455.83333333333337</ele><time>2026-03-22T12:43:36.89Z</time></trkpt><trkpt lat="44.5224513" lon="10.5812364"><ele>454.0</ele><time>2026-03-22T12:43:37.886Z</time></trkpt><trkpt lat="44.5225532" lon="10.5812752"><ele>454.00000000000006</ele><time>2026-03-22T12:43:39.889Z</time></trkpt><trkpt lat="44.5226078" lon="10.5814182"><ele>454.0</ele><time>2026-03-22T12:43:41.9Z</time></trkpt><trkpt lat="44.5226726" lon="10.5815122"><ele>454.0</ele><time>2026-03-22T12:43:43.885Z</time></trkpt><trkpt lat="44.52275" lon="10.5814815"><ele>454.0</ele><time>2026-03-22T12:43:45.895Z</time></trkpt><trkpt lat="44.5227749" lon="10.5813919"><ele>454.00000000000006</ele><time>2026-03-22T12:43:46.915Z</time></trkpt><trkpt lat="44.5227822" lon="10.5812812"><ele>454.0</ele><time>2026-03-22T12:43:47.894Z</time></trkpt><trkpt lat="44.5227809" lon="10.5811679"><ele>453.83333333333337</ele><time>2026-03-22T12:43:48.894Z</time></trkpt><trkpt lat="44.5227841" lon="10.5810762"><ele>453.6666666666667</ele><time>2026-03-22T12:43:49.884Z</time></trkpt><trkpt lat="44.5228317" lon="10.5809582"><ele>453.5</ele><time>2026-03-22T12:43:51.888Z</time></trkpt><trkpt lat="44.5229188" lon="10.5810075"><ele>453.33333333333337</ele><time>2026-03-22T12:43:53.892Z</time></trkpt><trkpt lat="44.5229539" lon="10.5810978"><ele>453.1666666666667</ele><time>2026-03-22T12:43:54.898Z</time></trkpt><trkpt lat="44.522993" lon="10.5812151"><ele>453.0</ele><time>2026-03-22T12:43:55.888Z</time></trkpt><trkpt lat="44.5230376" lon="10.5813794"><ele>448.0</ele><time>2026-03-22T12:43:56.89Z</time></trkpt><trkpt lat="44.5230818" lon="10.5815521"><ele>443.0</ele><time>2026-03-22T12:43:57.885Z</time></trkpt><trkpt lat="44.5231203" lon="10.5817176"><ele>438.0</ele><time>2026-03-22T12:43:58.886Z</time></trkpt><trkpt lat="44.5231572" lon="10.5818817"><ele>433.0</ele><time>2026-03-22T12:43:59.888Z</time></trkpt><trkpt lat="44.5231935" lon="10.5820454"><ele>431.75</ele><time>2026-03-22T12:44:00.91Z</time></trkpt><trkpt lat="44.523226" lon="10.5822064"><ele>430.5</ele><time>2026-03-22T12:44:01.888Z</time></trkpt><trkpt lat="44.5232574" lon="10.5823706"><ele>429.25</ele><time>2026-03-22T12:44:02.893Z</time></trkpt><trkpt lat="44.5233007" lon="10.5825285"><ele>428.0</ele><time>2026-03-22T12:44:03.888Z</time></trkpt><trkpt lat="44.5233491" lon="10.5826803"><ele>428.0</ele><time>2026-03-22T12:44:04.887Z</time></trkpt><trkpt lat="44.5234074" lon="10.5828183"><ele>428.0</ele><time>2026-03-22T12:44:05.888Z</time></trkpt><trkpt lat="44.5234677" lon="10.5829493"><ele>428.0</ele><time>2026-03-22T12:44:06.886Z</time></trkpt><trkpt lat="44.5235382" lon="10.5830787"><ele>428.0</ele><time>2026-03-22T12:44:07.898Z</time></trkpt><trkpt lat="44.523613" lon="10.5832078"><ele>426.75</ele><time>2026-03-22T12:44:08.892Z</time></trkpt><trkpt lat="44.5237053" lon="10.5833264"><ele>425.5</ele><time>2026-03-22T12:44:09.887Z</time></trkpt><trkpt lat="44.5238018" lon="10.5834317"><ele>424.25</ele><time>2026-03-22T12:44:10.89Z</time></trkpt><trkpt lat="44.5238924" lon="10.5835245"><ele>423.0</ele><time>2026-03-22T12:44:11.89Z</time></trkpt><trkpt lat="44.5239761" lon="10.5836097"><ele>424.0</ele><time>2026-03-22T12:44:12.892Z</time></trkpt><trkpt lat="44.5240524" lon="10.5836836"><ele>425.0</ele><time>2026-03-22T12:44:13.888Z</time></trkpt><trkpt lat="44.5241318" lon="10.5837585"><ele>425.99999999999994</ele><time>2026-03-22T12:44:14.884Z</time></trkpt><trkpt lat="44.524214" lon="10.5838327"><ele>427.0</ele><time>2026-03-22T12:44:15.906Z</time></trkpt><trkpt lat="44.5242987" lon="10.5839012"><ele>428.0</ele><time>2026-03-22T12:44:16.885Z</time></trkpt><trkpt lat="44.5243806" lon="10.5839627"><ele>427.99999999999994</ele><time>2026-03-22T12:44:17.889Z</time></trkpt><trkpt lat="44.5244591" lon="10.5840182"><ele>428.0</ele><time>2026-03-22T12:44:18.884Z</time></trkpt><trkpt lat="44.5245363" lon="10.5840722"><ele>428.0</ele><time>2026-03-22T12:44:19.883Z</time></trkpt><trkpt lat="44.5246115" lon="10.5841267"><ele>428.0</ele><time>2026-03-22T12:44:20.89Z</time></trkpt><trkpt lat="44.5246904" lon="10.5841853"><ele>427.99999999999994</ele><time>2026-03-22T12:44:21.891Z</time></trkpt><trkpt lat="44.5247729" lon="10.5842469"><ele>428.0</ele><time>2026-03-22T12:44:22.889Z</time></trkpt><trkpt lat="44.5248549" lon="10.5843047"><ele>428.16666666666663</ele><time>2026-03-22T12:44:23.898Z</time></trkpt><trkpt lat="44.5249309" lon="10.5843617"><ele>428.3333333333333</ele><time>2026-03-22T12:44:24.892Z</time></trkpt><trkpt lat="44.5250021" lon="10.5844216"><ele>428.5</ele><time>2026-03-22T12:44:25.893Z</time></trkpt><trkpt lat="44.5250677" lon="10.584484"><ele>428.66666666666663</ele><time>2026-03-22T12:44:26.889Z</time></trkpt><trkpt lat="44.5251275" lon="10.5845487"><ele>428.8333333333333</ele><time>2026-03-22T12:44:27.891Z</time></trkpt><trkpt lat="44.5251791" lon="10.5846141"><ele>429.0</ele><time>2026-03-22T12:44:28.894Z</time></trkpt><trkpt lat="44.5252568" lon="10.5847367"><ele>429.0</ele><time>2026-03-22T12:44:30.893Z</time></trkpt><trkpt lat="44.5253173" lon="10.5848497"><ele>429.0</ele><time>2026-03-22T12:44:32.884Z</time></trkpt><trkpt lat="44.5253801" lon="10.5849424"><ele>429.0</ele><time>2026-03-22T12:44:34.886Z</time></trkpt><trkpt lat="44.5254475" lon="10.5849879"><ele>429.0</ele><time>2026-03-22T12:44:36.884Z</time></trkpt><trkpt lat="44.5255262" lon="10.5850081"><ele>429.0</ele><time>2026-03-22T12:44:38.884Z</time></trkpt><trkpt lat="44.5256266" lon="10.5850732"><ele>429.5</ele><time>2026-03-22T12:44:40.886Z</time></trkpt><trkpt lat="44.525686" lon="10.5851197"><ele>430.0</ele><time>2026-03-22T12:44:41.884Z</time></trkpt><trkpt lat="44.5257394" lon="10.5851727"><ele>430.5</ele><time>2026-03-22T12:44:42.888Z</time></trkpt><trkpt lat="44.525832" lon="10.5852855"><ele>431.0</ele><time>2026-03-22T12:44:44.897Z</time></trkpt><trkpt lat="44.5259228" lon="10.5853898"><ele>431.5</ele><time>2026-03-22T12:44:46.888Z</time></trkpt><trkpt lat="44.5259736" lon="10.5854512"><ele>432.0</ele><time>2026-03-22T12:44:47.89Z</time></trkpt><trkpt lat="44.5260275" lon="10.5855194"><ele>429.3333333333333</ele><time>2026-03-22T12:44:48.888Z</time></trkpt><trkpt lat="44.5260841" lon="10.5855881"><ele>426.66666666666663</ele><time>2026-03-22T12:44:49.891Z</time></trkpt><trkpt lat="44.5261413" lon="10.5856617"><ele>424.0</ele><time>2026-03-22T12:44:50.89Z</time></trkpt><trkpt lat="44.5262069" lon="10.5857402"><ele>421.3333333333333</ele><time>2026-03-22T12:44:51.886Z</time></trkpt><trkpt lat="44.5262755" lon="10.58582"><ele>418.66666666666663</ele><time>2026-03-22T12:44:52.895Z</time></trkpt><trkpt lat="44.5263412" lon="10.5858916"><ele>416.0</ele><time>2026-03-22T12:44:53.889Z</time></trkpt><trkpt lat="44.5264014" lon="10.5859569"><ele>415.66666666666663</ele><time>2026-03-22T12:44:54.889Z</time></trkpt><trkpt lat="44.5264571" lon="10.58602"><ele>415.3333333333333</ele><time>2026-03-22T12:44:55.888Z</time></trkpt><trkpt lat="44.5265073" lon="10.5860807"><ele>415.0</ele><time>2026-03-22T12:44:56.895Z</time></trkpt><trkpt lat="44.5265787" lon="10.5861821"><ele>414.66666666666663</ele><time>2026-03-22T12:44:58.885Z</time></trkpt><trkpt lat="44.5266103" lon="10.5862752"><ele>414.3333333333333</ele><time>2026-03-22T12:45:00.896Z</time></trkpt><trkpt lat="44.5265943" lon="10.5863805"><ele>414.0</ele><time>2026-03-22T12:45:02.889Z</time></trkpt><trkpt lat="44.5266099" lon="10.5864952"><ele>412.5</ele><time>2026-03-22T12:45:04.89Z</time></trkpt><trkpt lat="44.5266368" lon="10.5866183"><ele>411.0</ele><time>2026-03-22T12:45:07.917Z</time></trkpt><trkpt lat="44.5266626" lon="10.5867487"><ele>409.5</ele><time>2026-03-22T12:45:09.897Z</time></trkpt><trkpt lat="44.5266854" lon="10.5868514"><ele>408.0</ele><time>2026-03-22T12:45:11.899Z</time></trkpt><trkpt lat="44.5266901" lon="10.586962"><ele>406.5</ele><time>2026-03-22T12:45:14.916Z</time></trkpt><trkpt lat="44.5266688" lon="10.587049"><ele>405.0</ele><time>2026-03-22T12:45:26.881Z</time></trkpt><trkpt lat="44.5266483" lon="10.5871553"><ele>404.2857142857143</ele><time>2026-03-22T12:45:30.893Z</time></trkpt><trkpt lat="44.5266174" lon="10.5872471"><ele>403.57142857142856</ele><time>2026-03-22T12:45:45.902Z</time></trkpt><trkpt lat="44.5265832" lon="10.5873518"><ele>402.8571428571429</ele><time>2026-03-22T12:45:49.767Z</time></trkpt><trkpt lat="44.526543" lon="10.5874495"><ele>402.1428571428571</ele><time>2026-03-22T12:45:52.893Z</time></trkpt><trkpt lat="44.5265614" lon="10.5875409"><ele>401.42857142857144</ele><time>2026-03-22T12:45:59.965Z</time></trkpt><trkpt lat="44.5265521" lon="10.5876327"><ele>400.7142857142857</ele><time>2026-03-22T12:46:01.925Z</time></trkpt><trkpt lat="44.5265285" lon="10.5877347"><ele>400.0</ele><time>2026-03-22T12:46:02.888Z</time></trkpt><trkpt lat="44.5264814" lon="10.5878221"><ele>398.6666666666667</ele><time>2026-03-22T12:46:05.907Z</time></trkpt><trkpt lat="44.5264537" lon="10.5879096"><ele>397.33333333333337</ele><time>2026-03-22T12:46:06.884Z</time></trkpt><trkpt lat="44.5264064" lon="10.5880021"><ele>396.0</ele><time>2026-03-22T12:46:08.796Z</time></trkpt><trkpt lat="44.526319" lon="10.5880839"><ele>394.66666666666663</ele><time>2026-03-22T12:46:10.89Z</time></trkpt><trkpt lat="44.5262536" lon="10.5881584"><ele>393.3333333333333</ele><time>2026-03-22T12:46:12.891Z</time></trkpt><trkpt lat="44.5262062" lon="10.5882395"><ele>392.0</ele><time>2026-03-22T12:46:14.93Z</time></trkpt><trkpt lat="44.5261611" lon="10.5883215"><ele>391.49999999999994</ele><time>2026-03-22T12:46:16.97Z</time></trkpt><trkpt lat="44.526101" lon="10.5884079"><ele>391.0</ele><time>2026-03-22T12:46:18.892Z</time></trkpt><trkpt lat="44.5260572" lon="10.5884969"><ele>390.5</ele><time>2026-03-22T12:46:20.912Z</time></trkpt><trkpt lat="44.5259984" lon="10.5886102"><ele>390.0</ele><time>2026-03-22T12:46:22.885Z</time></trkpt><trkpt lat="44.5259514" lon="10.5887088"><ele>389.49999999999994</ele><time>2026-03-22T12:46:24.953Z</time></trkpt><trkpt lat="44.5259218" lon="10.5888272"><ele>389.0</ele><time>2026-03-22T12:46:26.889Z</time></trkpt><trkpt lat="44.5259009" lon="10.5889403"><ele>388.0</ele><time>2026-03-22T12:46:28.897Z</time></trkpt><trkpt lat="44.5258688" lon="10.589051"><ele>387.0</ele><time>2026-03-22T12:46:30.936Z</time></trkpt><trkpt lat="44.5258389" lon="10.5891713"><ele>386.0</ele><time>2026-03-22T12:46:32.964Z</time></trkpt><trkpt lat="44.5258275" lon="10.5893018"><ele>385.0</ele><time>2026-03-22T12:46:33.892Z</time></trkpt><trkpt lat="44.5258265" lon="10.5894296"><ele>384.0</ele><time>2026-03-22T12:46:34.889Z</time></trkpt><trkpt lat="44.5258585" lon="10.5895924"><ele>382.5</ele><time>2026-03-22T12:46:40.938Z</time></trkpt><trkpt lat="44.525882" lon="10.5897051"><ele>381.0</ele><time>2026-03-22T12:46:41.897Z</time></trkpt><trkpt lat="44.5258822" lon="10.5897994"><ele>379.5</ele><time>2026-03-22T12:46:45.884Z</time></trkpt><trkpt lat="44.5258985" lon="10.589891"><ele>378.0</ele><time>2026-03-22T12:48:08.905Z</time></trkpt><trkpt lat="44.525919" lon="10.5899801"><ele>376.5</ele><time>2026-03-22T12:48:10.888Z</time></trkpt><trkpt lat="44.5258995" lon="10.5901011"><ele>375.0</ele><time>2026-03-22T12:48:11.894Z</time></trkpt><trkpt lat="44.5258819" lon="10.5902442"><ele>373.8333333333333</ele><time>2026-03-22T12:48:12.891Z</time></trkpt><trkpt lat="44.5258669" lon="10.5903675"><ele>372.6666666666667</ele><time>2026-03-22T12:48:13.893Z</time></trkpt><trkpt lat="44.5258591" lon="10.5904722"><ele>371.5</ele><time>2026-03-22T12:48:14.885Z</time></trkpt><trkpt lat="44.525855" lon="10.5905612"><ele>370.33333333333337</ele><time>2026-03-22T12:48:15.887Z</time></trkpt><trkpt lat="44.5258462" lon="10.5907052"><ele>369.1666666666667</ele><time>2026-03-22T12:48:17.889Z</time></trkpt><trkpt lat="44.5258407" lon="10.5908476"><ele>368.0</ele><time>2026-03-22T12:48:19.896Z</time></trkpt><trkpt lat="44.5258209" lon="10.5910068"><ele>368.0</ele><time>2026-03-22T12:48:21.891Z</time></trkpt><trkpt lat="44.5258178" lon="10.5911178"><ele>368.0</ele><time>2026-03-22T12:48:23.942Z</time></trkpt><trkpt lat="44.5258389" lon="10.5913"><ele>368.0</ele><time>2026-03-22T12:48:25.892Z</time></trkpt><trkpt lat="44.5258466" lon="10.5913951"><ele>368.0</ele><time>2026-03-22T12:48:26.884Z</time></trkpt><trkpt lat="44.5258575" lon="10.5915408"><ele>368.0</ele><time>2026-03-22T12:48:28.888Z</time></trkpt><trkpt lat="44.5258769" lon="10.5916864"><ele>367.0</ele><time>2026-03-22T12:48:30.889Z</time></trkpt><trkpt lat="44.525895" lon="10.5918509"><ele>366.0</ele><time>2026-03-22T12:48:32.889Z</time></trkpt><trkpt lat="44.5258991" lon="10.5920173"><ele>365.0</ele><time>2026-03-22T12:48:34.893Z</time></trkpt><trkpt lat="44.5259083" lon="10.5921314"><ele>364.0</ele><time>2026-03-22T12:48:36.89Z</time></trkpt><trkpt lat="44.5259236" lon="10.592302"><ele>363.0</ele><time>2026-03-22T12:48:39.823Z</time></trkpt><trkpt lat="44.5259392" lon="10.5924274"><ele>361.85714285714283</ele><time>2026-03-22T12:48:41.89Z</time></trkpt><trkpt lat="44.5259427" lon="10.5925425"><ele>360.7142857142857</ele><time>2026-03-22T12:48:44.94Z</time></trkpt><trkpt lat="44.525912" lon="10.5926233"><ele>359.57142857142856</ele><time>2026-03-22T12:48:46.921Z</time></trkpt><trkpt lat="44.5258737" lon="10.5927003"><ele>358.42857142857144</ele><time>2026-03-22T12:48:48.946Z</time></trkpt><trkpt lat="44.5258538" lon="10.5927934"><ele>357.2857142857143</ele><time>2026-03-22T12:48:50.886Z</time></trkpt><trkpt lat="44.5258393" lon="10.5928855"><ele>356.1428571428571</ele><time>2026-03-22T12:48:52.927Z</time></trkpt><trkpt lat="44.5258189" lon="10.5929936"><ele>355.0</ele><time>2026-03-22T12:48:55.913Z</time></trkpt><trkpt lat="44.5257996" lon="10.5930848"><ele>353.8333333333333</ele><time>2026-03-22T12:48:58.922Z</time></trkpt><trkpt lat="44.5257805" lon="10.5931815"><ele>352.66666666666663</ele><time>2026-03-22T12:49:01.88Z</time></trkpt><trkpt lat="44.5257648" lon="10.5932776"><ele>351.5</ele><time>2026-03-22T12:49:03.884Z</time></trkpt><trkpt lat="44.5257592" lon="10.593367"><ele>350.3333333333333</ele><time>2026-03-22T12:49:05.919Z</time></trkpt><trkpt lat="44.5257631" lon="10.5934721"><ele>349.1666666666667</ele><time>2026-03-22T12:49:07.899Z</time></trkpt><trkpt lat="44.5257611" lon="10.5935883"><ele>348.0</ele><time>2026-03-22T12:49:09.914Z</time></trkpt><trkpt lat="44.5257749" lon="10.5937148"><ele>344.0</ele><time>2026-03-22T12:49:11.884Z</time></trkpt><trkpt lat="44.5257742" lon="10.5938366"><ele>340.0</ele><time>2026-03-22T12:49:13.918Z</time></trkpt><trkpt lat="44.5258015" lon="10.5939653"><ele>336.0</ele><time>2026-03-22T12:49:15.891Z</time></trkpt><trkpt lat="44.5258597" lon="10.5940631"><ele>332.0</ele><time>2026-03-22T12:49:17.893Z</time></trkpt><trkpt lat="44.5259267" lon="10.5941458"><ele>328.0</ele><time>2026-03-22T12:49:19.885Z</time></trkpt><trkpt lat="44.5259921" lon="10.5942129"><ele>324.0</ele><time>2026-03-22T12:49:21.898Z</time></trkpt><trkpt lat="44.5260472" lon="10.5942802"><ele>324.0</ele><time>2026-03-22T12:49:23.949Z</time></trkpt><trkpt lat="44.5261067" lon="10.5943213"><ele>324.0</ele><time>2026-03-22T12:49:25.788Z</time></trkpt><trkpt lat="44.5261692" lon="10.5943621"><ele>324.0</ele><time>2026-03-22T12:49:27.838Z</time></trkpt><trkpt lat="44.5262485" lon="10.5944219"><ele>324.0</ele><time>2026-03-22T12:49:30.881Z</time></trkpt><trkpt lat="44.5263265" lon="10.5944702"><ele>324.0</ele><time>2026-03-22T12:49:33.983Z</time></trkpt><trkpt lat="44.5263817" lon="10.594531"><ele>324.0</ele><time>2026-03-22T12:49:36.947Z</time></trkpt><trkpt lat="44.5264454" lon="10.5945536"><ele>324.0</ele><time>2026-03-22T12:49:39.905Z</time></trkpt><trkpt lat="44.5265409" lon="10.5945253"><ele>325.5</ele><time>2026-03-22T12:49:42.912Z</time></trkpt><trkpt lat="44.526602" lon="10.5944785"><ele>327.0</ele><time>2026-03-22T12:49:44.889Z</time></trkpt><trkpt lat="44.5266489" lon="10.5943631"><ele>328.5</ele><time>2026-03-22T12:49:47.956Z</time></trkpt><trkpt lat="44.5266796" lon="10.5942355"><ele>330.0</ele><time>2026-03-22T12:49:49.882Z</time></trkpt><trkpt lat="44.5267588" lon="10.5941279"><ele>331.5</ele><time>2026-03-22T12:49:52.889Z</time></trkpt><trkpt lat="44.5268129" lon="10.5940689"><ele>333.0</ele><time>2026-03-22T12:49:53.894Z</time></trkpt><trkpt lat="44.526897" lon="10.5940292"><ele>333.0</ele><time>2026-03-22T12:49:56.861Z</time></trkpt><trkpt lat="44.5269465" lon="10.5939549"><ele>333.0</ele><time>2026-03-22T12:49:57.862Z</time></trkpt><trkpt lat="44.527012" lon="10.5938142"><ele>333.0</ele><time>2026-03-22T12:49:59.957Z</time></trkpt><trkpt lat="44.5270311" lon="10.5936631"><ele>333.0</ele><time>2026-03-22T12:50:01.883Z</time></trkpt><trkpt lat="44.5270254" lon="10.5935358"><ele>333.0</ele><time>2026-03-22T12:50:03.896Z</time></trkpt><trkpt lat="44.5270219" lon="10.5934116"><ele>336.0</ele><time>2026-03-22T12:50:04.895Z</time></trkpt><trkpt lat="44.5270144" lon="10.5932771"><ele>339.0</ele><time>2026-03-22T12:50:05.88Z</time></trkpt><trkpt lat="44.5270001" lon="10.5931503"><ele>342.0</ele><time>2026-03-22T12:50:06.894Z</time></trkpt><trkpt lat="44.5269797" lon="10.5930247"><ele>345.0</ele><time>2026-03-22T12:50:07.883Z</time></trkpt><trkpt lat="44.5269631" lon="10.5928892"><ele>348.0</ele><time>2026-03-22T12:50:08.885Z</time></trkpt><trkpt lat="44.5269625" lon="10.5927606"><ele>348.0</ele><time>2026-03-22T12:50:09.901Z</time></trkpt><trkpt lat="44.5269618" lon="10.5926642"><ele>348.0</ele><time>2026-03-22T12:50:10.882Z</time></trkpt><trkpt lat="44.5269686" lon="10.5925094"><ele>348.0</ele><time>2026-03-22T12:50:12.885Z</time></trkpt><trkpt lat="44.5269592" lon="10.5923593"><ele>348.0</ele><time>2026-03-22T12:50:14.884Z</time></trkpt><trkpt lat="44.526955" lon="10.592199"><ele>348.0</ele><time>2026-03-22T12:50:16.885Z</time></trkpt><trkpt lat="44.5269512" lon="10.5920314"><ele>348.6666666666667</ele><time>2026-03-22T12:50:18.897Z</time></trkpt><trkpt lat="44.5269384" lon="10.5919309"><ele>349.3333333333333</ele><time>2026-03-22T12:50:19.883Z</time></trkpt><trkpt lat="44.5269254" lon="10.5918245"><ele>350.0</ele><time>2026-03-22T12:50:20.88Z</time></trkpt><trkpt lat="44.5269142" lon="10.5917139"><ele>350.66666666666663</ele><time>2026-03-22T12:50:21.884Z</time></trkpt><trkpt lat="44.526906" lon="10.5916083"><ele>351.3333333333333</ele><time>2026-03-22T12:50:22.885Z</time></trkpt><trkpt lat="44.5269104" lon="10.5914589"><ele>352.0</ele><time>2026-03-22T12:50:24.882Z</time></trkpt><trkpt lat="44.5269203" lon="10.5913315"><ele>352.0</ele><time>2026-03-22T12:50:26.897Z</time></trkpt><trkpt lat="44.5269257" lon="10.5912331"><ele>352.0</ele><time>2026-03-22T12:50:28.888Z</time></trkpt><trkpt lat="44.5269366" lon="10.5911415"><ele>352.0</ele><time>2026-03-22T12:50:31.972Z</time></trkpt><trkpt lat="44.5269717" lon="10.5910324"><ele>352.0</ele><time>2026-03-22T12:50:33.893Z</time></trkpt><trkpt lat="44.5270018" lon="10.5909302"><ele>352.0</ele><time>2026-03-22T12:50:34.893Z</time></trkpt><trkpt lat="44.5270226" lon="10.590824"><ele>352.0</ele><time>2026-03-22T12:50:36.761Z</time></trkpt><trkpt lat="44.5270415" lon="10.5907304"><ele>352.0</ele><time>2026-03-22T12:50:38.854Z</time></trkpt><trkpt lat="44.5270741" lon="10.590625"><ele>346.5</ele><time>2026-03-22T12:50:40.886Z</time></trkpt><trkpt lat="44.5271033" lon="10.5905306"><ele>341.0</ele><time>2026-03-22T12:50:42.964Z</time></trkpt><trkpt lat="44.5271275" lon="10.5904018"><ele>335.5</ele><time>2026-03-22T12:50:45.832Z</time></trkpt><trkpt lat="44.5271374" lon="10.5902587"><ele>330.0</ele><time>2026-03-22T12:50:46.897Z</time></trkpt><trkpt lat="44.5271429" lon="10.5901302"><ele>324.5</ele><time>2026-03-22T12:50:47.884Z</time></trkpt><trkpt lat="44.5271494" lon="10.590023"><ele>319.0</ele><time>2026-03-22T12:50:48.884Z</time></trkpt><trkpt lat="44.5271821" lon="10.5899259"><ele>319.0</ele><time>2026-03-22T12:50:50.889Z</time></trkpt><trkpt lat="44.5272283" lon="10.5898643"><ele>319.0</ele><time>2026-03-22T12:50:53.883Z</time></trkpt><trkpt lat="44.5272653" lon="10.5897895"><ele>319.0</ele><time>2026-03-22T12:50:55.885Z</time></trkpt><trkpt lat="44.5272987" lon="10.5898702"><ele>319.0</ele><time>2026-03-22T12:50:59.894Z</time></trkpt><trkpt lat="44.5273631" lon="10.5895583"><ele>319.0</ele><time>2026-03-22T12:51:04.963Z</time></trkpt><trkpt lat="44.5274069" lon="10.5891993"><ele>322.6</ele><time>2026-03-22T12:51:05.886Z</time></trkpt><trkpt lat="44.5273961" lon="10.5890531"><ele>326.2</ele><time>2026-03-22T12:51:07.888Z</time></trkpt><trkpt lat="44.5273977" lon="10.5889263"><ele>329.8</ele><time>2026-03-22T12:51:09.889Z</time></trkpt><trkpt lat="44.5274231" lon="10.5888217"><ele>333.40000000000003</ele><time>2026-03-22T12:51:11.883Z</time></trkpt><trkpt lat="44.5274547" lon="10.5887199"><ele>337.0</ele><time>2026-03-22T12:51:13.892Z</time></trkpt><trkpt lat="44.5275442" lon="10.5885602"><ele>340.20000000000005</ele><time>2026-03-22T12:51:18.987Z</time></trkpt><trkpt lat="44.5276108" lon="10.588483"><ele>343.4</ele><time>2026-03-22T12:51:21.94Z</time></trkpt><trkpt lat="44.5276652" lon="10.5884078"><ele>346.6</ele><time>2026-03-22T12:51:23.907Z</time></trkpt><trkpt lat="44.5276985" lon="10.5883088"><ele>349.79999999999995</ele><time>2026-03-22T12:51:25.775Z</time></trkpt><trkpt lat="44.5277798" lon="10.588174"><ele>353.0</ele><time>2026-03-22T12:51:27.888Z</time></trkpt><trkpt lat="44.5278274" lon="10.58804"><ele>353.0</ele><time>2026-03-22T12:51:28.884Z</time></trkpt><trkpt lat="44.5278575" lon="10.5879138"><ele>353.0</ele><time>2026-03-22T12:51:29.88Z</time></trkpt><trkpt lat="44.5278818" lon="10.5878291"><ele>353.0</ele><time>2026-03-22T12:51:30.88Z</time></trkpt><trkpt lat="44.5279283" lon="10.5877603"><ele>353.0</ele><time>2026-03-22T12:51:32.904Z</time></trkpt><trkpt lat="44.5280149" lon="10.5876918"><ele>353.0</ele><time>2026-03-22T12:51:34.89Z</time></trkpt><trkpt lat="44.5280896" lon="10.5876104"><ele>353.0</ele><time>2026-03-22T12:51:36.882Z</time></trkpt><trkpt lat="44.5281584" lon="10.5875505"><ele>346.79999999999995</ele><time>2026-03-22T12:51:38.886Z</time></trkpt><trkpt lat="44.5282443" lon="10.5874156"><ele>340.6</ele><time>2026-03-22T12:51:42.883Z</time></trkpt><trkpt lat="44.5283142" lon="10.5874356"><ele>334.4</ele><time>2026-03-22T12:51:48.781Z</time></trkpt><trkpt lat="44.5283833" lon="10.5874427"><ele>328.20000000000005</ele><time>2026-03-22T12:51:49.88Z</time></trkpt><trkpt lat="44.5284299" lon="10.5875266"><ele>322.0</ele><time>2026-03-22T12:51:51.978Z</time></trkpt><trkpt lat="44.5285288" lon="10.5875936"><ele>322.0</ele><time>2026-03-22T12:51:53.886Z</time></trkpt><trkpt lat="44.5286128" lon="10.5876118"><ele>322.0</ele><time>2026-03-22T12:51:55.89Z</time></trkpt><trkpt lat="44.5286815" lon="10.5876352"><ele>322.0</ele><time>2026-03-22T12:51:57.892Z</time></trkpt><trkpt lat="44.5287465" lon="10.587658"><ele>322.0</ele><time>2026-03-22T12:51:59.89Z</time></trkpt><trkpt lat="44.5288097" lon="10.587686"><ele>322.0</ele><time>2026-03-22T12:52:01.89Z</time></trkpt><trkpt lat="44.5288856" lon="10.5877626"><ele>322.0</ele><time>2026-03-22T12:52:04.917Z</time></trkpt><trkpt lat="44.5289389" lon="10.5878344"><ele>319.57142857142856</ele><time>2026-03-22T12:52:06.958Z</time></trkpt><trkpt lat="44.52899" lon="10.5878903"><ele>317.1428571428571</ele><time>2026-03-22T12:52:08.903Z</time></trkpt><trkpt lat="44.5290422" lon="10.5879574"><ele>314.7142857142857</ele><time>2026-03-22T12:52:11.906Z</time></trkpt><trkpt lat="44.5290942" lon="10.5878927"><ele>312.2857142857143</ele><time>2026-03-22T12:52:21.882Z</time></trkpt><trkpt lat="44.5290472" lon="10.5878041"><ele>309.85714285714283</ele><time>2026-03-22T12:52:25.902Z</time></trkpt><trkpt lat="44.5290866" lon="10.5877136"><ele>307.42857142857144</ele><time>2026-03-22T12:52:29.938Z</time></trkpt><trkpt lat="44.5291579" lon="10.587676"><ele>305.0</ele><time>2026-03-22T12:52:30.906Z</time></trkpt><trkpt lat="44.5291927" lon="10.5875891"><ele>305.0</ele><time>2026-03-22T12:52:32.896Z</time></trkpt><trkpt lat="44.5291824" lon="10.5874938"><ele>305.0</ele><time>2026-03-22T12:52:34.919Z</time></trkpt><trkpt lat="44.5291455" lon="10.5873182"><ele>305.0</ele><time>2026-03-22T12:52:36.894Z</time></trkpt><trkpt lat="44.5291273" lon="10.5872008"><ele>305.0</ele><time>2026-03-22T12:52:37.879Z</time></trkpt><trkpt lat="44.5291118" lon="10.5870981"><ele>305.0</ele><time>2026-03-22T12:52:38.883Z</time></trkpt><trkpt lat="44.5290918" lon="10.5870101"><ele>305.0</ele><time>2026-03-22T12:52:39.889Z</time></trkpt><trkpt lat="44.5290734" lon="10.5868633"><ele>306.0</ele><time>2026-03-22T12:52:41.893Z</time></trkpt><trkpt lat="44.5291318" lon="10.5866585"><ele>307.0</ele><time>2026-03-22T12:52:43.889Z</time></trkpt><trkpt lat="44.529147" lon="10.586529"><ele>308.0</ele><time>2026-03-22T12:52:44.884Z</time></trkpt><trkpt lat="44.5291422" lon="10.586393"><ele>309.0</ele><time>2026-03-22T12:52:45.883Z</time></trkpt><trkpt lat="44.5291415" lon="10.5862778"><ele>310.0</ele><time>2026-03-22T12:52:46.888Z</time></trkpt><trkpt lat="44.5291608" lon="10.5860982"><ele>310.6</ele><time>2026-03-22T12:52:48.89Z</time></trkpt><trkpt lat="44.5291804" lon="10.5859374"><ele>311.2</ele><time>2026-03-22T12:52:50.88Z</time></trkpt><trkpt lat="44.5292272" lon="10.5858047"><ele>311.8</ele><time>2026-03-22T12:52:52.884Z</time></trkpt><trkpt lat="44.5292799" lon="10.5858607"><ele>312.4</ele><time>2026-03-22T12:52:55.894Z</time></trkpt><trkpt lat="44.5293425" lon="10.5858276"><ele>313.0</ele><time>2026-03-22T12:58:16.901Z</time></trkpt><trkpt lat="44.5294445" lon="10.5858797"><ele>313.0</ele><time>2026-03-22T12:58:19.98Z</time></trkpt><trkpt lat="44.5295345" lon="10.5859208"><ele>313.0</ele><time>2026-03-22T12:58:21.956Z</time></trkpt><trkpt lat="44.5296004" lon="10.5859488"><ele>313.0</ele><time>2026-03-22T12:58:23.899Z</time></trkpt><trkpt lat="44.529662" lon="10.5859843"><ele>313.0</ele><time>2026-03-22T12:58:25.954Z</time></trkpt><trkpt lat="44.5297419" lon="10.5860012"><ele>313.0</ele><time>2026-03-22T12:58:27.883Z</time></trkpt><trkpt lat="44.529823" lon="10.58599"><ele>313.0</ele><time>2026-03-22T12:58:29.972Z</time></trkpt><trkpt lat="44.5299086" lon="10.5859696"><ele>317.3333333333333</ele><time>2026-03-22T12:58:31.921Z</time></trkpt><trkpt lat="44.5299905" lon="10.5859137"><ele>321.66666666666663</ele><time>2026-03-22T12:58:33.919Z</time></trkpt><trkpt lat="44.5300343" lon="10.5857999"><ele>326.0</ele><time>2026-03-22T12:58:35.907Z</time></trkpt><trkpt lat="44.5300736" lon="10.5857306"><ele>330.3333333333333</ele><time>2026-03-22T12:58:37.947Z</time></trkpt><trkpt lat="44.5301129" lon="10.5856569"><ele>334.6666666666667</ele><time>2026-03-22T12:58:40.947Z</time></trkpt><trkpt lat="44.5300802" lon="10.585762"><ele>339.0</ele><time>2026-03-22T12:58:49.928Z</time></trkpt><trkpt lat="44.5301582" lon="10.5857157"><ele>339.0</ele><time>2026-03-22T13:01:21.982Z</time></trkpt><trkpt lat="44.530223" lon="10.5856205"><ele>339.0</ele><time>2026-03-22T13:01:22.895Z</time></trkpt><trkpt lat="44.5302578" lon="10.5855311"><ele>339.0</ele><time>2026-03-22T13:01:23.899Z</time></trkpt><trkpt lat="44.5303323" lon="10.58542"><ele>339.0</ele><time>2026-03-22T13:01:25.901Z</time></trkpt><trkpt lat="44.5304015" lon="10.5854727"><ele>339.0</ele><time>2026-03-22T13:01:27.889Z</time></trkpt><trkpt lat="44.5304265" lon="10.5855804"><ele>339.0</ele><time>2026-03-22T13:01:29.889Z</time></trkpt><trkpt lat="44.5304698" lon="10.5857758"><ele>345.4</ele><time>2026-03-22T13:01:31.885Z</time></trkpt><trkpt lat="44.5305087" lon="10.5859614"><ele>351.79999999999995</ele><time>2026-03-22T13:01:32.886Z</time></trkpt><trkpt lat="44.5305452" lon="10.5861309"><ele>358.20000000000005</ele><time>2026-03-22T13:01:33.887Z</time></trkpt><trkpt lat="44.5305699" lon="10.586248"><ele>364.6</ele><time>2026-03-22T13:01:34.886Z</time></trkpt><trkpt lat="44.5306168" lon="10.5863413"><ele>371.0</ele><time>2026-03-22T13:01:36.886Z</time></trkpt><trkpt lat="44.530682" lon="10.5863137"><ele>371.0</ele><time>2026-03-22T13:01:38.887Z</time></trkpt><trkpt lat="44.5307611" lon="10.5862507"><ele>371.0</ele><time>2026-03-22T13:01:40.88Z</time></trkpt><trkpt lat="44.5308361" lon="10.5861243"><ele>371.0</ele><time>2026-03-22T13:01:42.887Z</time></trkpt><trkpt lat="44.5308793" lon="10.5859917"><ele>371.0</ele><time>2026-03-22T13:01:44.889Z</time></trkpt><trkpt lat="44.5309969" lon="10.5859455"><ele>371.0</ele><time>2026-03-22T13:01:47.881Z</time></trkpt><trkpt lat="44.5310622" lon="10.5859496"><ele>371.0</ele><time>2026-03-22T13:01:48.887Z</time></trkpt><trkpt lat="44.5311642" lon="10.5859757"><ele>371.0</ele><time>2026-03-22T13:01:50.885Z</time></trkpt><trkpt lat="44.5312354" lon="10.5860053"><ele>371.0</ele><time>2026-03-22T13:01:52.899Z</time></trkpt><trkpt lat="44.5312817" lon="10.5860789"><ele>371.0</ele><time>2026-03-22T13:03:52.894Z</time></trkpt><trkpt lat="44.5313092" lon="10.5861611"><ele>371.0</ele><time>2026-03-22T13:03:54.889Z</time></trkpt><trkpt lat="44.5312194" lon="10.5862022"><ele>371.0</ele><time>2026-03-22T13:03:57.884Z</time></trkpt><trkpt lat="44.5311514" lon="10.5862072"><ele>373.8</ele><time>2026-03-22T13:03:58.896Z</time></trkpt><trkpt lat="44.5310582" lon="10.586242"><ele>376.6</ele><time>2026-03-22T13:04:00.891Z</time></trkpt><trkpt lat="44.5310273" lon="10.5863899"><ele>379.4</ele><time>2026-03-22T13:04:02.887Z</time></trkpt><trkpt lat="44.5310248" lon="10.5865726"><ele>382.2</ele><time>2026-03-22T13:04:04.885Z</time></trkpt><trkpt lat="44.530991" lon="10.586697"><ele>385.0</ele><time>2026-03-22T13:04:05.886Z</time></trkpt><trkpt lat="44.5309452" lon="10.5868312"><ele>385.00000000000006</ele><time>2026-03-22T13:04:06.885Z</time></trkpt><trkpt lat="44.5309008" lon="10.5869575"><ele>385.0</ele><time>2026-03-22T13:04:07.885Z</time></trkpt><trkpt lat="44.5308789" lon="10.5870716"><ele>385.0</ele><time>2026-03-22T13:04:08.884Z</time></trkpt><trkpt lat="44.5308599" lon="10.5871923"><ele>385.0</ele><time>2026-03-22T13:04:09.909Z</time></trkpt><trkpt lat="44.530835" lon="10.5873"><ele>385.00000000000006</ele><time>2026-03-22T13:04:10.888Z</time></trkpt><trkpt lat="44.5308108" lon="10.5874014"><ele>385.0</ele><time>2026-03-22T13:04:11.884Z</time></trkpt><trkpt lat="44.5307882" lon="10.5874946"><ele>387.00000000000006</ele><time>2026-03-22T13:04:12.884Z</time></trkpt><trkpt lat="44.5307714" lon="10.5875806"><ele>389.0</ele><time>2026-03-22T13:04:13.886Z</time></trkpt><trkpt lat="44.530757" lon="10.5876761"><ele>391.0</ele><time>2026-03-22T13:04:14.884Z</time></trkpt><trkpt lat="44.5307428" lon="10.5877818"><ele>393.0</ele><time>2026-03-22T13:04:15.885Z</time></trkpt><trkpt lat="44.5307313" lon="10.5879008"><ele>395.00000000000006</ele><time>2026-03-22T13:04:16.885Z</time></trkpt><trkpt lat="44.5307234" lon="10.5880169"><ele>397.0</ele><time>2026-03-22T13:04:17.883Z</time></trkpt><trkpt lat="44.5307232" lon="10.5881186"><ele>398.0</ele><time>2026-03-22T13:04:18.887Z</time></trkpt><trkpt lat="44.5307502" lon="10.5882718"><ele>399.0</ele><time>2026-03-22T13:04:20.884Z</time></trkpt><trkpt lat="44.5308063" lon="10.5883751"><ele>400.0</ele><time>2026-03-22T13:04:22.883Z</time></trkpt><trkpt lat="44.5308827" lon="10.5884331"><ele>401.0</ele><time>2026-03-22T13:04:24.892Z</time></trkpt><trkpt lat="44.5309628" lon="10.5885719"><ele>402.0</ele><time>2026-03-22T13:04:26.886Z</time></trkpt><trkpt lat="44.5310086" lon="10.5886374"><ele>400.8</ele><time>2026-03-22T13:04:27.888Z</time></trkpt><trkpt lat="44.5311038" lon="10.5887112"><ele>399.6</ele><time>2026-03-22T13:04:29.88Z</time></trkpt><trkpt lat="44.5311626" lon="10.5888389"><ele>398.40000000000003</ele><time>2026-03-22T13:04:31.882Z</time></trkpt><trkpt lat="44.5312056" lon="10.5889181"><ele>397.20000000000005</ele><time>2026-03-22T13:04:32.895Z</time></trkpt><trkpt lat="44.5312518" lon="10.5889845"><ele>396.0</ele><time>2026-03-22T13:04:33.889Z</time></trkpt><trkpt lat="44.5313229" lon="10.5890968"><ele>402.6666666666667</ele><time>2026-03-22T13:04:35.885Z</time></trkpt><trkpt lat="44.5313741" lon="10.5891875"><ele>409.33333333333337</ele><time>2026-03-22T13:04:37.887Z</time></trkpt><trkpt lat="44.5314383" lon="10.5893011"><ele>416.0</ele><time>2026-03-22T13:04:39.881Z</time></trkpt><trkpt lat="44.5315063" lon="10.5894208"><ele>422.6666666666667</ele><time>2026-03-22T13:04:41.888Z</time></trkpt><trkpt lat="44.531559" lon="10.5894925"><ele>429.33333333333337</ele><time>2026-03-22T13:04:43.872Z</time></trkpt><trkpt lat="44.5316147" lon="10.5895536"><ele>436.0</ele><time>2026-03-22T13:04:46.952Z</time></trkpt><trkpt lat="44.5315842" lon="10.5897356"><ele>436.83333333333337</ele><time>2026-03-22T13:04:48.884Z</time></trkpt><trkpt lat="44.531536" lon="10.5898645"><ele>437.6666666666667</ele><time>2026-03-22T13:04:49.896Z</time></trkpt><trkpt lat="44.5314894" lon="10.5899681"><ele>438.5</ele><time>2026-03-22T13:04:50.887Z</time></trkpt><trkpt lat="44.5314373" lon="10.5900401"><ele>439.33333333333337</ele><time>2026-03-22T13:04:51.887Z</time></trkpt><trkpt lat="44.5313814" lon="10.5900911"><ele>440.1666666666667</ele><time>2026-03-22T13:04:52.889Z</time></trkpt><trkpt lat="44.5313252" lon="10.5901361"><ele>441.0</ele><time>2026-03-22T13:04:53.884Z</time></trkpt><trkpt lat="44.5312455" lon="10.5902191"><ele>439.20000000000005</ele><time>2026-03-22T13:04:55.895Z</time></trkpt><trkpt lat="44.5311906" lon="10.5903181"><ele>437.40000000000003</ele><time>2026-03-22T13:04:57.89Z</time></trkpt><trkpt lat="44.5311611" lon="10.5904426"><ele>435.6</ele><time>2026-03-22T13:04:59.883Z</time></trkpt><trkpt lat="44.531138" lon="10.5905862"><ele>433.8</ele><time>2026-03-22T13:05:01.885Z</time></trkpt><trkpt lat="44.5311087" lon="10.5906816"><ele>432.0</ele><time>2026-03-22T13:05:03.889Z</time></trkpt><trkpt lat="44.5310575" lon="10.5908099"><ele>432.0</ele><time>2026-03-22T13:05:05.889Z</time></trkpt><trkpt lat="44.5310246" lon="10.5908875"><ele>432.0</ele><time>2026-03-22T13:05:06.89Z</time></trkpt><trkpt lat="44.5309878" lon="10.5909638"><ele>432.0</ele><time>2026-03-22T13:05:07.894Z</time></trkpt><trkpt lat="44.5309441" lon="10.5911007"><ele>432.0</ele><time>2026-03-22T13:05:09.884Z</time></trkpt><trkpt lat="44.5309735" lon="10.5912551"><ele>432.0</ele><time>2026-03-22T13:05:11.886Z</time></trkpt><trkpt lat="44.5309976" lon="10.5913381"><ele>432.0</ele><time>2026-03-22T13:05:12.899Z</time></trkpt><trkpt lat="44.5310214" lon="10.5914268"><ele>431.20000000000005</ele><time>2026-03-22T13:05:13.885Z</time></trkpt><trkpt lat="44.5310449" lon="10.5915168"><ele>430.40000000000003</ele><time>2026-03-22T13:05:14.892Z</time></trkpt><trkpt lat="44.5310908" lon="10.5916638"><ele>429.59999999999997</ele><time>2026-03-22T13:05:16.896Z</time></trkpt><trkpt lat="44.5311548" lon="10.5917593"><ele>428.79999999999995</ele><time>2026-03-22T13:05:18.889Z</time></trkpt><trkpt lat="44.5312573" lon="10.5917903"><ele>428.0</ele><time>2026-03-22T13:05:20.898Z</time></trkpt><trkpt lat="44.5313648" lon="10.5917461"><ele>431.59999999999997</ele><time>2026-03-22T13:05:22.89Z</time></trkpt><trkpt lat="44.5314811" lon="10.5916636"><ele>435.19999999999993</ele><time>2026-03-22T13:05:24.895Z</time></trkpt><trkpt lat="44.5315598" lon="10.5916415"><ele>438.8</ele><time>2026-03-22T13:05:25.886Z</time></trkpt><trkpt lat="44.5316455" lon="10.5916322"><ele>442.4</ele><time>2026-03-22T13:05:26.895Z</time></trkpt><trkpt lat="44.5317298" lon="10.591627"><ele>446.0</ele><time>2026-03-22T13:05:27.885Z</time></trkpt><trkpt lat="44.5318139" lon="10.5916418"><ele>445.99999999999994</ele><time>2026-03-22T13:05:28.88Z</time></trkpt><trkpt lat="44.5318845" lon="10.5916693"><ele>446.0</ele><time>2026-03-22T13:05:29.88Z</time></trkpt><trkpt lat="44.5319536" lon="10.5916941"><ele>446.0</ele><time>2026-03-22T13:05:30.881Z</time></trkpt><trkpt lat="44.5320392" lon="10.5916851"><ele>446.0</ele><time>2026-03-22T13:05:31.885Z</time></trkpt><trkpt lat="44.5321347" lon="10.5916518"><ele>445.99999999999994</ele><time>2026-03-22T13:05:32.882Z</time></trkpt><trkpt lat="44.5322155" lon="10.5916135"><ele>446.0</ele><time>2026-03-22T13:05:33.888Z</time></trkpt><trkpt lat="44.5323195" lon="10.5915988"><ele>447.3333333333333</ele><time>2026-03-22T13:05:35.88Z</time></trkpt><trkpt lat="44.5323777" lon="10.5916419"><ele>448.66666666666663</ele><time>2026-03-22T13:05:36.885Z</time></trkpt><trkpt lat="44.5324363" lon="10.5917113"><ele>450.0</ele><time>2026-03-22T13:05:37.88Z</time></trkpt><trkpt lat="44.5325034" lon="10.5917779"><ele>451.33333333333337</ele><time>2026-03-22T13:05:38.882Z</time></trkpt><trkpt lat="44.53257" lon="10.591842"><ele>452.6666666666667</ele><time>2026-03-22T13:05:39.891Z</time></trkpt><trkpt lat="44.5326316" lon="10.591902"><ele>454.0</ele><time>2026-03-22T13:05:40.887Z</time></trkpt><trkpt lat="44.5327207" lon="10.5919222"><ele>454.00000000000006</ele><time>2026-03-22T13:05:42.888Z</time></trkpt><trkpt lat="44.5328284" lon="10.5918445"><ele>454.0</ele><time>2026-03-22T13:05:44.896Z</time></trkpt><trkpt lat="44.5329016" lon="10.5917836"><ele>454.0</ele><time>2026-03-22T13:05:45.886Z</time></trkpt><trkpt lat="44.5329735" lon="10.5917321"><ele>454.0</ele><time>2026-03-22T13:05:46.885Z</time></trkpt><trkpt lat="44.5330437" lon="10.5917028"><ele>454.00000000000006</ele><time>2026-03-22T13:05:47.891Z</time></trkpt><trkpt lat="44.5331141" lon="10.5916821"><ele>454.0</ele><time>2026-03-22T13:05:48.88Z</time></trkpt><trkpt lat="44.5331915" lon="10.5916588"><ele>454.6</ele><time>2026-03-22T13:05:49.882Z</time></trkpt><trkpt lat="44.5332596" lon="10.5916336"><ele>455.2</ele><time>2026-03-22T13:05:50.884Z</time></trkpt><trkpt lat="44.5333655" lon="10.591627"><ele>455.80000000000007</ele><time>2026-03-22T13:05:52.883Z</time></trkpt><trkpt lat="44.5334417" lon="10.5917068"><ele>456.40000000000003</ele><time>2026-03-22T13:05:54.902Z</time></trkpt><trkpt lat="44.5335222" lon="10.5918048"><ele>457.0</ele><time>2026-03-22T13:05:56.892Z</time></trkpt><trkpt lat="44.5336095" lon="10.5918587"><ele>457.00000000000006</ele><time>2026-03-22T13:05:58.886Z</time></trkpt><trkpt lat="44.5337122" lon="10.5918096"><ele>457.0</ele><time>2026-03-22T13:06:00.889Z</time></trkpt><trkpt lat="44.5337768" lon="10.5917606"><ele>457.0</ele><time>2026-03-22T13:06:01.88Z</time></trkpt><trkpt lat="44.5338378" lon="10.591714"><ele>457.0</ele><time>2026-03-22T13:06:02.884Z</time></trkpt><trkpt lat="44.533947" lon="10.5916633"><ele>457.00000000000006</ele><time>2026-03-22T13:06:04.88Z</time></trkpt><trkpt lat="44.53401" lon="10.5916656"><ele>457.0</ele><time>2026-03-22T13:06:05.886Z</time></trkpt><trkpt lat="44.5340904" lon="10.5917427"><ele>458.33333333333337</ele><time>2026-03-22T13:06:07.88Z</time></trkpt><trkpt lat="44.5341361" lon="10.5918476"><ele>459.6666666666667</ele><time>2026-03-22T13:06:09.881Z</time></trkpt><trkpt lat="44.5342333" lon="10.5919182"><ele>461.0</ele><time>2026-03-22T13:06:11.894Z</time></trkpt><trkpt lat="44.5342994" lon="10.591947"><ele>462.33333333333337</ele><time>2026-03-22T13:06:12.881Z</time></trkpt><trkpt lat="44.534369" lon="10.5919814"><ele>463.6666666666667</ele><time>2026-03-22T13:06:13.884Z</time></trkpt><trkpt lat="44.5344346" lon="10.5920259"><ele>465.0</ele><time>2026-03-22T13:06:14.881Z</time></trkpt><trkpt lat="44.5344959" lon="10.592072"><ele>467.1666666666667</ele><time>2026-03-22T13:06:15.889Z</time></trkpt><trkpt lat="44.5345541" lon="10.5921272"><ele>469.33333333333337</ele><time>2026-03-22T13:06:16.88Z</time></trkpt><trkpt lat="44.5346016" lon="10.5921908"><ele>471.5</ele><time>2026-03-22T13:06:17.884Z</time></trkpt><trkpt lat="44.5346525" lon="10.5923105"><ele>473.6666666666667</ele><time>2026-03-22T13:06:19.877Z</time></trkpt><trkpt lat="44.5346592" lon="10.5924799"><ele>475.83333333333337</ele><time>2026-03-22T13:06:21.886Z</time></trkpt><trkpt lat="44.534645" lon="10.5926018"><ele>478.0</ele><time>2026-03-22T13:06:22.892Z</time></trkpt><trkpt lat="44.5346324" lon="10.5927233"><ele>478.0</ele><time>2026-03-22T13:06:23.883Z</time></trkpt><trkpt lat="44.5346288" lon="10.5928309"><ele>477.99999999999994</ele><time>2026-03-22T13:06:24.881Z</time></trkpt><trkpt lat="44.5346412" lon="10.5929194"><ele>477.99999999999994</ele><time>2026-03-22T13:06:25.886Z</time></trkpt><trkpt lat="44.5346648" lon="10.593066"><ele>478.0</ele><time>2026-03-22T13:06:27.893Z</time></trkpt><trkpt lat="44.5346375" lon="10.5932256"><ele>478.0</ele><time>2026-03-22T13:06:29.886Z</time></trkpt><trkpt lat="44.5346627" lon="10.5933955"><ele>476.6666666666667</ele><time>2026-03-22T13:06:31.882Z</time></trkpt><trkpt lat="44.5346909" lon="10.5934903"><ele>475.33333333333337</ele><time>2026-03-22T13:06:32.887Z</time></trkpt><trkpt lat="44.5347292" lon="10.5935745"><ele>474.0</ele><time>2026-03-22T13:06:33.885Z</time></trkpt><trkpt lat="44.5347733" lon="10.5936537"><ele>472.66666666666663</ele><time>2026-03-22T13:06:34.903Z</time></trkpt><trkpt lat="44.5348256" lon="10.5937287"><ele>471.3333333333333</ele><time>2026-03-22T13:06:35.883Z</time></trkpt><trkpt lat="44.5349046" lon="10.5937976"><ele>470.0</ele><time>2026-03-22T13:06:36.883Z</time></trkpt><trkpt lat="44.5349863" lon="10.593875"><ele>466.99999999999994</ele><time>2026-03-22T13:06:37.886Z</time></trkpt><trkpt lat="44.5350639" lon="10.5939468"><ele>464.0</ele><time>2026-03-22T13:06:38.888Z</time></trkpt><trkpt lat="44.5351255" lon="10.5940036"><ele>461.0</ele><time>2026-03-22T13:06:39.884Z</time></trkpt><trkpt lat="44.5351707" lon="10.5940663"><ele>458.0</ele><time>2026-03-22T13:06:40.892Z</time></trkpt><trkpt lat="44.535222" lon="10.594173"><ele>454.99999999999994</ele><time>2026-03-22T13:06:42.89Z</time></trkpt><trkpt lat="44.5352723" lon="10.5942438"><ele>452.0</ele><time>2026-03-22T13:06:46.885Z</time></trkpt><trkpt lat="44.5353506" lon="10.5942602"><ele>453.8333333333333</ele><time>2026-03-22T13:06:51.896Z</time></trkpt><trkpt lat="44.53542" lon="10.5942403"><ele>455.66666666666663</ele><time>2026-03-22T13:06:54.905Z</time></trkpt><trkpt lat="44.5354129" lon="10.5941524"><ele>457.5</ele><time>2026-03-22T13:06:58.926Z</time></trkpt><trkpt lat="44.5354867" lon="10.5940582"><ele>459.33333333333337</ele><time>2026-03-22T13:08:16.891Z</time></trkpt><trkpt lat="44.5355777" lon="10.5939332"><ele>461.1666666666667</ele><time>2026-03-22T13:08:18.891Z</time></trkpt><trkpt lat="44.5356438" lon="10.5938703"><ele>463.0</ele><time>2026-03-22T13:08:19.897Z</time></trkpt><trkpt lat="44.5357193" lon="10.5938143"><ele>463.00000000000006</ele><time>2026-03-22T13:08:20.88Z</time></trkpt><trkpt lat="44.5358072" lon="10.5937658"><ele>463.0</ele><time>2026-03-22T13:08:21.886Z</time></trkpt><trkpt lat="44.5358978" lon="10.5937209"><ele>463.0</ele><time>2026-03-22T13:08:22.88Z</time></trkpt><trkpt lat="44.5359757" lon="10.5936751"><ele>463.0</ele><time>2026-03-22T13:08:23.882Z</time></trkpt><trkpt lat="44.5360424" lon="10.5936148"><ele>463.00000000000006</ele><time>2026-03-22T13:08:24.897Z</time></trkpt><trkpt lat="44.5361061" lon="10.5935508"><ele>463.0</ele><time>2026-03-22T13:08:25.889Z</time></trkpt><trkpt lat="44.5361653" lon="10.5934854"><ele>464.83333333333337</ele><time>2026-03-22T13:08:26.908Z</time></trkpt><trkpt lat="44.5362201" lon="10.5934171"><ele>466.6666666666667</ele><time>2026-03-22T13:08:27.881Z</time></trkpt><trkpt lat="44.5362867" lon="10.5933418"><ele>468.5</ele><time>2026-03-22T13:08:28.881Z</time></trkpt><trkpt lat="44.5363551" lon="10.5932664"><ele>470.33333333333337</ele><time>2026-03-22T13:08:29.891Z</time></trkpt><trkpt lat="44.5364243" lon="10.5931834"><ele>472.1666666666667</ele><time>2026-03-22T13:08:30.885Z</time></trkpt><trkpt lat="44.5364927" lon="10.5931032"><ele>474.0</ele><time>2026-03-22T13:08:31.894Z</time></trkpt><trkpt lat="44.5365581" lon="10.5930273"><ele>474.0</ele><time>2026-03-22T13:08:32.888Z</time></trkpt><trkpt lat="44.5366279" lon="10.5929685"><ele>474.0</ele><time>2026-03-22T13:08:33.905Z</time></trkpt><trkpt lat="44.5366927" lon="10.5929111"><ele>474.0</ele><time>2026-03-22T13:08:34.883Z</time></trkpt><trkpt lat="44.5367642" lon="10.5928791"><ele>474.0</ele><time>2026-03-22T13:08:35.887Z</time></trkpt><trkpt lat="44.536834" lon="10.5928491"><ele>474.0</ele><time>2026-03-22T13:08:36.885Z</time></trkpt><trkpt lat="44.5369046" lon="10.5928279"><ele>474.0</ele><time>2026-03-22T13:08:37.889Z</time></trkpt><trkpt lat="44.5369852" lon="10.592831"><ele>473.6666666666667</ele><time>2026-03-22T13:08:38.884Z</time></trkpt><trkpt lat="44.5370658" lon="10.5928392"><ele>473.33333333333337</ele><time>2026-03-22T13:08:39.888Z</time></trkpt><trkpt lat="44.5371429" lon="10.5928472"><ele>473.0</ele><time>2026-03-22T13:08:40.884Z</time></trkpt><trkpt lat="44.5372066" lon="10.5928507"><ele>472.6666666666667</ele><time>2026-03-22T13:08:41.889Z</time></trkpt><trkpt lat="44.5373029" lon="10.5927776"><ele>472.33333333333337</ele><time>2026-03-22T13:08:43.896Z</time></trkpt><trkpt lat="44.5373422" lon="10.5927033"><ele>472.0</ele><time>2026-03-22T13:08:44.898Z</time></trkpt><trkpt lat="44.537379" lon="10.5926072"><ele>472.0</ele><time>2026-03-22T13:08:45.891Z</time></trkpt><trkpt lat="44.5374194" lon="10.5924814"><ele>472.00000000000006</ele><time>2026-03-22T13:08:46.886Z</time></trkpt><trkpt lat="44.5374717" lon="10.5923335"><ele>472.00000000000006</ele><time>2026-03-22T13:08:47.891Z</time></trkpt><trkpt lat="44.5375287" lon="10.5921879"><ele>472.0</ele><time>2026-03-22T13:08:48.887Z</time></trkpt><trkpt lat="44.5375821" lon="10.5920577"><ele>472.0</ele><time>2026-03-22T13:08:49.899Z</time></trkpt><trkpt lat="44.5376334" lon="10.5919405"><ele>469.6</ele><time>2026-03-22T13:08:50.884Z</time></trkpt><trkpt lat="44.5376881" lon="10.5918308"><ele>467.20000000000005</ele><time>2026-03-22T13:08:51.89Z</time></trkpt><trkpt lat="44.5377493" lon="10.5917421"><ele>464.8</ele><time>2026-03-22T13:08:52.904Z</time></trkpt><trkpt lat="44.53782" lon="10.5916767"><ele>462.4</ele><time>2026-03-22T13:08:53.89Z</time></trkpt><trkpt lat="44.5379017" lon="10.5916283"><ele>460.0</ele><time>2026-03-22T13:08:54.891Z</time></trkpt><trkpt lat="44.5379926" lon="10.5915988"><ele>460.00000000000006</ele><time>2026-03-22T13:08:55.891Z</time></trkpt><trkpt lat="44.5380847" lon="10.5915683"><ele>460.0</ele><time>2026-03-22T13:08:56.892Z</time></trkpt><trkpt lat="44.538167" lon="10.5915238"><ele>460.0</ele><time>2026-03-22T13:08:57.886Z</time></trkpt><trkpt lat="44.5382379" lon="10.5914537"><ele>460.0</ele><time>2026-03-22T13:08:58.909Z</time></trkpt><trkpt lat="44.5383028" lon="10.5913771"><ele>460.00000000000006</ele><time>2026-03-22T13:08:59.885Z</time></trkpt><trkpt lat="44.5383541" lon="10.5912738"><ele>460.0</ele><time>2026-03-22T13:09:00.892Z</time></trkpt><trkpt lat="44.5383998" lon="10.5911608"><ele>459.6666666666667</ele><time>2026-03-22T13:09:01.892Z</time></trkpt><trkpt lat="44.5384474" lon="10.5910567"><ele>459.33333333333337</ele><time>2026-03-22T13:09:02.896Z</time></trkpt><trkpt lat="44.538501" lon="10.5909679"><ele>459.0</ele><time>2026-03-22T13:09:03.886Z</time></trkpt><trkpt lat="44.5385713" lon="10.590898"><ele>458.66666666666663</ele><time>2026-03-22T13:09:04.884Z</time></trkpt><trkpt lat="44.5386477" lon="10.5908536"><ele>458.3333333333333</ele><time>2026-03-22T13:09:05.888Z</time></trkpt><trkpt lat="44.5387216" lon="10.59082"><ele>458.0</ele><time>2026-03-22T13:09:06.888Z</time></trkpt><trkpt lat="44.5387844" lon="10.5907945"><ele>457.99999999999994</ele><time>2026-03-22T13:09:07.899Z</time></trkpt><trkpt lat="44.5388482" lon="10.5908094"><ele>458.0</ele><time>2026-03-22T13:09:09.892Z</time></trkpt><trkpt lat="44.5388145" lon="10.5909064"><ele>458.0</ele><time>2026-03-22T13:09:12.888Z</time></trkpt><trkpt lat="44.5387237" lon="10.5909404"><ele>458.0</ele><time>2026-03-22T13:09:15.859Z</time></trkpt><trkpt lat="44.5386402" lon="10.5910749"><ele>457.99999999999994</ele><time>2026-03-22T13:09:16.888Z</time></trkpt><trkpt lat="44.5386012" lon="10.5911605"><ele>458.0</ele><time>2026-03-22T13:09:17.882Z</time></trkpt><trkpt lat="44.5385811" lon="10.5912569"><ele>458.3333333333333</ele><time>2026-03-22T13:09:18.899Z</time></trkpt><trkpt lat="44.538574" lon="10.5913668"><ele>458.66666666666663</ele><time>2026-03-22T13:09:19.89Z</time></trkpt><trkpt lat="44.5385701" lon="10.5914828"><ele>459.0</ele><time>2026-03-22T13:09:20.885Z</time></trkpt><trkpt lat="44.5385787" lon="10.5916088"><ele>459.33333333333337</ele><time>2026-03-22T13:09:21.884Z</time></trkpt><trkpt lat="44.5385961" lon="10.5917391"><ele>459.6666666666667</ele><time>2026-03-22T13:09:22.882Z</time></trkpt><trkpt lat="44.5386173" lon="10.5918723"><ele>460.0</ele><time>2026-03-22T13:09:23.895Z</time></trkpt><trkpt lat="44.5386392" lon="10.5920048"><ele>458.6</ele><time>2026-03-22T13:09:24.897Z</time></trkpt><trkpt lat="44.5386643" lon="10.5921377"><ele>457.2</ele><time>2026-03-22T13:09:25.898Z</time></trkpt><trkpt lat="44.5386922" lon="10.5922702"><ele>455.79999999999995</ele><time>2026-03-22T13:09:26.888Z</time></trkpt><trkpt lat="44.5387202" lon="10.5924077"><ele>454.4</ele><time>2026-03-22T13:09:27.881Z</time></trkpt><trkpt lat="44.5387443" lon="10.5925523"><ele>453.0</ele><time>2026-03-22T13:09:28.891Z</time></trkpt><trkpt lat="44.5387561" lon="10.5927025"><ele>446.79999999999995</ele><time>2026-03-22T13:09:29.89Z</time></trkpt><trkpt lat="44.5387523" lon="10.5928599"><ele>440.59999999999997</ele><time>2026-03-22T13:09:30.906Z</time></trkpt><trkpt lat="44.538749" lon="10.5930179"><ele>434.4</ele><time>2026-03-22T13:09:31.886Z</time></trkpt><trkpt lat="44.5387603" lon="10.5931758"><ele>428.20000000000005</ele><time>2026-03-22T13:09:32.893Z</time></trkpt><trkpt lat="44.538787" lon="10.5933271"><ele>422.0</ele><time>2026-03-22T13:09:33.897Z</time></trkpt><trkpt lat="44.5388133" lon="10.5934771"><ele>422.0</ele><time>2026-03-22T13:09:34.89Z</time></trkpt><trkpt lat="44.5388271" lon="10.5936344"><ele>422.0</ele><time>2026-03-22T13:09:35.893Z</time></trkpt><trkpt lat="44.5388279" lon="10.5937986"><ele>422.0</ele><time>2026-03-22T13:09:36.889Z</time></trkpt><trkpt lat="44.5388195" lon="10.5939704"><ele>422.0</ele><time>2026-03-22T13:09:37.907Z</time></trkpt><trkpt lat="44.5388022" lon="10.5941452"><ele>422.25</ele><time>2026-03-22T13:09:38.895Z</time></trkpt><trkpt lat="44.5387817" lon="10.5943194"><ele>422.5</ele><time>2026-03-22T13:09:39.889Z</time></trkpt><trkpt lat="44.5387571" lon="10.594491"><ele>422.75</ele><time>2026-03-22T13:09:40.894Z</time></trkpt><trkpt lat="44.5387309" lon="10.5946547"><ele>423.0</ele><time>2026-03-22T13:09:41.894Z</time></trkpt><trkpt lat="44.5386834" lon="10.5947984"><ele>422.2</ele><time>2026-03-22T13:09:42.896Z</time></trkpt><trkpt lat="44.5385996" lon="10.594906"><ele>421.4</ele><time>2026-03-22T13:09:43.884Z</time></trkpt><trkpt lat="44.5384988" lon="10.5949865"><ele>420.59999999999997</ele><time>2026-03-22T13:09:44.901Z</time></trkpt><trkpt lat="44.5384045" lon="10.5950731"><ele>419.79999999999995</ele><time>2026-03-22T13:09:45.888Z</time></trkpt><trkpt lat="44.5383278" lon="10.5951773"><ele>419.0</ele><time>2026-03-22T13:09:46.892Z</time></trkpt><trkpt lat="44.5382762" lon="10.5953051"><ele>417.79999999999995</ele><time>2026-03-22T13:09:47.884Z</time></trkpt><trkpt lat="44.5382395" lon="10.5954439"><ele>416.59999999999997</ele><time>2026-03-22T13:09:48.892Z</time></trkpt><trkpt lat="44.5382044" lon="10.5955818"><ele>415.4</ele><time>2026-03-22T13:09:49.887Z</time></trkpt><trkpt lat="44.5381704" lon="10.5957174"><ele>414.2</ele><time>2026-03-22T13:09:50.886Z</time></trkpt><trkpt lat="44.5381498" lon="10.5958429"><ele>413.0</ele><time>2026-03-22T13:09:51.902Z</time></trkpt><trkpt lat="44.5381582" lon="10.5959618"><ele>413.0</ele><time>2026-03-22T13:09:52.886Z</time></trkpt><trkpt lat="44.5381926" lon="10.5960814"><ele>413.0</ele><time>2026-03-22T13:09:53.886Z</time></trkpt><trkpt lat="44.5382558" lon="10.5961925"><ele>413.0</ele><time>2026-03-22T13:09:54.884Z</time></trkpt><trkpt lat="44.5383251" lon="10.5963024"><ele>413.0</ele><time>2026-03-22T13:09:55.885Z</time></trkpt><trkpt lat="44.5383954" lon="10.5964178"><ele>413.0</ele><time>2026-03-22T13:09:56.883Z</time></trkpt><trkpt lat="44.5384646" lon="10.5965377"><ele>411.59999999999997</ele><time>2026-03-22T13:09:57.884Z</time></trkpt><trkpt lat="44.5385332" lon="10.5966597"><ele>410.2</ele><time>2026-03-22T13:09:58.885Z</time></trkpt><trkpt lat="44.5386008" lon="10.5967862"><ele>408.8</ele><time>2026-03-22T13:09:59.898Z</time></trkpt><trkpt lat="44.5386622" lon="10.5969093"><ele>407.4</ele><time>2026-03-22T13:10:00.889Z</time></trkpt><trkpt lat="44.5387199" lon="10.5970337"><ele>406.0</ele><time>2026-03-22T13:10:01.889Z</time></trkpt><trkpt lat="44.5387733" lon="10.5971579"><ele>406.0</ele><time>2026-03-22T13:10:02.889Z</time></trkpt><trkpt lat="44.5388244" lon="10.5972789"><ele>406.0</ele><time>2026-03-22T13:10:03.89Z</time></trkpt><trkpt lat="44.5388714" lon="10.5973977"><ele>406.0</ele><time>2026-03-22T13:10:04.886Z</time></trkpt><trkpt lat="44.5388989" lon="10.5975223"><ele>406.0</ele><time>2026-03-22T13:10:05.883Z</time></trkpt><trkpt lat="44.5388976" lon="10.5976591"><ele>406.0</ele><time>2026-03-22T13:10:06.896Z</time></trkpt><trkpt lat="44.5388668" lon="10.5977984"><ele>406.6</ele><time>2026-03-22T13:10:07.889Z</time></trkpt><trkpt lat="44.5388262" lon="10.5979351"><ele>407.20000000000005</ele><time>2026-03-22T13:10:08.884Z</time></trkpt><trkpt lat="44.5387986" lon="10.5980675"><ele>407.79999999999995</ele><time>2026-03-22T13:10:09.887Z</time></trkpt><trkpt lat="44.5387891" lon="10.5982042"><ele>408.4</ele><time>2026-03-22T13:10:10.893Z</time></trkpt><trkpt lat="44.5387848" lon="10.5983372"><ele>409.0</ele><time>2026-03-22T13:10:11.89Z</time></trkpt><trkpt lat="44.5387833" lon="10.5984701"><ele>409.0</ele><time>2026-03-22T13:10:12.882Z</time></trkpt><trkpt lat="44.5387696" lon="10.5986053"><ele>409.0</ele><time>2026-03-22T13:10:13.885Z</time></trkpt><trkpt lat="44.5387512" lon="10.5987378"><ele>409.0</ele><time>2026-03-22T13:10:14.884Z</time></trkpt><trkpt lat="44.5387104" lon="10.5988584"><ele>409.0</ele><time>2026-03-22T13:10:15.896Z</time></trkpt><trkpt lat="44.5386597" lon="10.5989598"><ele>409.0</ele><time>2026-03-22T13:10:16.883Z</time></trkpt><trkpt lat="44.5385714" lon="10.5990175"><ele>408.25</ele><time>2026-03-22T13:10:17.898Z</time></trkpt><trkpt lat="44.5384698" lon="10.5990687"><ele>407.5</ele><time>2026-03-22T13:10:18.881Z</time></trkpt><trkpt lat="44.5383612" lon="10.5991216"><ele>406.75</ele><time>2026-03-22T13:10:19.893Z</time></trkpt><trkpt lat="44.5382572" lon="10.5991864"><ele>406.0</ele><time>2026-03-22T13:10:20.894Z</time></trkpt><trkpt lat="44.5381606" lon="10.5992778"><ele>406.0</ele><time>2026-03-22T13:10:21.883Z</time></trkpt><trkpt lat="44.5380638" lon="10.5993822"><ele>406.0</ele><time>2026-03-22T13:10:22.884Z</time></trkpt><trkpt lat="44.5379801" lon="10.5995052"><ele>406.0</ele><time>2026-03-22T13:10:23.881Z</time></trkpt><trkpt lat="44.5378924" lon="10.5996272"><ele>406.0</ele><time>2026-03-22T13:10:24.897Z</time></trkpt><trkpt lat="44.5377986" lon="10.599735"><ele>401.5</ele><time>2026-03-22T13:10:25.889Z</time></trkpt><trkpt lat="44.5376925" lon="10.5998313"><ele>397.0</ele><time>2026-03-22T13:10:26.891Z</time></trkpt><trkpt lat="44.5375837" lon="10.5999198"><ele>392.5</ele><time>2026-03-22T13:10:27.885Z</time></trkpt><trkpt lat="44.5374827" lon="10.6000149"><ele>388.0</ele><time>2026-03-22T13:10:28.891Z</time></trkpt><trkpt lat="44.5374021" lon="10.6001285"><ele>388.0</ele><time>2026-03-22T13:10:29.889Z</time></trkpt><trkpt lat="44.5373474" lon="10.6002586"><ele>388.0</ele><time>2026-03-22T13:10:30.89Z</time></trkpt><trkpt lat="44.5373137" lon="10.6003897"><ele>388.0</ele><time>2026-03-22T13:10:31.893Z</time></trkpt><trkpt lat="44.5373049" lon="10.6005074"><ele>388.0</ele><time>2026-03-22T13:10:32.881Z</time></trkpt><trkpt lat="44.5373203" lon="10.6006084"><ele>388.0</ele><time>2026-03-22T13:10:33.888Z</time></trkpt><trkpt lat="44.5374051" lon="10.6007114"><ele>386.50000000000006</ele><time>2026-03-22T13:10:35.887Z</time></trkpt><trkpt lat="44.5374993" lon="10.6006687"><ele>385.0</ele><time>2026-03-22T13:10:37.889Z</time></trkpt><trkpt lat="44.5375712" lon="10.6006002"><ele>383.5</ele><time>2026-03-22T13:10:39.9Z</time></trkpt><trkpt lat="44.537644" lon="10.6005343"><ele>382.0</ele><time>2026-03-22T13:10:41.884Z</time></trkpt><trkpt lat="44.5377365" lon="10.600489"><ele>380.5</ele><time>2026-03-22T13:10:43.886Z</time></trkpt><trkpt lat="44.537802" lon="10.6005007"><ele>379.0</ele><time>2026-03-22T13:10:44.881Z</time></trkpt><trkpt lat="44.5378779" lon="10.6005526"><ele>378.0</ele><time>2026-03-22T13:10:45.887Z</time></trkpt><trkpt lat="44.5379463" lon="10.6006069"><ele>377.0</ele><time>2026-03-22T13:10:46.884Z</time></trkpt><trkpt lat="44.5380386" lon="10.6006873"><ele>376.0</ele><time>2026-03-22T13:10:48.892Z</time></trkpt><trkpt lat="44.5381077" lon="10.6007461"><ele>375.0</ele><time>2026-03-22T13:10:50.887Z</time></trkpt><trkpt lat="44.5381796" lon="10.6008004"><ele>374.0</ele><time>2026-03-22T13:10:54.943Z</time></trkpt><trkpt lat="44.5382456" lon="10.600842"><ele>373.0</ele><time>2026-03-22T13:11:03.897Z</time></trkpt><trkpt lat="44.5383291" lon="10.6009046"><ele>373.0</ele><time>2026-03-22T13:11:04.902Z</time></trkpt><trkpt lat="44.5384078" lon="10.6009739"><ele>373.0</ele><time>2026-03-22T13:11:05.891Z</time></trkpt><trkpt lat="44.5384746" lon="10.6010538"><ele>373.0</ele><time>2026-03-22T13:11:06.904Z</time></trkpt><trkpt lat="44.5385258" lon="10.6011587"><ele>373.0</ele><time>2026-03-22T13:11:07.887Z</time></trkpt><trkpt lat="44.5385597" lon="10.6012927"><ele>373.0</ele><time>2026-03-22T13:11:08.885Z</time></trkpt><trkpt lat="44.5385707" lon="10.60145"><ele>369.59999999999997</ele><time>2026-03-22T13:11:09.884Z</time></trkpt><trkpt lat="44.5385668" lon="10.6016128"><ele>366.2</ele><time>2026-03-22T13:11:10.891Z</time></trkpt><trkpt lat="44.5385506" lon="10.6017663"><ele>362.8</ele><time>2026-03-22T13:11:11.884Z</time></trkpt><trkpt lat="44.5385246" lon="10.6019136"><ele>359.4</ele><time>2026-03-22T13:11:12.885Z</time></trkpt><trkpt lat="44.5384917" lon="10.6020569"><ele>356.0</ele><time>2026-03-22T13:11:13.892Z</time></trkpt><trkpt lat="44.538455" lon="10.6021982"><ele>353.6</ele><time>2026-03-22T13:11:14.889Z</time></trkpt><trkpt lat="44.5384208" lon="10.602344"><ele>351.20000000000005</ele><time>2026-03-22T13:11:15.894Z</time></trkpt><trkpt lat="44.5383905" lon="10.6024879"><ele>348.79999999999995</ele><time>2026-03-22T13:11:16.894Z</time></trkpt><trkpt lat="44.5383638" lon="10.6026256"><ele>346.4</ele><time>2026-03-22T13:11:17.892Z</time></trkpt><trkpt lat="44.5383396" lon="10.602761"><ele>344.0</ele><time>2026-03-22T13:11:18.903Z</time></trkpt><trkpt lat="44.5383186" lon="10.6029009"><ele>342.79999999999995</ele><time>2026-03-22T13:11:19.899Z</time></trkpt><trkpt lat="44.5382983" lon="10.6030453"><ele>341.59999999999997</ele><time>2026-03-22T13:11:20.884Z</time></trkpt><trkpt lat="44.5382771" lon="10.6031884"><ele>340.4</ele><time>2026-03-22T13:11:21.902Z</time></trkpt><trkpt lat="44.538258" lon="10.6033264"><ele>339.2</ele><time>2026-03-22T13:11:22.887Z</time></trkpt><trkpt lat="44.5382419" lon="10.6034651"><ele>338.0</ele><time>2026-03-22T13:11:23.892Z</time></trkpt><trkpt lat="44.5382275" lon="10.6036029"><ele>336.79999999999995</ele><time>2026-03-22T13:11:24.897Z</time></trkpt><trkpt lat="44.5382139" lon="10.603738"><ele>335.6</ele><time>2026-03-22T13:11:25.891Z</time></trkpt><trkpt lat="44.5382022" lon="10.6038694"><ele>334.4</ele><time>2026-03-22T13:11:26.901Z</time></trkpt><trkpt lat="44.5382063" lon="10.6040129"><ele>333.20000000000005</ele><time>2026-03-22T13:11:27.893Z</time></trkpt><trkpt lat="44.5382177" lon="10.6041523"><ele>332.0</ele><time>2026-03-22T13:11:28.882Z</time></trkpt><trkpt lat="44.5382313" lon="10.6042857"><ele>332.0</ele><time>2026-03-22T13:11:29.88Z</time></trkpt><trkpt lat="44.5382461" lon="10.6044137"><ele>332.0</ele><time>2026-03-22T13:11:30.896Z</time></trkpt><trkpt lat="44.5382633" lon="10.6045401"><ele>332.0</ele><time>2026-03-22T13:11:31.884Z</time></trkpt><trkpt lat="44.5382843" lon="10.6046686"><ele>332.0</ele><time>2026-03-22T13:11:32.888Z</time></trkpt><trkpt lat="44.5383076" lon="10.6047939"><ele>332.0</ele><time>2026-03-22T13:11:33.889Z</time></trkpt><trkpt lat="44.53833" lon="10.6049169"><ele>330.0</ele><time>2026-03-22T13:11:34.894Z</time></trkpt><trkpt lat="44.5383503" lon="10.6050437"><ele>328.0</ele><time>2026-03-22T13:11:35.886Z</time></trkpt><trkpt lat="44.5383724" lon="10.6051782"><ele>326.0</ele><time>2026-03-22T13:11:36.888Z</time></trkpt><trkpt lat="44.5384014" lon="10.6053133"><ele>324.0</ele><time>2026-03-22T13:11:37.884Z</time></trkpt><trkpt lat="44.538443" lon="10.6054479"><ele>322.0</ele><time>2026-03-22T13:11:38.893Z</time></trkpt><trkpt lat="44.5384948" lon="10.6055844"><ele>317.75</ele><time>2026-03-22T13:11:39.901Z</time></trkpt><trkpt lat="44.5385538" lon="10.6057283"><ele>313.5</ele><time>2026-03-22T13:11:40.887Z</time></trkpt><trkpt lat="44.5386172" lon="10.605884"><ele>309.25</ele><time>2026-03-22T13:11:41.89Z</time></trkpt><trkpt lat="44.5386823" lon="10.6060445"><ele>305.0</ele><time>2026-03-22T13:11:42.897Z</time></trkpt><trkpt lat="44.5387467" lon="10.6062034"><ele>302.6</ele><time>2026-03-22T13:11:43.896Z</time></trkpt><trkpt lat="44.5388064" lon="10.6063507"><ele>300.2</ele><time>2026-03-22T13:11:44.89Z</time></trkpt><trkpt lat="44.5388589" lon="10.6064742"><ele>297.8</ele><time>2026-03-22T13:11:45.886Z</time></trkpt><trkpt lat="44.5389133" lon="10.6065691"><ele>295.4</ele><time>2026-03-22T13:11:46.885Z</time></trkpt><trkpt lat="44.5389813" lon="10.6066334"><ele>293.0</ele><time>2026-03-22T13:11:47.889Z</time></trkpt><trkpt lat="44.5390697" lon="10.6066545"><ele>293.0</ele><time>2026-03-22T13:11:48.887Z</time></trkpt><trkpt lat="44.5391703" lon="10.6066295"><ele>293.0</ele><time>2026-03-22T13:11:49.885Z</time></trkpt><trkpt lat="44.5392685" lon="10.6065935"><ele>293.0</ele><time>2026-03-22T13:11:50.89Z</time></trkpt><trkpt lat="44.5393515" lon="10.6065593"><ele>293.0</ele><time>2026-03-22T13:11:51.89Z</time></trkpt><trkpt lat="44.5394227" lon="10.6065378"><ele>293.0</ele><time>2026-03-22T13:11:52.894Z</time></trkpt><trkpt lat="44.5394893" lon="10.6065564"><ele>293.0</ele><time>2026-03-22T13:11:53.891Z</time></trkpt><trkpt lat="44.5395409" lon="10.6066673"><ele>290.5</ele><time>2026-03-22T13:11:54.89Z</time></trkpt><trkpt lat="44.5395764" lon="10.6068152"><ele>288.0</ele><time>2026-03-22T13:11:55.892Z</time></trkpt><trkpt lat="44.5395863" lon="10.6069807"><ele>285.5</ele><time>2026-03-22T13:11:56.884Z</time></trkpt><trkpt lat="44.5395727" lon="10.6071475"><ele>283.0</ele><time>2026-03-22T13:11:57.896Z</time></trkpt><trkpt lat="44.5395426" lon="10.6073098"><ele>282.0</ele><time>2026-03-22T13:11:58.889Z</time></trkpt><trkpt lat="44.5395093" lon="10.607482"><ele>281.0</ele><time>2026-03-22T13:11:59.888Z</time></trkpt><trkpt lat="44.53949" lon="10.6076708"><ele>280.0</ele><time>2026-03-22T13:12:00.886Z</time></trkpt><trkpt lat="44.5394964" lon="10.607868"><ele>279.0</ele><time>2026-03-22T13:12:01.883Z</time></trkpt><trkpt lat="44.5395239" lon="10.6080642"><ele>275.0</ele><time>2026-03-22T13:12:02.879Z</time></trkpt><trkpt lat="44.5395625" lon="10.6082572"><ele>271.0</ele><time>2026-03-22T13:12:03.885Z</time></trkpt><trkpt lat="44.5395969" lon="10.6084481"><ele>267.0</ele><time>2026-03-22T13:12:04.892Z</time></trkpt><trkpt lat="44.5396149" lon="10.608636"><ele>263.0</ele><time>2026-03-22T13:12:05.881Z</time></trkpt><trkpt lat="44.5396204" lon="10.6088248"><ele>262.0</ele><time>2026-03-22T13:12:06.893Z</time></trkpt><trkpt lat="44.5396229" lon="10.6090074"><ele>261.0</ele><time>2026-03-22T13:12:07.888Z</time></trkpt><trkpt lat="44.5396267" lon="10.6091839"><ele>260.0</ele><time>2026-03-22T13:12:08.883Z</time></trkpt><trkpt lat="44.539631" lon="10.6093538"><ele>259.0</ele><time>2026-03-22T13:12:09.891Z</time></trkpt><trkpt lat="44.5396356" lon="10.6095176"><ele>257.0</ele><time>2026-03-22T13:12:10.886Z</time></trkpt><trkpt lat="44.539644" lon="10.6096846"><ele>255.0</ele><time>2026-03-22T13:12:11.901Z</time></trkpt><trkpt lat="44.5396588" lon="10.6098529"><ele>253.0</ele><time>2026-03-22T13:12:12.892Z</time></trkpt><trkpt lat="44.5396813" lon="10.6100219"><ele>251.0</ele><time>2026-03-22T13:12:13.886Z</time></trkpt><trkpt lat="44.5397111" lon="10.6101883"><ele>249.25</ele><time>2026-03-22T13:12:14.889Z</time></trkpt><trkpt lat="44.5397465" lon="10.6103516"><ele>247.5</ele><time>2026-03-22T13:12:15.886Z</time></trkpt><trkpt lat="44.5397809" lon="10.6105147"><ele>245.75</ele><time>2026-03-22T13:12:16.885Z</time></trkpt><trkpt lat="44.5398108" lon="10.6106811"><ele>244.0</ele><time>2026-03-22T13:12:17.895Z</time></trkpt><trkpt lat="44.5398397" lon="10.6108506"><ele>244.0</ele><time>2026-03-22T13:12:18.905Z</time></trkpt><trkpt lat="44.5398737" lon="10.6110193"><ele>244.0</ele><time>2026-03-22T13:12:19.886Z</time></trkpt><trkpt lat="44.5399153" lon="10.6111881"><ele>244.0</ele><time>2026-03-22T13:12:20.888Z</time></trkpt><trkpt lat="44.5399615" lon="10.6113539"><ele>244.0</ele><time>2026-03-22T13:12:21.888Z</time></trkpt><trkpt lat="44.5400075" lon="10.6115181"><ele>242.5</ele><time>2026-03-22T13:12:22.884Z</time></trkpt><trkpt lat="44.5400493" lon="10.6116813"><ele>241.0</ele><time>2026-03-22T13:12:23.884Z</time></trkpt><trkpt lat="44.5400887" lon="10.6118431"><ele>239.5</ele><time>2026-03-22T13:12:24.886Z</time></trkpt><trkpt lat="44.5401288" lon="10.6120013"><ele>238.0</ele><time>2026-03-22T13:12:25.886Z</time></trkpt><trkpt lat="44.5401755" lon="10.6121567"><ele>238.0</ele><time>2026-03-22T13:12:26.891Z</time></trkpt><trkpt lat="44.5402333" lon="10.6123111"><ele>238.0</ele><time>2026-03-22T13:12:27.894Z</time></trkpt><trkpt lat="44.5402964" lon="10.6124619"><ele>238.0</ele><time>2026-03-22T13:12:28.888Z</time></trkpt><trkpt lat="44.5403578" lon="10.6126055"><ele>238.0</ele><time>2026-03-22T13:12:29.897Z</time></trkpt><trkpt lat="44.5404111" lon="10.6127455"><ele>242.0</ele><time>2026-03-22T13:12:30.894Z</time></trkpt><trkpt lat="44.5404602" lon="10.6128913"><ele>246.0</ele><time>2026-03-22T13:12:31.889Z</time></trkpt><trkpt lat="44.5405088" lon="10.6130376"><ele>250.0</ele><time>2026-03-22T13:12:32.895Z</time></trkpt><trkpt lat="44.5405599" lon="10.613176"><ele>254.0</ele><time>2026-03-22T13:12:33.884Z</time></trkpt><trkpt lat="44.5406149" lon="10.6133111"><ele>254.0</ele><time>2026-03-22T13:12:34.89Z</time></trkpt><trkpt lat="44.5406666" lon="10.6134488"><ele>254.0</ele><time>2026-03-22T13:12:35.891Z</time></trkpt><trkpt lat="44.5407035" lon="10.6135975"><ele>254.0</ele><time>2026-03-22T13:12:36.892Z</time></trkpt><trkpt lat="44.5407187" lon="10.6137584"><ele>254.0</ele><time>2026-03-22T13:12:37.889Z</time></trkpt><trkpt lat="44.5407129" lon="10.6139267"><ele>250.5</ele><time>2026-03-22T13:12:38.891Z</time></trkpt><trkpt lat="44.5406978" lon="10.6140968"><ele>247.0</ele><time>2026-03-22T13:12:39.885Z</time></trkpt><trkpt lat="44.5406689" lon="10.6142634"><ele>243.5</ele><time>2026-03-22T13:12:40.882Z</time></trkpt><trkpt lat="44.5406434" lon="10.6144214"><ele>240.0</ele><time>2026-03-22T13:12:41.888Z</time></trkpt><trkpt lat="44.5406319" lon="10.614573"><ele>238.6</ele><time>2026-03-22T13:12:42.895Z</time></trkpt><trkpt lat="44.5406382" lon="10.6147157"><ele>237.2</ele><time>2026-03-22T13:12:43.888Z</time></trkpt><trkpt lat="44.5406683" lon="10.6148566"><ele>235.8</ele><time>2026-03-22T13:12:44.889Z</time></trkpt><trkpt lat="44.540718" lon="10.6149943"><ele>234.4</ele><time>2026-03-22T13:12:45.893Z</time></trkpt><trkpt lat="44.5407879" lon="10.6151267"><ele>233.0</ele><time>2026-03-22T13:12:46.882Z</time></trkpt><trkpt lat="44.5408767" lon="10.6152681"><ele>231.0</ele><time>2026-03-22T13:12:47.881Z</time></trkpt><trkpt lat="44.5409678" lon="10.6154156"><ele>229.0</ele><time>2026-03-22T13:12:48.9Z</time></trkpt><trkpt lat="44.5410497" lon="10.6155538"><ele>227.0</ele><time>2026-03-22T13:12:49.88Z</time></trkpt><trkpt lat="44.5411258" lon="10.6156785"><ele>225.0</ele><time>2026-03-22T13:12:50.888Z</time></trkpt><trkpt lat="44.5412005" lon="10.6157939"><ele>226.4</ele><time>2026-03-22T13:12:51.884Z</time></trkpt><trkpt lat="44.5412785" lon="10.6159071"><ele>227.8</ele><time>2026-03-22T13:12:52.887Z</time></trkpt><trkpt lat="44.5413603" lon="10.6160131"><ele>229.2</ele><time>2026-03-22T13:12:53.885Z</time></trkpt><trkpt lat="44.5414423" lon="10.6161153"><ele>230.6</ele><time>2026-03-22T13:12:54.882Z</time></trkpt><trkpt lat="44.5415182" lon="10.6162202"><ele>232.0</ele><time>2026-03-22T13:12:55.893Z</time></trkpt><trkpt lat="44.5415898" lon="10.6163299"><ele>231.99999999999997</ele><time>2026-03-22T13:12:56.885Z</time></trkpt><trkpt lat="44.5416575" lon="10.6164416"><ele>232.0</ele><time>2026-03-22T13:12:57.885Z</time></trkpt><trkpt lat="44.5417193" lon="10.616543"><ele>232.0</ele><time>2026-03-22T13:12:58.887Z</time></trkpt><trkpt lat="44.541775" lon="10.6166236"><ele>232.0</ele><time>2026-03-22T13:12:59.886Z</time></trkpt><trkpt lat="44.5418298" lon="10.6167033"><ele>231.99999999999997</ele><time>2026-03-22T13:13:00.885Z</time></trkpt><trkpt lat="44.5418848" lon="10.6167785"><ele>232.0</ele><time>2026-03-22T13:13:01.891Z</time></trkpt><trkpt lat="44.5419368" lon="10.6168474"><ele>232.0</ele><time>2026-03-22T13:13:02.887Z</time></trkpt><trkpt lat="44.542009" lon="10.6169543"><ele>232.0</ele><time>2026-03-22T13:13:04.886Z</time></trkpt><trkpt lat="44.542085" lon="10.6170808"><ele>232.0</ele><time>2026-03-22T13:13:06.889Z</time></trkpt><trkpt lat="44.5421384" lon="10.6171577"><ele>232.0</ele><time>2026-03-22T13:13:07.885Z</time></trkpt><trkpt lat="44.5422008" lon="10.6172389"><ele>232.0</ele><time>2026-03-22T13:13:08.885Z</time></trkpt><trkpt lat="44.5422725" lon="10.6173215"><ele>232.8</ele><time>2026-03-22T13:13:09.893Z</time></trkpt><trkpt lat="44.5423493" lon="10.6173983"><ele>233.6</ele><time>2026-03-22T13:13:10.883Z</time></trkpt><trkpt lat="44.5424314" lon="10.6174731"><ele>234.40000000000003</ele><time>2026-03-22T13:13:11.897Z</time></trkpt><trkpt lat="44.5425127" lon="10.617547"><ele>235.20000000000002</ele><time>2026-03-22T13:13:12.881Z</time></trkpt><trkpt lat="44.5425845" lon="10.6176212"><ele>236.0</ele><time>2026-03-22T13:13:13.883Z</time></trkpt><trkpt lat="44.5426464" lon="10.6177003"><ele>236.00000000000003</ele><time>2026-03-22T13:13:14.882Z</time></trkpt><trkpt lat="44.5427009" lon="10.6177885"><ele>236.0</ele><time>2026-03-22T13:13:15.886Z</time></trkpt><trkpt lat="44.5427518" lon="10.6178803"><ele>236.0</ele><time>2026-03-22T13:13:16.886Z</time></trkpt><trkpt lat="44.5428024" lon="10.6179764"><ele>236.0</ele><time>2026-03-22T13:13:17.892Z</time></trkpt><trkpt lat="44.5428535" lon="10.6180712"><ele>236.00000000000003</ele><time>2026-03-22T13:13:18.903Z</time></trkpt><trkpt lat="44.5429015" lon="10.6181591"><ele>236.0</ele><time>2026-03-22T13:13:19.884Z</time></trkpt><trkpt lat="44.5429469" lon="10.6182393"><ele>236.0</ele><time>2026-03-22T13:13:20.897Z</time></trkpt><trkpt lat="44.542989" lon="10.6183068"><ele>236.0</ele><time>2026-03-22T13:13:21.888Z</time></trkpt><trkpt lat="44.5430249" lon="10.6184037"><ele>236.0</ele><time>2026-03-22T13:13:23.888Z</time></trkpt><trkpt lat="44.5429866" lon="10.6184809"><ele>236.0</ele><time>2026-03-22T13:13:25.9Z</time></trkpt><trkpt lat="44.5429213" lon="10.6185337"><ele>236.0</ele><time>2026-03-22T13:13:29.936Z</time></trkpt><trkpt lat="44.5428958" lon="10.6186187"><ele>236.0</ele><time>2026-03-22T13:13:32.896Z</time></trkpt><trkpt lat="44.5429892" lon="10.6186027"><ele>236.0</ele><time>2026-03-22T13:14:05.933Z</time></trkpt><trkpt lat="44.5430524" lon="10.618564"><ele>236.00000000000003</ele><time>2026-03-22T13:14:09.978Z</time></trkpt><trkpt lat="44.5430536" lon="10.6184617"><ele>236.0</ele><time>2026-03-22T13:14:11.959Z</time></trkpt><trkpt lat="44.54299" lon="10.6184745"><ele>236.0</ele><time>2026-03-22T13:14:17.981Z</time></trkpt><trkpt lat="44.5429517" lon="10.6186015"><ele>236.0</ele><time>2026-03-22T13:14:22.796Z</time></trkpt><trkpt lat="44.5429085" lon="10.6187042"><ele>236.00000000000003</ele><time>2026-03-22T13:14:24.921Z</time></trkpt><trkpt lat="44.5428566" lon="10.6188003"><ele>236.0</ele><time>2026-03-22T13:14:26.935Z</time></trkpt><trkpt lat="44.5428019" lon="10.6188839"><ele>235.00000000000003</ele><time>2026-03-22T13:14:28.854Z</time></trkpt><trkpt lat="44.5427067" lon="10.618917"><ele>234.0</ele><time>2026-03-22T13:14:30.881Z</time></trkpt><trkpt lat="44.5426282" lon="10.6190431"><ele>233.0</ele><time>2026-03-22T13:14:32.883Z</time></trkpt><trkpt lat="44.5425813" lon="10.6191197"><ele>232.0</ele><time>2026-03-22T13:14:33.892Z</time></trkpt><trkpt lat="44.5425368" lon="10.6191942"><ele>231.00000000000003</ele><time>2026-03-22T13:14:34.882Z</time></trkpt><trkpt lat="44.5424916" lon="10.6192581"><ele>230.0</ele><time>2026-03-22T13:14:35.894Z</time></trkpt><trkpt lat="44.5424125" lon="10.6193679"><ele>230.00000000000003</ele><time>2026-03-22T13:14:37.893Z</time></trkpt><trkpt lat="44.5423465" lon="10.6193972"><ele>230.0</ele><time>2026-03-22T13:14:39.887Z</time></trkpt><trkpt lat="44.5422861" lon="10.6193182"><ele>230.0</ele><time>2026-03-22T13:14:41.896Z</time></trkpt><trkpt lat="44.542244" lon="10.6192216"><ele>230.0</ele><time>2026-03-22T13:14:42.88Z</time></trkpt><trkpt lat="44.5421942" lon="10.6190971"><ele>230.00000000000003</ele><time>2026-03-22T13:14:43.885Z</time></trkpt><trkpt lat="44.542138" lon="10.6189593"><ele>230.0</ele><time>2026-03-22T13:14:44.886Z</time></trkpt><trkpt lat="44.5420796" lon="10.6188153"><ele>229.0</ele><time>2026-03-22T13:14:45.886Z</time></trkpt><trkpt lat="44.5420184" lon="10.6186646"><ele>228.0</ele><time>2026-03-22T13:14:46.892Z</time></trkpt><trkpt lat="44.5419581" lon="10.6185128"><ele>227.0</ele><time>2026-03-22T13:14:47.885Z</time></trkpt><trkpt lat="44.5419013" lon="10.618368"><ele>226.0</ele><time>2026-03-22T13:14:48.899Z</time></trkpt><trkpt lat="44.5418471" lon="10.6182312"><ele>226.0</ele><time>2026-03-22T13:14:49.882Z</time></trkpt><trkpt lat="44.5417889" lon="10.6180962"><ele>226.0</ele><time>2026-03-22T13:14:50.885Z</time></trkpt><trkpt lat="44.5417179" lon="10.6179756"><ele>226.0</ele><time>2026-03-22T13:14:51.882Z</time></trkpt><trkpt lat="44.5416323" lon="10.6178727"><ele>226.0</ele><time>2026-03-22T13:14:52.886Z</time></trkpt><trkpt lat="44.5415327" lon="10.6177903"><ele>226.5</ele><time>2026-03-22T13:14:53.89Z</time></trkpt><trkpt lat="44.5414163" lon="10.6177361"><ele>227.0</ele><time>2026-03-22T13:14:54.892Z</time></trkpt><trkpt lat="44.5412863" lon="10.6177143"><ele>227.5</ele><time>2026-03-22T13:14:55.891Z</time></trkpt><trkpt lat="44.5411492" lon="10.6177279"><ele>228.0</ele><time>2026-03-22T13:14:56.88Z</time></trkpt><trkpt lat="44.5410059" lon="10.6177691"><ele>226.0</ele><time>2026-03-22T13:14:57.884Z</time></trkpt><trkpt lat="44.5408677" lon="10.617825"><ele>224.0</ele><time>2026-03-22T13:14:58.897Z</time></trkpt><trkpt lat="44.540744" lon="10.6178775"><ele>222.0</ele><time>2026-03-22T13:14:59.887Z</time></trkpt><trkpt lat="44.5406313" lon="10.6179249"><ele>220.0</ele><time>2026-03-22T13:15:00.903Z</time></trkpt><trkpt lat="44.5405275" lon="10.6179677"><ele>220.0</ele><time>2026-03-22T13:15:01.887Z</time></trkpt><trkpt lat="44.5404238" lon="10.6180069"><ele>220.0</ele><time>2026-03-22T13:15:02.895Z</time></trkpt><trkpt lat="44.54032" lon="10.6180434"><ele>220.0</ele><time>2026-03-22T13:15:03.889Z</time></trkpt><trkpt lat="44.5402135" lon="10.6180816"><ele>220.0</ele><time>2026-03-22T13:15:04.896Z</time></trkpt><trkpt lat="44.5401063" lon="10.6181193"><ele>220.0</ele><time>2026-03-22T13:15:05.887Z</time></trkpt><trkpt lat="44.5399968" lon="10.6181527"><ele>221.4</ele><time>2026-03-22T13:15:06.886Z</time></trkpt><trkpt lat="44.5398875" lon="10.618173"><ele>222.8</ele><time>2026-03-22T13:15:07.886Z</time></trkpt><trkpt lat="44.5397864" lon="10.6181769"><ele>224.2</ele><time>2026-03-22T13:15:08.887Z</time></trkpt><trkpt lat="44.5396968" lon="10.618169"><ele>225.6</ele><time>2026-03-22T13:15:09.885Z</time></trkpt><trkpt lat="44.5396193" lon="10.6181641"><ele>227.0</ele><time>2026-03-22T13:15:10.886Z</time></trkpt><trkpt lat="44.5395181" lon="10.6182104"><ele>229.16666666666669</ele><time>2026-03-22T13:15:12.893Z</time></trkpt><trkpt lat="44.5394643" lon="10.6183062"><ele>231.33333333333334</ele><time>2026-03-22T13:15:14.892Z</time></trkpt><trkpt lat="44.5394057" lon="10.6183941"><ele>233.5</ele><time>2026-03-22T13:15:33.889Z</time></trkpt><trkpt lat="44.5394569" lon="10.6183346"><ele>235.66666666666669</ele><time>2026-03-22T13:15:38.947Z</time></trkpt><trkpt lat="44.5394077" lon="10.6184079"><ele>237.83333333333334</ele><time>2026-03-22T13:15:40.961Z</time></trkpt><trkpt lat="44.5393975" lon="10.6184981"><ele>240.0</ele><time>2026-03-22T13:15:43.914Z</time></trkpt><trkpt lat="44.5394895" lon="10.6185129"><ele>238.14285714285717</ele><time>2026-03-22T13:15:46.967Z</time></trkpt><trkpt lat="44.5395604" lon="10.6185098"><ele>236.28571428571428</ele><time>2026-03-22T13:15:48.886Z</time></trkpt><trkpt lat="44.5396233" lon="10.6185014"><ele>234.42857142857144</ele><time>2026-03-22T13:15:50.872Z</time></trkpt><trkpt lat="44.5395988" lon="10.6183632"><ele>232.57142857142858</ele><time>2026-03-22T13:15:51.9Z</time></trkpt><trkpt lat="44.5395882" lon="10.6182695"><ele>230.71428571428572</ele><time>2026-03-22T13:15:52.937Z</time></trkpt><trkpt lat="44.5396392" lon="10.6182175"><ele>228.85714285714286</ele><time>2026-03-22T13:15:54.936Z</time></trkpt><trkpt lat="44.5397099" lon="10.6182088"><ele>227.0</ele><time>2026-03-22T13:15:55.894Z</time></trkpt><trkpt lat="44.539822" lon="10.6182094"><ele>227.0</ele><time>2026-03-22T13:15:56.886Z</time></trkpt><trkpt lat="44.5399463" lon="10.6181951"><ele>227.0</ele><time>2026-03-22T13:15:57.89Z</time></trkpt><trkpt lat="44.5400811" lon="10.6181619"><ele>227.0</ele><time>2026-03-22T13:15:58.888Z</time></trkpt><trkpt lat="44.5402259" lon="10.6181159"><ele>227.0</ele><time>2026-03-22T13:15:59.891Z</time></trkpt><trkpt lat="44.5403739" lon="10.6180673"><ele>225.25</ele><time>2026-03-22T13:16:00.888Z</time></trkpt><trkpt lat="44.5405261" lon="10.6180144"><ele>223.5</ele><time>2026-03-22T13:16:01.893Z</time></trkpt><trkpt lat="44.5406713" lon="10.6179596"><ele>221.75</ele><time>2026-03-22T13:16:02.903Z</time></trkpt><trkpt lat="44.5408015" lon="10.6179093"><ele>220.0</ele><time>2026-03-22T13:16:03.895Z</time></trkpt><trkpt lat="44.5409172" lon="10.6178655"><ele>219.99999999999997</ele><time>2026-03-22T13:16:04.885Z</time></trkpt><trkpt lat="44.5410189" lon="10.6178278"><ele>220.0</ele><time>2026-03-22T13:16:05.896Z</time></trkpt><trkpt lat="44.5411036" lon="10.6178002"><ele>220.0</ele><time>2026-03-22T13:16:06.888Z</time></trkpt><trkpt lat="44.5411806" lon="10.6177785"><ele>220.0</ele><time>2026-03-22T13:16:07.9Z</time></trkpt><trkpt lat="44.5412547" lon="10.6177662"><ele>219.99999999999997</ele><time>2026-03-22T13:16:08.886Z</time></trkpt><trkpt lat="44.5413475" lon="10.6177717"><ele>220.0</ele><time>2026-03-22T13:16:09.884Z</time></trkpt><trkpt lat="44.5414511" lon="10.6178027"><ele>220.99999999999997</ele><time>2026-03-22T13:16:10.884Z</time></trkpt><trkpt lat="44.5415433" lon="10.6178617"><ele>222.0</ele><time>2026-03-22T13:16:11.894Z</time></trkpt><trkpt lat="44.5416201" lon="10.6179317"><ele>223.0</ele><time>2026-03-22T13:16:12.891Z</time></trkpt><trkpt lat="44.5416832" lon="10.6179996"><ele>224.0</ele><time>2026-03-22T13:16:13.891Z</time></trkpt><trkpt lat="44.5417353" lon="10.6180521"><ele>224.99999999999997</ele><time>2026-03-22T13:16:14.888Z</time></trkpt><trkpt lat="44.5418049" lon="10.6180395"><ele>226.0</ele><time>2026-03-22T13:16:16.887Z</time></trkpt><trkpt lat="44.5417405" lon="10.618008"><ele>225.99999999999997</ele><time>2026-03-22T13:16:24.88Z</time></trkpt><trkpt lat="44.5416817" lon="10.6179545"><ele>226.0</ele><time>2026-03-22T13:16:25.884Z</time></trkpt><trkpt lat="44.5416207" lon="10.6178707"><ele>226.0</ele><time>2026-03-22T13:16:26.888Z</time></trkpt><trkpt lat="44.5415542" lon="10.6177892"><ele>226.0</ele><time>2026-03-22T13:16:27.884Z</time></trkpt><trkpt lat="44.541474" lon="10.6177287"><ele>225.99999999999997</ele><time>2026-03-22T13:16:28.889Z</time></trkpt><trkpt lat="44.5414001" lon="10.6177053"><ele>226.0</ele><time>2026-03-22T13:16:29.887Z</time></trkpt><trkpt lat="44.5413342" lon="10.617691"><ele>225.99999999999997</ele><time>2026-03-22T13:16:30.895Z</time></trkpt><trkpt lat="44.5412651" lon="10.6176821"><ele>226.0</ele><time>2026-03-22T13:16:32.896Z</time></trkpt><trkpt lat="44.5413345" lon="10.6177468"><ele>226.0</ele><time>2026-03-22T13:19:14.897Z</time></trkpt><trkpt lat="44.5414334" lon="10.6177916"><ele>226.0</ele><time>2026-03-22T13:19:15.883Z</time></trkpt><trkpt lat="44.5415122" lon="10.6178424"><ele>225.99999999999997</ele><time>2026-03-22T13:19:16.898Z</time></trkpt><trkpt lat="44.5415773" lon="10.6179002"><ele>226.0</ele><time>2026-03-22T13:19:17.885Z</time></trkpt><trkpt lat="44.5416271" lon="10.6179553"><ele>226.0</ele><time>2026-03-22T13:19:18.894Z</time></trkpt><trkpt lat="44.5417084" lon="10.6180263"><ele>226.0</ele><time>2026-03-22T13:19:20.884Z</time></trkpt><trkpt lat="44.5417743" lon="10.6180257"><ele>226.0</ele><time>2026-03-22T13:19:22.88Z</time></trkpt><trkpt lat="44.5417505" lon="10.6179343"><ele>226.0</ele><time>2026-03-22T13:19:29.882Z</time></trkpt></trkseg><trkseg><trkpt lat="44.5448653" lon="10.6350267"><ele>205.0</ele><time>2026-03-22T13:41:07.236Z</time></trkpt><trkpt lat="44.5452841" lon="10.6352618"><ele>204.8</ele><time>2026-03-22T13:41:11.231Z</time></trkpt><trkpt lat="44.5453782" lon="10.6353309"><ele>204.6</ele><time>2026-03-22T13:41:12.233Z</time></trkpt><trkpt lat="44.5454652" lon="10.6354067"><ele>204.39999999999998</ele><time>2026-03-22T13:41:13.235Z</time></trkpt><trkpt lat="44.5455552" lon="10.6354842"><ele>204.2</ele><time>2026-03-22T13:41:14.234Z</time></trkpt><trkpt lat="44.5456481" lon="10.6355573"><ele>204.0</ele><time>2026-03-22T13:41:15.239Z</time></trkpt><trkpt lat="44.5457422" lon="10.6356239"><ele>203.6</ele><time>2026-03-22T13:41:16.236Z</time></trkpt><trkpt lat="44.5458172" lon="10.635668"><ele>203.2</ele><time>2026-03-22T13:41:17.268Z</time></trkpt><trkpt lat="44.5459075" lon="10.6357278"><ele>202.79999999999998</ele><time>2026-03-22T13:41:19.251Z</time></trkpt><trkpt lat="44.5459254" lon="10.6358614"><ele>202.39999999999998</ele><time>2026-03-22T13:41:22.267Z</time></trkpt><trkpt lat="44.5459015" lon="10.6360232"><ele>202.0</ele><time>2026-03-22T13:41:24.255Z</time></trkpt><trkpt lat="44.5458531" lon="10.6361586"><ele>201.99999999999997</ele><time>2026-03-22T13:41:26.244Z</time></trkpt><trkpt lat="44.5457712" lon="10.6362427"><ele>202.0</ele><time>2026-03-22T13:41:28.249Z</time></trkpt><trkpt lat="44.545733" lon="10.6363221"><ele>202.0</ele><time>2026-03-22T13:41:30.258Z</time></trkpt><trkpt lat="44.5457156" lon="10.6364104"><ele>202.0</ele><time>2026-03-22T13:41:32.267Z</time></trkpt><trkpt lat="44.5456754" lon="10.6365169"><ele>201.99999999999997</ele><time>2026-03-22T13:41:34.25Z</time></trkpt><trkpt lat="44.5456403" lon="10.6365921"><ele>202.0</ele><time>2026-03-22T13:41:36.251Z</time></trkpt><trkpt lat="44.5456281" lon="10.6366929"><ele>202.0</ele><time>2026-03-22T13:41:39.246Z</time></trkpt><trkpt lat="44.5455657" lon="10.6367487"><ele>202.0</ele><time>2026-03-22T13:41:42.249Z</time></trkpt><trkpt lat="44.5455253" lon="10.6368471"><ele>202.0</ele><time>2026-03-22T13:41:44.27Z</time></trkpt><trkpt lat="44.5454664" lon="10.6368955"><ele>202.0</ele><time>2026-03-22T13:41:46.272Z</time></trkpt><trkpt lat="44.5454144" lon="10.636955"><ele>202.0</ele><time>2026-03-22T13:41:48.253Z</time></trkpt><trkpt lat="44.5453844" lon="10.6370344"><ele>202.0</ele><time>2026-03-22T13:41:50.253Z</time></trkpt><trkpt lat="44.5453281" lon="10.6371304"><ele>202.0</ele><time>2026-03-22T13:41:52.249Z</time></trkpt><trkpt lat="44.5452787" lon="10.6372604"><ele>202.16666666666666</ele><time>2026-03-22T13:41:54.257Z</time></trkpt><trkpt lat="44.54524" lon="10.6373759"><ele>202.33333333333331</ele><time>2026-03-22T13:41:56.255Z</time></trkpt><trkpt lat="44.5451911" lon="10.6374871"><ele>202.5</ele><time>2026-03-22T13:41:58.265Z</time></trkpt><trkpt lat="44.5451582" lon="10.6375884"><ele>202.66666666666669</ele><time>2026-03-22T13:42:00.273Z</time></trkpt><trkpt lat="44.5450971" lon="10.6376586"><ele>202.83333333333334</ele><time>2026-03-22T13:42:02.261Z</time></trkpt><trkpt lat="44.5450316" lon="10.6377241"><ele>203.0</ele><time>2026-03-22T13:42:04.252Z</time></trkpt><trkpt lat="44.5450327" lon="10.6378183"><ele>203.16666666666669</ele><time>2026-03-22T13:42:06.267Z</time></trkpt><trkpt lat="44.5450088" lon="10.6379289"><ele>203.33333333333334</ele><time>2026-03-22T13:42:08.248Z</time></trkpt><trkpt lat="44.544973" lon="10.6380107"><ele>203.5</ele><time>2026-03-22T13:42:11.263Z</time></trkpt><trkpt lat="44.5449069" lon="10.6380176"><ele>203.66666666666669</ele><time>2026-03-22T13:42:13.252Z</time></trkpt><trkpt lat="44.5447997" lon="10.6379894"><ele>203.83333333333334</ele><time>2026-03-22T13:42:15.254Z</time></trkpt><trkpt lat="44.5447281" lon="10.6380785"><ele>204.0</ele><time>2026-03-22T13:42:18.252Z</time></trkpt><trkpt lat="44.544658" lon="10.6381044"><ele>204.0</ele><time>2026-03-22T13:42:20.258Z</time></trkpt><trkpt lat="44.5445952" lon="10.6381817"><ele>204.0</ele><time>2026-03-22T13:42:23.255Z</time></trkpt><trkpt lat="44.544544" lon="10.6382633"><ele>204.0</ele><time>2026-03-22T13:42:25.25Z</time></trkpt><trkpt lat="44.5444801" lon="10.6383306"><ele>204.0</ele><time>2026-03-22T13:42:27.251Z</time></trkpt><trkpt lat="44.5444444" lon="10.6384269"><ele>204.0</ele><time>2026-03-22T13:42:30.256Z</time></trkpt><trkpt lat="44.5443539" lon="10.6384465"><ele>204.0</ele><time>2026-03-22T13:42:33.25Z</time></trkpt><trkpt lat="44.5443081" lon="10.6385094"><ele>203.0</ele><time>2026-03-22T13:42:35.252Z</time></trkpt><trkpt lat="44.5443095" lon="10.6386517"><ele>202.0</ele><time>2026-03-22T13:42:37.254Z</time></trkpt><trkpt lat="44.5443098" lon="10.63878"><ele>201.0</ele><time>2026-03-22T13:42:39.261Z</time></trkpt><trkpt lat="44.5442203" lon="10.6388927"><ele>200.0</ele><time>2026-03-22T13:42:41.252Z</time></trkpt><trkpt lat="44.5441429" lon="10.6389595"><ele>199.0</ele><time>2026-03-22T13:42:42.253Z</time></trkpt><trkpt lat="44.5440762" lon="10.6390272"><ele>199.0</ele><time>2026-03-22T13:42:43.263Z</time></trkpt><trkpt lat="44.5440223" lon="10.6390828"><ele>199.0</ele><time>2026-03-22T13:42:44.26Z</time></trkpt><trkpt lat="44.5439514" lon="10.6391553"><ele>199.0</ele><time>2026-03-22T13:42:46.249Z</time></trkpt><trkpt lat="44.5438857" lon="10.6392284"><ele>199.0</ele><time>2026-03-22T13:42:48.257Z</time></trkpt><trkpt lat="44.543814" lon="10.6393133"><ele>199.0</ele><time>2026-03-22T13:42:50.259Z</time></trkpt><trkpt lat="44.5436166" lon="10.6395344"><ele>198.5</ele><time>2026-03-22T13:42:55.255Z</time></trkpt><trkpt lat="44.5435631" lon="10.6397716"><ele>198.0</ele><time>2026-03-22T13:42:58.247Z</time></trkpt><trkpt lat="44.5435112" lon="10.6398408"><ele>197.5</ele><time>2026-03-22T13:42:59.257Z</time></trkpt><trkpt lat="44.5434354" lon="10.6399297"><ele>197.0</ele><time>2026-03-22T13:43:00.253Z</time></trkpt><trkpt lat="44.5433478" lon="10.6400149"><ele>197.0</ele><time>2026-03-22T13:43:01.273Z</time></trkpt><trkpt lat="44.5432636" lon="10.6400894"><ele>197.0</ele><time>2026-03-22T13:43:02.252Z</time></trkpt><trkpt lat="44.5431706" lon="10.640164"><ele>197.0</ele><time>2026-03-22T13:43:03.257Z</time></trkpt><trkpt lat="44.5430959" lon="10.6402386"><ele>197.0</ele><time>2026-03-22T13:43:04.251Z</time></trkpt><trkpt lat="44.5430174" lon="10.6403142"><ele>197.0</ele><time>2026-03-22T13:43:05.255Z</time></trkpt><trkpt lat="44.5429366" lon="10.6403864"><ele>196.83333333333334</ele><time>2026-03-22T13:43:06.256Z</time></trkpt><trkpt lat="44.5428519" lon="10.6404609"><ele>196.66666666666669</ele><time>2026-03-22T13:43:07.249Z</time></trkpt><trkpt lat="44.5427847" lon="10.6405281"><ele>196.5</ele><time>2026-03-22T13:43:08.272Z</time></trkpt><trkpt lat="44.5427237" lon="10.6405982"><ele>196.33333333333331</ele><time>2026-03-22T13:43:09.249Z</time></trkpt><trkpt lat="44.5426634" lon="10.6406601"><ele>196.16666666666666</ele><time>2026-03-22T13:43:10.253Z</time></trkpt><trkpt lat="44.5425951" lon="10.6407126"><ele>196.0</ele><time>2026-03-22T13:43:11.258Z</time></trkpt><trkpt lat="44.5425054" lon="10.640776"><ele>195.99999999999997</ele><time>2026-03-22T13:43:13.273Z</time></trkpt><trkpt lat="44.5424235" lon="10.6407511"><ele>196.0</ele><time>2026-03-22T13:43:16.259Z</time></trkpt><trkpt lat="44.5423593" lon="10.6407591"><ele>196.0</ele><time>2026-03-22T13:43:18.253Z</time></trkpt><trkpt lat="44.5422829" lon="10.6408365"><ele>196.0</ele><time>2026-03-22T13:43:20.253Z</time></trkpt><trkpt lat="44.5422423" lon="10.6409433"><ele>195.99999999999997</ele><time>2026-03-22T13:43:22.258Z</time></trkpt><trkpt lat="44.5422337" lon="10.6410885"><ele>196.0</ele><time>2026-03-22T13:43:25.255Z</time></trkpt><trkpt lat="44.5421609" lon="10.6412237"><ele>195.83333333333331</ele><time>2026-03-22T13:43:27.255Z</time></trkpt><trkpt lat="44.5421207" lon="10.6413063"><ele>195.66666666666666</ele><time>2026-03-22T13:43:28.25Z</time></trkpt><trkpt lat="44.5420819" lon="10.6413838"><ele>195.5</ele><time>2026-03-22T13:43:29.255Z</time></trkpt><trkpt lat="44.5420276" lon="10.6414627"><ele>195.33333333333331</ele><time>2026-03-22T13:43:30.252Z</time></trkpt><trkpt lat="44.541973" lon="10.6415473"><ele>195.16666666666666</ele><time>2026-03-22T13:43:31.262Z</time></trkpt><trkpt lat="44.5419211" lon="10.64164"><ele>195.0</ele><time>2026-03-22T13:43:32.25Z</time></trkpt><trkpt lat="44.5418753" lon="10.6417355"><ele>194.83333333333334</ele><time>2026-03-22T13:43:33.257Z</time></trkpt><trkpt lat="44.5418237" lon="10.6418219"><ele>194.66666666666669</ele><time>2026-03-22T13:43:34.26Z</time></trkpt><trkpt lat="44.5417707" lon="10.6419073"><ele>194.5</ele><time>2026-03-22T13:43:35.255Z</time></trkpt><trkpt lat="44.5417246" lon="10.641983"><ele>194.33333333333334</ele><time>2026-03-22T13:43:36.276Z</time></trkpt><trkpt lat="44.5416843" lon="10.6420509"><ele>194.16666666666669</ele><time>2026-03-22T13:43:37.252Z</time></trkpt><trkpt lat="44.5415885" lon="10.6421573"><ele>194.0</ele><time>2026-03-22T13:43:39.25Z</time></trkpt><trkpt lat="44.5414928" lon="10.6422387"><ele>193.39999999999998</ele><time>2026-03-22T13:43:41.275Z</time></trkpt><trkpt lat="44.5414416" lon="10.6423575"><ele>192.8</ele><time>2026-03-22T13:43:43.258Z</time></trkpt><trkpt lat="44.5413741" lon="10.6424639"><ele>192.2</ele><time>2026-03-22T13:43:45.251Z</time></trkpt><trkpt lat="44.5413189" lon="10.642611"><ele>191.60000000000002</ele><time>2026-03-22T13:43:47.25Z</time></trkpt><trkpt lat="44.5413211" lon="10.6427001"><ele>191.0</ele><time>2026-03-22T13:43:48.269Z</time></trkpt><trkpt lat="44.5413295" lon="10.642803"><ele>190.66666666666666</ele><time>2026-03-22T13:43:49.257Z</time></trkpt><trkpt lat="44.5413396" lon="10.6429235"><ele>190.33333333333331</ele><time>2026-03-22T13:43:50.252Z</time></trkpt><trkpt lat="44.5413453" lon="10.6430268"><ele>190.0</ele><time>2026-03-22T13:43:51.247Z</time></trkpt><trkpt lat="44.5413423" lon="10.6431327"><ele>189.66666666666666</ele><time>2026-03-22T13:43:52.252Z</time></trkpt><trkpt lat="44.5413253" lon="10.643238"><ele>189.33333333333334</ele><time>2026-03-22T13:43:53.27Z</time></trkpt><trkpt lat="44.5413328" lon="10.6433442"><ele>189.0</ele><time>2026-03-22T13:43:54.252Z</time></trkpt><trkpt lat="44.5413448" lon="10.6434567"><ele>189.0</ele><time>2026-03-22T13:43:55.251Z</time></trkpt><trkpt lat="44.5413598" lon="10.6435551"><ele>189.0</ele><time>2026-03-22T13:43:56.255Z</time></trkpt><trkpt lat="44.5413913" lon="10.6436467"><ele>189.0</ele><time>2026-03-22T13:43:57.249Z</time></trkpt><trkpt lat="44.5414377" lon="10.6437364"><ele>189.0</ele><time>2026-03-22T13:43:58.251Z</time></trkpt><trkpt lat="44.5414753" lon="10.6438217"><ele>189.0</ele><time>2026-03-22T13:43:59.25Z</time></trkpt><trkpt lat="44.541499" lon="10.6439119"><ele>189.0</ele><time>2026-03-22T13:44:00.247Z</time></trkpt><trkpt lat="44.541499" lon="10.6440138"><ele>189.0</ele><time>2026-03-22T13:44:01.265Z</time></trkpt><trkpt lat="44.5414924" lon="10.6441454"><ele>189.0</ele><time>2026-03-22T13:44:02.254Z</time></trkpt><trkpt lat="44.5414813" lon="10.6442658"><ele>189.0</ele><time>2026-03-22T13:44:03.25Z</time></trkpt><trkpt lat="44.5414727" lon="10.6443682"><ele>189.0</ele><time>2026-03-22T13:44:04.248Z</time></trkpt><trkpt lat="44.5414579" lon="10.6444588"><ele>189.0</ele><time>2026-03-22T13:44:05.25Z</time></trkpt><trkpt lat="44.5413995" lon="10.6446259"><ele>189.0</ele><time>2026-03-22T13:44:07.252Z</time></trkpt><trkpt lat="44.5413491" lon="10.6447439"><ele>189.0</ele><time>2026-03-22T13:44:09.258Z</time></trkpt><trkpt lat="44.5412855" lon="10.6447948"><ele>189.0</ele><time>2026-03-22T13:44:11.253Z</time></trkpt><trkpt lat="44.541212" lon="10.6447892"><ele>189.0</ele><time>2026-03-22T13:44:13.252Z</time></trkpt><trkpt lat="44.5411453" lon="10.6447707"><ele>189.0</ele><time>2026-03-22T13:44:16.255Z</time></trkpt><trkpt lat="44.5411058" lon="10.6448465"><ele>189.0</ele><time>2026-03-22T13:44:21.258Z</time></trkpt><trkpt lat="44.5410844" lon="10.6449371"><ele>189.0</ele><time>2026-03-22T13:44:23.26Z</time></trkpt><trkpt lat="44.541081" lon="10.6451071"><ele>190.0</ele><time>2026-03-22T13:44:25.254Z</time></trkpt><trkpt lat="44.5410809" lon="10.6452027"><ele>191.0</ele><time>2026-03-22T13:44:26.268Z</time></trkpt><trkpt lat="44.5411169" lon="10.6453738"><ele>192.0</ele><time>2026-03-22T13:44:28.252Z</time></trkpt><trkpt lat="44.5411638" lon="10.645534"><ele>193.0</ele><time>2026-03-22T13:44:30.255Z</time></trkpt><trkpt lat="44.5411591" lon="10.6456336"><ele>194.0</ele><time>2026-03-22T13:44:31.251Z</time></trkpt><trkpt lat="44.5411578" lon="10.6457685"><ele>194.0</ele><time>2026-03-22T13:44:32.257Z</time></trkpt><trkpt lat="44.5411757" lon="10.6459064"><ele>194.0</ele><time>2026-03-22T13:44:33.248Z</time></trkpt><trkpt lat="44.5411963" lon="10.6460435"><ele>194.0</ele><time>2026-03-22T13:44:34.255Z</time></trkpt><trkpt lat="44.5412232" lon="10.6461853"><ele>194.0</ele><time>2026-03-22T13:44:35.256Z</time></trkpt><trkpt lat="44.5412428" lon="10.6463381"><ele>194.0</ele><time>2026-03-22T13:44:36.273Z</time></trkpt><trkpt lat="44.5412562" lon="10.6464526"><ele>193.50000000000003</ele><time>2026-03-22T13:44:37.248Z</time></trkpt><trkpt lat="44.5412623" lon="10.646557"><ele>193.0</ele><time>2026-03-22T13:44:38.251Z</time></trkpt><trkpt lat="44.5412636" lon="10.6466676"><ele>192.5</ele><time>2026-03-22T13:44:40.248Z</time></trkpt><trkpt lat="44.5412403" lon="10.6467497"><ele>192.0</ele><time>2026-03-22T13:44:41.246Z</time></trkpt><trkpt lat="44.5412122" lon="10.6468465"><ele>191.5</ele><time>2026-03-22T13:44:42.259Z</time></trkpt><trkpt lat="44.5412076" lon="10.6469817"><ele>191.0</ele><time>2026-03-22T13:44:44.252Z</time></trkpt><trkpt lat="44.5412327" lon="10.6471163"><ele>190.4</ele><time>2026-03-22T13:44:46.277Z</time></trkpt><trkpt lat="44.5412824" lon="10.6472651"><ele>189.8</ele><time>2026-03-22T13:44:48.252Z</time></trkpt><trkpt lat="44.5413798" lon="10.6473652"><ele>189.20000000000002</ele><time>2026-03-22T13:44:50.249Z</time></trkpt><trkpt lat="44.5414272" lon="10.6474268"><ele>188.60000000000002</ele><time>2026-03-22T13:44:51.27Z</time></trkpt><trkpt lat="44.5414511" lon="10.6475217"><ele>188.0</ele><time>2026-03-22T13:44:52.248Z</time></trkpt><trkpt lat="44.5414602" lon="10.6476326"><ele>188.0</ele><time>2026-03-22T13:44:53.251Z</time></trkpt><trkpt lat="44.5414685" lon="10.6477748"><ele>188.0</ele><time>2026-03-22T13:44:54.255Z</time></trkpt><trkpt lat="44.5414818" lon="10.647909"><ele>188.0</ele><time>2026-03-22T13:44:55.251Z</time></trkpt><trkpt lat="44.5414883" lon="10.6480323"><ele>188.0</ele><time>2026-03-22T13:44:56.255Z</time></trkpt><trkpt lat="44.5414891" lon="10.6481425"><ele>188.0</ele><time>2026-03-22T13:44:57.253Z</time></trkpt><trkpt lat="44.5414312" lon="10.6482729"><ele>187.83333333333331</ele><time>2026-03-22T13:44:59.256Z</time></trkpt><trkpt lat="44.5413727" lon="10.648346"><ele>187.66666666666666</ele><time>2026-03-22T13:45:01.256Z</time></trkpt><trkpt lat="44.5413544" lon="10.6484772"><ele>187.5</ele><time>2026-03-22T13:45:04.255Z</time></trkpt><trkpt lat="44.5413358" lon="10.6485633"><ele>187.33333333333334</ele><time>2026-03-22T13:45:05.252Z</time></trkpt><trkpt lat="44.5413121" lon="10.6486509"><ele>187.16666666666669</ele><time>2026-03-22T13:45:06.252Z</time></trkpt><trkpt lat="44.5412886" lon="10.6487635"><ele>187.0</ele><time>2026-03-22T13:45:07.253Z</time></trkpt><trkpt lat="44.5412668" lon="10.6488655"><ele>187.33333333333334</ele><time>2026-03-22T13:45:08.252Z</time></trkpt><trkpt lat="44.5412484" lon="10.6489544"><ele>187.66666666666669</ele><time>2026-03-22T13:45:09.256Z</time></trkpt><trkpt lat="44.5412157" lon="10.6490948"><ele>188.0</ele><time>2026-03-22T13:45:11.26Z</time></trkpt><trkpt lat="44.5412584" lon="10.6491885"><ele>188.33333333333334</ele><time>2026-03-22T13:45:14.257Z</time></trkpt><trkpt lat="44.5413267" lon="10.6491976"><ele>188.66666666666666</ele><time>2026-03-22T13:45:16.27Z</time></trkpt><trkpt lat="44.5413297" lon="10.6493043"><ele>189.0</ele><time>2026-03-22T13:45:18.25Z</time></trkpt><trkpt lat="44.5412715" lon="10.6493818"><ele>188.5</ele><time>2026-03-22T13:45:20.252Z</time></trkpt><trkpt lat="44.5412107" lon="10.649476"><ele>188.0</ele><time>2026-03-22T13:45:22.25Z</time></trkpt><trkpt lat="44.5412012" lon="10.6495866"><ele>187.5</ele><time>2026-03-22T13:45:23.248Z</time></trkpt><trkpt lat="44.5411887" lon="10.6496987"><ele>187.0</ele><time>2026-03-22T13:45:24.251Z</time></trkpt><trkpt lat="44.5411748" lon="10.6497849"><ele>186.5</ele><time>2026-03-22T13:45:25.265Z</time></trkpt><trkpt lat="44.5411221" lon="10.6499269"><ele>186.0</ele><time>2026-03-22T13:45:27.256Z</time></trkpt><trkpt lat="44.5410498" lon="10.65002"><ele>186.0</ele><time>2026-03-22T13:45:29.256Z</time></trkpt><trkpt lat="44.5409787" lon="10.6500872"><ele>186.0</ele><time>2026-03-22T13:45:31.274Z</time></trkpt><trkpt lat="44.5408937" lon="10.6501849"><ele>186.0</ele><time>2026-03-22T13:45:33.254Z</time></trkpt><trkpt lat="44.5407971" lon="10.6502832"><ele>186.0</ele><time>2026-03-22T13:45:35.255Z</time></trkpt><trkpt lat="44.5407466" lon="10.6503384"><ele>186.0</ele><time>2026-03-22T13:45:36.255Z</time></trkpt><trkpt lat="44.5406953" lon="10.6504091"><ele>186.0</ele><time>2026-03-22T13:45:37.271Z</time></trkpt><trkpt lat="44.5406465" lon="10.6504749"><ele>186.0</ele><time>2026-03-22T13:45:38.247Z</time></trkpt><trkpt lat="44.5405443" lon="10.6505552"><ele>186.0</ele><time>2026-03-22T13:45:40.256Z</time></trkpt><trkpt lat="44.5404864" lon="10.6505913"><ele>186.0</ele><time>2026-03-22T13:45:41.254Z</time></trkpt><trkpt lat="44.5404385" lon="10.650731"><ele>186.0</ele><time>2026-03-22T13:45:43.254Z</time></trkpt><trkpt lat="44.5403639" lon="10.6508747"><ele>186.0</ele><time>2026-03-22T13:45:45.256Z</time></trkpt><trkpt lat="44.540306" lon="10.6509614"><ele>186.0</ele><time>2026-03-22T13:45:46.256Z</time></trkpt><trkpt lat="44.5402398" lon="10.6510431"><ele>186.0</ele><time>2026-03-22T13:45:47.266Z</time></trkpt><trkpt lat="44.5401651" lon="10.6511179"><ele>186.0</ele><time>2026-03-22T13:45:48.256Z</time></trkpt><trkpt lat="44.5400928" lon="10.6511878"><ele>186.0</ele><time>2026-03-22T13:45:49.252Z</time></trkpt><trkpt lat="44.5400422" lon="10.6512428"><ele>186.0</ele><time>2026-03-22T13:45:50.252Z</time></trkpt><trkpt lat="44.5399946" lon="10.6513628"><ele>185.83333333333334</ele><time>2026-03-22T13:45:52.257Z</time></trkpt><trkpt lat="44.5400072" lon="10.6515112"><ele>185.66666666666666</ele><time>2026-03-22T13:45:54.277Z</time></trkpt><trkpt lat="44.5400234" lon="10.6515969"><ele>185.5</ele><time>2026-03-22T13:45:55.259Z</time></trkpt><trkpt lat="44.5399914" lon="10.6517015"><ele>185.33333333333331</ele><time>2026-03-22T13:45:56.253Z</time></trkpt><trkpt lat="44.5399525" lon="10.6517908"><ele>185.16666666666666</ele><time>2026-03-22T13:45:57.256Z</time></trkpt><trkpt lat="44.5399131" lon="10.6518615"><ele>185.0</ele><time>2026-03-22T13:45:58.256Z</time></trkpt><trkpt lat="44.5398787" lon="10.6519904"><ele>184.4</ele><time>2026-03-22T13:46:00.253Z</time></trkpt><trkpt lat="44.5398408" lon="10.6521296"><ele>183.8</ele><time>2026-03-22T13:46:02.255Z</time></trkpt><trkpt lat="44.5397977" lon="10.6522553"><ele>183.2</ele><time>2026-03-22T13:46:04.254Z</time></trkpt><trkpt lat="44.5397833" lon="10.6523796"><ele>182.6</ele><time>2026-03-22T13:46:06.256Z</time></trkpt><trkpt lat="44.5397808" lon="10.6525746"><ele>182.0</ele><time>2026-03-22T13:46:08.255Z</time></trkpt><trkpt lat="44.5397642" lon="10.6526601"><ele>182.0</ele><time>2026-03-22T13:46:09.25Z</time></trkpt><trkpt lat="44.5396887" lon="10.6527715"><ele>182.0</ele><time>2026-03-22T13:46:11.255Z</time></trkpt><trkpt lat="44.5395846" lon="10.6528819"><ele>182.0</ele><time>2026-03-22T13:46:13.256Z</time></trkpt><trkpt lat="44.5395298" lon="10.6529376"><ele>182.0</ele><time>2026-03-22T13:46:14.252Z</time></trkpt><trkpt lat="44.5394353" lon="10.6530385"><ele>182.0</ele><time>2026-03-22T13:46:16.258Z</time></trkpt><trkpt lat="44.5393787" lon="10.6532166"><ele>182.16666666666666</ele><time>2026-03-22T13:46:18.253Z</time></trkpt><trkpt lat="44.5393512" lon="10.6533164"><ele>182.33333333333331</ele><time>2026-03-22T13:46:19.264Z</time></trkpt><trkpt lat="44.5393248" lon="10.6534121"><ele>182.5</ele><time>2026-03-22T13:46:20.255Z</time></trkpt><trkpt lat="44.5392771" lon="10.6535052"><ele>182.66666666666666</ele><time>2026-03-22T13:46:21.249Z</time></trkpt><trkpt lat="44.5392286" lon="10.6535793"><ele>182.83333333333334</ele><time>2026-03-22T13:46:22.247Z</time></trkpt><trkpt lat="44.5391638" lon="10.6536474"><ele>183.0</ele><time>2026-03-22T13:46:23.249Z</time></trkpt><trkpt lat="44.5390969" lon="10.6537013"><ele>183.0</ele><time>2026-03-22T13:46:24.251Z</time></trkpt><trkpt lat="44.5390399" lon="10.6537454"><ele>183.0</ele><time>2026-03-22T13:46:25.255Z</time></trkpt><trkpt lat="44.5389466" lon="10.6538203"><ele>183.0</ele><time>2026-03-22T13:46:27.252Z</time></trkpt><trkpt lat="44.5388714" lon="10.6538273"><ele>183.0</ele><time>2026-03-22T13:46:29.257Z</time></trkpt><trkpt lat="44.5387666" lon="10.6538173"><ele>183.0</ele><time>2026-03-22T13:46:31.254Z</time></trkpt><trkpt lat="44.5386615" lon="10.6538567"><ele>183.0</ele><time>2026-03-22T13:46:33.253Z</time></trkpt><trkpt lat="44.5385661" lon="10.6538967"><ele>183.0</ele><time>2026-03-22T13:46:35.251Z</time></trkpt><trkpt lat="44.5384886" lon="10.6539984"><ele>183.0</ele><time>2026-03-22T13:46:37.253Z</time></trkpt><trkpt lat="44.538434" lon="10.6541197"><ele>183.0</ele><time>2026-03-22T13:46:39.253Z</time></trkpt><trkpt lat="44.5384127" lon="10.6542627"><ele>183.0</ele><time>2026-03-22T13:46:41.267Z</time></trkpt><trkpt lat="44.5383738" lon="10.6544053"><ele>182.8</ele><time>2026-03-22T13:46:43.261Z</time></trkpt><trkpt lat="44.538276" lon="10.6545055"><ele>182.60000000000002</ele><time>2026-03-22T13:46:45.25Z</time></trkpt><trkpt lat="44.5381881" lon="10.6545912"><ele>182.39999999999998</ele><time>2026-03-22T13:46:47.251Z</time></trkpt><trkpt lat="44.5381261" lon="10.6547561"><ele>182.2</ele><time>2026-03-22T13:46:49.271Z</time></trkpt><trkpt lat="44.538091" lon="10.6548546"><ele>182.0</ele><time>2026-03-22T13:46:50.254Z</time></trkpt><trkpt lat="44.5380658" lon="10.6549451"><ele>182.0</ele><time>2026-03-22T13:46:51.257Z</time></trkpt><trkpt lat="44.5380306" lon="10.6550405"><ele>182.0</ele><time>2026-03-22T13:46:52.255Z</time></trkpt><trkpt lat="44.5379948" lon="10.6551412"><ele>182.0</ele><time>2026-03-22T13:46:53.252Z</time></trkpt><trkpt lat="44.5379692" lon="10.6552319"><ele>182.0</ele><time>2026-03-22T13:46:54.255Z</time></trkpt><trkpt lat="44.5379225" lon="10.6554048"><ele>182.0</ele><time>2026-03-22T13:46:56.26Z</time></trkpt><trkpt lat="44.537903" lon="10.6555197"><ele>182.0</ele><time>2026-03-22T13:46:57.253Z</time></trkpt><trkpt lat="44.537885" lon="10.6556231"><ele>182.0</ele><time>2026-03-22T13:46:58.262Z</time></trkpt><trkpt lat="44.5378721" lon="10.6557203"><ele>182.0</ele><time>2026-03-22T13:46:59.259Z</time></trkpt><trkpt lat="44.5378486" lon="10.6558269"><ele>182.0</ele><time>2026-03-22T13:47:00.255Z</time></trkpt><trkpt lat="44.5378208" lon="10.6559248"><ele>182.0</ele><time>2026-03-22T13:47:01.255Z</time></trkpt><trkpt lat="44.537781" lon="10.6560534"><ele>182.0</ele><time>2026-03-22T13:47:03.263Z</time></trkpt><trkpt lat="44.5377547" lon="10.6561762"><ele>182.0</ele><time>2026-03-22T13:47:05.255Z</time></trkpt><trkpt lat="44.537785" lon="10.6563356"><ele>181.39999999999998</ele><time>2026-03-22T13:47:07.254Z</time></trkpt><trkpt lat="44.5377388" lon="10.6564938"><ele>180.79999999999998</ele><time>2026-03-22T13:47:09.248Z</time></trkpt><trkpt lat="44.5376629" lon="10.6565833"><ele>180.2</ele><time>2026-03-22T13:47:11.251Z</time></trkpt><trkpt lat="44.5375981" lon="10.6566116"><ele>179.6</ele><time>2026-03-22T13:47:12.251Z</time></trkpt><trkpt lat="44.5375387" lon="10.6566704"><ele>179.0</ele><time>2026-03-22T13:47:13.255Z</time></trkpt><trkpt lat="44.5374538" lon="10.656766"><ele>179.0</ele><time>2026-03-22T13:47:15.262Z</time></trkpt><trkpt lat="44.5373905" lon="10.6568828"><ele>179.0</ele><time>2026-03-22T13:47:17.261Z</time></trkpt><trkpt lat="44.5373518" lon="10.6569754"><ele>179.0</ele><time>2026-03-22T13:47:19.254Z</time></trkpt><trkpt lat="44.5372675" lon="10.6570062"><ele>179.0</ele><time>2026-03-22T13:47:21.254Z</time></trkpt><trkpt lat="44.5371957" lon="10.6570269"><ele>179.0</ele><time>2026-03-22T13:47:23.252Z</time></trkpt><trkpt lat="44.5371488" lon="10.6570984"><ele>179.0</ele><time>2026-03-22T13:47:24.259Z</time></trkpt><trkpt lat="44.5371058" lon="10.6571693"><ele>179.16666666666666</ele><time>2026-03-22T13:47:25.257Z</time></trkpt><trkpt lat="44.5370496" lon="10.6572224"><ele>179.33333333333331</ele><time>2026-03-22T13:47:27.259Z</time></trkpt><trkpt lat="44.5369837" lon="10.6572146"><ele>179.5</ele><time>2026-03-22T13:47:29.262Z</time></trkpt><trkpt lat="44.53691" lon="10.6573715"><ele>179.66666666666666</ele><time>2026-03-22T13:47:31.25Z</time></trkpt><trkpt lat="44.5368805" lon="10.6574918"><ele>179.83333333333334</ele><time>2026-03-22T13:47:32.248Z</time></trkpt><trkpt lat="44.5368601" lon="10.6576081"><ele>180.0</ele><time>2026-03-22T13:47:33.247Z</time></trkpt><trkpt lat="44.5368439" lon="10.6577193"><ele>179.33333333333334</ele><time>2026-03-22T13:47:34.253Z</time></trkpt><trkpt lat="44.536787" lon="10.6578547"><ele>178.66666666666666</ele><time>2026-03-22T13:47:36.262Z</time></trkpt><trkpt lat="44.5367661" lon="10.657999"><ele>178.0</ele><time>2026-03-22T13:47:38.249Z</time></trkpt><trkpt lat="44.5367631" lon="10.6580921"><ele>177.33333333333331</ele><time>2026-03-22T13:47:39.254Z</time></trkpt><trkpt lat="44.5367482" lon="10.6581807"><ele>176.66666666666666</ele><time>2026-03-22T13:47:40.254Z</time></trkpt><trkpt lat="44.536735" lon="10.6582829"><ele>176.0</ele><time>2026-03-22T13:47:41.25Z</time></trkpt><trkpt lat="44.5367217" lon="10.6583782"><ele>176.0</ele><time>2026-03-22T13:47:42.259Z</time></trkpt><trkpt lat="44.5367106" lon="10.658566"><ele>176.0</ele><time>2026-03-22T13:47:44.247Z</time></trkpt><trkpt lat="44.5367384" lon="10.6587156"><ele>176.0</ele><time>2026-03-22T13:47:46.261Z</time></trkpt><trkpt lat="44.5367515" lon="10.6588125"><ele>176.0</ele><time>2026-03-22T13:47:47.258Z</time></trkpt><trkpt lat="44.5367432" lon="10.6589493"><ele>176.0</ele><time>2026-03-22T13:47:49.254Z</time></trkpt><trkpt lat="44.5368084" lon="10.6589993"><ele>176.0</ele><time>2026-03-22T13:47:51.264Z</time></trkpt><trkpt lat="44.5368669" lon="10.6590821"><ele>176.0</ele><time>2026-03-22T13:47:53.253Z</time></trkpt><trkpt lat="44.536847" lon="10.659195"><ele>176.0</ele><time>2026-03-22T13:47:58.258Z</time></trkpt><trkpt lat="44.536788" lon="10.6592517"><ele>176.0</ele><time>2026-03-22T13:48:02.249Z</time></trkpt><trkpt lat="44.5366833" lon="10.6592864"><ele>176.0</ele><time>2026-03-22T13:49:55.248Z</time></trkpt><trkpt lat="44.5366199" lon="10.6593174"><ele>176.0</ele><time>2026-03-22T13:49:56.252Z</time></trkpt><trkpt lat="44.5365175" lon="10.6593794"><ele>176.0</ele><time>2026-03-22T13:49:58.253Z</time></trkpt><trkpt lat="44.5364457" lon="10.6594197"><ele>176.0</ele><time>2026-03-22T13:50:00.25Z</time></trkpt><trkpt lat="44.5363865" lon="10.6594583"><ele>176.0</ele><time>2026-03-22T13:50:02.281Z</time></trkpt><trkpt lat="44.5363483" lon="10.6595747"><ele>176.0</ele><time>2026-03-22T13:50:05.251Z</time></trkpt><trkpt lat="44.5363996" lon="10.6597378"><ele>176.0</ele><time>2026-03-22T13:50:07.254Z</time></trkpt><trkpt lat="44.5364365" lon="10.6598575"><ele>175.60000000000002</ele><time>2026-03-22T13:50:08.251Z</time></trkpt><trkpt lat="44.5364723" lon="10.6599913"><ele>175.2</ele><time>2026-03-22T13:50:09.251Z</time></trkpt><trkpt lat="44.5365067" lon="10.6601419"><ele>174.8</ele><time>2026-03-22T13:50:10.255Z</time></trkpt><trkpt lat="44.5365397" lon="10.6603002"><ele>174.39999999999998</ele><time>2026-03-22T13:50:11.253Z</time></trkpt><trkpt lat="44.5365718" lon="10.6604518"><ele>174.0</ele><time>2026-03-22T13:50:12.255Z</time></trkpt><trkpt lat="44.5366003" lon="10.6605954"><ele>173.79999999999998</ele><time>2026-03-22T13:50:13.25Z</time></trkpt><trkpt lat="44.5366297" lon="10.6607303"><ele>173.6</ele><time>2026-03-22T13:50:14.257Z</time></trkpt><trkpt lat="44.5366588" lon="10.6608681"><ele>173.4</ele><time>2026-03-22T13:50:15.257Z</time></trkpt><trkpt lat="44.5366954" lon="10.6610125"><ele>173.2</ele><time>2026-03-22T13:50:16.255Z</time></trkpt><trkpt lat="44.5367277" lon="10.6611557"><ele>173.0</ele><time>2026-03-22T13:50:17.257Z</time></trkpt><trkpt lat="44.5367632" lon="10.6612939"><ele>173.5</ele><time>2026-03-22T13:50:18.253Z</time></trkpt><trkpt lat="44.5368026" lon="10.6614265"><ele>174.0</ele><time>2026-03-22T13:50:19.261Z</time></trkpt><trkpt lat="44.5368357" lon="10.6615692"><ele>174.5</ele><time>2026-03-22T13:50:20.252Z</time></trkpt><trkpt lat="44.5368638" lon="10.6617343"><ele>175.0</ele><time>2026-03-22T13:50:21.273Z</time></trkpt><trkpt lat="44.5368894" lon="10.6619047"><ele>175.25</ele><time>2026-03-22T13:50:22.253Z</time></trkpt><trkpt lat="44.5369143" lon="10.6620747"><ele>175.5</ele><time>2026-03-22T13:50:23.255Z</time></trkpt><trkpt lat="44.5369389" lon="10.6622414"><ele>175.75</ele><time>2026-03-22T13:50:24.249Z</time></trkpt><trkpt lat="44.5369607" lon="10.6624017"><ele>176.0</ele><time>2026-03-22T13:50:25.254Z</time></trkpt><trkpt lat="44.5369818" lon="10.66256"><ele>176.0</ele><time>2026-03-22T13:50:26.275Z</time></trkpt><trkpt lat="44.5370072" lon="10.6627142"><ele>176.0</ele><time>2026-03-22T13:50:27.254Z</time></trkpt><trkpt lat="44.5370326" lon="10.662868"><ele>176.0</ele><time>2026-03-22T13:50:28.249Z</time></trkpt><trkpt lat="44.537058" lon="10.6630178"><ele>176.0</ele><time>2026-03-22T13:50:29.248Z</time></trkpt><trkpt lat="44.5370842" lon="10.6631664"><ele>176.0</ele><time>2026-03-22T13:50:30.252Z</time></trkpt><trkpt lat="44.5371092" lon="10.6633093"><ele>175.20000000000002</ele><time>2026-03-22T13:50:31.256Z</time></trkpt><trkpt lat="44.5371348" lon="10.663449"><ele>174.4</ele><time>2026-03-22T13:50:32.249Z</time></trkpt><trkpt lat="44.5371596" lon="10.663588"><ele>173.6</ele><time>2026-03-22T13:50:33.267Z</time></trkpt><trkpt lat="44.5371833" lon="10.6637238"><ele>172.8</ele><time>2026-03-22T13:50:34.254Z</time></trkpt><trkpt lat="44.5372074" lon="10.6638698"><ele>172.0</ele><time>2026-03-22T13:50:35.255Z</time></trkpt><trkpt lat="44.5372313" lon="10.6640191"><ele>172.0</ele><time>2026-03-22T13:50:36.255Z</time></trkpt><trkpt lat="44.5372537" lon="10.6641638"><ele>172.0</ele><time>2026-03-22T13:50:37.248Z</time></trkpt><trkpt lat="44.5372732" lon="10.6642966"><ele>172.0</ele><time>2026-03-22T13:50:38.255Z</time></trkpt><trkpt lat="44.5372897" lon="10.6644175"><ele>172.0</ele><time>2026-03-22T13:50:39.25Z</time></trkpt><trkpt lat="44.5373036" lon="10.6645371"><ele>172.0</ele><time>2026-03-22T13:50:40.272Z</time></trkpt><trkpt lat="44.5373171" lon="10.6646551"><ele>171.8</ele><time>2026-03-22T13:50:41.247Z</time></trkpt><trkpt lat="44.5373276" lon="10.6647833"><ele>171.6</ele><time>2026-03-22T13:50:42.256Z</time></trkpt><trkpt lat="44.537338" lon="10.6649064"><ele>171.4</ele><time>2026-03-22T13:50:43.258Z</time></trkpt><trkpt lat="44.5373478" lon="10.6650329"><ele>171.20000000000002</ele><time>2026-03-22T13:50:44.256Z</time></trkpt><trkpt lat="44.5373588" lon="10.6651626"><ele>171.0</ele><time>2026-03-22T13:50:45.273Z</time></trkpt><trkpt lat="44.5373752" lon="10.6653023"><ele>171.0</ele><time>2026-03-22T13:50:46.255Z</time></trkpt><trkpt lat="44.5373956" lon="10.6654485"><ele>171.0</ele><time>2026-03-22T13:50:47.254Z</time></trkpt><trkpt lat="44.5374174" lon="10.6655888"><ele>171.0</ele><time>2026-03-22T13:50:48.252Z</time></trkpt><trkpt lat="44.5374404" lon="10.6657228"><ele>171.0</ele><time>2026-03-22T13:50:49.252Z</time></trkpt><trkpt lat="44.5374624" lon="10.6658422"><ele>171.0</ele><time>2026-03-22T13:50:50.252Z</time></trkpt><trkpt lat="44.5374838" lon="10.6659657"><ele>171.0</ele><time>2026-03-22T13:50:51.254Z</time></trkpt><trkpt lat="44.5375111" lon="10.666102"><ele>171.0</ele><time>2026-03-22T13:50:52.251Z</time></trkpt><trkpt lat="44.5375371" lon="10.6662428"><ele>171.0</ele><time>2026-03-22T13:50:53.264Z</time></trkpt><trkpt lat="44.5375648" lon="10.6663859"><ele>171.0</ele><time>2026-03-22T13:50:54.251Z</time></trkpt><trkpt lat="44.5375992" lon="10.6665364"><ele>171.0</ele><time>2026-03-22T13:50:55.252Z</time></trkpt><trkpt lat="44.5376325" lon="10.6666794"><ele>170.83333333333334</ele><time>2026-03-22T13:50:56.257Z</time></trkpt><trkpt lat="44.5376621" lon="10.6668121"><ele>170.66666666666666</ele><time>2026-03-22T13:50:57.256Z</time></trkpt><trkpt lat="44.5376878" lon="10.6669314"><ele>170.5</ele><time>2026-03-22T13:50:58.266Z</time></trkpt><trkpt lat="44.5377097" lon="10.6670427"><ele>170.33333333333331</ele><time>2026-03-22T13:50:59.254Z</time></trkpt><trkpt lat="44.537711" lon="10.6671435"><ele>170.16666666666666</ele><time>2026-03-22T13:51:00.249Z</time></trkpt><trkpt lat="44.5377015" lon="10.667236"><ele>170.0</ele><time>2026-03-22T13:51:01.25Z</time></trkpt><trkpt lat="44.5376481" lon="10.6673571"><ele>170.0</ele><time>2026-03-22T13:51:03.253Z</time></trkpt><trkpt lat="44.5375506" lon="10.6673965"><ele>170.0</ele><time>2026-03-22T13:51:05.267Z</time></trkpt><trkpt lat="44.537473" lon="10.6673973"><ele>170.0</ele><time>2026-03-22T13:51:06.249Z</time></trkpt><trkpt lat="44.5373894" lon="10.6673959"><ele>170.0</ele><time>2026-03-22T13:51:07.25Z</time></trkpt><trkpt lat="44.5372991" lon="10.6673979"><ele>170.0</ele><time>2026-03-22T13:51:08.251Z</time></trkpt><trkpt lat="44.5372061" lon="10.6673989"><ele>170.0</ele><time>2026-03-22T13:51:09.249Z</time></trkpt><trkpt lat="44.5371064" lon="10.6674051"><ele>170.4</ele><time>2026-03-22T13:51:10.25Z</time></trkpt><trkpt lat="44.537007" lon="10.6674119"><ele>170.8</ele><time>2026-03-22T13:51:11.253Z</time></trkpt><trkpt lat="44.5369142" lon="10.667416"><ele>171.2</ele><time>2026-03-22T13:51:12.252Z</time></trkpt><trkpt lat="44.5368272" lon="10.6674208"><ele>171.6</ele><time>2026-03-22T13:51:13.271Z</time></trkpt><trkpt lat="44.53675" lon="10.6674284"><ele>172.0</ele><time>2026-03-22T13:51:14.252Z</time></trkpt><trkpt lat="44.5366543" lon="10.6674877"><ele>172.0</ele><time>2026-03-22T13:51:16.256Z</time></trkpt><trkpt lat="44.5366188" lon="10.6676266"><ele>172.0</ele><time>2026-03-22T13:51:18.257Z</time></trkpt><trkpt lat="44.5366362" lon="10.6677312"><ele>172.0</ele><time>2026-03-22T13:51:19.256Z</time></trkpt><trkpt lat="44.5366506" lon="10.6678737"><ele>172.0</ele><time>2026-03-22T13:51:20.259Z</time></trkpt><trkpt lat="44.5366604" lon="10.6680058"><ele>172.0</ele><time>2026-03-22T13:51:21.248Z</time></trkpt><trkpt lat="44.5366707" lon="10.6681469"><ele>172.6</ele><time>2026-03-22T13:51:22.254Z</time></trkpt><trkpt lat="44.5366829" lon="10.6682842"><ele>173.2</ele><time>2026-03-22T13:51:23.247Z</time></trkpt><trkpt lat="44.5366938" lon="10.6684188"><ele>173.8</ele><time>2026-03-22T13:51:24.272Z</time></trkpt><trkpt lat="44.5367014" lon="10.6685518"><ele>174.4</ele><time>2026-03-22T13:51:25.257Z</time></trkpt><trkpt lat="44.536712" lon="10.6686917"><ele>175.0</ele><time>2026-03-22T13:51:26.252Z</time></trkpt><trkpt lat="44.5367253" lon="10.6688438"><ele>175.0</ele><time>2026-03-22T13:51:27.25Z</time></trkpt><trkpt lat="44.5367407" lon="10.6689828"><ele>175.0</ele><time>2026-03-22T13:51:28.252Z</time></trkpt><trkpt lat="44.5367542" lon="10.6691123"><ele>175.0</ele><time>2026-03-22T13:51:29.25Z</time></trkpt><trkpt lat="44.5367685" lon="10.6692404"><ele>175.0</ele><time>2026-03-22T13:51:30.265Z</time></trkpt><trkpt lat="44.5367821" lon="10.6693744"><ele>175.0</ele><time>2026-03-22T13:51:31.248Z</time></trkpt><trkpt lat="44.5367949" lon="10.6695098"><ele>174.4</ele><time>2026-03-22T13:51:32.255Z</time></trkpt><trkpt lat="44.5368077" lon="10.6696418"><ele>173.8</ele><time>2026-03-22T13:51:33.255Z</time></trkpt><trkpt lat="44.5368193" lon="10.669767"><ele>173.2</ele><time>2026-03-22T13:51:34.253Z</time></trkpt><trkpt lat="44.5368319" lon="10.6698889"><ele>172.6</ele><time>2026-03-22T13:51:35.247Z</time></trkpt><trkpt lat="44.5368451" lon="10.6700145"><ele>172.0</ele><time>2026-03-22T13:51:36.25Z</time></trkpt><trkpt lat="44.5368561" lon="10.67014"><ele>172.0</ele><time>2026-03-22T13:51:37.255Z</time></trkpt><trkpt lat="44.5368676" lon="10.6702691"><ele>172.0</ele><time>2026-03-22T13:51:38.252Z</time></trkpt><trkpt lat="44.5368797" lon="10.6703978"><ele>172.0</ele><time>2026-03-22T13:51:39.258Z</time></trkpt><trkpt lat="44.5368915" lon="10.6705248"><ele>172.0</ele><time>2026-03-22T13:51:40.254Z</time></trkpt><trkpt lat="44.5369027" lon="10.6706529"><ele>172.0</ele><time>2026-03-22T13:51:41.267Z</time></trkpt><trkpt lat="44.5369153" lon="10.6707802"><ele>171.39999999999998</ele><time>2026-03-22T13:51:42.258Z</time></trkpt><trkpt lat="44.5369286" lon="10.6709068"><ele>170.79999999999998</ele><time>2026-03-22T13:51:43.257Z</time></trkpt><trkpt lat="44.5369444" lon="10.6710342"><ele>170.2</ele><time>2026-03-22T13:51:44.252Z</time></trkpt><trkpt lat="44.5369569" lon="10.6711597"><ele>169.6</ele><time>2026-03-22T13:51:45.249Z</time></trkpt><trkpt lat="44.5369717" lon="10.6712922"><ele>169.0</ele><time>2026-03-22T13:51:46.254Z</time></trkpt><trkpt lat="44.5369859" lon="10.6714278"><ele>169.0</ele><time>2026-03-22T13:51:47.256Z</time></trkpt><trkpt lat="44.5369983" lon="10.6715682"><ele>169.0</ele><time>2026-03-22T13:51:48.267Z</time></trkpt><trkpt lat="44.5370105" lon="10.6716927"><ele>169.0</ele><time>2026-03-22T13:51:49.252Z</time></trkpt><trkpt lat="44.5370246" lon="10.6717978"><ele>169.0</ele><time>2026-03-22T13:51:50.263Z</time></trkpt><trkpt lat="44.5370392" lon="10.6719205"><ele>169.0</ele><time>2026-03-22T13:51:52.252Z</time></trkpt><trkpt lat="44.5370703" lon="10.6719981"><ele>169.0</ele><time>2026-03-22T13:51:55.251Z</time></trkpt><trkpt lat="44.5371111" lon="10.6720672"><ele>169.0</ele><time>2026-03-22T13:51:59.265Z</time></trkpt><trkpt lat="44.537195" lon="10.6721306"><ele>169.0</ele><time>2026-03-22T13:52:01.252Z</time></trkpt><trkpt lat="44.5372796" lon="10.6721687"><ele>169.0</ele><time>2026-03-22T13:52:02.254Z</time></trkpt><trkpt lat="44.537368" lon="10.6722169"><ele>169.0</ele><time>2026-03-22T13:52:03.25Z</time></trkpt><trkpt lat="44.5374636" lon="10.6722983"><ele>169.0</ele><time>2026-03-22T13:52:04.255Z</time></trkpt><trkpt lat="44.5375532" lon="10.6723885"><ele>169.0</ele><time>2026-03-22T13:52:05.256Z</time></trkpt><trkpt lat="44.53764" lon="10.6724862"><ele>169.0</ele><time>2026-03-22T13:52:06.256Z</time></trkpt><trkpt lat="44.5377299" lon="10.6725835"><ele>169.0</ele><time>2026-03-22T13:52:07.264Z</time></trkpt><trkpt lat="44.5378151" lon="10.6726799"><ele>169.0</ele><time>2026-03-22T13:52:08.251Z</time></trkpt><trkpt lat="44.5378965" lon="10.6727944"><ele>169.75</ele><time>2026-03-22T13:52:09.259Z</time></trkpt><trkpt lat="44.537965" lon="10.6729213"><ele>170.5</ele><time>2026-03-22T13:52:10.251Z</time></trkpt><trkpt lat="44.5380198" lon="10.6730611"><ele>171.25</ele><time>2026-03-22T13:52:11.258Z</time></trkpt><trkpt lat="44.5380655" lon="10.6732072"><ele>172.0</ele><time>2026-03-22T13:52:12.251Z</time></trkpt><trkpt lat="44.5381073" lon="10.6733582"><ele>172.0</ele><time>2026-03-22T13:52:13.255Z</time></trkpt><trkpt lat="44.5381468" lon="10.6735116"><ele>172.0</ele><time>2026-03-22T13:52:14.251Z</time></trkpt><trkpt lat="44.5381894" lon="10.6736617"><ele>172.0</ele><time>2026-03-22T13:52:15.255Z</time></trkpt><trkpt lat="44.5382328" lon="10.6738098"><ele>172.0</ele><time>2026-03-22T13:52:16.266Z</time></trkpt><trkpt lat="44.5382671" lon="10.6739613"><ele>173.2</ele><time>2026-03-22T13:52:17.249Z</time></trkpt><trkpt lat="44.5382951" lon="10.6741197"><ele>174.39999999999998</ele><time>2026-03-22T13:52:18.267Z</time></trkpt><trkpt lat="44.5383138" lon="10.6742709"><ele>175.60000000000002</ele><time>2026-03-22T13:52:19.256Z</time></trkpt><trkpt lat="44.5383249" lon="10.6744164"><ele>176.8</ele><time>2026-03-22T13:52:20.249Z</time></trkpt><trkpt lat="44.5383254" lon="10.6745611"><ele>178.0</ele><time>2026-03-22T13:52:21.257Z</time></trkpt><trkpt lat="44.5383153" lon="10.6747061"><ele>179.2</ele><time>2026-03-22T13:52:22.259Z</time></trkpt><trkpt lat="44.5383073" lon="10.6748561"><ele>180.4</ele><time>2026-03-22T13:52:23.273Z</time></trkpt><trkpt lat="44.5383032" lon="10.6750064"><ele>181.6</ele><time>2026-03-22T13:52:24.244Z</time></trkpt><trkpt lat="44.5382997" lon="10.6751613"><ele>182.79999999999998</ele><time>2026-03-22T13:52:25.252Z</time></trkpt><trkpt lat="44.5382915" lon="10.6753283"><ele>184.0</ele><time>2026-03-22T13:52:26.248Z</time></trkpt><trkpt lat="44.5382792" lon="10.6755093"><ele>185.0</ele><time>2026-03-22T13:52:27.254Z</time></trkpt><trkpt lat="44.5382715" lon="10.6757022"><ele>186.0</ele><time>2026-03-22T13:52:28.255Z</time></trkpt><trkpt lat="44.5382644" lon="10.6758929"><ele>187.0</ele><time>2026-03-22T13:52:29.25Z</time></trkpt><trkpt lat="44.5382688" lon="10.6760834"><ele>188.0</ele><time>2026-03-22T13:52:30.252Z</time></trkpt><trkpt lat="44.538273" lon="10.6762705"><ele>188.5</ele><time>2026-03-22T13:52:31.25Z</time></trkpt><trkpt lat="44.5382787" lon="10.6764534"><ele>189.0</ele><time>2026-03-22T13:52:32.248Z</time></trkpt><trkpt lat="44.5382851" lon="10.6766324"><ele>189.5</ele><time>2026-03-22T13:52:33.25Z</time></trkpt><trkpt lat="44.5382932" lon="10.6768061"><ele>190.0</ele><time>2026-03-22T13:52:34.271Z</time></trkpt><trkpt lat="44.5382995" lon="10.6769764"><ele>191.6</ele><time>2026-03-22T13:52:35.256Z</time></trkpt><trkpt lat="44.5383062" lon="10.6771416"><ele>193.2</ele><time>2026-03-22T13:52:36.254Z</time></trkpt><trkpt lat="44.5383232" lon="10.6773024"><ele>194.8</ele><time>2026-03-22T13:52:37.256Z</time></trkpt><trkpt lat="44.5383471" lon="10.6774448"><ele>196.4</ele><time>2026-03-22T13:52:38.26Z</time></trkpt><trkpt lat="44.5383748" lon="10.6775782"><ele>198.0</ele><time>2026-03-22T13:52:39.252Z</time></trkpt><trkpt lat="44.5384066" lon="10.6777106"><ele>198.8</ele><time>2026-03-22T13:52:40.264Z</time></trkpt><trkpt lat="44.5384353" lon="10.6778486"><ele>199.60000000000002</ele><time>2026-03-22T13:52:41.256Z</time></trkpt><trkpt lat="44.5384621" lon="10.6779976"><ele>200.39999999999998</ele><time>2026-03-22T13:52:42.261Z</time></trkpt><trkpt lat="44.538491" lon="10.6781433"><ele>201.2</ele><time>2026-03-22T13:52:43.252Z</time></trkpt><trkpt lat="44.5384959" lon="10.6783108"><ele>202.0</ele><time>2026-03-22T13:52:44.255Z</time></trkpt><trkpt lat="44.5384907" lon="10.6784694"><ele>202.83333333333331</ele><time>2026-03-22T13:52:45.247Z</time></trkpt><trkpt lat="44.5384841" lon="10.6786145"><ele>203.66666666666666</ele><time>2026-03-22T13:52:46.251Z</time></trkpt><trkpt lat="44.5384772" lon="10.6787455"><ele>204.5</ele><time>2026-03-22T13:52:47.267Z</time></trkpt><trkpt lat="44.5384806" lon="10.6788546"><ele>205.33333333333331</ele><time>2026-03-22T13:52:48.254Z</time></trkpt><trkpt lat="44.5384916" lon="10.6789567"><ele>206.16666666666666</ele><time>2026-03-22T13:52:49.247Z</time></trkpt><trkpt lat="44.5384992" lon="10.6790522"><ele>207.0</ele><time>2026-03-22T13:52:50.254Z</time></trkpt><trkpt lat="44.5385368" lon="10.6791986"><ele>207.0</ele><time>2026-03-22T13:52:52.265Z</time></trkpt><trkpt lat="44.5386138" lon="10.6792935"><ele>207.0</ele><time>2026-03-22T13:52:54.256Z</time></trkpt><trkpt lat="44.5386638" lon="10.6794139"><ele>207.0</ele><time>2026-03-22T13:52:56.251Z</time></trkpt><trkpt lat="44.5386192" lon="10.6796006"><ele>207.0</ele><time>2026-03-22T13:52:58.254Z</time></trkpt><trkpt lat="44.5385792" lon="10.6797027"><ele>207.0</ele><time>2026-03-22T13:52:59.249Z</time></trkpt><trkpt lat="44.5385298" lon="10.6798034"><ele>205.5</ele><time>2026-03-22T13:53:00.256Z</time></trkpt><trkpt lat="44.5384732" lon="10.6799071"><ele>204.0</ele><time>2026-03-22T13:53:01.251Z</time></trkpt><trkpt lat="44.5383751" lon="10.6799946"><ele>202.5</ele><time>2026-03-22T13:53:02.282Z</time></trkpt><trkpt lat="44.5382751" lon="10.6800797"><ele>201.0</ele><time>2026-03-22T13:53:03.248Z</time></trkpt><trkpt lat="44.5381674" lon="10.6801744"><ele>201.0</ele><time>2026-03-22T13:53:04.254Z</time></trkpt><trkpt lat="44.5380657" lon="10.6802664"><ele>201.0</ele><time>2026-03-22T13:53:05.262Z</time></trkpt><trkpt lat="44.5379728" lon="10.6803501"><ele>201.0</ele><time>2026-03-22T13:53:06.251Z</time></trkpt><trkpt lat="44.5378815" lon="10.680438"><ele>201.0</ele><time>2026-03-22T13:53:07.253Z</time></trkpt><trkpt lat="44.5377994" lon="10.6805267"><ele>201.0</ele><time>2026-03-22T13:53:08.252Z</time></trkpt><trkpt lat="44.5377174" lon="10.6806197"><ele>199.0</ele><time>2026-03-22T13:53:09.251Z</time></trkpt><trkpt lat="44.5376286" lon="10.6807048"><ele>197.0</ele><time>2026-03-22T13:53:10.257Z</time></trkpt><trkpt lat="44.5375307" lon="10.6807843"><ele>195.0</ele><time>2026-03-22T13:53:11.256Z</time></trkpt><trkpt lat="44.5374267" lon="10.6808591"><ele>193.0</ele><time>2026-03-22T13:53:12.257Z</time></trkpt><trkpt lat="44.5373156" lon="10.680932"><ele>193.0</ele><time>2026-03-22T13:53:13.25Z</time></trkpt><trkpt lat="44.5371977" lon="10.6810082"><ele>193.0</ele><time>2026-03-22T13:53:14.269Z</time></trkpt><trkpt lat="44.5370799" lon="10.6810875"><ele>193.0</ele><time>2026-03-22T13:53:15.252Z</time></trkpt><trkpt lat="44.5369654" lon="10.6811656"><ele>193.0</ele><time>2026-03-22T13:53:16.257Z</time></trkpt><trkpt lat="44.5368531" lon="10.6812391"><ele>191.5</ele><time>2026-03-22T13:53:17.252Z</time></trkpt><trkpt lat="44.5367391" lon="10.6813105"><ele>190.0</ele><time>2026-03-22T13:53:18.254Z</time></trkpt><trkpt lat="44.5366184" lon="10.6813773"><ele>188.5</ele><time>2026-03-22T13:53:19.247Z</time></trkpt><trkpt lat="44.5364941" lon="10.6814331"><ele>187.0</ele><time>2026-03-22T13:53:20.252Z</time></trkpt><trkpt lat="44.5363694" lon="10.6814769"><ele>187.0</ele><time>2026-03-22T13:53:21.256Z</time></trkpt><trkpt lat="44.5362515" lon="10.6815196"><ele>187.0</ele><time>2026-03-22T13:53:22.256Z</time></trkpt><trkpt lat="44.536146" lon="10.6815748"><ele>187.0</ele><time>2026-03-22T13:53:23.272Z</time></trkpt><trkpt lat="44.5360501" lon="10.6816421"><ele>187.0</ele><time>2026-03-22T13:53:24.253Z</time></trkpt><trkpt lat="44.5359555" lon="10.6817083"><ele>187.0</ele><time>2026-03-22T13:53:25.259Z</time></trkpt><trkpt lat="44.5358697" lon="10.6817858"><ele>186.5</ele><time>2026-03-22T13:53:26.253Z</time></trkpt><trkpt lat="44.5357778" lon="10.6818776"><ele>186.0</ele><time>2026-03-22T13:53:27.259Z</time></trkpt><trkpt lat="44.5356828" lon="10.6819772"><ele>185.5</ele><time>2026-03-22T13:53:28.254Z</time></trkpt><trkpt lat="44.535577" lon="10.6820918"><ele>185.0</ele><time>2026-03-22T13:53:29.268Z</time></trkpt><trkpt lat="44.5354715" lon="10.6822018"><ele>186.0</ele><time>2026-03-22T13:53:30.257Z</time></trkpt><trkpt lat="44.5353656" lon="10.6823074"><ele>187.0</ele><time>2026-03-22T13:53:31.253Z</time></trkpt><trkpt lat="44.5352442" lon="10.6824008"><ele>188.0</ele><time>2026-03-22T13:53:32.253Z</time></trkpt><trkpt lat="44.535119" lon="10.6824665"><ele>189.0</ele><time>2026-03-22T13:53:33.255Z</time></trkpt><trkpt lat="44.5349921" lon="10.6825299"><ele>189.0</ele><time>2026-03-22T13:53:34.251Z</time></trkpt><trkpt lat="44.5348694" lon="10.6826062"><ele>189.0</ele><time>2026-03-22T13:53:35.25Z</time></trkpt><trkpt lat="44.5347579" lon="10.6826886"><ele>189.0</ele><time>2026-03-22T13:53:36.261Z</time></trkpt><trkpt lat="44.5346547" lon="10.6827747"><ele>189.0</ele><time>2026-03-22T13:53:37.251Z</time></trkpt><trkpt lat="44.5345573" lon="10.6828632"><ele>189.79999999999998</ele><time>2026-03-22T13:53:38.269Z</time></trkpt><trkpt lat="44.5344626" lon="10.6829509"><ele>190.6</ele><time>2026-03-22T13:53:39.254Z</time></trkpt><trkpt lat="44.5343699" lon="10.6830323"><ele>191.4</ele><time>2026-03-22T13:53:40.252Z</time></trkpt><trkpt lat="44.5342757" lon="10.6831129"><ele>192.2</ele><time>2026-03-22T13:53:41.255Z</time></trkpt><trkpt lat="44.5341768" lon="10.6831967"><ele>193.0</ele><time>2026-03-22T13:53:42.255Z</time></trkpt><trkpt lat="44.5340722" lon="10.6832818"><ele>193.0</ele><time>2026-03-22T13:53:43.275Z</time></trkpt><trkpt lat="44.5339661" lon="10.6833643"><ele>193.0</ele><time>2026-03-22T13:53:44.252Z</time></trkpt><trkpt lat="44.5338573" lon="10.6834415"><ele>193.0</ele><time>2026-03-22T13:53:45.253Z</time></trkpt><trkpt lat="44.5337439" lon="10.6835174"><ele>193.0</ele><time>2026-03-22T13:53:46.253Z</time></trkpt><trkpt lat="44.5336296" lon="10.683592"><ele>192.25</ele><time>2026-03-22T13:53:47.253Z</time></trkpt><trkpt lat="44.5335147" lon="10.6836671"><ele>191.5</ele><time>2026-03-22T13:53:48.26Z</time></trkpt><trkpt lat="44.5334027" lon="10.6837393"><ele>190.75</ele><time>2026-03-22T13:53:49.253Z</time></trkpt><trkpt lat="44.5332975" lon="10.6838092"><ele>190.0</ele><time>2026-03-22T13:53:50.268Z</time></trkpt><trkpt lat="44.5331954" lon="10.6838764"><ele>190.0</ele><time>2026-03-22T13:53:51.249Z</time></trkpt><trkpt lat="44.5330948" lon="10.6839384"><ele>190.0</ele><time>2026-03-22T13:53:52.249Z</time></trkpt><trkpt lat="44.5329952" lon="10.6839966"><ele>190.0</ele><time>2026-03-22T13:53:53.246Z</time></trkpt><trkpt lat="44.5328964" lon="10.6840552"><ele>190.0</ele><time>2026-03-22T13:53:54.254Z</time></trkpt><trkpt lat="44.5328058" lon="10.6841435"><ele>190.0</ele><time>2026-03-22T13:53:55.254Z</time></trkpt><trkpt lat="44.532725" lon="10.6842426"><ele>190.8</ele><time>2026-03-22T13:53:56.247Z</time></trkpt><trkpt lat="44.532648" lon="10.6843347"><ele>191.6</ele><time>2026-03-22T13:53:57.252Z</time></trkpt><trkpt lat="44.5325718" lon="10.6844207"><ele>192.39999999999998</ele><time>2026-03-22T13:53:58.256Z</time></trkpt><trkpt lat="44.5324921" lon="10.6845057"><ele>193.2</ele><time>2026-03-22T13:53:59.261Z</time></trkpt><trkpt lat="44.5324012" lon="10.6845886"><ele>194.0</ele><time>2026-03-22T13:54:00.251Z</time></trkpt><trkpt lat="44.5323087" lon="10.6846763"><ele>192.25</ele><time>2026-03-22T13:54:01.254Z</time></trkpt><trkpt lat="44.5321934" lon="10.684726"><ele>190.5</ele><time>2026-03-22T13:54:02.257Z</time></trkpt><trkpt lat="44.532083" lon="10.6847651"><ele>188.75</ele><time>2026-03-22T13:54:03.251Z</time></trkpt><trkpt lat="44.5319753" lon="10.6848048"><ele>187.0</ele><time>2026-03-22T13:54:04.265Z</time></trkpt><trkpt lat="44.5318752" lon="10.6848439"><ele>187.0</ele><time>2026-03-22T13:54:05.257Z</time></trkpt><trkpt lat="44.5317805" lon="10.6848898"><ele>187.0</ele><time>2026-03-22T13:54:06.257Z</time></trkpt><trkpt lat="44.5316932" lon="10.6849534"><ele>187.0</ele><time>2026-03-22T13:54:07.255Z</time></trkpt><trkpt lat="44.531615" lon="10.6850456"><ele>187.0</ele><time>2026-03-22T13:54:08.254Z</time></trkpt><trkpt lat="44.531544" lon="10.6851768"><ele>187.0</ele><time>2026-03-22T13:54:09.248Z</time></trkpt><trkpt lat="44.5314806" lon="10.6853302"><ele>186.8</ele><time>2026-03-22T13:54:10.258Z</time></trkpt><trkpt lat="44.5314225" lon="10.6854768"><ele>186.6</ele><time>2026-03-22T13:54:11.253Z</time></trkpt><trkpt lat="44.531365" lon="10.6856049"><ele>186.4</ele><time>2026-03-22T13:54:12.258Z</time></trkpt><trkpt lat="44.5312978" lon="10.6857186"><ele>186.20000000000002</ele><time>2026-03-22T13:54:13.253Z</time></trkpt><trkpt lat="44.5312264" lon="10.6858342"><ele>186.0</ele><time>2026-03-22T13:54:14.257Z</time></trkpt><trkpt lat="44.5311346" lon="10.6859156"><ele>187.0</ele><time>2026-03-22T13:54:15.255Z</time></trkpt><trkpt lat="44.5310324" lon="10.6859687"><ele>188.0</ele><time>2026-03-22T13:54:16.254Z</time></trkpt><trkpt lat="44.5309239" lon="10.6860246"><ele>189.0</ele><time>2026-03-22T13:54:17.249Z</time></trkpt><trkpt lat="44.5308103" lon="10.6860837"><ele>190.0</ele><time>2026-03-22T13:54:18.253Z</time></trkpt><trkpt lat="44.5306908" lon="10.6861466"><ele>192.0</ele><time>2026-03-22T13:54:19.255Z</time></trkpt><trkpt lat="44.5305757" lon="10.6862053"><ele>194.0</ele><time>2026-03-22T13:54:20.253Z</time></trkpt><trkpt lat="44.530461" lon="10.6862571"><ele>196.0</ele><time>2026-03-22T13:54:21.257Z</time></trkpt><trkpt lat="44.5303519" lon="10.6862955"><ele>198.0</ele><time>2026-03-22T13:54:22.249Z</time></trkpt><trkpt lat="44.5302423" lon="10.6863269"><ele>200.0</ele><time>2026-03-22T13:54:23.258Z</time></trkpt><trkpt lat="44.5301362" lon="10.6863429"><ele>202.0</ele><time>2026-03-22T13:54:24.251Z</time></trkpt><trkpt lat="44.5300366" lon="10.6863688"><ele>204.0</ele><time>2026-03-22T13:54:25.259Z</time></trkpt><trkpt lat="44.5299403" lon="10.6863909"><ele>206.0</ele><time>2026-03-22T13:54:26.254Z</time></trkpt><trkpt lat="44.5298584" lon="10.6864392"><ele>208.0</ele><time>2026-03-22T13:54:27.256Z</time></trkpt><trkpt lat="44.5297863" lon="10.6865111"><ele>208.0</ele><time>2026-03-22T13:54:28.258Z</time></trkpt><trkpt lat="44.529712" lon="10.686606"><ele>208.0</ele><time>2026-03-22T13:54:29.257Z</time></trkpt><trkpt lat="44.5296524" lon="10.6867252"><ele>208.0</ele><time>2026-03-22T13:54:30.256Z</time></trkpt><trkpt lat="44.5296096" lon="10.6868481"><ele>208.0</ele><time>2026-03-22T13:54:31.258Z</time></trkpt><trkpt lat="44.5295541" lon="10.6869515"><ele>208.0</ele><time>2026-03-22T13:54:32.254Z</time></trkpt><trkpt lat="44.5294803" lon="10.6870404"><ele>211.0</ele><time>2026-03-22T13:54:33.252Z</time></trkpt><trkpt lat="44.529404" lon="10.6871201"><ele>214.0</ele><time>2026-03-22T13:54:34.254Z</time></trkpt><trkpt lat="44.5293176" lon="10.6872002"><ele>217.0</ele><time>2026-03-22T13:54:35.248Z</time></trkpt><trkpt lat="44.5292388" lon="10.6872818"><ele>220.0</ele><time>2026-03-22T13:54:36.27Z</time></trkpt><trkpt lat="44.5291643" lon="10.6873673"><ele>223.0</ele><time>2026-03-22T13:54:37.252Z</time></trkpt><trkpt lat="44.529091" lon="10.6874693"><ele>223.0</ele><time>2026-03-22T13:54:38.251Z</time></trkpt><trkpt lat="44.5290305" lon="10.6875759"><ele>223.0</ele><time>2026-03-22T13:54:39.26Z</time></trkpt><trkpt lat="44.5289694" lon="10.6876862"><ele>223.0</ele><time>2026-03-22T13:54:40.256Z</time></trkpt><trkpt lat="44.5289064" lon="10.6877936"><ele>223.0</ele><time>2026-03-22T13:54:41.28Z</time></trkpt><trkpt lat="44.5288371" lon="10.6879012"><ele>223.0</ele><time>2026-03-22T13:54:42.25Z</time></trkpt><trkpt lat="44.5287699" lon="10.6880094"><ele>225.75</ele><time>2026-03-22T13:54:43.254Z</time></trkpt><trkpt lat="44.5286833" lon="10.68813"><ele>228.5</ele><time>2026-03-22T13:54:44.249Z</time></trkpt><trkpt lat="44.5285882" lon="10.6882502"><ele>231.25</ele><time>2026-03-22T13:54:45.255Z</time></trkpt><trkpt lat="44.5284829" lon="10.6883786"><ele>234.0</ele><time>2026-03-22T13:54:46.256Z</time></trkpt><trkpt lat="44.528367" lon="10.6884854"><ele>234.0</ele><time>2026-03-22T13:54:47.256Z</time></trkpt><trkpt lat="44.5282514" lon="10.6885884"><ele>234.0</ele><time>2026-03-22T13:54:48.251Z</time></trkpt><trkpt lat="44.52812" lon="10.6886335"><ele>234.0</ele><time>2026-03-22T13:54:49.272Z</time></trkpt><trkpt lat="44.5279904" lon="10.6886566"><ele>234.0</ele><time>2026-03-22T13:54:50.249Z</time></trkpt><trkpt lat="44.527863" lon="10.6886723"><ele>237.0</ele><time>2026-03-22T13:54:51.251Z</time></trkpt><trkpt lat="44.5277544" lon="10.6887016"><ele>239.99999999999997</ele><time>2026-03-22T13:54:52.259Z</time></trkpt><trkpt lat="44.5276658" lon="10.6887462"><ele>242.99999999999997</ele><time>2026-03-22T13:54:53.251Z</time></trkpt><trkpt lat="44.5275881" lon="10.6888135"><ele>246.0</ele><time>2026-03-22T13:54:54.274Z</time></trkpt><trkpt lat="44.527509" lon="10.6889019"><ele>249.0</ele><time>2026-03-22T13:54:55.258Z</time></trkpt><trkpt lat="44.5274364" lon="10.6889829"><ele>249.0</ele><time>2026-03-22T13:54:56.258Z</time></trkpt><trkpt lat="44.5273823" lon="10.6890726"><ele>249.0</ele><time>2026-03-22T13:54:57.257Z</time></trkpt><trkpt lat="44.5273468" lon="10.689171"><ele>249.0</ele><time>2026-03-22T13:54:58.258Z</time></trkpt><trkpt lat="44.5273108" lon="10.6892807"><ele>249.0</ele><time>2026-03-22T13:54:59.258Z</time></trkpt><trkpt lat="44.5273116" lon="10.68941"><ele>249.0</ele><time>2026-03-22T13:55:00.27Z</time></trkpt><trkpt lat="44.5273188" lon="10.6895389"><ele>249.0</ele><time>2026-03-22T13:55:01.252Z</time></trkpt><trkpt lat="44.5273462" lon="10.6896875"><ele>249.6</ele><time>2026-03-22T13:55:02.261Z</time></trkpt><trkpt lat="44.5273697" lon="10.6898338"><ele>250.2</ele><time>2026-03-22T13:55:03.253Z</time></trkpt><trkpt lat="44.5273883" lon="10.6899764"><ele>250.79999999999998</ele><time>2026-03-22T13:55:04.251Z</time></trkpt><trkpt lat="44.527407" lon="10.6901149"><ele>251.39999999999998</ele><time>2026-03-22T13:55:05.249Z</time></trkpt><trkpt lat="44.5274276" lon="10.6902506"><ele>252.0</ele><time>2026-03-22T13:55:06.258Z</time></trkpt><trkpt lat="44.5274522" lon="10.6903853"><ele>252.0</ele><time>2026-03-22T13:55:07.257Z</time></trkpt><trkpt lat="44.5274773" lon="10.6905212"><ele>252.0</ele><time>2026-03-22T13:55:08.256Z</time></trkpt><trkpt lat="44.5274864" lon="10.6906529"><ele>252.0</ele><time>2026-03-22T13:55:09.258Z</time></trkpt><trkpt lat="44.5274792" lon="10.6907806"><ele>252.0</ele><time>2026-03-22T13:55:10.272Z</time></trkpt><trkpt lat="44.5274559" lon="10.6909033"><ele>252.0</ele><time>2026-03-22T13:55:11.247Z</time></trkpt><trkpt lat="44.5274141" lon="10.6910213"><ele>251.8</ele><time>2026-03-22T13:55:12.258Z</time></trkpt><trkpt lat="44.5273547" lon="10.6911287"><ele>251.6</ele><time>2026-03-22T13:55:13.253Z</time></trkpt><trkpt lat="44.5272803" lon="10.6912193"><ele>251.40000000000003</ele><time>2026-03-22T13:55:14.247Z</time></trkpt><trkpt lat="44.5272071" lon="10.6913064"><ele>251.20000000000002</ele><time>2026-03-22T13:55:15.252Z</time></trkpt><trkpt lat="44.5271169" lon="10.6913596"><ele>251.0</ele><time>2026-03-22T13:55:16.253Z</time></trkpt><trkpt lat="44.527018" lon="10.6914139"><ele>253.25</ele><time>2026-03-22T13:55:17.248Z</time></trkpt><trkpt lat="44.5269216" lon="10.6914859"><ele>255.5</ele><time>2026-03-22T13:55:18.272Z</time></trkpt><trkpt lat="44.5268343" lon="10.6915861"><ele>257.75</ele><time>2026-03-22T13:55:19.251Z</time></trkpt><trkpt lat="44.5267548" lon="10.6917054"><ele>260.0</ele><time>2026-03-22T13:55:20.248Z</time></trkpt><trkpt lat="44.5266819" lon="10.6918429"><ele>261.75</ele><time>2026-03-22T13:55:21.253Z</time></trkpt><trkpt lat="44.5266145" lon="10.691993"><ele>263.5</ele><time>2026-03-22T13:55:22.259Z</time></trkpt><trkpt lat="44.5265567" lon="10.6921476"><ele>265.25</ele><time>2026-03-22T13:55:23.255Z</time></trkpt><trkpt lat="44.5265007" lon="10.6923044"><ele>267.0</ele><time>2026-03-22T13:55:24.258Z</time></trkpt><trkpt lat="44.5264432" lon="10.6924599"><ele>267.0</ele><time>2026-03-22T13:55:25.253Z</time></trkpt><trkpt lat="44.5263804" lon="10.6926116"><ele>267.0</ele><time>2026-03-22T13:55:26.254Z</time></trkpt><trkpt lat="44.5263131" lon="10.6927563"><ele>267.0</ele><time>2026-03-22T13:55:27.253Z</time></trkpt><trkpt lat="44.5262439" lon="10.692892"><ele>267.0</ele><time>2026-03-22T13:55:28.257Z</time></trkpt><trkpt lat="44.5261724" lon="10.6930189"><ele>266.2</ele><time>2026-03-22T13:55:29.261Z</time></trkpt><trkpt lat="44.5261021" lon="10.6931341"><ele>265.4</ele><time>2026-03-22T13:55:30.253Z</time></trkpt><trkpt lat="44.5260354" lon="10.6932425"><ele>264.6</ele><time>2026-03-22T13:55:31.259Z</time></trkpt><trkpt lat="44.525963" lon="10.6933522"><ele>263.8</ele><time>2026-03-22T13:55:32.259Z</time></trkpt><trkpt lat="44.5258887" lon="10.6934648"><ele>263.0</ele><time>2026-03-22T13:55:33.256Z</time></trkpt><trkpt lat="44.5258107" lon="10.6935892"><ele>262.5</ele><time>2026-03-22T13:55:34.257Z</time></trkpt><trkpt lat="44.5257292" lon="10.6937242"><ele>262.0</ele><time>2026-03-22T13:55:35.254Z</time></trkpt><trkpt lat="44.5256467" lon="10.6938704"><ele>261.5</ele><time>2026-03-22T13:55:36.251Z</time></trkpt><trkpt lat="44.5255652" lon="10.6940253"><ele>261.0</ele><time>2026-03-22T13:55:37.281Z</time></trkpt><trkpt lat="44.5254859" lon="10.6941861"><ele>261.0</ele><time>2026-03-22T13:55:38.257Z</time></trkpt><trkpt lat="44.525412" lon="10.6943424"><ele>261.0</ele><time>2026-03-22T13:55:39.247Z</time></trkpt><trkpt lat="44.5253417" lon="10.6944977"><ele>261.0</ele><time>2026-03-22T13:55:40.258Z</time></trkpt><trkpt lat="44.5252797" lon="10.6946523"><ele>261.0</ele><time>2026-03-22T13:55:41.26Z</time></trkpt><trkpt lat="44.5252231" lon="10.6948057"><ele>262.0</ele><time>2026-03-22T13:55:42.273Z</time></trkpt><trkpt lat="44.5251692" lon="10.6949574"><ele>263.0</ele><time>2026-03-22T13:55:43.25Z</time></trkpt><trkpt lat="44.5251186" lon="10.6951028"><ele>264.0</ele><time>2026-03-22T13:55:44.254Z</time></trkpt><trkpt lat="44.5250739" lon="10.6952323"><ele>265.0</ele><time>2026-03-22T13:55:45.257Z</time></trkpt><trkpt lat="44.5250261" lon="10.6953625"><ele>266.0</ele><time>2026-03-22T13:55:46.25Z</time></trkpt><trkpt lat="44.5249727" lon="10.6954994"><ele>266.25</ele><time>2026-03-22T13:55:47.266Z</time></trkpt><trkpt lat="44.5249129" lon="10.695639"><ele>266.5</ele><time>2026-03-22T13:55:48.261Z</time></trkpt><trkpt lat="44.524845" lon="10.6957792"><ele>266.75</ele><time>2026-03-22T13:55:49.251Z</time></trkpt><trkpt lat="44.5247706" lon="10.6959157"><ele>267.0</ele><time>2026-03-22T13:55:50.254Z</time></trkpt><trkpt lat="44.5246945" lon="10.6960446"><ele>267.2</ele><time>2026-03-22T13:55:51.252Z</time></trkpt><trkpt lat="44.5246194" lon="10.6961657"><ele>267.4</ele><time>2026-03-22T13:55:52.254Z</time></trkpt><trkpt lat="44.5245493" lon="10.6962756"><ele>267.6</ele><time>2026-03-22T13:55:53.254Z</time></trkpt><trkpt lat="44.5244815" lon="10.6963813"><ele>267.8</ele><time>2026-03-22T13:55:54.271Z</time></trkpt><trkpt lat="44.5244347" lon="10.6964829"><ele>268.0</ele><time>2026-03-22T13:55:55.256Z</time></trkpt><trkpt lat="44.5244094" lon="10.6966035"><ele>269.2</ele><time>2026-03-22T13:55:56.258Z</time></trkpt><trkpt lat="44.5243913" lon="10.6967246"><ele>270.4</ele><time>2026-03-22T13:55:57.259Z</time></trkpt><trkpt lat="44.524434" lon="10.696845"><ele>271.59999999999997</ele><time>2026-03-22T13:55:58.255Z</time></trkpt><trkpt lat="44.5244893" lon="10.6969678"><ele>272.8</ele><time>2026-03-22T13:55:59.255Z</time></trkpt><trkpt lat="44.5245479" lon="10.6970886"><ele>274.0</ele><time>2026-03-22T13:56:00.255Z</time></trkpt><trkpt lat="44.5245974" lon="10.6972144"><ele>274.0</ele><time>2026-03-22T13:56:01.267Z</time></trkpt><trkpt lat="44.5246339" lon="10.697338"><ele>274.0</ele><time>2026-03-22T13:56:02.254Z</time></trkpt><trkpt lat="44.5246641" lon="10.6974736"><ele>274.0</ele><time>2026-03-22T13:56:03.259Z</time></trkpt><trkpt lat="44.5246896" lon="10.6976238"><ele>274.0</ele><time>2026-03-22T13:56:04.256Z</time></trkpt><trkpt lat="44.5247156" lon="10.6977871"><ele>274.0</ele><time>2026-03-22T13:56:05.255Z</time></trkpt><trkpt lat="44.5247446" lon="10.6979591"><ele>275.25</ele><time>2026-03-22T13:56:06.264Z</time></trkpt><trkpt lat="44.524778" lon="10.6981338"><ele>276.5</ele><time>2026-03-22T13:56:07.256Z</time></trkpt><trkpt lat="44.5248154" lon="10.6983113"><ele>277.75</ele><time>2026-03-22T13:56:08.252Z</time></trkpt><trkpt lat="44.5248569" lon="10.6984933"><ele>279.0</ele><time>2026-03-22T13:56:09.254Z</time></trkpt><trkpt lat="44.5248961" lon="10.6986771"><ele>280.25</ele><time>2026-03-22T13:56:10.256Z</time></trkpt><trkpt lat="44.5249339" lon="10.6988593"><ele>281.5</ele><time>2026-03-22T13:56:11.254Z</time></trkpt><trkpt lat="44.5249673" lon="10.6990408"><ele>282.75</ele><time>2026-03-22T13:56:12.251Z</time></trkpt><trkpt lat="44.5250072" lon="10.6992127"><ele>284.0</ele><time>2026-03-22T13:56:13.255Z</time></trkpt><trkpt lat="44.525045" lon="10.6993773"><ele>285.59999999999997</ele><time>2026-03-22T13:56:14.255Z</time></trkpt><trkpt lat="44.5250858" lon="10.6995247"><ele>287.2</ele><time>2026-03-22T13:56:15.272Z</time></trkpt><trkpt lat="44.5251268" lon="10.6996595"><ele>288.79999999999995</ele><time>2026-03-22T13:56:16.253Z</time></trkpt><trkpt lat="44.5251649" lon="10.6997837"><ele>290.4</ele><time>2026-03-22T13:56:17.25Z</time></trkpt><trkpt lat="44.5251892" lon="10.6999031"><ele>292.0</ele><time>2026-03-22T13:56:18.257Z</time></trkpt><trkpt lat="44.5251914" lon="10.7000303"><ele>292.0</ele><time>2026-03-22T13:56:19.26Z</time></trkpt><trkpt lat="44.5251623" lon="10.7001623"><ele>292.0</ele><time>2026-03-22T13:56:20.251Z</time></trkpt><trkpt lat="44.5251097" lon="10.700289"><ele>292.0</ele><time>2026-03-22T13:56:21.272Z</time></trkpt><trkpt lat="44.5250497" lon="10.7004178"><ele>292.0</ele><time>2026-03-22T13:56:22.255Z</time></trkpt><trkpt lat="44.525004" lon="10.7005353"><ele>292.0</ele><time>2026-03-22T13:56:23.254Z</time></trkpt><trkpt lat="44.5249676" lon="10.7006457"><ele>293.66666666666663</ele><time>2026-03-22T13:56:24.252Z</time></trkpt><trkpt lat="44.5249347" lon="10.7007467"><ele>295.3333333333333</ele><time>2026-03-22T13:56:25.258Z</time></trkpt><trkpt lat="44.5249064" lon="10.7008331"><ele>297.0</ele><time>2026-03-22T13:56:26.254Z</time></trkpt><trkpt lat="44.5248692" lon="10.7009563"><ele>298.6666666666667</ele><time>2026-03-22T13:56:28.254Z</time></trkpt><trkpt lat="44.5248683" lon="10.7011299"><ele>300.33333333333337</ele><time>2026-03-22T13:56:30.255Z</time></trkpt><trkpt lat="44.5249108" lon="10.7012193"><ele>302.0</ele><time>2026-03-22T13:56:31.276Z</time></trkpt><trkpt lat="44.5249829" lon="10.7013083"><ele>302.4</ele><time>2026-03-22T13:56:32.251Z</time></trkpt><trkpt lat="44.5250622" lon="10.7014049"><ele>302.79999999999995</ele><time>2026-03-22T13:56:33.252Z</time></trkpt><trkpt lat="44.5251481" lon="10.7014871"><ele>303.2</ele><time>2026-03-22T13:56:34.259Z</time></trkpt><trkpt lat="44.5252355" lon="10.701568"><ele>303.59999999999997</ele><time>2026-03-22T13:56:35.251Z</time></trkpt><trkpt lat="44.5253273" lon="10.7016496"><ele>304.0</ele><time>2026-03-22T13:56:36.259Z</time></trkpt><trkpt lat="44.5254172" lon="10.7017277"><ele>304.2</ele><time>2026-03-22T13:56:37.258Z</time></trkpt><trkpt lat="44.5255044" lon="10.7018042"><ele>304.4</ele><time>2026-03-22T13:56:38.262Z</time></trkpt><trkpt lat="44.5255889" lon="10.7018786"><ele>304.6</ele><time>2026-03-22T13:56:39.255Z</time></trkpt><trkpt lat="44.5256694" lon="10.7019593"><ele>304.8</ele><time>2026-03-22T13:56:40.259Z</time></trkpt><trkpt lat="44.525743" lon="10.7020516"><ele>305.0</ele><time>2026-03-22T13:56:41.253Z</time></trkpt><trkpt lat="44.5258145" lon="10.7021492"><ele>304.4</ele><time>2026-03-22T13:56:42.258Z</time></trkpt><trkpt lat="44.5258846" lon="10.7022585"><ele>303.8</ele><time>2026-03-22T13:56:43.252Z</time></trkpt><trkpt lat="44.5259539" lon="10.7023786"><ele>303.2</ele><time>2026-03-22T13:56:44.255Z</time></trkpt><trkpt lat="44.526023" lon="10.7025004"><ele>302.6</ele><time>2026-03-22T13:56:45.251Z</time></trkpt><trkpt lat="44.5260885" lon="10.7026107"><ele>302.0</ele><time>2026-03-22T13:56:46.257Z</time></trkpt><trkpt lat="44.5261512" lon="10.7027122"><ele>301.33333333333337</ele><time>2026-03-22T13:56:47.259Z</time></trkpt><trkpt lat="44.5262137" lon="10.7028045"><ele>300.6666666666667</ele><time>2026-03-22T13:56:48.273Z</time></trkpt><trkpt lat="44.5262741" lon="10.7028937"><ele>300.0</ele><time>2026-03-22T13:56:49.255Z</time></trkpt><trkpt lat="44.5263329" lon="10.7029802"><ele>299.3333333333333</ele><time>2026-03-22T13:56:50.264Z</time></trkpt><trkpt lat="44.5263871" lon="10.7030613"><ele>298.66666666666663</ele><time>2026-03-22T13:56:51.261Z</time></trkpt><trkpt lat="44.5264308" lon="10.7031385"><ele>298.0</ele><time>2026-03-22T13:56:52.258Z</time></trkpt><trkpt lat="44.5264602" lon="10.7032701"><ele>299.66666666666663</ele><time>2026-03-22T13:56:54.258Z</time></trkpt><trkpt lat="44.5264176" lon="10.7033538"><ele>301.3333333333333</ele><time>2026-03-22T13:56:58.257Z</time></trkpt><trkpt lat="44.5263726" lon="10.703439"><ele>303.0</ele><time>2026-03-22T13:57:00.256Z</time></trkpt><trkpt lat="44.5263221" lon="10.7035984"><ele>304.6666666666667</ele><time>2026-03-22T13:57:02.261Z</time></trkpt><trkpt lat="44.5262932" lon="10.703687"><ele>306.33333333333337</ele><time>2026-03-22T13:57:03.272Z</time></trkpt><trkpt lat="44.5262668" lon="10.7037687"><ele>308.0</ele><time>2026-03-22T13:57:04.258Z</time></trkpt><trkpt lat="44.5262296" lon="10.7039102"><ele>305.8</ele><time>2026-03-22T13:57:06.257Z</time></trkpt><trkpt lat="44.5261923" lon="10.7040579"><ele>303.6</ele><time>2026-03-22T13:57:08.253Z</time></trkpt><trkpt lat="44.5261386" lon="10.7042104"><ele>301.4</ele><time>2026-03-22T13:57:10.252Z</time></trkpt><trkpt lat="44.5260744" lon="10.7043407"><ele>299.2</ele><time>2026-03-22T13:57:12.253Z</time></trkpt><trkpt lat="44.5260198" lon="10.704459"><ele>297.0</ele><time>2026-03-22T13:57:14.261Z</time></trkpt><trkpt lat="44.5259712" lon="10.7045674"><ele>297.0</ele><time>2026-03-22T13:57:16.276Z</time></trkpt><trkpt lat="44.5259338" lon="10.7046822"><ele>297.0</ele><time>2026-03-22T13:57:18.259Z</time></trkpt><trkpt lat="44.5259072" lon="10.7048237"><ele>297.0</ele><time>2026-03-22T13:57:20.252Z</time></trkpt><trkpt lat="44.5258864" lon="10.7049589"><ele>297.0</ele><time>2026-03-22T13:57:22.254Z</time></trkpt><trkpt lat="44.525888" lon="10.7050966"><ele>297.0</ele><time>2026-03-22T13:57:24.254Z</time></trkpt><trkpt lat="44.5259367" lon="10.7052529"><ele>296.1666666666667</ele><time>2026-03-22T13:57:26.253Z</time></trkpt><trkpt lat="44.5259796" lon="10.7053419"><ele>295.3333333333333</ele><time>2026-03-22T13:57:27.274Z</time></trkpt><trkpt lat="44.5260409" lon="10.7054185"><ele>294.5</ele><time>2026-03-22T13:57:28.258Z</time></trkpt><trkpt lat="44.526104" lon="10.7054845"><ele>293.66666666666663</ele><time>2026-03-22T13:57:29.254Z</time></trkpt><trkpt lat="44.5261607" lon="10.7055545"><ele>292.8333333333333</ele><time>2026-03-22T13:57:30.262Z</time></trkpt><trkpt lat="44.5262114" lon="10.7056308"><ele>292.0</ele><time>2026-03-22T13:57:31.252Z</time></trkpt><trkpt lat="44.5262612" lon="10.7057125"><ele>294.16666666666663</ele><time>2026-03-22T13:57:32.272Z</time></trkpt><trkpt lat="44.5263063" lon="10.7057883"><ele>296.3333333333333</ele><time>2026-03-22T13:57:33.251Z</time></trkpt><trkpt lat="44.5263339" lon="10.7058708"><ele>298.5</ele><time>2026-03-22T13:57:34.256Z</time></trkpt><trkpt lat="44.5263734" lon="10.7060271"><ele>300.6666666666667</ele><time>2026-03-22T13:57:36.257Z</time></trkpt><trkpt lat="44.5263869" lon="10.7061236"><ele>302.83333333333337</ele><time>2026-03-22T13:57:39.264Z</time></trkpt><trkpt lat="44.5264383" lon="10.706035"><ele>305.0</ele><time>2026-03-22T13:57:46.254Z</time></trkpt><trkpt lat="44.5264475" lon="10.7058879"><ele>305.0</ele><time>2026-03-22T13:57:48.255Z</time></trkpt><trkpt lat="44.5264658" lon="10.7057937"><ele>305.0</ele><time>2026-03-22T13:57:50.271Z</time></trkpt><trkpt lat="44.5265482" lon="10.7058976"><ele>305.0</ele><time>2026-03-22T13:57:53.255Z</time></trkpt><trkpt lat="44.5265758" lon="10.7060127"><ele>305.0</ele><time>2026-03-22T13:57:54.249Z</time></trkpt><trkpt lat="44.5265906" lon="10.7061579"><ele>305.0</ele><time>2026-03-22T13:57:55.266Z</time></trkpt><trkpt lat="44.5265913" lon="10.7063347"><ele>305.0</ele><time>2026-03-22T13:57:56.255Z</time></trkpt><trkpt lat="44.526577" lon="10.7065176"><ele>305.0</ele><time>2026-03-22T13:57:57.252Z</time></trkpt><trkpt lat="44.526555" lon="10.7067086"><ele>305.0</ele><time>2026-03-22T13:57:58.251Z</time></trkpt><trkpt lat="44.5265306" lon="10.7068907"><ele>305.0</ele><time>2026-03-22T13:57:59.253Z</time></trkpt><trkpt lat="44.5265094" lon="10.7070652"><ele>304.75</ele><time>2026-03-22T13:58:00.25Z</time></trkpt><trkpt lat="44.5265006" lon="10.7072235"><ele>304.5</ele><time>2026-03-22T13:58:01.255Z</time></trkpt><trkpt lat="44.5265124" lon="10.7073824"><ele>304.25</ele><time>2026-03-22T13:58:02.261Z</time></trkpt><trkpt lat="44.5265488" lon="10.7075483"><ele>304.0</ele><time>2026-03-22T13:58:03.255Z</time></trkpt><trkpt lat="44.5265928" lon="10.7077145"><ele>304.0</ele><time>2026-03-22T13:58:04.268Z</time></trkpt><trkpt lat="44.5266253" lon="10.7078819"><ele>304.0</ele><time>2026-03-22T13:58:05.256Z</time></trkpt><trkpt lat="44.5266393" lon="10.7080472"><ele>304.0</ele><time>2026-03-22T13:58:06.255Z</time></trkpt><trkpt lat="44.526651" lon="10.7082122"><ele>304.0</ele><time>2026-03-22T13:58:07.258Z</time></trkpt><trkpt lat="44.5266538" lon="10.7083828"><ele>304.0</ele><time>2026-03-22T13:58:08.263Z</time></trkpt><trkpt lat="44.5266664" lon="10.7085534"><ele>304.0</ele><time>2026-03-22T13:58:09.254Z</time></trkpt><trkpt lat="44.526696" lon="10.7087288"><ele>304.0</ele><time>2026-03-22T13:58:10.268Z</time></trkpt><trkpt lat="44.5267424" lon="10.7089022"><ele>304.0</ele><time>2026-03-22T13:58:11.255Z</time></trkpt><trkpt lat="44.5267935" lon="10.7090795"><ele>302.8</ele><time>2026-03-22T13:58:12.256Z</time></trkpt><trkpt lat="44.5268365" lon="10.7092478"><ele>301.59999999999997</ele><time>2026-03-22T13:58:13.255Z</time></trkpt><trkpt lat="44.5268671" lon="10.7094073"><ele>300.4</ele><time>2026-03-22T13:58:14.254Z</time></trkpt><trkpt lat="44.5268928" lon="10.7095506"><ele>299.2</ele><time>2026-03-22T13:58:15.256Z</time></trkpt><trkpt lat="44.5269198" lon="10.709681"><ele>298.0</ele><time>2026-03-22T13:58:16.251Z</time></trkpt><trkpt lat="44.5269477" lon="10.7098053"><ele>297.3333333333333</ele><time>2026-03-22T13:58:17.254Z</time></trkpt><trkpt lat="44.5269766" lon="10.7099266"><ele>296.66666666666663</ele><time>2026-03-22T13:58:18.257Z</time></trkpt><trkpt lat="44.5270049" lon="10.7100417"><ele>296.0</ele><time>2026-03-22T13:58:19.253Z</time></trkpt><trkpt lat="44.5270287" lon="10.7101432"><ele>295.3333333333333</ele><time>2026-03-22T13:58:20.254Z</time></trkpt><trkpt lat="44.527045" lon="10.7102344"><ele>294.6666666666667</ele><time>2026-03-22T13:58:21.256Z</time></trkpt><trkpt lat="44.5270614" lon="10.7103602"><ele>294.0</ele><time>2026-03-22T13:58:23.278Z</time></trkpt><trkpt lat="44.5271536" lon="10.7103628"><ele>297.0</ele><time>2026-03-22T13:58:26.259Z</time></trkpt><trkpt lat="44.5272501" lon="10.7102336"><ele>300.0</ele><time>2026-03-22T13:58:28.257Z</time></trkpt><trkpt lat="44.5273086" lon="10.7101444"><ele>303.0</ele><time>2026-03-22T13:58:29.258Z</time></trkpt><trkpt lat="44.5273743" lon="10.7100443"><ele>306.0</ele><time>2026-03-22T13:58:30.255Z</time></trkpt><trkpt lat="44.5274437" lon="10.7099377"><ele>309.0</ele><time>2026-03-22T13:58:31.257Z</time></trkpt><trkpt lat="44.5275162" lon="10.7098239"><ele>309.0</ele><time>2026-03-22T13:58:32.252Z</time></trkpt><trkpt lat="44.5275931" lon="10.7097093"><ele>309.0</ele><time>2026-03-22T13:58:33.254Z</time></trkpt><trkpt lat="44.527672" lon="10.709592"><ele>309.0</ele><time>2026-03-22T13:58:34.254Z</time></trkpt><trkpt lat="44.5277497" lon="10.7094739"><ele>309.0</ele><time>2026-03-22T13:58:35.255Z</time></trkpt><trkpt lat="44.5278245" lon="10.7093604"><ele>311.2</ele><time>2026-03-22T13:58:36.269Z</time></trkpt><trkpt lat="44.5278941" lon="10.7092571"><ele>313.4</ele><time>2026-03-22T13:58:37.258Z</time></trkpt><trkpt lat="44.5279618" lon="10.7091653"><ele>315.6</ele><time>2026-03-22T13:58:38.254Z</time></trkpt><trkpt lat="44.5280299" lon="10.7090805"><ele>317.8</ele><time>2026-03-22T13:58:39.251Z</time></trkpt><trkpt lat="44.5281011" lon="10.7089999"><ele>320.0</ele><time>2026-03-22T13:58:40.255Z</time></trkpt><trkpt lat="44.5281787" lon="10.7089205"><ele>320.0</ele><time>2026-03-22T13:58:41.255Z</time></trkpt><trkpt lat="44.5282616" lon="10.708837"><ele>320.0</ele><time>2026-03-22T13:58:42.271Z</time></trkpt><trkpt lat="44.528349" lon="10.7087481"><ele>320.0</ele><time>2026-03-22T13:58:43.258Z</time></trkpt><trkpt lat="44.5284421" lon="10.7086441"><ele>320.0</ele><time>2026-03-22T13:58:44.254Z</time></trkpt><trkpt lat="44.5285372" lon="10.708537"><ele>320.5</ele><time>2026-03-22T13:58:45.256Z</time></trkpt><trkpt lat="44.5286312" lon="10.7084338"><ele>321.0</ele><time>2026-03-22T13:58:46.252Z</time></trkpt><trkpt lat="44.5287197" lon="10.7083317"><ele>321.5</ele><time>2026-03-22T13:58:47.25Z</time></trkpt><trkpt lat="44.5288074" lon="10.7082317"><ele>322.0</ele><time>2026-03-22T13:58:48.254Z</time></trkpt><trkpt lat="44.5288877" lon="10.7081329"><ele>322.0</ele><time>2026-03-22T13:58:49.256Z</time></trkpt><trkpt lat="44.5289701" lon="10.7080285"><ele>322.0</ele><time>2026-03-22T13:58:50.257Z</time></trkpt><trkpt lat="44.5290571" lon="10.7079195"><ele>322.0</ele><time>2026-03-22T13:58:51.254Z</time></trkpt><trkpt lat="44.5291492" lon="10.7078184"><ele>322.0</ele><time>2026-03-22T13:58:52.268Z</time></trkpt><trkpt lat="44.5292421" lon="10.7077328"><ele>323.6</ele><time>2026-03-22T13:58:53.251Z</time></trkpt><trkpt lat="44.5293392" lon="10.7076619"><ele>325.20000000000005</ele><time>2026-03-22T13:58:54.262Z</time></trkpt><trkpt lat="44.5294339" lon="10.7076086"><ele>326.8</ele><time>2026-03-22T13:58:55.256Z</time></trkpt><trkpt lat="44.5295204" lon="10.7075733"><ele>328.4</ele><time>2026-03-22T13:58:56.261Z</time></trkpt><trkpt lat="44.5296064" lon="10.7075547"><ele>330.0</ele><time>2026-03-22T13:58:57.262Z</time></trkpt><trkpt lat="44.529695" lon="10.7075585"><ele>330.0</ele><time>2026-03-22T13:58:58.256Z</time></trkpt><trkpt lat="44.5297837" lon="10.7075809"><ele>330.0</ele><time>2026-03-22T13:58:59.27Z</time></trkpt><trkpt lat="44.5298663" lon="10.7076083"><ele>330.0</ele><time>2026-03-22T13:59:00.255Z</time></trkpt><trkpt lat="44.5299426" lon="10.7076325"><ele>330.0</ele><time>2026-03-22T13:59:01.252Z</time></trkpt><trkpt lat="44.5300097" lon="10.7076545"><ele>330.0</ele><time>2026-03-22T13:59:02.259Z</time></trkpt><trkpt lat="44.5300759" lon="10.7076775"><ele>330.0</ele><time>2026-03-22T13:59:03.256Z</time></trkpt><trkpt lat="44.5301721" lon="10.7077976"><ele>329.4</ele><time>2026-03-22T13:59:05.253Z</time></trkpt><trkpt lat="44.5302142" lon="10.7078963"><ele>328.8</ele><time>2026-03-22T13:59:06.251Z</time></trkpt><trkpt lat="44.5302585" lon="10.7080131"><ele>328.20000000000005</ele><time>2026-03-22T13:59:07.256Z</time></trkpt><trkpt lat="44.5302916" lon="10.7081433"><ele>327.6</ele><time>2026-03-22T13:59:08.252Z</time></trkpt><trkpt lat="44.5303336" lon="10.7082772"><ele>327.0</ele><time>2026-03-22T13:59:09.255Z</time></trkpt><trkpt lat="44.5303799" lon="10.7084057"><ele>327.0</ele><time>2026-03-22T13:59:10.251Z</time></trkpt><trkpt lat="44.5304271" lon="10.7085332"><ele>327.0</ele><time>2026-03-22T13:59:11.261Z</time></trkpt><trkpt lat="44.5304813" lon="10.7086581"><ele>327.0</ele><time>2026-03-22T13:59:12.25Z</time></trkpt><trkpt lat="44.5305355" lon="10.7087855"><ele>327.0</ele><time>2026-03-22T13:59:13.253Z</time></trkpt><trkpt lat="44.5305882" lon="10.7089146"><ele>327.0</ele><time>2026-03-22T13:59:14.261Z</time></trkpt><trkpt lat="44.5306372" lon="10.7090454"><ele>328.0</ele><time>2026-03-22T13:59:15.249Z</time></trkpt><trkpt lat="44.530682" lon="10.7091811"><ele>329.0</ele><time>2026-03-22T13:59:16.274Z</time></trkpt><trkpt lat="44.5307291" lon="10.709309"><ele>330.0</ele><time>2026-03-22T13:59:17.257Z</time></trkpt><trkpt lat="44.5307784" lon="10.7094385"><ele>331.0</ele><time>2026-03-22T13:59:18.251Z</time></trkpt><trkpt lat="44.5308296" lon="10.7095686"><ele>332.0</ele><time>2026-03-22T13:59:19.254Z</time></trkpt><trkpt lat="44.5308788" lon="10.7097032"><ele>332.6</ele><time>2026-03-22T13:59:20.262Z</time></trkpt><trkpt lat="44.5309234" lon="10.7098448"><ele>333.20000000000005</ele><time>2026-03-22T13:59:21.252Z</time></trkpt><trkpt lat="44.5309562" lon="10.7099926"><ele>333.8</ele><time>2026-03-22T13:59:22.252Z</time></trkpt><trkpt lat="44.5309808" lon="10.7101407"><ele>334.4</ele><time>2026-03-22T13:59:23.261Z</time></trkpt><trkpt lat="44.5310039" lon="10.7102863"><ele>335.0</ele><time>2026-03-22T13:59:24.258Z</time></trkpt><trkpt lat="44.5310281" lon="10.7104271"><ele>336.0</ele><time>2026-03-22T13:59:25.251Z</time></trkpt><trkpt lat="44.5310546" lon="10.7105502"><ele>337.0</ele><time>2026-03-22T13:59:26.26Z</time></trkpt><trkpt lat="44.5310816" lon="10.7106423"><ele>338.0</ele><time>2026-03-22T13:59:27.251Z</time></trkpt><trkpt lat="44.5311439" lon="10.7107578"><ele>339.0</ele><time>2026-03-22T13:59:29.254Z</time></trkpt><trkpt lat="44.5312229" lon="10.7108739"><ele>340.0</ele><time>2026-03-22T13:59:31.254Z</time></trkpt><trkpt lat="44.5312975" lon="10.710987"><ele>340.0</ele><time>2026-03-22T13:59:33.256Z</time></trkpt><trkpt lat="44.5313615" lon="10.7110625"><ele>340.0</ele><time>2026-03-22T13:59:35.257Z</time></trkpt><trkpt lat="44.5314417" lon="10.7111357"><ele>340.0</ele><time>2026-03-22T13:59:37.255Z</time></trkpt><trkpt lat="44.5315641" lon="10.7112116"><ele>340.0</ele><time>2026-03-22T13:59:39.252Z</time></trkpt><trkpt lat="44.5316253" lon="10.7112565"><ele>340.0</ele><time>2026-03-22T13:59:40.251Z</time></trkpt><trkpt lat="44.5316822" lon="10.7113209"><ele>340.4</ele><time>2026-03-22T13:59:41.253Z</time></trkpt><trkpt lat="44.5317386" lon="10.7114038"><ele>340.8</ele><time>2026-03-22T13:59:42.248Z</time></trkpt><trkpt lat="44.5317977" lon="10.7114907"><ele>341.20000000000005</ele><time>2026-03-22T13:59:43.254Z</time></trkpt><trkpt lat="44.5318477" lon="10.7115991"><ele>341.6</ele><time>2026-03-22T13:59:44.257Z</time></trkpt><trkpt lat="44.5318993" lon="10.7117373"><ele>342.0</ele><time>2026-03-22T13:59:45.272Z</time></trkpt><trkpt lat="44.5319455" lon="10.7118859"><ele>339.75</ele><time>2026-03-22T13:59:46.252Z</time></trkpt><trkpt lat="44.5319758" lon="10.7120434"><ele>337.5</ele><time>2026-03-22T13:59:47.251Z</time></trkpt><trkpt lat="44.5319874" lon="10.7122031"><ele>335.25</ele><time>2026-03-22T13:59:48.251Z</time></trkpt><trkpt lat="44.5319968" lon="10.7123565"><ele>333.0</ele><time>2026-03-22T13:59:49.261Z</time></trkpt><trkpt lat="44.5319772" lon="10.7125126"><ele>333.0</ele><time>2026-03-22T13:59:50.252Z</time></trkpt><trkpt lat="44.5319505" lon="10.7126629"><ele>333.0</ele><time>2026-03-22T13:59:51.259Z</time></trkpt><trkpt lat="44.5319162" lon="10.7128165"><ele>333.0</ele><time>2026-03-22T13:59:52.257Z</time></trkpt><trkpt lat="44.5318792" lon="10.7129736"><ele>333.0</ele><time>2026-03-22T13:59:53.258Z</time></trkpt><trkpt lat="44.5318319" lon="10.7131197"><ele>333.25</ele><time>2026-03-22T13:59:54.257Z</time></trkpt><trkpt lat="44.5317903" lon="10.7132672"><ele>333.5</ele><time>2026-03-22T13:59:55.254Z</time></trkpt><trkpt lat="44.531751" lon="10.7134261"><ele>333.75</ele><time>2026-03-22T13:59:56.276Z</time></trkpt><trkpt lat="44.5317199" lon="10.7135834"><ele>334.0</ele><time>2026-03-22T13:59:57.252Z</time></trkpt><trkpt lat="44.5316829" lon="10.7137559"><ele>332.75</ele><time>2026-03-22T13:59:58.259Z</time></trkpt><trkpt lat="44.5316441" lon="10.7139401"><ele>331.5</ele><time>2026-03-22T13:59:59.256Z</time></trkpt><trkpt lat="44.5315981" lon="10.7141297"><ele>330.25</ele><time>2026-03-22T14:00:00.25Z</time></trkpt><trkpt lat="44.5315457" lon="10.7143128"><ele>329.0</ele><time>2026-03-22T14:00:01.254Z</time></trkpt><trkpt lat="44.531489" lon="10.7144811"><ele>328.0</ele><time>2026-03-22T14:00:02.253Z</time></trkpt><trkpt lat="44.5314343" lon="10.714643"><ele>327.0</ele><time>2026-03-22T14:00:03.259Z</time></trkpt><trkpt lat="44.5313838" lon="10.7148083"><ele>326.0</ele><time>2026-03-22T14:00:04.253Z</time></trkpt><trkpt lat="44.5313424" lon="10.7149725"><ele>325.0</ele><time>2026-03-22T14:00:05.273Z</time></trkpt><trkpt lat="44.5313182" lon="10.7151323"><ele>323.8</ele><time>2026-03-22T14:00:06.253Z</time></trkpt><trkpt lat="44.5312989" lon="10.7152925"><ele>322.6</ele><time>2026-03-22T14:00:07.257Z</time></trkpt><trkpt lat="44.5312918" lon="10.7154507"><ele>321.4</ele><time>2026-03-22T14:00:08.257Z</time></trkpt><trkpt lat="44.5312834" lon="10.7155852"><ele>320.2</ele><time>2026-03-22T14:00:09.255Z</time></trkpt><trkpt lat="44.531277" lon="10.7156988"><ele>319.0</ele><time>2026-03-22T14:00:10.255Z</time></trkpt><trkpt lat="44.531264" lon="10.7158045"><ele>319.0</ele><time>2026-03-22T14:00:11.259Z</time></trkpt><trkpt lat="44.5312607" lon="10.7159181"><ele>319.0</ele><time>2026-03-22T14:00:12.255Z</time></trkpt><trkpt lat="44.5312586" lon="10.7160438"><ele>319.0</ele><time>2026-03-22T14:00:13.255Z</time></trkpt><trkpt lat="44.5312677" lon="10.7161939"><ele>319.0</ele><time>2026-03-22T14:00:14.251Z</time></trkpt><trkpt lat="44.5312789" lon="10.7163528"><ele>319.0</ele><time>2026-03-22T14:00:15.258Z</time></trkpt><trkpt lat="44.5312953" lon="10.7165204"><ele>319.4</ele><time>2026-03-22T14:00:16.254Z</time></trkpt><trkpt lat="44.5313114" lon="10.7166789"><ele>319.79999999999995</ele><time>2026-03-22T14:00:17.254Z</time></trkpt><trkpt lat="44.5313269" lon="10.7168289"><ele>320.20000000000005</ele><time>2026-03-22T14:00:18.255Z</time></trkpt><trkpt lat="44.5313404" lon="10.7169807"><ele>320.6</ele><time>2026-03-22T14:00:19.259Z</time></trkpt><trkpt lat="44.5313577" lon="10.7171343"><ele>321.0</ele><time>2026-03-22T14:00:20.255Z</time></trkpt><trkpt lat="44.5313744" lon="10.7172966"><ele>321.6</ele><time>2026-03-22T14:00:21.263Z</time></trkpt><trkpt lat="44.5313947" lon="10.7174456"><ele>322.20000000000005</ele><time>2026-03-22T14:00:22.253Z</time></trkpt><trkpt lat="44.5314223" lon="10.7175832"><ele>322.79999999999995</ele><time>2026-03-22T14:00:23.259Z</time></trkpt><trkpt lat="44.5314604" lon="10.7177115"><ele>323.4</ele><time>2026-03-22T14:00:24.255Z</time></trkpt><trkpt lat="44.531512" lon="10.7178389"><ele>324.0</ele><time>2026-03-22T14:00:25.259Z</time></trkpt><trkpt lat="44.5315759" lon="10.7179641"><ele>325.6</ele><time>2026-03-22T14:00:26.254Z</time></trkpt><trkpt lat="44.5316446" lon="10.7180877"><ele>327.2</ele><time>2026-03-22T14:00:27.256Z</time></trkpt><trkpt lat="44.5317111" lon="10.7182071"><ele>328.8</ele><time>2026-03-22T14:00:28.257Z</time></trkpt><trkpt lat="44.5317749" lon="10.7183232"><ele>330.40000000000003</ele><time>2026-03-22T14:00:29.251Z</time></trkpt><trkpt lat="44.5318355" lon="10.7184429"><ele>332.0</ele><time>2026-03-22T14:00:30.257Z</time></trkpt><trkpt lat="44.5318894" lon="10.7185669"><ele>331.20000000000005</ele><time>2026-03-22T14:00:31.255Z</time></trkpt><trkpt lat="44.5319308" lon="10.718694"><ele>330.4</ele><time>2026-03-22T14:00:32.252Z</time></trkpt><trkpt lat="44.5319695" lon="10.7188158"><ele>329.6</ele><time>2026-03-22T14:00:33.273Z</time></trkpt><trkpt lat="44.5319972" lon="10.7189348"><ele>328.79999999999995</ele><time>2026-03-22T14:00:34.254Z</time></trkpt><trkpt lat="44.5320274" lon="10.7190631"><ele>328.0</ele><time>2026-03-22T14:00:35.255Z</time></trkpt><trkpt lat="44.5320611" lon="10.7191978"><ele>329.79999999999995</ele><time>2026-03-22T14:00:36.26Z</time></trkpt><trkpt lat="44.5321024" lon="10.7193335"><ele>331.6</ele><time>2026-03-22T14:00:37.247Z</time></trkpt><trkpt lat="44.532149" lon="10.7194522"><ele>333.4</ele><time>2026-03-22T14:00:38.268Z</time></trkpt><trkpt lat="44.5322013" lon="10.7195618"><ele>335.20000000000005</ele><time>2026-03-22T14:00:39.254Z</time></trkpt><trkpt lat="44.5322537" lon="10.7196692"><ele>337.0</ele><time>2026-03-22T14:00:40.254Z</time></trkpt><trkpt lat="44.5323045" lon="10.7197799"><ele>337.0</ele><time>2026-03-22T14:00:41.25Z</time></trkpt><trkpt lat="44.53235" lon="10.7198925"><ele>337.0</ele><time>2026-03-22T14:00:42.257Z</time></trkpt><trkpt lat="44.5323933" lon="10.720005"><ele>337.0</ele><time>2026-03-22T14:00:43.255Z</time></trkpt><trkpt lat="44.5324376" lon="10.720123"><ele>337.0</ele><time>2026-03-22T14:00:44.256Z</time></trkpt><trkpt lat="44.5324878" lon="10.7202493"><ele>337.0</ele><time>2026-03-22T14:00:45.272Z</time></trkpt><trkpt lat="44.532542" lon="10.7203796"><ele>335.6</ele><time>2026-03-22T14:00:46.252Z</time></trkpt><trkpt lat="44.5325961" lon="10.7205044"><ele>334.20000000000005</ele><time>2026-03-22T14:00:47.254Z</time></trkpt><trkpt lat="44.5326556" lon="10.7206273"><ele>332.8</ele><time>2026-03-22T14:00:48.252Z</time></trkpt><trkpt lat="44.5327217" lon="10.7207433"><ele>331.4</ele><time>2026-03-22T14:00:49.263Z</time></trkpt><trkpt lat="44.5327966" lon="10.7208468"><ele>330.0</ele><time>2026-03-22T14:00:50.255Z</time></trkpt><trkpt lat="44.5328685" lon="10.720944"><ele>330.3333333333333</ele><time>2026-03-22T14:00:51.258Z</time></trkpt><trkpt lat="44.5329379" lon="10.7210184"><ele>330.6666666666667</ele><time>2026-03-22T14:00:52.252Z</time></trkpt><trkpt lat="44.5329987" lon="10.7210863"><ele>331.0</ele><time>2026-03-22T14:00:53.255Z</time></trkpt><trkpt lat="44.5330562" lon="10.7211462"><ele>331.33333333333337</ele><time>2026-03-22T14:00:54.257Z</time></trkpt><trkpt lat="44.5331194" lon="10.7212012"><ele>331.6666666666667</ele><time>2026-03-22T14:00:55.255Z</time></trkpt><trkpt lat="44.5331858" lon="10.7212434"><ele>332.0</ele><time>2026-03-22T14:00:56.251Z</time></trkpt><trkpt lat="44.5332551" lon="10.7212851"><ele>332.0</ele><time>2026-03-22T14:00:57.27Z</time></trkpt><trkpt lat="44.5333375" lon="10.7213279"><ele>332.0</ele><time>2026-03-22T14:00:58.248Z</time></trkpt><trkpt lat="44.5334191" lon="10.7213743"><ele>332.0</ele><time>2026-03-22T14:00:59.258Z</time></trkpt><trkpt lat="44.533503" lon="10.7214305"><ele>332.0</ele><time>2026-03-22T14:01:00.258Z</time></trkpt><trkpt lat="44.5335862" lon="10.721506"><ele>332.0</ele><time>2026-03-22T14:01:01.25Z</time></trkpt><trkpt lat="44.5336715" lon="10.7215838"><ele>329.0</ele><time>2026-03-22T14:01:02.259Z</time></trkpt><trkpt lat="44.5337596" lon="10.7216609"><ele>326.0</ele><time>2026-03-22T14:01:03.256Z</time></trkpt><trkpt lat="44.5338492" lon="10.7217362"><ele>323.0</ele><time>2026-03-22T14:01:04.281Z</time></trkpt><trkpt lat="44.5339266" lon="10.7218331"><ele>320.0</ele><time>2026-03-22T14:01:05.255Z</time></trkpt><trkpt lat="44.533996" lon="10.7219434"><ele>317.0</ele><time>2026-03-22T14:01:06.252Z</time></trkpt><trkpt lat="44.5340614" lon="10.7220531"><ele>317.0</ele><time>2026-03-22T14:01:07.257Z</time></trkpt><trkpt lat="44.5341258" lon="10.7221517"><ele>317.0</ele><time>2026-03-22T14:01:08.252Z</time></trkpt><trkpt lat="44.5341923" lon="10.722227"><ele>317.0</ele><time>2026-03-22T14:01:09.254Z</time></trkpt><trkpt lat="44.534257" lon="10.7222791"><ele>317.0</ele><time>2026-03-22T14:01:10.254Z</time></trkpt><trkpt lat="44.5343246" lon="10.7223031"><ele>317.0</ele><time>2026-03-22T14:01:11.253Z</time></trkpt><trkpt lat="44.534393" lon="10.722295"><ele>317.0</ele><time>2026-03-22T14:01:12.25Z</time></trkpt><trkpt lat="44.5344659" lon="10.722254"><ele>317.0</ele><time>2026-03-22T14:01:13.251Z</time></trkpt><trkpt lat="44.5345429" lon="10.7221834"><ele>317.0</ele><time>2026-03-22T14:01:14.251Z</time></trkpt><trkpt lat="44.5346204" lon="10.7220947"><ele>317.0</ele><time>2026-03-22T14:01:15.259Z</time></trkpt><trkpt lat="44.5347006" lon="10.7220135"><ele>317.0</ele><time>2026-03-22T14:01:16.254Z</time></trkpt><trkpt lat="44.5347839" lon="10.7219548"><ele>317.0</ele><time>2026-03-22T14:01:17.261Z</time></trkpt><trkpt lat="44.5348633" lon="10.7219027"><ele>316.0</ele><time>2026-03-22T14:01:18.259Z</time></trkpt><trkpt lat="44.534951" lon="10.7219109"><ele>315.0</ele><time>2026-03-22T14:01:19.255Z</time></trkpt><trkpt lat="44.5350353" lon="10.7219482"><ele>314.0</ele><time>2026-03-22T14:01:20.256Z</time></trkpt><trkpt lat="44.5351235" lon="10.7220125"><ele>313.0</ele><time>2026-03-22T14:01:21.251Z</time></trkpt><trkpt lat="44.5352097" lon="10.7221059"><ele>312.0</ele><time>2026-03-22T14:01:22.26Z</time></trkpt><trkpt lat="44.5352974" lon="10.722218"><ele>312.0</ele><time>2026-03-22T14:01:23.251Z</time></trkpt><trkpt lat="44.5353829" lon="10.7223369"><ele>312.0</ele><time>2026-03-22T14:01:24.261Z</time></trkpt><trkpt lat="44.5354691" lon="10.7224596"><ele>312.0</ele><time>2026-03-22T14:01:25.253Z</time></trkpt><trkpt lat="44.5355444" lon="10.7225721"><ele>312.0</ele><time>2026-03-22T14:01:26.258Z</time></trkpt><trkpt lat="44.5356154" lon="10.7226928"><ele>311.6</ele><time>2026-03-22T14:01:27.255Z</time></trkpt><trkpt lat="44.5356789" lon="10.7228152"><ele>311.2</ele><time>2026-03-22T14:01:28.258Z</time></trkpt><trkpt lat="44.535736" lon="10.722939"><ele>310.8</ele><time>2026-03-22T14:01:29.261Z</time></trkpt><trkpt lat="44.5357941" lon="10.7230709"><ele>310.4</ele><time>2026-03-22T14:01:30.258Z</time></trkpt><trkpt lat="44.5358508" lon="10.7232085"><ele>310.0</ele><time>2026-03-22T14:01:31.25Z</time></trkpt><trkpt lat="44.5359052" lon="10.7233524"><ele>310.0</ele><time>2026-03-22T14:01:32.255Z</time></trkpt><trkpt lat="44.5359549" lon="10.7235013"><ele>310.0</ele><time>2026-03-22T14:01:33.253Z</time></trkpt><trkpt lat="44.536004" lon="10.7236566"><ele>310.0</ele><time>2026-03-22T14:01:34.252Z</time></trkpt><trkpt lat="44.5360513" lon="10.7238125"><ele>310.0</ele><time>2026-03-22T14:01:35.254Z</time></trkpt><trkpt lat="44.5360962" lon="10.7239703"><ele>307.5</ele><time>2026-03-22T14:01:36.252Z</time></trkpt><trkpt lat="44.5361409" lon="10.7241284"><ele>305.0</ele><time>2026-03-22T14:01:37.27Z</time></trkpt><trkpt lat="44.5361847" lon="10.7242889"><ele>302.5</ele><time>2026-03-22T14:01:38.254Z</time></trkpt><trkpt lat="44.5362255" lon="10.7244448"><ele>300.0</ele><time>2026-03-22T14:01:39.25Z</time></trkpt><trkpt lat="44.5362645" lon="10.7245939"><ele>297.0</ele><time>2026-03-22T14:01:40.255Z</time></trkpt><trkpt lat="44.5363027" lon="10.7247381"><ele>294.0</ele><time>2026-03-22T14:01:41.248Z</time></trkpt><trkpt lat="44.5363394" lon="10.7248769"><ele>291.0</ele><time>2026-03-22T14:01:42.278Z</time></trkpt><trkpt lat="44.5363686" lon="10.7250132"><ele>288.0</ele><time>2026-03-22T14:01:43.25Z</time></trkpt><trkpt lat="44.5363893" lon="10.7251479"><ele>285.0</ele><time>2026-03-22T14:01:44.255Z</time></trkpt><trkpt lat="44.5364013" lon="10.7252828"><ele>284.2</ele><time>2026-03-22T14:01:45.259Z</time></trkpt><trkpt lat="44.5364095" lon="10.7254201"><ele>283.4</ele><time>2026-03-22T14:01:46.251Z</time></trkpt><trkpt lat="44.5364136" lon="10.7255596"><ele>282.6</ele><time>2026-03-22T14:01:47.273Z</time></trkpt><trkpt lat="44.5364091" lon="10.7257031"><ele>281.8</ele><time>2026-03-22T14:01:48.253Z</time></trkpt><trkpt lat="44.53639" lon="10.7258505"><ele>281.0</ele><time>2026-03-22T14:01:49.249Z</time></trkpt><trkpt lat="44.5363595" lon="10.7260034"><ele>282.0</ele><time>2026-03-22T14:01:50.258Z</time></trkpt><trkpt lat="44.5363275" lon="10.7261496"><ele>283.0</ele><time>2026-03-22T14:01:51.249Z</time></trkpt><trkpt lat="44.5362987" lon="10.726286"><ele>284.0</ele><time>2026-03-22T14:01:52.265Z</time></trkpt><trkpt lat="44.5362749" lon="10.7264142"><ele>285.0</ele><time>2026-03-22T14:01:53.251Z</time></trkpt><trkpt lat="44.5362555" lon="10.7265374"><ele>286.0</ele><time>2026-03-22T14:01:54.253Z</time></trkpt><trkpt lat="44.5362343" lon="10.7266635"><ele>285.40000000000003</ele><time>2026-03-22T14:01:55.249Z</time></trkpt><trkpt lat="44.5362123" lon="10.7267885"><ele>284.8</ele><time>2026-03-22T14:01:56.259Z</time></trkpt><trkpt lat="44.5361738" lon="10.7269103"><ele>284.20000000000005</ele><time>2026-03-22T14:01:57.254Z</time></trkpt><trkpt lat="44.5361336" lon="10.7270315"><ele>283.6</ele><time>2026-03-22T14:01:58.251Z</time></trkpt><trkpt lat="44.5360768" lon="10.7271442"><ele>283.0</ele><time>2026-03-22T14:01:59.254Z</time></trkpt><trkpt lat="44.5360193" lon="10.7272554"><ele>283.0</ele><time>2026-03-22T14:02:00.256Z</time></trkpt><trkpt lat="44.5359631" lon="10.7273674"><ele>283.0</ele><time>2026-03-22T14:02:01.266Z</time></trkpt><trkpt lat="44.535909" lon="10.7274754"><ele>283.0</ele><time>2026-03-22T14:02:02.261Z</time></trkpt><trkpt lat="44.5358526" lon="10.7275776"><ele>283.0</ele><time>2026-03-22T14:02:03.251Z</time></trkpt><trkpt lat="44.5357954" lon="10.7276706"><ele>283.0</ele><time>2026-03-22T14:02:04.253Z</time></trkpt><trkpt lat="44.5357429" lon="10.7277537"><ele>282.0</ele><time>2026-03-22T14:02:05.256Z</time></trkpt><trkpt lat="44.5356968" lon="10.7278226"><ele>281.0</ele><time>2026-03-22T14:02:06.252Z</time></trkpt><trkpt lat="44.5356587" lon="10.7279622"><ele>280.0</ele><time>2026-03-22T14:02:08.248Z</time></trkpt><trkpt lat="44.5356871" lon="10.7281343"><ele>279.0</ele><time>2026-03-22T14:02:10.253Z</time></trkpt><trkpt lat="44.5357167" lon="10.7282219"><ele>278.0</ele><time>2026-03-22T14:02:11.256Z</time></trkpt><trkpt lat="44.5357478" lon="10.7282997"><ele>277.0</ele><time>2026-03-22T14:02:12.253Z</time></trkpt><trkpt lat="44.53579" lon="10.7284599"><ele>273.6</ele><time>2026-03-22T14:02:14.266Z</time></trkpt><trkpt lat="44.5358379" lon="10.728614"><ele>270.2</ele><time>2026-03-22T14:02:16.257Z</time></trkpt><trkpt lat="44.5359358" lon="10.7287358"><ele>266.8</ele><time>2026-03-22T14:02:18.257Z</time></trkpt><trkpt lat="44.5359998" lon="10.7288004"><ele>263.4</ele><time>2026-03-22T14:02:19.255Z</time></trkpt><trkpt lat="44.5360649" lon="10.7288642"><ele>260.0</ele><time>2026-03-22T14:02:20.255Z</time></trkpt><trkpt lat="44.5361292" lon="10.7289275"><ele>260.00000000000006</ele><time>2026-03-22T14:02:21.257Z</time></trkpt><trkpt lat="44.5361872" lon="10.7289982"><ele>260.0</ele><time>2026-03-22T14:02:22.255Z</time></trkpt><trkpt lat="44.5362456" lon="10.7290687"><ele>260.0</ele><time>2026-03-22T14:02:23.257Z</time></trkpt><trkpt lat="44.5362984" lon="10.7291314"><ele>260.0</ele><time>2026-03-22T14:02:24.253Z</time></trkpt><trkpt lat="44.5363478" lon="10.7291898"><ele>260.0</ele><time>2026-03-22T14:02:25.256Z</time></trkpt><trkpt lat="44.5364064" lon="10.7292257"><ele>260.00000000000006</ele><time>2026-03-22T14:02:26.254Z</time></trkpt><trkpt lat="44.5364784" lon="10.7292492"><ele>260.0</ele><time>2026-03-22T14:02:27.255Z</time></trkpt><trkpt lat="44.536562" lon="10.7292628"><ele>263.4</ele><time>2026-03-22T14:02:28.256Z</time></trkpt><trkpt lat="44.5366561" lon="10.7292639"><ele>266.8</ele><time>2026-03-22T14:02:29.251Z</time></trkpt><trkpt lat="44.536752" lon="10.7292553"><ele>270.2</ele><time>2026-03-22T14:02:30.282Z</time></trkpt><trkpt lat="44.536851" lon="10.7292453"><ele>273.6</ele><time>2026-03-22T14:02:31.253Z</time></trkpt><trkpt lat="44.5369552" lon="10.7292366"><ele>277.0</ele><time>2026-03-22T14:02:32.258Z</time></trkpt><trkpt lat="44.5370589" lon="10.7292316"><ele>277.0</ele><time>2026-03-22T14:02:33.255Z</time></trkpt><trkpt lat="44.5371652" lon="10.7292292"><ele>277.0</ele><time>2026-03-22T14:02:34.253Z</time></trkpt><trkpt lat="44.5372736" lon="10.7292293"><ele>277.0</ele><time>2026-03-22T14:02:35.261Z</time></trkpt><trkpt lat="44.537378" lon="10.7292282"><ele>277.0</ele><time>2026-03-22T14:02:36.251Z</time></trkpt><trkpt lat="44.5374791" lon="10.7292257"><ele>277.0</ele><time>2026-03-22T14:02:37.266Z</time></trkpt><trkpt lat="44.5375786" lon="10.729226"><ele>277.0</ele><time>2026-03-22T14:02:38.254Z</time></trkpt><trkpt lat="44.5376785" lon="10.7292406"><ele>277.0</ele><time>2026-03-22T14:02:39.253Z</time></trkpt><trkpt lat="44.5377779" lon="10.7292646"><ele>277.0</ele><time>2026-03-22T14:02:40.254Z</time></trkpt><trkpt lat="44.5378701" lon="10.7292862"><ele>277.0</ele><time>2026-03-22T14:02:41.253Z</time></trkpt><trkpt lat="44.5379575" lon="10.7293037"><ele>277.0</ele><time>2026-03-22T14:02:42.276Z</time></trkpt><trkpt lat="44.5380434" lon="10.729317"><ele>277.2</ele><time>2026-03-22T14:02:43.247Z</time></trkpt><trkpt lat="44.5381283" lon="10.7293296"><ele>277.4</ele><time>2026-03-22T14:02:44.259Z</time></trkpt><trkpt lat="44.5382081" lon="10.7293393"><ele>277.6</ele><time>2026-03-22T14:02:45.257Z</time></trkpt><trkpt lat="44.5382786" lon="10.7293472"><ele>277.8</ele><time>2026-03-22T14:02:46.251Z</time></trkpt><trkpt lat="44.5383944" lon="10.7293575"><ele>278.0</ele><time>2026-03-22T14:02:48.258Z</time></trkpt><trkpt lat="44.5384961" lon="10.7293604"><ele>278.0</ele><time>2026-03-22T14:02:50.254Z</time></trkpt><trkpt lat="44.5385856" lon="10.7293564"><ele>278.0</ele><time>2026-03-22T14:02:52.252Z</time></trkpt><trkpt lat="44.5386558" lon="10.7294089"><ele>278.0</ele><time>2026-03-22T14:02:55.258Z</time></trkpt><trkpt lat="44.538627" lon="10.7295536"><ele>278.0</ele><time>2026-03-22T14:02:58.254Z</time></trkpt><trkpt lat="44.5386077" lon="10.7296915"><ele>278.0</ele><time>2026-03-22T14:03:00.263Z</time></trkpt><trkpt lat="44.5385917" lon="10.7298309"><ele>277.2</ele><time>2026-03-22T14:03:02.255Z</time></trkpt><trkpt lat="44.538577" lon="10.7299896"><ele>276.4</ele><time>2026-03-22T14:03:04.258Z</time></trkpt><trkpt lat="44.5385669" lon="10.7301431"><ele>275.59999999999997</ele><time>2026-03-22T14:03:06.268Z</time></trkpt><trkpt lat="44.5385681" lon="10.7302964"><ele>274.8</ele><time>2026-03-22T14:03:08.255Z</time></trkpt><trkpt lat="44.5385936" lon="10.7304331"><ele>274.0</ele><time>2026-03-22T14:03:10.254Z</time></trkpt><trkpt lat="44.5386371" lon="10.7305691"><ele>273.0</ele><time>2026-03-22T14:03:12.255Z</time></trkpt><trkpt lat="44.5386954" lon="10.730707"><ele>272.0</ele><time>2026-03-22T14:03:14.297Z</time></trkpt><trkpt lat="44.5387572" lon="10.7308499"><ele>271.0</ele><time>2026-03-22T14:03:16.276Z</time></trkpt><trkpt lat="44.5388093" lon="10.7310112"><ele>270.0</ele><time>2026-03-22T14:03:18.261Z</time></trkpt><trkpt lat="44.5388273" lon="10.7311043"><ele>269.0</ele><time>2026-03-22T14:03:19.253Z</time></trkpt><trkpt lat="44.5388446" lon="10.7311993"><ele>267.4</ele><time>2026-03-22T14:03:20.252Z</time></trkpt><trkpt lat="44.5388654" lon="10.7312878"><ele>265.79999999999995</ele><time>2026-03-22T14:03:21.258Z</time></trkpt><trkpt lat="44.538889" lon="10.7313719"><ele>264.20000000000005</ele><time>2026-03-22T14:03:22.259Z</time></trkpt><trkpt lat="44.5389486" lon="10.7315253"><ele>262.6</ele><time>2026-03-22T14:03:24.264Z</time></trkpt><trkpt lat="44.5390454" lon="10.7316394"><ele>261.0</ele><time>2026-03-22T14:03:26.252Z</time></trkpt><trkpt lat="44.5391077" lon="10.7316946"><ele>261.0</ele><time>2026-03-22T14:03:27.256Z</time></trkpt><trkpt lat="44.5391742" lon="10.7317531"><ele>261.0</ele><time>2026-03-22T14:03:28.255Z</time></trkpt><trkpt lat="44.5392383" lon="10.7318211"><ele>261.0</ele><time>2026-03-22T14:03:29.27Z</time></trkpt><trkpt lat="44.539297" lon="10.7318991"><ele>261.0</ele><time>2026-03-22T14:03:30.255Z</time></trkpt><trkpt lat="44.5393547" lon="10.7319821"><ele>261.0</ele><time>2026-03-22T14:03:31.252Z</time></trkpt><trkpt lat="44.5394146" lon="10.7320667"><ele>261.0</ele><time>2026-03-22T14:03:32.264Z</time></trkpt><trkpt lat="44.5394731" lon="10.7321485"><ele>259.6666666666667</ele><time>2026-03-22T14:03:33.254Z</time></trkpt><trkpt lat="44.539523" lon="10.7322249"><ele>258.3333333333333</ele><time>2026-03-22T14:03:34.272Z</time></trkpt><trkpt lat="44.5395704" lon="10.732296"><ele>257.0</ele><time>2026-03-22T14:03:35.254Z</time></trkpt><trkpt lat="44.5396148" lon="10.7323618"><ele>255.66666666666666</ele><time>2026-03-22T14:03:36.252Z</time></trkpt><trkpt lat="44.539661" lon="10.7324237"><ele>254.33333333333331</ele><time>2026-03-22T14:03:37.255Z</time></trkpt><trkpt lat="44.5397541" lon="10.7325398"><ele>253.0</ele><time>2026-03-22T14:03:39.257Z</time></trkpt><trkpt lat="44.5398052" lon="10.7325971"><ele>252.16666666666666</ele><time>2026-03-22T14:03:40.253Z</time></trkpt><trkpt lat="44.5398549" lon="10.7326594"><ele>251.33333333333331</ele><time>2026-03-22T14:03:41.252Z</time></trkpt><trkpt lat="44.5399008" lon="10.7327263"><ele>250.5</ele><time>2026-03-22T14:03:42.255Z</time></trkpt><trkpt lat="44.5399826" lon="10.7328424"><ele>249.66666666666669</ele><time>2026-03-22T14:03:44.252Z</time></trkpt><trkpt lat="44.540041" lon="10.7329885"><ele>248.83333333333334</ele><time>2026-03-22T14:03:46.256Z</time></trkpt><trkpt lat="44.5400677" lon="10.7330825"><ele>248.0</ele><time>2026-03-22T14:03:47.256Z</time></trkpt><trkpt lat="44.5400973" lon="10.7331784"><ele>247.66666666666669</ele><time>2026-03-22T14:03:48.279Z</time></trkpt><trkpt lat="44.5401286" lon="10.7332774"><ele>247.33333333333334</ele><time>2026-03-22T14:03:49.252Z</time></trkpt><trkpt lat="44.5401591" lon="10.7333828"><ele>247.0</ele><time>2026-03-22T14:03:50.251Z</time></trkpt><trkpt lat="44.540186" lon="10.7334849"><ele>246.66666666666669</ele><time>2026-03-22T14:03:51.251Z</time></trkpt><trkpt lat="44.5402105" lon="10.7335817"><ele>246.33333333333334</ele><time>2026-03-22T14:03:52.252Z</time></trkpt><trkpt lat="44.5402552" lon="10.7336639"><ele>246.0</ele><time>2026-03-22T14:03:53.251Z</time></trkpt><trkpt lat="44.5403048" lon="10.7337463"><ele>244.0</ele><time>2026-03-22T14:03:54.259Z</time></trkpt><trkpt lat="44.5403589" lon="10.7338278"><ele>242.0</ele><time>2026-03-22T14:03:55.271Z</time></trkpt><trkpt lat="44.5404131" lon="10.733908"><ele>240.0</ele><time>2026-03-22T14:03:56.257Z</time></trkpt><trkpt lat="44.5404611" lon="10.7339808"><ele>238.0</ele><time>2026-03-22T14:03:57.256Z</time></trkpt><trkpt lat="44.540511" lon="10.7340639"><ele>236.0</ele><time>2026-03-22T14:03:58.256Z</time></trkpt><trkpt lat="44.5405611" lon="10.7341523"><ele>234.0</ele><time>2026-03-22T14:03:59.254Z</time></trkpt><trkpt lat="44.5406091" lon="10.7342485"><ele>234.0</ele><time>2026-03-22T14:04:00.267Z</time></trkpt><trkpt lat="44.5406532" lon="10.7343477"><ele>234.0</ele><time>2026-03-22T14:04:01.258Z</time></trkpt><trkpt lat="44.5406976" lon="10.7344303"><ele>234.0</ele><time>2026-03-22T14:04:02.256Z</time></trkpt><trkpt lat="44.5407414" lon="10.7345108"><ele>234.0</ele><time>2026-03-22T14:04:03.251Z</time></trkpt><trkpt lat="44.540787" lon="10.7345869"><ele>234.0</ele><time>2026-03-22T14:04:04.252Z</time></trkpt><trkpt lat="44.5408357" lon="10.7346695"><ele>234.0</ele><time>2026-03-22T14:04:05.268Z</time></trkpt><trkpt lat="44.5408832" lon="10.7347801"><ele>233.14285714285717</ele><time>2026-03-22T14:04:06.25Z</time></trkpt><trkpt lat="44.5409225" lon="10.7348807"><ele>232.2857142857143</ele><time>2026-03-22T14:04:07.256Z</time></trkpt><trkpt lat="44.5409589" lon="10.7349765"><ele>231.42857142857144</ele><time>2026-03-22T14:04:08.254Z</time></trkpt><trkpt lat="44.5410019" lon="10.7350563"><ele>230.57142857142856</ele><time>2026-03-22T14:04:09.252Z</time></trkpt><trkpt lat="44.5410489" lon="10.7351325"><ele>229.7142857142857</ele><time>2026-03-22T14:04:10.254Z</time></trkpt><trkpt lat="44.5410881" lon="10.7352104"><ele>228.85714285714283</ele><time>2026-03-22T14:04:11.257Z</time></trkpt><trkpt lat="44.5411266" lon="10.7352835"><ele>228.0</ele><time>2026-03-22T14:04:12.257Z</time></trkpt><trkpt lat="44.5411577" lon="10.7354647"><ele>227.14285714285714</ele><time>2026-03-22T14:04:14.28Z</time></trkpt><trkpt lat="44.5411572" lon="10.7355671"><ele>226.28571428571428</ele><time>2026-03-22T14:04:15.255Z</time></trkpt><trkpt lat="44.5411558" lon="10.7356737"><ele>225.42857142857142</ele><time>2026-03-22T14:04:16.254Z</time></trkpt><trkpt lat="44.5411555" lon="10.7357776"><ele>224.57142857142856</ele><time>2026-03-22T14:04:17.254Z</time></trkpt><trkpt lat="44.5411525" lon="10.7358856"><ele>223.71428571428572</ele><time>2026-03-22T14:04:18.257Z</time></trkpt><trkpt lat="44.5411518" lon="10.7359937"><ele>222.85714285714283</ele><time>2026-03-22T14:04:19.258Z</time></trkpt><trkpt lat="44.5411553" lon="10.7360933"><ele>222.0</ele><time>2026-03-22T14:04:20.272Z</time></trkpt><trkpt lat="44.5411736" lon="10.7362362"><ele>221.16666666666666</ele><time>2026-03-22T14:04:22.258Z</time></trkpt><trkpt lat="44.5412085" lon="10.7363642"><ele>220.33333333333331</ele><time>2026-03-22T14:04:24.263Z</time></trkpt><trkpt lat="44.5412655" lon="10.7365235"><ele>219.5</ele><time>2026-03-22T14:04:26.256Z</time></trkpt><trkpt lat="44.5412852" lon="10.7366224"><ele>218.66666666666666</ele><time>2026-03-22T14:04:27.251Z</time></trkpt><trkpt lat="44.5412999" lon="10.7367256"><ele>217.83333333333331</ele><time>2026-03-22T14:04:28.256Z</time></trkpt><trkpt lat="44.5413117" lon="10.7368236"><ele>217.0</ele><time>2026-03-22T14:04:29.254Z</time></trkpt><trkpt lat="44.5413456" lon="10.7369908"><ele>218.99999999999997</ele><time>2026-03-22T14:04:31.249Z</time></trkpt><trkpt lat="44.5413883" lon="10.7371173"><ele>221.0</ele><time>2026-03-22T14:04:33.261Z</time></trkpt><trkpt lat="44.5414278" lon="10.7372113"><ele>223.0</ele><time>2026-03-22T14:04:35.251Z</time></trkpt><trkpt lat="44.5414571" lon="10.7373155"><ele>225.0</ele><time>2026-03-22T14:04:37.252Z</time></trkpt><trkpt lat="44.541478" lon="10.7374269"><ele>226.99999999999997</ele><time>2026-03-22T14:04:39.255Z</time></trkpt><trkpt lat="44.5415095" lon="10.7375558"><ele>229.0</ele><time>2026-03-22T14:04:41.256Z</time></trkpt><trkpt lat="44.5415358" lon="10.7376397"><ele>227.14285714285714</ele><time>2026-03-22T14:04:42.262Z</time></trkpt><trkpt lat="44.5415653" lon="10.73773"><ele>225.2857142857143</ele><time>2026-03-22T14:04:43.276Z</time></trkpt><trkpt lat="44.5415926" lon="10.7378176"><ele>223.42857142857144</ele><time>2026-03-22T14:04:44.255Z</time></trkpt><trkpt lat="44.5416158" lon="10.737911"><ele>221.57142857142856</ele><time>2026-03-22T14:04:45.251Z</time></trkpt><trkpt lat="44.5416429" lon="10.7380037"><ele>219.71428571428572</ele><time>2026-03-22T14:04:46.258Z</time></trkpt><trkpt lat="44.5416743" lon="10.7380943"><ele>217.85714285714286</ele><time>2026-03-22T14:04:47.256Z</time></trkpt><trkpt lat="44.5417013" lon="10.7381777"><ele>216.0</ele><time>2026-03-22T14:04:48.279Z</time></trkpt><trkpt lat="44.5417282" lon="10.7382585"><ele>216.0</ele><time>2026-03-22T14:04:49.254Z</time></trkpt><trkpt lat="44.5417836" lon="10.7384101"><ele>216.0</ele><time>2026-03-22T14:04:51.257Z</time></trkpt><trkpt lat="44.5418374" lon="10.7385554"><ele>216.0</ele><time>2026-03-22T14:04:53.271Z</time></trkpt><trkpt lat="44.5418914" lon="10.7386924"><ele>216.0</ele><time>2026-03-22T14:04:55.255Z</time></trkpt><trkpt lat="44.5419476" lon="10.7388386"><ele>214.4</ele><time>2026-03-22T14:04:57.255Z</time></trkpt><trkpt lat="44.5419891" lon="10.7389675"><ele>212.8</ele><time>2026-03-22T14:04:59.255Z</time></trkpt><trkpt lat="44.5420316" lon="10.7390969"><ele>211.20000000000002</ele><time>2026-03-22T14:05:01.255Z</time></trkpt><trkpt lat="44.5420857" lon="10.7391888"><ele>209.60000000000002</ele><time>2026-03-22T14:05:04.264Z</time></trkpt><trkpt lat="44.5421473" lon="10.7392707"><ele>208.0</ele><time>2026-03-22T14:05:06.26Z</time></trkpt><trkpt lat="44.5422323" lon="10.7393657"><ele>203.66666666666666</ele><time>2026-03-22T14:05:08.254Z</time></trkpt><trkpt lat="44.5423178" lon="10.7394525"><ele>199.33333333333331</ele><time>2026-03-22T14:05:10.253Z</time></trkpt><trkpt lat="44.5423656" lon="10.7395231"><ele>195.0</ele><time>2026-03-22T14:05:12.258Z</time></trkpt><trkpt lat="44.5423261" lon="10.7396088"><ele>190.66666666666666</ele><time>2026-03-22T14:05:15.262Z</time></trkpt><trkpt lat="44.5422785" lon="10.7396974"><ele>186.33333333333331</ele><time>2026-03-22T14:05:17.258Z</time></trkpt><trkpt lat="44.5422063" lon="10.7397726"><ele>182.0</ele><time>2026-03-22T14:05:19.255Z</time></trkpt><trkpt lat="44.5421156" lon="10.739827"><ele>182.0</ele><time>2026-03-22T14:05:21.251Z</time></trkpt><trkpt lat="44.5420486" lon="10.7398511"><ele>182.0</ele><time>2026-03-22T14:05:23.259Z</time></trkpt><trkpt lat="44.5420345" lon="10.7399429"><ele>182.0</ele><time>2026-03-22T14:05:26.252Z</time></trkpt><trkpt lat="44.5421077" lon="10.739982"><ele>182.0</ele><time>2026-03-22T14:05:28.26Z</time></trkpt><trkpt lat="44.5421912" lon="10.7400286"><ele>182.0</ele><time>2026-03-22T14:05:30.252Z</time></trkpt><trkpt lat="44.5422395" lon="10.7401055"><ele>182.0</ele><time>2026-03-22T14:05:32.255Z</time></trkpt><trkpt lat="44.5421876" lon="10.7401903"><ele>178.5</ele><time>2026-03-22T14:05:35.259Z</time></trkpt><trkpt lat="44.542112" lon="10.7402365"><ele>175.0</ele><time>2026-03-22T14:05:37.257Z</time></trkpt><trkpt lat="44.5420532" lon="10.7403182"><ele>171.5</ele><time>2026-03-22T14:05:39.253Z</time></trkpt><trkpt lat="44.5420573" lon="10.740429"><ele>168.0</ele><time>2026-03-22T14:05:41.265Z</time></trkpt><trkpt lat="44.5420966" lon="10.7405382"><ele>164.5</ele><time>2026-03-22T14:05:43.253Z</time></trkpt><trkpt lat="44.5421444" lon="10.7406268"><ele>161.0</ele><time>2026-03-22T14:05:45.264Z</time></trkpt><trkpt lat="44.5421834" lon="10.7407166"><ele>161.0</ele><time>2026-03-22T14:05:47.257Z</time></trkpt><trkpt lat="44.5422272" lon="10.7408168"><ele>161.0</ele><time>2026-03-22T14:05:49.258Z</time></trkpt><trkpt lat="44.5422682" lon="10.7409005"><ele>161.0</ele><time>2026-03-22T14:05:51.265Z</time></trkpt><trkpt lat="44.542319" lon="10.7410047"><ele>161.0</ele><time>2026-03-22T14:05:53.254Z</time></trkpt><trkpt lat="44.5423566" lon="10.7410968"><ele>161.0</ele><time>2026-03-22T14:05:55.258Z</time></trkpt><trkpt lat="44.5423973" lon="10.7412129"><ele>161.0</ele><time>2026-03-22T14:05:57.264Z</time></trkpt><trkpt lat="44.542436" lon="10.7413383"><ele>159.33333333333331</ele><time>2026-03-22T14:05:59.25Z</time></trkpt><trkpt lat="44.5424775" lon="10.7414599"><ele>157.66666666666666</ele><time>2026-03-22T14:06:01.249Z</time></trkpt><trkpt lat="44.5425203" lon="10.7415549"><ele>156.0</ele><time>2026-03-22T14:06:03.266Z</time></trkpt><trkpt lat="44.5425863" lon="10.7416075"><ele>154.33333333333334</ele><time>2026-03-22T14:06:06.255Z</time></trkpt><trkpt lat="44.5426863" lon="10.74159"><ele>152.66666666666669</ele><time>2026-03-22T14:07:10.264Z</time></trkpt><trkpt lat="44.5426671" lon="10.7417014"><ele>151.0</ele><time>2026-03-22T14:07:14.259Z</time></trkpt><trkpt lat="44.5426665" lon="10.7418037"><ele>151.00000000000003</ele><time>2026-03-22T14:07:18.253Z</time></trkpt><trkpt lat="44.5427402" lon="10.7418644"><ele>151.0</ele><time>2026-03-22T14:07:22.251Z</time></trkpt><trkpt lat="44.5428031" lon="10.7418752"><ele>151.0</ele><time>2026-03-22T14:07:25.257Z</time></trkpt><trkpt lat="44.5427969" lon="10.741988"><ele>151.0</ele><time>2026-03-22T14:07:31.257Z</time></trkpt><trkpt lat="44.5428277" lon="10.742084"><ele>151.0</ele><time>2026-03-22T14:07:35.25Z</time></trkpt><trkpt lat="44.5428647" lon="10.7421738"><ele>151.00000000000003</ele><time>2026-03-22T14:07:40.258Z</time></trkpt><trkpt lat="44.5428955" lon="10.7422602"><ele>151.0</ele><time>2026-03-22T14:07:45.263Z</time></trkpt><trkpt lat="44.5429763" lon="10.7423712"><ele>150.8</ele><time>2026-03-22T14:07:49.258Z</time></trkpt><trkpt lat="44.5430295" lon="10.7424818"><ele>150.6</ele><time>2026-03-22T14:07:51.254Z</time></trkpt><trkpt lat="44.5430657" lon="10.7425991"><ele>150.4</ele><time>2026-03-22T14:07:53.259Z</time></trkpt><trkpt lat="44.5431214" lon="10.7427446"><ele>150.2</ele><time>2026-03-22T14:07:55.26Z</time></trkpt><trkpt lat="44.5431482" lon="10.742849"><ele>150.0</ele><time>2026-03-22T14:07:57.26Z</time></trkpt><trkpt lat="44.5431998" lon="10.742933"><ele>152.33333333333334</ele><time>2026-03-22T14:08:00.254Z</time></trkpt><trkpt lat="44.5432647" lon="10.7429864"><ele>154.66666666666666</ele><time>2026-03-22T14:08:02.259Z</time></trkpt><trkpt lat="44.5433189" lon="10.7430596"><ele>157.0</ele><time>2026-03-22T14:08:04.263Z</time></trkpt><trkpt lat="44.5433611" lon="10.7431253"><ele>159.33333333333331</ele><time>2026-03-22T14:08:07.253Z</time></trkpt><trkpt lat="44.5434015" lon="10.7431999"><ele>161.66666666666666</ele><time>2026-03-22T14:08:13.256Z</time></trkpt><trkpt lat="44.54339" lon="10.7433001"><ele>164.0</ele><time>2026-03-22T14:08:18.252Z</time></trkpt><trkpt lat="44.543342" lon="10.743475"><ele>167.16666666666666</ele><time>2026-03-22T14:08:35.249Z</time></trkpt><trkpt lat="44.5433804" lon="10.7435552"><ele>170.33333333333331</ele><time>2026-03-22T14:08:37.263Z</time></trkpt><trkpt lat="44.5434263" lon="10.7436512"><ele>173.5</ele><time>2026-03-22T14:08:39.255Z</time></trkpt><trkpt lat="44.5434551" lon="10.7437351"><ele>176.66666666666666</ele><time>2026-03-22T14:08:40.255Z</time></trkpt><trkpt lat="44.5435013" lon="10.7438587"><ele>179.83333333333334</ele><time>2026-03-22T14:08:42.256Z</time></trkpt><trkpt lat="44.5435388" lon="10.7439531"><ele>183.0</ele><time>2026-03-22T14:08:44.255Z</time></trkpt><trkpt lat="44.5435438" lon="10.7440576"><ele>183.0</ele><time>2026-03-22T14:08:46.256Z</time></trkpt><trkpt lat="44.5435563" lon="10.7441567"><ele>183.0</ele><time>2026-03-22T14:08:48.26Z</time></trkpt><trkpt lat="44.5435634" lon="10.7442505"><ele>183.0</ele><time>2026-03-22T14:08:50.253Z</time></trkpt><trkpt lat="44.5435601" lon="10.744356"><ele>183.0</ele><time>2026-03-22T14:08:58.255Z</time></trkpt><trkpt lat="44.5435221" lon="10.7444353"><ele>183.0</ele><time>2026-03-22T14:09:01.258Z</time></trkpt><trkpt lat="44.5434516" lon="10.7444896"><ele>183.0</ele><time>2026-03-22T14:09:04.253Z</time></trkpt><trkpt lat="44.5434126" lon="10.7445613"><ele>183.0</ele><time>2026-03-22T14:09:06.257Z</time></trkpt><trkpt lat="44.5433553" lon="10.744669"><ele>184.83333333333334</ele><time>2026-03-22T14:09:08.258Z</time></trkpt><trkpt lat="44.5433483" lon="10.7447655"><ele>186.66666666666669</ele><time>2026-03-22T14:09:10.253Z</time></trkpt><trkpt lat="44.5433139" lon="10.7448475"><ele>188.5</ele><time>2026-03-22T14:09:14.258Z</time></trkpt><trkpt lat="44.5432621" lon="10.7447887"><ele>190.33333333333334</ele><time>2026-03-22T14:09:17.254Z</time></trkpt><trkpt lat="44.5432095" lon="10.7447154"><ele>192.16666666666669</ele><time>2026-03-22T14:09:19.254Z</time></trkpt><trkpt lat="44.5431325" lon="10.744626"><ele>194.0</ele><time>2026-03-22T14:09:21.264Z</time></trkpt><trkpt lat="44.5430318" lon="10.7445854"><ele>194.00000000000003</ele><time>2026-03-22T14:09:23.271Z</time></trkpt><trkpt lat="44.5429606" lon="10.7445608"><ele>194.0</ele><time>2026-03-22T14:09:24.25Z</time></trkpt><trkpt lat="44.5428653" lon="10.7445648"><ele>194.0</ele><time>2026-03-22T14:09:26.255Z</time></trkpt><trkpt lat="44.5428136" lon="10.7446474"><ele>194.0</ele><time>2026-03-22T14:09:28.266Z</time></trkpt><trkpt lat="44.5428335" lon="10.7447746"><ele>194.00000000000003</ele><time>2026-03-22T14:09:30.262Z</time></trkpt><trkpt lat="44.5428699" lon="10.7448779"><ele>194.0</ele><time>2026-03-22T14:14:54.241Z</time></trkpt><trkpt lat="44.5429152" lon="10.7450284"><ele>194.00000000000003</ele><time>2026-03-22T14:14:56.256Z</time></trkpt><trkpt lat="44.5429329" lon="10.7451297"><ele>194.0</ele><time>2026-03-22T14:14:57.26Z</time></trkpt><trkpt lat="44.5429373" lon="10.7452343"><ele>194.0</ele><time>2026-03-22T14:14:58.255Z</time></trkpt><trkpt lat="44.542936" lon="10.7453293"><ele>194.0</ele><time>2026-03-22T14:14:59.257Z</time></trkpt><trkpt lat="44.5429315" lon="10.7454264"><ele>194.00000000000003</ele><time>2026-03-22T14:15:00.262Z</time></trkpt><trkpt lat="44.5429129" lon="10.7455128"><ele>194.0</ele><time>2026-03-22T14:15:01.261Z</time></trkpt><trkpt lat="44.5428352" lon="10.7456404"><ele>196.2</ele><time>2026-03-22T14:15:03.258Z</time></trkpt><trkpt lat="44.5427745" lon="10.7456968"><ele>198.39999999999998</ele><time>2026-03-22T14:15:04.257Z</time></trkpt><trkpt lat="44.5426983" lon="10.7457692"><ele>200.6</ele><time>2026-03-22T14:15:05.261Z</time></trkpt><trkpt lat="44.5426141" lon="10.7458493"><ele>202.8</ele><time>2026-03-22T14:15:06.251Z</time></trkpt><trkpt lat="44.5425293" lon="10.7459333"><ele>205.0</ele><time>2026-03-22T14:15:07.261Z</time></trkpt><trkpt lat="44.542443" lon="10.7460239"><ele>205.0</ele><time>2026-03-22T14:15:08.251Z</time></trkpt><trkpt lat="44.5423579" lon="10.7461134"><ele>205.0</ele><time>2026-03-22T14:15:09.259Z</time></trkpt><trkpt lat="44.542275" lon="10.7462038"><ele>205.0</ele><time>2026-03-22T14:15:10.258Z</time></trkpt><trkpt lat="44.542192" lon="10.7462981"><ele>205.0</ele><time>2026-03-22T14:15:11.255Z</time></trkpt><trkpt lat="44.5421074" lon="10.7463934"><ele>205.0</ele><time>2026-03-22T14:15:12.255Z</time></trkpt><trkpt lat="44.5420253" lon="10.7464882"><ele>205.0</ele><time>2026-03-22T14:15:13.255Z</time></trkpt><trkpt lat="44.5419488" lon="10.7465796"><ele>205.0</ele><time>2026-03-22T14:15:14.256Z</time></trkpt><trkpt lat="44.5418854" lon="10.7466578"><ele>205.0</ele><time>2026-03-22T14:15:15.258Z</time></trkpt><trkpt lat="44.5418267" lon="10.7467875"><ele>205.0</ele><time>2026-03-22T14:15:17.253Z</time></trkpt><trkpt lat="44.5418384" lon="10.746947"><ele>205.0</ele><time>2026-03-22T14:15:19.255Z</time></trkpt><trkpt lat="44.5418321" lon="10.7470824"><ele>204.8</ele><time>2026-03-22T14:15:21.253Z</time></trkpt><trkpt lat="44.5417481" lon="10.7471752"><ele>204.6</ele><time>2026-03-22T14:15:23.253Z</time></trkpt><trkpt lat="44.5416756" lon="10.7472323"><ele>204.39999999999998</ele><time>2026-03-22T14:15:24.262Z</time></trkpt><trkpt lat="44.5415944" lon="10.7472991"><ele>204.2</ele><time>2026-03-22T14:15:25.251Z</time></trkpt><trkpt lat="44.541511" lon="10.7473669"><ele>204.0</ele><time>2026-03-22T14:15:26.251Z</time></trkpt><trkpt lat="44.5414291" lon="10.7474378"><ele>204.0</ele><time>2026-03-22T14:15:27.255Z</time></trkpt><trkpt lat="44.5413482" lon="10.7475133"><ele>204.0</ele><time>2026-03-22T14:15:28.257Z</time></trkpt><trkpt lat="44.5412613" lon="10.7475917"><ele>204.0</ele><time>2026-03-22T14:15:29.259Z</time></trkpt><trkpt lat="44.5411792" lon="10.7476642"><ele>204.0</ele><time>2026-03-22T14:15:30.264Z</time></trkpt><trkpt lat="44.5411025" lon="10.7477295"><ele>204.0</ele><time>2026-03-22T14:15:31.253Z</time></trkpt><trkpt lat="44.5410323" lon="10.7477889"><ele>204.2</ele><time>2026-03-22T14:15:32.255Z</time></trkpt><trkpt lat="44.5409695" lon="10.7478416"><ele>204.39999999999998</ele><time>2026-03-22T14:15:33.251Z</time></trkpt><trkpt lat="44.5408855" lon="10.7479054"><ele>204.6</ele><time>2026-03-22T14:15:35.256Z</time></trkpt><trkpt lat="44.540816" lon="10.7478806"><ele>204.8</ele><time>2026-03-22T14:15:37.258Z</time></trkpt><trkpt lat="44.5407372" lon="10.7477131"><ele>205.0</ele><time>2026-03-22T14:15:39.257Z</time></trkpt><trkpt lat="44.5406851" lon="10.7475919"><ele>205.0</ele><time>2026-03-22T14:15:40.257Z</time></trkpt><trkpt lat="44.5406272" lon="10.7474684"><ele>205.0</ele><time>2026-03-22T14:15:41.256Z</time></trkpt><trkpt lat="44.5405655" lon="10.7473371"><ele>205.0</ele><time>2026-03-22T14:15:42.258Z</time></trkpt><trkpt lat="44.5405009" lon="10.747198"><ele>205.0</ele><time>2026-03-22T14:15:43.259Z</time></trkpt><trkpt lat="44.5404349" lon="10.747051"><ele>205.25</ele><time>2026-03-22T14:15:44.256Z</time></trkpt><trkpt lat="44.5403682" lon="10.7469053"><ele>205.5</ele><time>2026-03-22T14:15:45.275Z</time></trkpt><trkpt lat="44.5402979" lon="10.7467708"><ele>205.75</ele><time>2026-03-22T14:15:46.257Z</time></trkpt><trkpt lat="44.5402257" lon="10.7466487"><ele>206.0</ele><time>2026-03-22T14:15:47.255Z</time></trkpt><trkpt lat="44.5401507" lon="10.7465341"><ele>206.60000000000002</ele><time>2026-03-22T14:15:48.256Z</time></trkpt><trkpt lat="44.5400729" lon="10.7464213"><ele>207.2</ele><time>2026-03-22T14:15:49.253Z</time></trkpt><trkpt lat="44.5399953" lon="10.7463125"><ele>207.8</ele><time>2026-03-22T14:15:50.251Z</time></trkpt><trkpt lat="44.5399206" lon="10.7462103"><ele>208.39999999999998</ele><time>2026-03-22T14:15:51.25Z</time></trkpt><trkpt lat="44.5398483" lon="10.7461126"><ele>209.0</ele><time>2026-03-22T14:15:52.257Z</time></trkpt><trkpt lat="44.5397801" lon="10.7460186"><ele>209.00000000000003</ele><time>2026-03-22T14:15:53.254Z</time></trkpt><trkpt lat="44.5397164" lon="10.7459312"><ele>209.0</ele><time>2026-03-22T14:15:54.256Z</time></trkpt><trkpt lat="44.5396554" lon="10.7458501"><ele>209.0</ele><time>2026-03-22T14:15:55.254Z</time></trkpt><trkpt lat="44.5395925" lon="10.745771"><ele>209.0</ele><time>2026-03-22T14:15:56.255Z</time></trkpt><trkpt lat="44.539532" lon="10.7456935"><ele>209.00000000000003</ele><time>2026-03-22T14:15:57.25Z</time></trkpt><trkpt lat="44.539478" lon="10.7456233"><ele>209.0</ele><time>2026-03-22T14:15:58.255Z</time></trkpt><trkpt lat="44.5394315" lon="10.74556"><ele>208.83333333333334</ele><time>2026-03-22T14:15:59.261Z</time></trkpt><trkpt lat="44.539353" lon="10.7454614"><ele>208.66666666666669</ele><time>2026-03-22T14:16:01.275Z</time></trkpt><trkpt lat="44.5392828" lon="10.7454385"><ele>208.5</ele><time>2026-03-22T14:16:03.254Z</time></trkpt><trkpt lat="44.5392118" lon="10.7455415"><ele>208.33333333333331</ele><time>2026-03-22T14:16:05.253Z</time></trkpt><trkpt lat="44.5391596" lon="10.7456166"><ele>208.16666666666666</ele><time>2026-03-22T14:16:06.254Z</time></trkpt><trkpt lat="44.5391088" lon="10.7456984"><ele>208.0</ele><time>2026-03-22T14:16:07.272Z</time></trkpt><trkpt lat="44.5390581" lon="10.7457841"><ele>207.99999999999997</ele><time>2026-03-22T14:16:08.251Z</time></trkpt><trkpt lat="44.5390093" lon="10.7458697"><ele>208.0</ele><time>2026-03-22T14:16:09.251Z</time></trkpt><trkpt lat="44.5389604" lon="10.7459592"><ele>208.0</ele><time>2026-03-22T14:16:10.252Z</time></trkpt><trkpt lat="44.5389086" lon="10.7460555"><ele>208.0</ele><time>2026-03-22T14:16:11.257Z</time></trkpt><trkpt lat="44.5388571" lon="10.7461534"><ele>207.99999999999997</ele><time>2026-03-22T14:16:12.255Z</time></trkpt><trkpt lat="44.5388072" lon="10.7462451"><ele>208.0</ele><time>2026-03-22T14:16:13.252Z</time></trkpt><trkpt lat="44.5387596" lon="10.7463332"><ele>207.66666666666666</ele><time>2026-03-22T14:16:14.255Z</time></trkpt><trkpt lat="44.5387124" lon="10.746414"><ele>207.33333333333331</ele><time>2026-03-22T14:16:15.247Z</time></trkpt><trkpt lat="44.5386676" lon="10.7464995"><ele>207.0</ele><time>2026-03-22T14:16:16.252Z</time></trkpt><trkpt lat="44.5386206" lon="10.7465895"><ele>206.66666666666669</ele><time>2026-03-22T14:16:17.251Z</time></trkpt><trkpt lat="44.538568" lon="10.7466862"><ele>206.33333333333334</ele><time>2026-03-22T14:16:18.255Z</time></trkpt><trkpt lat="44.5385155" lon="10.7467898"><ele>206.0</ele><time>2026-03-22T14:16:19.288Z</time></trkpt><trkpt lat="44.5384629" lon="10.7468941"><ele>205.83333333333334</ele><time>2026-03-22T14:16:20.254Z</time></trkpt><trkpt lat="44.5384127" lon="10.7469883"><ele>205.66666666666669</ele><time>2026-03-22T14:16:21.254Z</time></trkpt><trkpt lat="44.5383639" lon="10.74708"><ele>205.5</ele><time>2026-03-22T14:16:22.255Z</time></trkpt><trkpt lat="44.5383142" lon="10.7471655"><ele>205.33333333333331</ele><time>2026-03-22T14:16:23.257Z</time></trkpt><trkpt lat="44.5382755" lon="10.7472371"><ele>205.16666666666666</ele><time>2026-03-22T14:16:24.258Z</time></trkpt><trkpt lat="44.5382369" lon="10.7473622"><ele>205.0</ele><time>2026-03-22T14:16:26.256Z</time></trkpt><trkpt lat="44.5382788" lon="10.7474672"><ele>204.99999999999997</ele><time>2026-03-22T14:16:28.254Z</time></trkpt><trkpt lat="44.5383327" lon="10.7475174"><ele>205.0</ele><time>2026-03-22T14:16:29.278Z</time></trkpt><trkpt lat="44.538393" lon="10.7475683"><ele>205.0</ele><time>2026-03-22T14:16:30.258Z</time></trkpt><trkpt lat="44.538447" lon="10.7476154"><ele>205.0</ele><time>2026-03-22T14:16:31.256Z</time></trkpt><trkpt lat="44.5385227" lon="10.7477081"><ele>204.99999999999997</ele><time>2026-03-22T14:16:33.259Z</time></trkpt><trkpt lat="44.5385409" lon="10.7478596"><ele>205.0</ele><time>2026-03-22T14:16:35.248Z</time></trkpt><trkpt lat="44.5385284" lon="10.74804"><ele>203.8</ele><time>2026-03-22T14:16:37.254Z</time></trkpt><trkpt lat="44.5385072" lon="10.7481838"><ele>202.6</ele><time>2026-03-22T14:16:39.253Z</time></trkpt><trkpt lat="44.5384306" lon="10.7482552"><ele>201.39999999999998</ele><time>2026-03-22T14:16:41.251Z</time></trkpt><trkpt lat="44.538348" lon="10.7483227"><ele>200.2</ele><time>2026-03-22T14:16:43.263Z</time></trkpt><trkpt lat="44.5382539" lon="10.7483863"><ele>199.0</ele><time>2026-03-22T14:16:45.254Z</time></trkpt><trkpt lat="44.5381317" lon="10.7484158"><ele>199.0</ele><time>2026-03-22T14:16:47.255Z</time></trkpt><trkpt lat="44.5380145" lon="10.7483985"><ele>199.0</ele><time>2026-03-22T14:16:49.256Z</time></trkpt><trkpt lat="44.5379342" lon="10.7484082"><ele>199.0</ele><time>2026-03-22T14:16:51.255Z</time></trkpt><trkpt lat="44.5378328" lon="10.7485075"><ele>199.0</ele><time>2026-03-22T14:16:53.25Z</time></trkpt><trkpt lat="44.5377638" lon="10.7486203"><ele>199.0</ele><time>2026-03-22T14:16:55.252Z</time></trkpt><trkpt lat="44.5377495" lon="10.7487106"><ele>194.0</ele><time>2026-03-22T14:16:56.254Z</time></trkpt><trkpt lat="44.5377282" lon="10.7488817"><ele>189.0</ele><time>2026-03-22T14:16:58.272Z</time></trkpt><trkpt lat="44.5376697" lon="10.7490077"><ele>184.0</ele><time>2026-03-22T14:17:00.255Z</time></trkpt><trkpt lat="44.5375831" lon="10.7490712"><ele>179.0</ele><time>2026-03-22T14:17:02.256Z</time></trkpt><trkpt lat="44.5374854" lon="10.7490447"><ele>174.0</ele><time>2026-03-22T14:17:04.266Z</time></trkpt><trkpt lat="44.5373642" lon="10.7490137"><ele>174.0</ele><time>2026-03-22T14:17:06.253Z</time></trkpt><trkpt lat="44.5372686" lon="10.7490755"><ele>174.0</ele><time>2026-03-22T14:17:08.251Z</time></trkpt><trkpt lat="44.5372114" lon="10.7491509"><ele>174.0</ele><time>2026-03-22T14:17:09.26Z</time></trkpt><trkpt lat="44.5371588" lon="10.7492361"><ele>174.0</ele><time>2026-03-22T14:17:10.251Z</time></trkpt><trkpt lat="44.5371094" lon="10.7493021"><ele>174.0</ele><time>2026-03-22T14:17:11.247Z</time></trkpt><trkpt lat="44.5370205" lon="10.7494016"><ele>174.0</ele><time>2026-03-22T14:17:13.247Z</time></trkpt><trkpt lat="44.5369263" lon="10.7494791"><ele>174.16666666666666</ele><time>2026-03-22T14:17:15.251Z</time></trkpt><trkpt lat="44.536864" lon="10.7495117"><ele>174.33333333333334</ele><time>2026-03-22T14:17:16.277Z</time></trkpt><trkpt lat="44.5367932" lon="10.7495217"><ele>174.5</ele><time>2026-03-22T14:17:17.255Z</time></trkpt><trkpt lat="44.5367176" lon="10.7495146"><ele>174.66666666666669</ele><time>2026-03-22T14:17:18.256Z</time></trkpt><trkpt lat="44.5366336" lon="10.749502"><ele>174.83333333333334</ele><time>2026-03-22T14:17:19.264Z</time></trkpt><trkpt lat="44.5365517" lon="10.7494804"><ele>175.0</ele><time>2026-03-22T14:17:20.257Z</time></trkpt><trkpt lat="44.5364695" lon="10.7494621"><ele>175.0</ele><time>2026-03-22T14:17:21.27Z</time></trkpt><trkpt lat="44.5363958" lon="10.7494497"><ele>175.0</ele><time>2026-03-22T14:17:22.254Z</time></trkpt><trkpt lat="44.5363288" lon="10.7494411"><ele>175.0</ele><time>2026-03-22T14:17:23.252Z</time></trkpt><trkpt lat="44.5362166" lon="10.7494325"><ele>175.0</ele><time>2026-03-22T14:17:25.249Z</time></trkpt><trkpt lat="44.5361404" lon="10.7494249"><ele>175.0</ele><time>2026-03-22T14:17:27.251Z</time></trkpt><trkpt lat="44.5360491" lon="10.7494031"><ele>175.0</ele><time>2026-03-22T14:17:29.248Z</time></trkpt><trkpt lat="44.535943" lon="10.74938"><ele>174.16666666666669</ele><time>2026-03-22T14:17:31.273Z</time></trkpt><trkpt lat="44.5358792" lon="10.7493694"><ele>173.33333333333334</ele><time>2026-03-22T14:17:32.253Z</time></trkpt><trkpt lat="44.5358135" lon="10.749364"><ele>172.5</ele><time>2026-03-22T14:17:33.257Z</time></trkpt><trkpt lat="44.5357497" lon="10.7493652"><ele>171.66666666666666</ele><time>2026-03-22T14:17:34.25Z</time></trkpt><trkpt lat="44.5356849" lon="10.7493675"><ele>170.83333333333331</ele><time>2026-03-22T14:17:35.255Z</time></trkpt><trkpt lat="44.5355623" lon="10.7493709"><ele>170.0</ele><time>2026-03-22T14:17:37.258Z</time></trkpt><trkpt lat="44.5354442" lon="10.7493715"><ele>171.0</ele><time>2026-03-22T14:17:39.275Z</time></trkpt><trkpt lat="44.5353157" lon="10.7493801"><ele>172.0</ele><time>2026-03-22T14:17:41.256Z</time></trkpt><trkpt lat="44.5351966" lon="10.7493761"><ele>173.0</ele><time>2026-03-22T14:17:43.25Z</time></trkpt><trkpt lat="44.5351254" lon="10.749373"><ele>174.0</ele><time>2026-03-22T14:17:44.257Z</time></trkpt><trkpt lat="44.535049" lon="10.7493572"><ele>175.0</ele><time>2026-03-22T14:17:45.253Z</time></trkpt><trkpt lat="44.5349668" lon="10.7493366"><ele>175.0</ele><time>2026-03-22T14:17:46.251Z</time></trkpt><trkpt lat="44.5348789" lon="10.7493078"><ele>175.0</ele><time>2026-03-22T14:17:47.255Z</time></trkpt><trkpt lat="44.5347931" lon="10.7492747"><ele>175.0</ele><time>2026-03-22T14:17:48.254Z</time></trkpt><trkpt lat="44.5347143" lon="10.7492385"><ele>175.0</ele><time>2026-03-22T14:17:49.247Z</time></trkpt><trkpt lat="44.5346359" lon="10.7492024"><ele>175.0</ele><time>2026-03-22T14:17:50.279Z</time></trkpt><trkpt lat="44.5345587" lon="10.7491738"><ele>175.0</ele><time>2026-03-22T14:17:51.256Z</time></trkpt><trkpt lat="44.5344818" lon="10.7491502"><ele>175.14285714285714</ele><time>2026-03-22T14:17:52.247Z</time></trkpt><trkpt lat="44.534409" lon="10.7491258"><ele>175.28571428571428</ele><time>2026-03-22T14:17:53.257Z</time></trkpt><trkpt lat="44.5343386" lon="10.7490999"><ele>175.42857142857144</ele><time>2026-03-22T14:17:54.249Z</time></trkpt><trkpt lat="44.5342691" lon="10.7490736"><ele>175.57142857142856</ele><time>2026-03-22T14:17:55.282Z</time></trkpt><trkpt lat="44.5341998" lon="10.7490454"><ele>175.71428571428572</ele><time>2026-03-22T14:17:56.253Z</time></trkpt><trkpt lat="44.5341306" lon="10.7490101"><ele>175.85714285714286</ele><time>2026-03-22T14:17:57.258Z</time></trkpt><trkpt lat="44.5340633" lon="10.7489836"><ele>176.0</ele><time>2026-03-22T14:17:58.255Z</time></trkpt><trkpt lat="44.5340015" lon="10.7489531"><ele>176.0</ele><time>2026-03-22T14:17:59.255Z</time></trkpt><trkpt lat="44.5339021" lon="10.7489045"><ele>176.0</ele><time>2026-03-22T14:18:01.256Z</time></trkpt><trkpt lat="44.5338244" lon="10.7489305"><ele>176.0</ele><time>2026-03-22T14:18:03.253Z</time></trkpt><trkpt lat="44.5337384" lon="10.7490428"><ele>176.0</ele><time>2026-03-22T14:18:05.256Z</time></trkpt><trkpt lat="44.5336859" lon="10.7491649"><ele>176.0</ele><time>2026-03-22T14:18:07.257Z</time></trkpt><trkpt lat="44.5337437" lon="10.74926"><ele>176.0</ele><time>2026-03-22T14:18:09.26Z</time></trkpt><trkpt lat="44.5338039" lon="10.7492914"><ele>176.0</ele><time>2026-03-22T14:18:10.249Z</time></trkpt><trkpt lat="44.5338711" lon="10.7493267"><ele>176.0</ele><time>2026-03-22T14:18:11.255Z</time></trkpt><trkpt lat="44.5339519" lon="10.7493511"><ele>176.0</ele><time>2026-03-22T14:18:12.25Z</time></trkpt><trkpt lat="44.5340478" lon="10.7494192"><ele>176.0</ele><time>2026-03-22T14:18:13.251Z</time></trkpt><trkpt lat="44.5341386" lon="10.7494964"><ele>176.0</ele><time>2026-03-22T14:18:14.257Z</time></trkpt><trkpt lat="44.5342376" lon="10.7495882"><ele>176.8</ele><time>2026-03-22T14:18:15.256Z</time></trkpt><trkpt lat="44.5343371" lon="10.7496765"><ele>177.60000000000002</ele><time>2026-03-22T14:18:16.252Z</time></trkpt><trkpt lat="44.5344307" lon="10.7497607"><ele>178.4</ele><time>2026-03-22T14:18:17.252Z</time></trkpt><trkpt lat="44.5345154" lon="10.7498411"><ele>179.2</ele><time>2026-03-22T14:18:18.257Z</time></trkpt><trkpt lat="44.5345944" lon="10.7499206"><ele>180.0</ele><time>2026-03-22T14:18:19.251Z</time></trkpt><trkpt lat="44.5346697" lon="10.7499989"><ele>181.4</ele><time>2026-03-22T14:18:20.257Z</time></trkpt><trkpt lat="44.5347458" lon="10.7500774"><ele>182.8</ele><time>2026-03-22T14:18:21.255Z</time></trkpt><trkpt lat="44.5348232" lon="10.7501535"><ele>184.2</ele><time>2026-03-22T14:18:22.247Z</time></trkpt><trkpt lat="44.5348968" lon="10.7502322"><ele>185.6</ele><time>2026-03-22T14:18:23.261Z</time></trkpt><trkpt lat="44.5349699" lon="10.7503132"><ele>187.0</ele><time>2026-03-22T14:18:24.252Z</time></trkpt><trkpt lat="44.5350428" lon="10.7503825"><ele>187.0</ele><time>2026-03-22T14:18:25.253Z</time></trkpt><trkpt lat="44.5351141" lon="10.7504418"><ele>187.0</ele><time>2026-03-22T14:18:26.253Z</time></trkpt><trkpt lat="44.5351834" lon="10.7504937"><ele>187.0</ele><time>2026-03-22T14:18:27.254Z</time></trkpt><trkpt lat="44.5352456" lon="10.7505427"><ele>187.0</ele><time>2026-03-22T14:18:28.25Z</time></trkpt><trkpt lat="44.535356" lon="10.7506028"><ele>187.0</ele><time>2026-03-22T14:18:30.258Z</time></trkpt><trkpt lat="44.5354344" lon="10.7506351"><ele>187.0</ele><time>2026-03-22T14:18:31.254Z</time></trkpt><trkpt lat="44.5355255" lon="10.7506661"><ele>188.16666666666669</ele><time>2026-03-22T14:18:32.268Z</time></trkpt><trkpt lat="44.5356175" lon="10.7506946"><ele>189.33333333333334</ele><time>2026-03-22T14:18:33.253Z</time></trkpt><trkpt lat="44.5356953" lon="10.7506931"><ele>190.5</ele><time>2026-03-22T14:18:34.257Z</time></trkpt><trkpt lat="44.5357721" lon="10.7507004"><ele>191.66666666666669</ele><time>2026-03-22T14:18:35.251Z</time></trkpt><trkpt lat="44.535849" lon="10.7507159"><ele>192.83333333333334</ele><time>2026-03-22T14:18:36.26Z</time></trkpt><trkpt lat="44.5359294" lon="10.7507222"><ele>194.0</ele><time>2026-03-22T14:18:37.25Z</time></trkpt><trkpt lat="44.5360021" lon="10.7507439"><ele>194.0</ele><time>2026-03-22T14:18:38.252Z</time></trkpt><trkpt lat="44.5360666" lon="10.7507658"><ele>194.0</ele><time>2026-03-22T14:18:39.249Z</time></trkpt><trkpt lat="44.536182" lon="10.7508416"><ele>194.0</ele><time>2026-03-22T14:18:41.254Z</time></trkpt><trkpt lat="44.5362717" lon="10.7509349"><ele>194.0</ele><time>2026-03-22T14:18:43.252Z</time></trkpt><trkpt lat="44.5363516" lon="10.7510258"><ele>194.0</ele><time>2026-03-22T14:18:45.255Z</time></trkpt><trkpt lat="44.5364421" lon="10.7511323"><ele>193.83333333333334</ele><time>2026-03-22T14:18:47.255Z</time></trkpt><trkpt lat="44.5364979" lon="10.7512047"><ele>193.66666666666669</ele><time>2026-03-22T14:18:48.253Z</time></trkpt><trkpt lat="44.5365564" lon="10.7512888"><ele>193.5</ele><time>2026-03-22T14:18:49.248Z</time></trkpt><trkpt lat="44.5366109" lon="10.7513724"><ele>193.33333333333331</ele><time>2026-03-22T14:18:50.259Z</time></trkpt><trkpt lat="44.5366596" lon="10.7514505"><ele>193.16666666666666</ele><time>2026-03-22T14:18:51.254Z</time></trkpt><trkpt lat="44.5367042" lon="10.7515353"><ele>193.0</ele><time>2026-03-22T14:18:52.254Z</time></trkpt><trkpt lat="44.5367339" lon="10.751629"><ele>192.99999999999997</ele><time>2026-03-22T14:18:53.251Z</time></trkpt><trkpt lat="44.5367574" lon="10.751717"><ele>193.0</ele><time>2026-03-22T14:18:54.256Z</time></trkpt><trkpt lat="44.5367685" lon="10.7518154"><ele>193.0</ele><time>2026-03-22T14:18:55.261Z</time></trkpt><trkpt lat="44.536801" lon="10.7519621"><ele>193.0</ele><time>2026-03-22T14:18:57.258Z</time></trkpt><trkpt lat="44.5368406" lon="10.7520413"><ele>192.99999999999997</ele><time>2026-03-22T14:18:58.249Z</time></trkpt><trkpt lat="44.5368906" lon="10.7521144"><ele>193.0</ele><time>2026-03-22T14:18:59.249Z</time></trkpt><trkpt lat="44.5369626" lon="10.7521853"><ele>191.99999999999997</ele><time>2026-03-22T14:19:00.248Z</time></trkpt><trkpt lat="44.5370358" lon="10.7522601"><ele>191.0</ele><time>2026-03-22T14:19:01.258Z</time></trkpt><trkpt lat="44.5371139" lon="10.7523354"><ele>190.0</ele><time>2026-03-22T14:19:02.259Z</time></trkpt><trkpt lat="44.5371844" lon="10.7524101"><ele>189.0</ele><time>2026-03-22T14:19:03.255Z</time></trkpt><trkpt lat="44.5372333" lon="10.7524731"><ele>188.0</ele><time>2026-03-22T14:19:04.272Z</time></trkpt><trkpt lat="44.5373099" lon="10.7525592"><ele>187.0</ele><time>2026-03-22T14:19:06.256Z</time></trkpt><trkpt lat="44.5374052" lon="10.7526603"><ele>186.16666666666669</ele><time>2026-03-22T14:19:08.261Z</time></trkpt><trkpt lat="44.5374545" lon="10.7527256"><ele>185.33333333333334</ele><time>2026-03-22T14:19:09.255Z</time></trkpt><trkpt lat="44.5375005" lon="10.7528216"><ele>184.5</ele><time>2026-03-22T14:19:10.248Z</time></trkpt><trkpt lat="44.5375507" lon="10.7529272"><ele>183.66666666666666</ele><time>2026-03-22T14:19:11.26Z</time></trkpt><trkpt lat="44.5375936" lon="10.7530251"><ele>182.83333333333331</ele><time>2026-03-22T14:19:12.255Z</time></trkpt><trkpt lat="44.537636" lon="10.753114"><ele>182.0</ele><time>2026-03-22T14:19:13.257Z</time></trkpt><trkpt lat="44.5376744" lon="10.7531999"><ele>182.0</ele><time>2026-03-22T14:19:14.251Z</time></trkpt><trkpt lat="44.5377122" lon="10.7532859"><ele>182.0</ele><time>2026-03-22T14:19:15.249Z</time></trkpt><trkpt lat="44.5377518" lon="10.7533622"><ele>182.0</ele><time>2026-03-22T14:19:16.25Z</time></trkpt><trkpt lat="44.5377955" lon="10.7534462"><ele>182.0</ele><time>2026-03-22T14:19:17.248Z</time></trkpt><trkpt lat="44.537841" lon="10.753536"><ele>182.0</ele><time>2026-03-22T14:19:18.258Z</time></trkpt><trkpt lat="44.5378857" lon="10.7536276"><ele>182.0</ele><time>2026-03-22T14:19:19.252Z</time></trkpt><trkpt lat="44.537928" lon="10.7537146"><ele>182.0</ele><time>2026-03-22T14:19:20.251Z</time></trkpt><trkpt lat="44.5379695" lon="10.7537998"><ele>180.0</ele><time>2026-03-22T14:19:21.266Z</time></trkpt><trkpt lat="44.5380128" lon="10.7538819"><ele>178.0</ele><time>2026-03-22T14:19:22.251Z</time></trkpt><trkpt lat="44.5380583" lon="10.7539628"><ele>176.0</ele><time>2026-03-22T14:19:23.251Z</time></trkpt><trkpt lat="44.5381042" lon="10.7540424"><ele>174.0</ele><time>2026-03-22T14:19:24.253Z</time></trkpt><trkpt lat="44.5381558" lon="10.7541232"><ele>172.0</ele><time>2026-03-22T14:19:25.256Z</time></trkpt><trkpt lat="44.5382149" lon="10.7542125"><ele>170.0</ele><time>2026-03-22T14:19:26.273Z</time></trkpt><trkpt lat="44.5382714" lon="10.7543001"><ele>169.33333333333331</ele><time>2026-03-22T14:19:27.252Z</time></trkpt><trkpt lat="44.5383263" lon="10.754384"><ele>168.66666666666666</ele><time>2026-03-22T14:19:28.252Z</time></trkpt><trkpt lat="44.5383811" lon="10.7544711"><ele>168.0</ele><time>2026-03-22T14:19:29.257Z</time></trkpt><trkpt lat="44.5384394" lon="10.7545574"><ele>167.33333333333334</ele><time>2026-03-22T14:19:30.259Z</time></trkpt><trkpt lat="44.538496" lon="10.7546352"><ele>166.66666666666669</ele><time>2026-03-22T14:19:31.257Z</time></trkpt><trkpt lat="44.5385524" lon="10.7547144"><ele>166.0</ele><time>2026-03-22T14:19:32.273Z</time></trkpt><trkpt lat="44.5386096" lon="10.7547942"><ele>166.0</ele><time>2026-03-22T14:19:33.251Z</time></trkpt><trkpt lat="44.5386672" lon="10.7548751"><ele>166.0</ele><time>2026-03-22T14:19:34.252Z</time></trkpt><trkpt lat="44.5387235" lon="10.7549657"><ele>166.0</ele><time>2026-03-22T14:19:35.259Z</time></trkpt><trkpt lat="44.5387777" lon="10.7550538"><ele>166.0</ele><time>2026-03-22T14:19:36.254Z</time></trkpt><trkpt lat="44.5388323" lon="10.7551406"><ele>166.0</ele><time>2026-03-22T14:19:37.268Z</time></trkpt><trkpt lat="44.5388868" lon="10.7552186"><ele>166.0</ele><time>2026-03-22T14:19:38.251Z</time></trkpt><trkpt lat="44.5389538" lon="10.755294"><ele>163.83333333333334</ele><time>2026-03-22T14:19:39.25Z</time></trkpt><trkpt lat="44.5390217" lon="10.7553613"><ele>161.66666666666669</ele><time>2026-03-22T14:19:40.25Z</time></trkpt><trkpt lat="44.5390922" lon="10.7554174"><ele>159.5</ele><time>2026-03-22T14:19:41.255Z</time></trkpt><trkpt lat="44.5391635" lon="10.7554835"><ele>157.33333333333334</ele><time>2026-03-22T14:19:42.257Z</time></trkpt><trkpt lat="44.5392315" lon="10.755548"><ele>155.16666666666666</ele><time>2026-03-22T14:19:43.267Z</time></trkpt><trkpt lat="44.5393038" lon="10.7556048"><ele>153.0</ele><time>2026-03-22T14:19:44.259Z</time></trkpt><trkpt lat="44.5393773" lon="10.7556649"><ele>153.0</ele><time>2026-03-22T14:19:45.252Z</time></trkpt><trkpt lat="44.5394565" lon="10.7557255"><ele>153.0</ele><time>2026-03-22T14:19:46.253Z</time></trkpt><trkpt lat="44.5395268" lon="10.7557896"><ele>153.0</ele><time>2026-03-22T14:19:47.258Z</time></trkpt><trkpt lat="44.5395922" lon="10.7558639"><ele>153.0</ele><time>2026-03-22T14:19:48.255Z</time></trkpt><trkpt lat="44.5396519" lon="10.7559423"><ele>153.0</ele><time>2026-03-22T14:19:49.258Z</time></trkpt><trkpt lat="44.5397085" lon="10.7560217"><ele>153.0</ele><time>2026-03-22T14:19:50.263Z</time></trkpt><trkpt lat="44.53976" lon="10.7561087"><ele>151.14285714285714</ele><time>2026-03-22T14:19:51.255Z</time></trkpt><trkpt lat="44.5398106" lon="10.7561847"><ele>149.28571428571428</ele><time>2026-03-22T14:19:52.252Z</time></trkpt><trkpt lat="44.5398565" lon="10.7562686"><ele>147.42857142857144</ele><time>2026-03-22T14:19:53.254Z</time></trkpt><trkpt lat="44.539898" lon="10.7563585"><ele>145.57142857142856</ele><time>2026-03-22T14:19:54.258Z</time></trkpt><trkpt lat="44.5399437" lon="10.7564386"><ele>143.71428571428572</ele><time>2026-03-22T14:19:55.271Z</time></trkpt><trkpt lat="44.5399781" lon="10.7565244"><ele>141.85714285714286</ele><time>2026-03-22T14:19:56.252Z</time></trkpt><trkpt lat="44.540009" lon="10.7566093"><ele>140.0</ele><time>2026-03-22T14:19:57.253Z</time></trkpt><trkpt lat="44.5400407" lon="10.7566978"><ele>140.0</ele><time>2026-03-22T14:19:58.258Z</time></trkpt><trkpt lat="44.540071" lon="10.7567797"><ele>140.0</ele><time>2026-03-22T14:19:59.251Z</time></trkpt><trkpt lat="44.5401041" lon="10.7568632"><ele>140.0</ele><time>2026-03-22T14:20:00.266Z</time></trkpt><trkpt lat="44.5401366" lon="10.7569491"><ele>140.0</ele><time>2026-03-22T14:20:01.257Z</time></trkpt><trkpt lat="44.5401719" lon="10.7570395"><ele>140.0</ele><time>2026-03-22T14:20:02.257Z</time></trkpt><trkpt lat="44.5402032" lon="10.7571291"><ele>140.0</ele><time>2026-03-22T14:20:03.255Z</time></trkpt><trkpt lat="44.5402343" lon="10.7572228"><ele>140.0</ele><time>2026-03-22T14:20:04.254Z</time></trkpt><trkpt lat="44.5402643" lon="10.7573188"><ele>139.28571428571428</ele><time>2026-03-22T14:20:05.276Z</time></trkpt><trkpt lat="44.5402959" lon="10.7574185"><ele>138.57142857142856</ele><time>2026-03-22T14:20:06.253Z</time></trkpt><trkpt lat="44.5403226" lon="10.7575116"><ele>137.85714285714286</ele><time>2026-03-22T14:20:07.254Z</time></trkpt><trkpt lat="44.5403493" lon="10.7576003"><ele>137.14285714285714</ele><time>2026-03-22T14:20:08.248Z</time></trkpt><trkpt lat="44.5403764" lon="10.7576897"><ele>136.42857142857142</ele><time>2026-03-22T14:20:09.256Z</time></trkpt><trkpt lat="44.540406" lon="10.7577778"><ele>135.71428571428572</ele><time>2026-03-22T14:20:10.254Z</time></trkpt><trkpt lat="44.5404384" lon="10.7578638"><ele>135.0</ele><time>2026-03-22T14:20:11.249Z</time></trkpt><trkpt lat="44.5404744" lon="10.7579441"><ele>135.0</ele><time>2026-03-22T14:20:12.265Z</time></trkpt><trkpt lat="44.540546" lon="10.758055"><ele>135.0</ele><time>2026-03-22T14:20:14.258Z</time></trkpt><trkpt lat="44.5406144" lon="10.7581288"><ele>135.0</ele><time>2026-03-22T14:20:16.255Z</time></trkpt><trkpt lat="44.5406755" lon="10.7581958"><ele>135.0</ele><time>2026-03-22T14:20:18.265Z</time></trkpt><trkpt lat="44.540726" lon="10.7582625"><ele>135.0</ele><time>2026-03-22T14:20:20.254Z</time></trkpt><trkpt lat="44.5407509" lon="10.7583664"><ele>135.0</ele><time>2026-03-22T14:20:22.255Z</time></trkpt><trkpt lat="44.5407033" lon="10.7584983"><ele>134.16666666666666</ele><time>2026-03-22T14:20:24.259Z</time></trkpt><trkpt lat="44.5406615" lon="10.7586085"><ele>133.33333333333334</ele><time>2026-03-22T14:20:25.251Z</time></trkpt><trkpt lat="44.5406156" lon="10.7587127"><ele>132.5</ele><time>2026-03-22T14:20:26.259Z</time></trkpt><trkpt lat="44.5405743" lon="10.7588158"><ele>131.66666666666669</ele><time>2026-03-22T14:20:27.25Z</time></trkpt><trkpt lat="44.5405316" lon="10.7589076"><ele>130.83333333333334</ele><time>2026-03-22T14:20:28.27Z</time></trkpt><trkpt lat="44.5404939" lon="10.7589825"><ele>130.0</ele><time>2026-03-22T14:20:29.251Z</time></trkpt><trkpt lat="44.540422" lon="10.7590995"><ele>129.4</ele><time>2026-03-22T14:20:31.255Z</time></trkpt><trkpt lat="44.5403724" lon="10.7592008"><ele>128.8</ele><time>2026-03-22T14:20:34.256Z</time></trkpt><trkpt lat="44.5403699" lon="10.7593073"><ele>128.2</ele><time>2026-03-22T14:23:29.251Z</time></trkpt><trkpt lat="44.5402807" lon="10.7594314"><ele>127.6</ele><time>2026-03-22T14:23:42.252Z</time></trkpt><trkpt lat="44.5403242" lon="10.7595036"><ele>127.0</ele><time>2026-03-22T14:23:44.257Z</time></trkpt><trkpt lat="44.5404368" lon="10.7595742"><ele>126.19999999999999</ele><time>2026-03-22T14:23:46.258Z</time></trkpt><trkpt lat="44.5405259" lon="10.759627"><ele>125.39999999999999</ele><time>2026-03-22T14:23:47.254Z</time></trkpt><trkpt lat="44.5406168" lon="10.7596812"><ele>124.60000000000001</ele><time>2026-03-22T14:23:48.267Z</time></trkpt><trkpt lat="44.5407124" lon="10.7597389"><ele>123.80000000000001</ele><time>2026-03-22T14:23:49.264Z</time></trkpt><trkpt lat="44.5408203" lon="10.7597954"><ele>123.0</ele><time>2026-03-22T14:23:50.251Z</time></trkpt><trkpt lat="44.5409303" lon="10.7598581"><ele>123.0</ele><time>2026-03-22T14:23:51.255Z</time></trkpt><trkpt lat="44.5410385" lon="10.7599072"><ele>123.0</ele><time>2026-03-22T14:23:52.251Z</time></trkpt><trkpt lat="44.5411447" lon="10.7599618"><ele>123.0</ele><time>2026-03-22T14:23:53.27Z</time></trkpt><trkpt lat="44.5412503" lon="10.7600128"><ele>123.0</ele><time>2026-03-22T14:23:54.251Z</time></trkpt><trkpt lat="44.5413611" lon="10.7600689"><ele>122.80000000000001</ele><time>2026-03-22T14:23:55.253Z</time></trkpt><trkpt lat="44.541473" lon="10.7601338"><ele>122.60000000000001</ele><time>2026-03-22T14:23:56.251Z</time></trkpt><trkpt lat="44.5415786" lon="10.7601931"><ele>122.39999999999999</ele><time>2026-03-22T14:23:57.252Z</time></trkpt><trkpt lat="44.5416707" lon="10.7602675"><ele>122.19999999999999</ele><time>2026-03-22T14:23:58.253Z</time></trkpt><trkpt lat="44.5417514" lon="10.7603393"><ele>122.0</ele><time>2026-03-22T14:23:59.252Z</time></trkpt><trkpt lat="44.541827" lon="10.7604249"><ele>121.99999999999999</ele><time>2026-03-22T14:24:00.259Z</time></trkpt><trkpt lat="44.5419042" lon="10.7605017"><ele>122.0</ele><time>2026-03-22T14:24:01.249Z</time></trkpt><trkpt lat="44.5419371" lon="10.7606049"><ele>122.0</ele><time>2026-03-22T14:24:02.249Z</time></trkpt><trkpt lat="44.5419651" lon="10.7607024"><ele>122.0</ele><time>2026-03-22T14:24:03.256Z</time></trkpt><trkpt lat="44.54199" lon="10.7607902"><ele>121.99999999999999</ele><time>2026-03-22T14:24:04.257Z</time></trkpt><trkpt lat="44.5420657" lon="10.760934"><ele>122.0</ele><time>2026-03-22T14:24:06.262Z</time></trkpt><trkpt lat="44.5421105" lon="10.7609966"><ele>121.39999999999999</ele><time>2026-03-22T14:24:07.25Z</time></trkpt><trkpt lat="44.5421883" lon="10.7610085"><ele>120.79999999999998</ele><time>2026-03-22T14:24:08.249Z</time></trkpt><trkpt lat="44.542286" lon="10.7610108"><ele>120.2</ele><time>2026-03-22T14:24:09.253Z</time></trkpt><trkpt lat="44.5423966" lon="10.7610346"><ele>119.6</ele><time>2026-03-22T14:24:10.256Z</time></trkpt><trkpt lat="44.5425104" lon="10.7610592"><ele>119.0</ele><time>2026-03-22T14:24:11.256Z</time></trkpt><trkpt lat="44.5426169" lon="10.7611386"><ele>119.0</ele><time>2026-03-22T14:24:12.25Z</time></trkpt><trkpt lat="44.5427239" lon="10.7612341"><ele>119.0</ele><time>2026-03-22T14:24:13.262Z</time></trkpt><trkpt lat="44.5428324" lon="10.761341"><ele>119.0</ele><time>2026-03-22T14:24:14.254Z</time></trkpt><trkpt lat="44.5429459" lon="10.7614557"><ele>119.0</ele><time>2026-03-22T14:24:15.255Z</time></trkpt><trkpt lat="44.5430654" lon="10.7615711"><ele>119.25</ele><time>2026-03-22T14:24:16.258Z</time></trkpt><trkpt lat="44.5431844" lon="10.7616881"><ele>119.5</ele><time>2026-03-22T14:24:17.256Z</time></trkpt><trkpt lat="44.5433068" lon="10.7618062"><ele>119.75</ele><time>2026-03-22T14:24:18.269Z</time></trkpt><trkpt lat="44.5434276" lon="10.7619276"><ele>120.0</ele><time>2026-03-22T14:24:19.252Z</time></trkpt><trkpt lat="44.5435504" lon="10.7620473"><ele>120.0</ele><time>2026-03-22T14:24:20.252Z</time></trkpt><trkpt lat="44.5436697" lon="10.7621632"><ele>120.0</ele><time>2026-03-22T14:24:21.257Z</time></trkpt><trkpt lat="44.5437807" lon="10.7622722"><ele>120.0</ele><time>2026-03-22T14:24:22.251Z</time></trkpt><trkpt lat="44.5438772" lon="10.7623653"><ele>120.0</ele><time>2026-03-22T14:24:23.275Z</time></trkpt><trkpt lat="44.5439625" lon="10.7624634"><ele>120.25</ele><time>2026-03-22T14:24:24.256Z</time></trkpt><trkpt lat="44.544047" lon="10.7625598"><ele>120.5</ele><time>2026-03-22T14:24:25.255Z</time></trkpt><trkpt lat="44.5441304" lon="10.7626761"><ele>120.75</ele><time>2026-03-22T14:24:26.256Z</time></trkpt><trkpt lat="44.5442084" lon="10.7628294"><ele>121.0</ele><time>2026-03-22T14:24:27.252Z</time></trkpt><trkpt lat="44.5442735" lon="10.7630239"><ele>121.0</ele><time>2026-03-22T14:24:28.255Z</time></trkpt><trkpt lat="44.5443257" lon="10.7632306"><ele>121.0</ele><time>2026-03-22T14:24:29.251Z</time></trkpt><trkpt lat="44.5443768" lon="10.7634416"><ele>121.0</ele><time>2026-03-22T14:24:30.278Z</time></trkpt><trkpt lat="44.5444294" lon="10.763657"><ele>121.0</ele><time>2026-03-22T14:24:31.259Z</time></trkpt><trkpt lat="44.544484" lon="10.7638706"><ele>121.0</ele><time>2026-03-22T14:24:32.248Z</time></trkpt><trkpt lat="44.5445325" lon="10.7640679"><ele>121.0</ele><time>2026-03-22T14:24:33.248Z</time></trkpt><trkpt lat="44.5445799" lon="10.764243"><ele>121.0</ele><time>2026-03-22T14:24:34.252Z</time></trkpt><trkpt lat="44.5446235" lon="10.7644024"><ele>120.8</ele><time>2026-03-22T14:24:35.271Z</time></trkpt><trkpt lat="44.5446638" lon="10.7645483"><ele>120.6</ele><time>2026-03-22T14:24:36.254Z</time></trkpt><trkpt lat="44.5447071" lon="10.7646885"><ele>120.4</ele><time>2026-03-22T14:24:37.258Z</time></trkpt><trkpt lat="44.5447613" lon="10.7648218"><ele>120.2</ele><time>2026-03-22T14:24:38.25Z</time></trkpt><trkpt lat="44.5448203" lon="10.7649511"><ele>120.0</ele><time>2026-03-22T14:24:39.252Z</time></trkpt><trkpt lat="44.5449169" lon="10.7650723"><ele>120.0</ele><time>2026-03-22T14:24:40.255Z</time></trkpt><trkpt lat="44.5450351" lon="10.7651796"><ele>120.0</ele><time>2026-03-22T14:24:41.252Z</time></trkpt><trkpt lat="44.5451712" lon="10.7652767"><ele>120.0</ele><time>2026-03-22T14:24:42.258Z</time></trkpt><trkpt lat="44.5453165" lon="10.7653661"><ele>118.33333333333334</ele><time>2026-03-22T14:24:43.27Z</time></trkpt><trkpt lat="44.5454641" lon="10.7654279"><ele>116.66666666666667</ele><time>2026-03-22T14:24:44.258Z</time></trkpt><trkpt lat="44.5456137" lon="10.7654696"><ele>115.0</ele><time>2026-03-22T14:24:45.248Z</time></trkpt><trkpt lat="44.5457705" lon="10.7654884"><ele>115.0</ele><time>2026-03-22T14:24:46.247Z</time></trkpt><trkpt lat="44.5459315" lon="10.7654854"><ele>115.0</ele><time>2026-03-22T14:24:47.249Z</time></trkpt><trkpt lat="44.5460921" lon="10.7654644"><ele>115.0</ele><time>2026-03-22T14:24:48.248Z</time></trkpt><trkpt lat="44.5462494" lon="10.7654352"><ele>115.66666666666667</ele><time>2026-03-22T14:24:49.247Z</time></trkpt><trkpt lat="44.5464013" lon="10.765391"><ele>116.33333333333334</ele><time>2026-03-22T14:24:50.252Z</time></trkpt><trkpt lat="44.5465515" lon="10.7653601"><ele>117.0</ele><time>2026-03-22T14:24:51.282Z</time></trkpt><trkpt lat="44.5466929" lon="10.7653222"><ele>117.0</ele><time>2026-03-22T14:24:52.255Z</time></trkpt><trkpt lat="44.5468332" lon="10.7652844"><ele>117.0</ele><time>2026-03-22T14:24:53.254Z</time></trkpt><trkpt lat="44.5469645" lon="10.7652482"><ele>117.0</ele><time>2026-03-22T14:24:54.251Z</time></trkpt><trkpt lat="44.5470984" lon="10.7652182"><ele>117.0</ele><time>2026-03-22T14:24:55.26Z</time></trkpt><trkpt lat="44.5472336" lon="10.7651816"><ele>116.6</ele><time>2026-03-22T14:24:56.253Z</time></trkpt><trkpt lat="44.547346" lon="10.7651467"><ele>116.19999999999999</ele><time>2026-03-22T14:24:57.253Z</time></trkpt><trkpt lat="44.547466" lon="10.7651848"><ele>115.8</ele><time>2026-03-22T14:24:58.259Z</time></trkpt><trkpt lat="44.5475668" lon="10.7652218"><ele>115.4</ele><time>2026-03-22T14:24:59.255Z</time></trkpt><trkpt lat="44.5476485" lon="10.7652828"><ele>115.0</ele><time>2026-03-22T14:25:00.256Z</time></trkpt><trkpt lat="44.5477326" lon="10.7653547"><ele>115.0</ele><time>2026-03-22T14:25:01.317Z</time></trkpt><trkpt lat="44.5478323" lon="10.7654197"><ele>115.0</ele><time>2026-03-22T14:25:02.254Z</time></trkpt><trkpt lat="44.5479388" lon="10.7654641"><ele>115.0</ele><time>2026-03-22T14:25:03.256Z</time></trkpt><trkpt lat="44.5480458" lon="10.7654963"><ele>115.0</ele><time>2026-03-22T14:25:04.248Z</time></trkpt><trkpt lat="44.5481514" lon="10.7655195"><ele>115.0</ele><time>2026-03-22T14:25:05.254Z</time></trkpt><trkpt lat="44.5482467" lon="10.765526"><ele>115.25</ele><time>2026-03-22T14:25:06.275Z</time></trkpt><trkpt lat="44.548359" lon="10.7655422"><ele>115.5</ele><time>2026-03-22T14:25:07.256Z</time></trkpt><trkpt lat="44.548465" lon="10.7655331"><ele>115.75</ele><time>2026-03-22T14:25:08.253Z</time></trkpt><trkpt lat="44.5485874" lon="10.7655532"><ele>116.0</ele><time>2026-03-22T14:25:09.251Z</time></trkpt><trkpt lat="44.5486972" lon="10.7655534"><ele>116.0</ele><time>2026-03-22T14:25:10.253Z</time></trkpt><trkpt lat="44.5488129" lon="10.7655611"><ele>116.0</ele><time>2026-03-22T14:25:11.247Z</time></trkpt><trkpt lat="44.5489322" lon="10.765564"><ele>116.0</ele><time>2026-03-22T14:25:12.253Z</time></trkpt><trkpt lat="44.5490704" lon="10.7655806"><ele>116.0</ele><time>2026-03-22T14:25:13.258Z</time></trkpt><trkpt lat="44.5491994" lon="10.765626"><ele>116.0</ele><time>2026-03-22T14:25:14.247Z</time></trkpt><trkpt lat="44.5493255" lon="10.7656546"><ele>116.0</ele><time>2026-03-22T14:25:15.272Z</time></trkpt><trkpt lat="44.5494589" lon="10.7656636"><ele>116.0</ele><time>2026-03-22T14:25:16.252Z</time></trkpt><trkpt lat="44.5495659" lon="10.7656809"><ele>116.0</ele><time>2026-03-22T14:25:17.251Z</time></trkpt><trkpt lat="44.5496655" lon="10.7656859"><ele>116.16666666666666</ele><time>2026-03-22T14:25:18.253Z</time></trkpt><trkpt lat="44.5497597" lon="10.7656842"><ele>116.33333333333333</ele><time>2026-03-22T14:25:19.256Z</time></trkpt><trkpt lat="44.5498405" lon="10.765703"><ele>116.5</ele><time>2026-03-22T14:25:20.258Z</time></trkpt><trkpt lat="44.5499165" lon="10.7657346"><ele>116.66666666666666</ele><time>2026-03-22T14:25:21.256Z</time></trkpt><trkpt lat="44.549973" lon="10.7658168"><ele>116.83333333333333</ele><time>2026-03-22T14:25:22.275Z</time></trkpt><trkpt lat="44.5500121" lon="10.7659327"><ele>117.0</ele><time>2026-03-22T14:25:23.255Z</time></trkpt><trkpt lat="44.5500243" lon="10.7660685"><ele>117.0</ele><time>2026-03-22T14:25:24.25Z</time></trkpt><trkpt lat="44.5500066" lon="10.7662127"><ele>117.0</ele><time>2026-03-22T14:25:25.252Z</time></trkpt><trkpt lat="44.5499642" lon="10.7663679"><ele>117.0</ele><time>2026-03-22T14:25:26.258Z</time></trkpt><trkpt lat="44.549905" lon="10.7665358"><ele>117.0</ele><time>2026-03-22T14:25:27.253Z</time></trkpt><trkpt lat="44.5498499" lon="10.7667232"><ele>116.33333333333334</ele><time>2026-03-22T14:25:28.278Z</time></trkpt><trkpt lat="44.5498036" lon="10.7669217"><ele>115.66666666666667</ele><time>2026-03-22T14:25:29.252Z</time></trkpt><trkpt lat="44.5497392" lon="10.7671391"><ele>115.0</ele><time>2026-03-22T14:25:30.252Z</time></trkpt><trkpt lat="44.5496724" lon="10.7673671"><ele>115.0</ele><time>2026-03-22T14:25:31.255Z</time></trkpt><trkpt lat="44.5496107" lon="10.7675978"><ele>115.0</ele><time>2026-03-22T14:25:32.259Z</time></trkpt><trkpt lat="44.5495414" lon="10.7678436"><ele>115.0</ele><time>2026-03-22T14:25:33.265Z</time></trkpt><trkpt lat="44.5494655" lon="10.7681077"><ele>114.66666666666667</ele><time>2026-03-22T14:25:34.256Z</time></trkpt><trkpt lat="44.5493854" lon="10.7683803"><ele>114.33333333333334</ele><time>2026-03-22T14:25:35.269Z</time></trkpt><trkpt lat="44.5493056" lon="10.7686457"><ele>114.0</ele><time>2026-03-22T14:25:36.256Z</time></trkpt><trkpt lat="44.549229" lon="10.7689088"><ele>112.33333333333334</ele><time>2026-03-22T14:25:37.255Z</time></trkpt><trkpt lat="44.5491531" lon="10.7691654"><ele>110.66666666666667</ele><time>2026-03-22T14:25:38.251Z</time></trkpt><trkpt lat="44.5490779" lon="10.7694172"><ele>109.0</ele><time>2026-03-22T14:25:39.249Z</time></trkpt><trkpt lat="44.5490056" lon="10.7696648"><ele>108.33333333333334</ele><time>2026-03-22T14:25:40.249Z</time></trkpt><trkpt lat="44.5489346" lon="10.7699053"><ele>107.66666666666666</ele><time>2026-03-22T14:25:41.246Z</time></trkpt><trkpt lat="44.5488633" lon="10.7701433"><ele>107.0</ele><time>2026-03-22T14:25:42.261Z</time></trkpt><trkpt lat="44.5487953" lon="10.7703772"><ele>107.0</ele><time>2026-03-22T14:25:43.261Z</time></trkpt><trkpt lat="44.5487279" lon="10.7706078"><ele>107.0</ele><time>2026-03-22T14:25:44.257Z</time></trkpt><trkpt lat="44.5486608" lon="10.7708378"><ele>107.0</ele><time>2026-03-22T14:25:45.249Z</time></trkpt><trkpt lat="44.5485957" lon="10.7710643"><ele>108.66666666666666</ele><time>2026-03-22T14:25:46.259Z</time></trkpt><trkpt lat="44.5485311" lon="10.7712838"><ele>110.33333333333334</ele><time>2026-03-22T14:25:47.254Z</time></trkpt><trkpt lat="44.5484686" lon="10.7714977"><ele>112.0</ele><time>2026-03-22T14:25:48.259Z</time></trkpt><trkpt lat="44.5484021" lon="10.7717049"><ele>112.66666666666667</ele><time>2026-03-22T14:25:49.255Z</time></trkpt><trkpt lat="44.5483438" lon="10.7719091"><ele>113.33333333333334</ele><time>2026-03-22T14:25:50.256Z</time></trkpt><trkpt lat="44.5482874" lon="10.772109"><ele>114.0</ele><time>2026-03-22T14:25:51.267Z</time></trkpt><trkpt lat="44.5482334" lon="10.7723016"><ele>114.0</ele><time>2026-03-22T14:25:52.254Z</time></trkpt><trkpt lat="44.5481789" lon="10.7724785"><ele>114.0</ele><time>2026-03-22T14:25:53.253Z</time></trkpt><trkpt lat="44.5481338" lon="10.7726444"><ele>114.0</ele><time>2026-03-22T14:25:54.254Z</time></trkpt><trkpt lat="44.5480865" lon="10.7728017"><ele>114.0</ele><time>2026-03-22T14:25:55.252Z</time></trkpt><trkpt lat="44.5480386" lon="10.7729559"><ele>114.0</ele><time>2026-03-22T14:25:56.248Z</time></trkpt><trkpt lat="44.5479917" lon="10.7731099"><ele>114.0</ele><time>2026-03-22T14:25:57.256Z</time></trkpt><trkpt lat="44.5479454" lon="10.7732685"><ele>114.0</ele><time>2026-03-22T14:25:58.255Z</time></trkpt><trkpt lat="44.5479007" lon="10.7734272"><ele>114.0</ele><time>2026-03-22T14:25:59.27Z</time></trkpt><trkpt lat="44.5478549" lon="10.773594"><ele>114.0</ele><time>2026-03-22T14:26:00.256Z</time></trkpt><trkpt lat="44.5478256" lon="10.7737542"><ele>114.0</ele><time>2026-03-22T14:26:01.252Z</time></trkpt><trkpt lat="44.5477661" lon="10.7739113"><ele>114.0</ele><time>2026-03-22T14:26:02.254Z</time></trkpt><trkpt lat="44.5477131" lon="10.7740781"><ele>114.0</ele><time>2026-03-22T14:26:03.259Z</time></trkpt><trkpt lat="44.5476706" lon="10.7742431"><ele>113.5</ele><time>2026-03-22T14:26:04.278Z</time></trkpt><trkpt lat="44.5476265" lon="10.774406"><ele>113.0</ele><time>2026-03-22T14:26:05.251Z</time></trkpt><trkpt lat="44.5475804" lon="10.7745688"><ele>112.5</ele><time>2026-03-22T14:26:06.259Z</time></trkpt><trkpt lat="44.5475271" lon="10.774728"><ele>112.0</ele><time>2026-03-22T14:26:07.251Z</time></trkpt><trkpt lat="44.5474751" lon="10.7748864"><ele>112.0</ele><time>2026-03-22T14:26:08.253Z</time></trkpt><trkpt lat="44.5474116" lon="10.7750102"><ele>111.99999999999999</ele><time>2026-03-22T14:26:09.25Z</time></trkpt><trkpt lat="44.5473324" lon="10.7750878"><ele>111.99999999999999</ele><time>2026-03-22T14:26:10.252Z</time></trkpt><trkpt lat="44.5472446" lon="10.7751142"><ele>112.0</ele><time>2026-03-22T14:26:11.25Z</time></trkpt><trkpt lat="44.5471489" lon="10.7750966"><ele>112.0</ele><time>2026-03-22T14:26:12.254Z</time></trkpt><trkpt lat="44.5470476" lon="10.7750498"><ele>112.5</ele><time>2026-03-22T14:26:13.25Z</time></trkpt><trkpt lat="44.5469373" lon="10.7749731"><ele>113.0</ele><time>2026-03-22T14:26:14.271Z</time></trkpt><trkpt lat="44.5468013" lon="10.7748806"><ele>113.5</ele><time>2026-03-22T14:26:15.246Z</time></trkpt><trkpt lat="44.546677" lon="10.7747915"><ele>114.0</ele><time>2026-03-22T14:26:16.254Z</time></trkpt><trkpt lat="44.54656" lon="10.7747117"><ele>114.0</ele><time>2026-03-22T14:26:17.248Z</time></trkpt><trkpt lat="44.5464515" lon="10.7746341"><ele>114.0</ele><time>2026-03-22T14:26:18.251Z</time></trkpt><trkpt lat="44.5463501" lon="10.77457"><ele>114.0</ele><time>2026-03-22T14:26:19.252Z</time></trkpt><trkpt lat="44.5462575" lon="10.7745071"><ele>114.0</ele><time>2026-03-22T14:26:20.249Z</time></trkpt><trkpt lat="44.5461698" lon="10.7744481"><ele>114.0</ele><time>2026-03-22T14:26:21.245Z</time></trkpt><trkpt lat="44.5460777" lon="10.7743891"><ele>114.0</ele><time>2026-03-22T14:26:22.261Z</time></trkpt><trkpt lat="44.5459846" lon="10.774327"><ele>114.0</ele><time>2026-03-22T14:26:23.251Z</time></trkpt><trkpt lat="44.545893" lon="10.7742703"><ele>114.0</ele><time>2026-03-22T14:26:24.253Z</time></trkpt><trkpt lat="44.545818" lon="10.7742341"><ele>114.0</ele><time>2026-03-22T14:26:25.248Z</time></trkpt><trkpt lat="44.5457503" lon="10.7742351"><ele>114.0</ele><time>2026-03-22T14:26:26.248Z</time></trkpt><trkpt lat="44.5456735" lon="10.7743442"><ele>114.0</ele><time>2026-03-22T14:26:28.247Z</time></trkpt><trkpt lat="44.5456959" lon="10.7745149"><ele>114.0</ele><time>2026-03-22T14:26:30.256Z</time></trkpt><trkpt lat="44.5457749" lon="10.7745862"><ele>114.0</ele><time>2026-03-22T14:26:31.256Z</time></trkpt><trkpt lat="44.5458784" lon="10.7746752"><ele>114.0</ele><time>2026-03-22T14:26:32.266Z</time></trkpt><trkpt lat="44.5460157" lon="10.7747808"><ele>114.0</ele><time>2026-03-22T14:26:33.254Z</time></trkpt><trkpt lat="44.546165" lon="10.7748945"><ele>114.0</ele><time>2026-03-22T14:26:34.252Z</time></trkpt><trkpt lat="44.5463116" lon="10.7749993"><ele>114.0</ele><time>2026-03-22T14:26:35.254Z</time></trkpt><trkpt lat="44.5464595" lon="10.7751043"><ele>114.66666666666666</ele><time>2026-03-22T14:26:36.255Z</time></trkpt><trkpt lat="44.5466073" lon="10.7752054"><ele>115.33333333333333</ele><time>2026-03-22T14:26:37.278Z</time></trkpt><trkpt lat="44.5467422" lon="10.7752972"><ele>116.0</ele><time>2026-03-22T14:26:38.256Z</time></trkpt><trkpt lat="44.5468679" lon="10.7753877"><ele>116.0</ele><time>2026-03-22T14:26:39.255Z</time></trkpt><trkpt lat="44.5469836" lon="10.7754699"><ele>116.0</ele><time>2026-03-22T14:26:40.255Z</time></trkpt><trkpt lat="44.5470955" lon="10.7755492"><ele>116.0</ele><time>2026-03-22T14:26:41.258Z</time></trkpt><trkpt lat="44.5472107" lon="10.7756329"><ele>116.0</ele><time>2026-03-22T14:26:42.248Z</time></trkpt><trkpt lat="44.5473265" lon="10.7757141"><ele>116.0</ele><time>2026-03-22T14:26:43.26Z</time></trkpt><trkpt lat="44.547449" lon="10.7758008"><ele>116.0</ele><time>2026-03-22T14:26:44.255Z</time></trkpt><trkpt lat="44.5475557" lon="10.7758683"><ele>116.0</ele><time>2026-03-22T14:26:45.258Z</time></trkpt><trkpt lat="44.5476675" lon="10.7759437"><ele>116.0</ele><time>2026-03-22T14:26:46.254Z</time></trkpt><trkpt lat="44.5477909" lon="10.7760221"><ele>115.75</ele><time>2026-03-22T14:26:47.252Z</time></trkpt><trkpt lat="44.5479195" lon="10.7761078"><ele>115.5</ele><time>2026-03-22T14:26:48.255Z</time></trkpt><trkpt lat="44.5480388" lon="10.7761881"><ele>115.25</ele><time>2026-03-22T14:26:49.255Z</time></trkpt><trkpt lat="44.5481568" lon="10.7762697"><ele>115.0</ele><time>2026-03-22T14:26:50.257Z</time></trkpt><trkpt lat="44.5482842" lon="10.7763539"><ele>115.0</ele><time>2026-03-22T14:26:51.255Z</time></trkpt><trkpt lat="44.5484116" lon="10.7764435"><ele>115.0</ele><time>2026-03-22T14:26:52.258Z</time></trkpt><trkpt lat="44.5485398" lon="10.776536"><ele>115.0</ele><time>2026-03-22T14:26:53.247Z</time></trkpt><trkpt lat="44.5486729" lon="10.7766255"><ele>115.0</ele><time>2026-03-22T14:26:54.259Z</time></trkpt><trkpt lat="44.5488063" lon="10.7767189"><ele>114.33333333333334</ele><time>2026-03-22T14:26:55.248Z</time></trkpt><trkpt lat="44.5489408" lon="10.7768102"><ele>113.66666666666666</ele><time>2026-03-22T14:26:56.246Z</time></trkpt><trkpt lat="44.5490768" lon="10.7769011"><ele>113.0</ele><time>2026-03-22T14:26:57.254Z</time></trkpt><trkpt lat="44.5492133" lon="10.7769933"><ele>112.66666666666666</ele><time>2026-03-22T14:26:58.251Z</time></trkpt><trkpt lat="44.5493542" lon="10.7770889"><ele>112.33333333333334</ele><time>2026-03-22T14:26:59.254Z</time></trkpt><trkpt lat="44.5495001" lon="10.7771853"><ele>112.0</ele><time>2026-03-22T14:27:00.253Z</time></trkpt><trkpt lat="44.5496489" lon="10.7772839"><ele>111.66666666666667</ele><time>2026-03-22T14:27:01.255Z</time></trkpt><trkpt lat="44.5497992" lon="10.7773862"><ele>111.33333333333334</ele><time>2026-03-22T14:27:02.246Z</time></trkpt><trkpt lat="44.5499516" lon="10.7774891"><ele>111.0</ele><time>2026-03-22T14:27:03.281Z</time></trkpt><trkpt lat="44.5501019" lon="10.7775898"><ele>111.33333333333334</ele><time>2026-03-22T14:27:04.254Z</time></trkpt><trkpt lat="44.5502492" lon="10.777691"><ele>111.66666666666667</ele><time>2026-03-22T14:27:05.249Z</time></trkpt><trkpt lat="44.5503953" lon="10.7777905"><ele>112.0</ele><time>2026-03-22T14:27:06.249Z</time></trkpt><trkpt lat="44.5505385" lon="10.7778896"><ele>112.0</ele><time>2026-03-22T14:27:07.248Z</time></trkpt><trkpt lat="44.5506732" lon="10.7779798"><ele>112.0</ele><time>2026-03-22T14:27:08.274Z</time></trkpt><trkpt lat="44.5508065" lon="10.7780668"><ele>112.0</ele><time>2026-03-22T14:27:09.248Z</time></trkpt><trkpt lat="44.5509351" lon="10.7781529"><ele>112.0</ele><time>2026-03-22T14:27:10.256Z</time></trkpt><trkpt lat="44.5510549" lon="10.7782331"><ele>112.0</ele><time>2026-03-22T14:27:11.248Z</time></trkpt><trkpt lat="44.551166" lon="10.7783069"><ele>112.0</ele><time>2026-03-22T14:27:12.254Z</time></trkpt><trkpt lat="44.5512721" lon="10.7783734"><ele>112.0</ele><time>2026-03-22T14:27:13.256Z</time></trkpt><trkpt lat="44.551366" lon="10.7784644"><ele>112.0</ele><time>2026-03-22T14:27:14.248Z</time></trkpt><trkpt lat="44.551448" lon="10.7785733"><ele>111.75</ele><time>2026-03-22T14:27:15.268Z</time></trkpt><trkpt lat="44.5515214" lon="10.7787087"><ele>111.5</ele><time>2026-03-22T14:27:16.259Z</time></trkpt><trkpt lat="44.5515857" lon="10.7788639"><ele>111.25</ele><time>2026-03-22T14:27:17.249Z</time></trkpt><trkpt lat="44.5516496" lon="10.7790277"><ele>111.0</ele><time>2026-03-22T14:27:18.256Z</time></trkpt><trkpt lat="44.5517133" lon="10.7791869"><ele>111.0</ele><time>2026-03-22T14:27:19.258Z</time></trkpt><trkpt lat="44.5517875" lon="10.7793362"><ele>111.0</ele><time>2026-03-22T14:27:20.272Z</time></trkpt><trkpt lat="44.5518744" lon="10.7794672"><ele>111.0</ele><time>2026-03-22T14:27:21.256Z</time></trkpt><trkpt lat="44.5519638" lon="10.7796036"><ele>111.0</ele><time>2026-03-22T14:27:22.257Z</time></trkpt><trkpt lat="44.5520804" lon="10.7797124"><ele>111.0</ele><time>2026-03-22T14:27:23.252Z</time></trkpt><trkpt lat="44.5522029" lon="10.7797905"><ele>111.0</ele><time>2026-03-22T14:27:24.254Z</time></trkpt><trkpt lat="44.5523298" lon="10.7798626"><ele>111.0</ele><time>2026-03-22T14:27:25.256Z</time></trkpt><trkpt lat="44.5524532" lon="10.779949"><ele>111.0</ele><time>2026-03-22T14:27:26.257Z</time></trkpt><trkpt lat="44.5525908" lon="10.7800298"><ele>111.0</ele><time>2026-03-22T14:27:27.259Z</time></trkpt><trkpt lat="44.5527293" lon="10.7801126"><ele>111.0</ele><time>2026-03-22T14:27:28.258Z</time></trkpt><trkpt lat="44.5528735" lon="10.7802015"><ele>111.0</ele><time>2026-03-22T14:27:29.257Z</time></trkpt><trkpt lat="44.5530209" lon="10.7802991"><ele>110.33333333333334</ele><time>2026-03-22T14:27:30.273Z</time></trkpt><trkpt lat="44.5531696" lon="10.7803998"><ele>109.66666666666667</ele><time>2026-03-22T14:27:31.258Z</time></trkpt><trkpt lat="44.5533028" lon="10.7805014"><ele>109.0</ele><time>2026-03-22T14:27:32.258Z</time></trkpt><trkpt lat="44.553422" lon="10.7806052"><ele>109.0</ele><time>2026-03-22T14:27:33.254Z</time></trkpt><trkpt lat="44.5535295" lon="10.780708"><ele>109.0</ele><time>2026-03-22T14:27:34.254Z</time></trkpt><trkpt lat="44.5536144" lon="10.7808418"><ele>109.0</ele><time>2026-03-22T14:27:35.253Z</time></trkpt><trkpt lat="44.5536858" lon="10.7809976"><ele>109.0</ele><time>2026-03-22T14:27:36.256Z</time></trkpt><trkpt lat="44.5537306" lon="10.7811614"><ele>109.0</ele><time>2026-03-22T14:27:37.254Z</time></trkpt><trkpt lat="44.5537583" lon="10.7813239"><ele>109.0</ele><time>2026-03-22T14:27:38.258Z</time></trkpt><trkpt lat="44.5537671" lon="10.7815002"><ele>109.0</ele><time>2026-03-22T14:27:39.257Z</time></trkpt><trkpt lat="44.5537497" lon="10.7816901"><ele>109.0</ele><time>2026-03-22T14:27:40.274Z</time></trkpt><trkpt lat="44.5537204" lon="10.781894"><ele>108.66666666666667</ele><time>2026-03-22T14:27:41.252Z</time></trkpt><trkpt lat="44.5536838" lon="10.7820977"><ele>108.33333333333334</ele><time>2026-03-22T14:27:42.255Z</time></trkpt><trkpt lat="44.5536443" lon="10.7823019"><ele>108.0</ele><time>2026-03-22T14:27:43.255Z</time></trkpt><trkpt lat="44.5536046" lon="10.7825086"><ele>109.0</ele><time>2026-03-22T14:27:44.251Z</time></trkpt><trkpt lat="44.5535641" lon="10.7827213"><ele>110.0</ele><time>2026-03-22T14:27:45.273Z</time></trkpt><trkpt lat="44.5535234" lon="10.7829383"><ele>111.0</ele><time>2026-03-22T14:27:46.257Z</time></trkpt><trkpt lat="44.5534818" lon="10.7831622"><ele>111.0</ele><time>2026-03-22T14:27:47.258Z</time></trkpt><trkpt lat="44.5534405" lon="10.7833889"><ele>111.0</ele><time>2026-03-22T14:27:48.262Z</time></trkpt><trkpt lat="44.5533998" lon="10.7836068"><ele>111.0</ele><time>2026-03-22T14:27:49.259Z</time></trkpt><trkpt lat="44.5533635" lon="10.7838041"><ele>110.5</ele><time>2026-03-22T14:27:50.271Z</time></trkpt><trkpt lat="44.5533305" lon="10.7839837"><ele>110.0</ele><time>2026-03-22T14:27:51.255Z</time></trkpt><trkpt lat="44.5533003" lon="10.7841551"><ele>109.5</ele><time>2026-03-22T14:27:52.251Z</time></trkpt><trkpt lat="44.5532739" lon="10.7843167"><ele>109.0</ele><time>2026-03-22T14:27:53.256Z</time></trkpt><trkpt lat="44.5532498" lon="10.784467"><ele>109.0</ele><time>2026-03-22T14:27:54.257Z</time></trkpt><trkpt lat="44.5532287" lon="10.7846092"><ele>109.0</ele><time>2026-03-22T14:27:55.254Z</time></trkpt><trkpt lat="44.5532077" lon="10.7847489"><ele>109.0</ele><time>2026-03-22T14:27:56.254Z</time></trkpt><trkpt lat="44.5531821" lon="10.7848835"><ele>109.0</ele><time>2026-03-22T14:27:57.255Z</time></trkpt><trkpt lat="44.55313" lon="10.7850102"><ele>109.0</ele><time>2026-03-22T14:27:58.264Z</time></trkpt><trkpt lat="44.5530791" lon="10.7851244"><ele>108.33333333333334</ele><time>2026-03-22T14:27:59.253Z</time></trkpt><trkpt lat="44.5530496" lon="10.7852424"><ele>107.66666666666667</ele><time>2026-03-22T14:28:00.263Z</time></trkpt><trkpt lat="44.5530552" lon="10.7853686"><ele>107.0</ele><time>2026-03-22T14:28:01.252Z</time></trkpt><trkpt lat="44.5530865" lon="10.7854744"><ele>106.33333333333334</ele><time>2026-03-22T14:28:02.25Z</time></trkpt><trkpt lat="44.5531471" lon="10.7855473"><ele>105.66666666666667</ele><time>2026-03-22T14:28:03.256Z</time></trkpt><trkpt lat="44.5532319" lon="10.7855874"><ele>105.0</ele><time>2026-03-22T14:28:04.253Z</time></trkpt><trkpt lat="44.5533346" lon="10.7856046"><ele>105.0</ele><time>2026-03-22T14:28:05.248Z</time></trkpt><trkpt lat="44.5534609" lon="10.7856231"><ele>105.0</ele><time>2026-03-22T14:28:06.267Z</time></trkpt><trkpt lat="44.553601" lon="10.7856658"><ele>105.0</ele><time>2026-03-22T14:28:07.253Z</time></trkpt><trkpt lat="44.5537446" lon="10.7857348"><ele>105.0</ele><time>2026-03-22T14:28:08.248Z</time></trkpt><trkpt lat="44.5538914" lon="10.7858162"><ele>105.33333333333334</ele><time>2026-03-22T14:28:09.252Z</time></trkpt><trkpt lat="44.5540446" lon="10.7859067"><ele>105.66666666666667</ele><time>2026-03-22T14:28:10.251Z</time></trkpt><trkpt lat="44.554204" lon="10.7859995"><ele>106.0</ele><time>2026-03-22T14:28:11.269Z</time></trkpt><trkpt lat="44.5543678" lon="10.7860938"><ele>106.33333333333334</ele><time>2026-03-22T14:28:12.255Z</time></trkpt><trkpt lat="44.5545292" lon="10.7861863"><ele>106.66666666666666</ele><time>2026-03-22T14:28:13.25Z</time></trkpt><trkpt lat="44.5546845" lon="10.7862736"><ele>107.0</ele><time>2026-03-22T14:28:14.255Z</time></trkpt><trkpt lat="44.5548337" lon="10.7863556"><ele>107.66666666666666</ele><time>2026-03-22T14:28:15.25Z</time></trkpt><trkpt lat="44.5549783" lon="10.7864388"><ele>108.33333333333334</ele><time>2026-03-22T14:28:16.251Z</time></trkpt><trkpt lat="44.5551193" lon="10.7865204"><ele>109.0</ele><time>2026-03-22T14:28:17.256Z</time></trkpt><trkpt lat="44.5552569" lon="10.7866027"><ele>108.75</ele><time>2026-03-22T14:28:18.258Z</time></trkpt><trkpt lat="44.5553922" lon="10.7866821"><ele>108.5</ele><time>2026-03-22T14:28:19.255Z</time></trkpt><trkpt lat="44.555528" lon="10.7867641"><ele>108.25</ele><time>2026-03-22T14:28:20.267Z</time></trkpt><trkpt lat="44.5556676" lon="10.7868473"><ele>108.0</ele><time>2026-03-22T14:28:21.253Z</time></trkpt><trkpt lat="44.555811" lon="10.7869308"><ele>108.0</ele><time>2026-03-22T14:28:22.256Z</time></trkpt><trkpt lat="44.5559583" lon="10.7870181"><ele>108.0</ele><time>2026-03-22T14:28:23.255Z</time></trkpt><trkpt lat="44.5561021" lon="10.7870916"><ele>108.0</ele><time>2026-03-22T14:28:24.255Z</time></trkpt><trkpt lat="44.5562468" lon="10.7871742"><ele>107.5</ele><time>2026-03-22T14:28:25.248Z</time></trkpt><trkpt lat="44.5563859" lon="10.7872581"><ele>107.0</ele><time>2026-03-22T14:28:26.248Z</time></trkpt><trkpt lat="44.5565214" lon="10.7873404"><ele>106.5</ele><time>2026-03-22T14:28:27.251Z</time></trkpt><trkpt lat="44.5566535" lon="10.7874209"><ele>106.0</ele><time>2026-03-22T14:28:28.251Z</time></trkpt><trkpt lat="44.5567817" lon="10.7874977"><ele>106.0</ele><time>2026-03-22T14:28:29.265Z</time></trkpt><trkpt lat="44.5569057" lon="10.7875697"><ele>106.0</ele><time>2026-03-22T14:28:30.249Z</time></trkpt><trkpt lat="44.5570224" lon="10.7876392"><ele>106.0</ele><time>2026-03-22T14:28:31.248Z</time></trkpt><trkpt lat="44.5571303" lon="10.7877057"><ele>106.0</ele><time>2026-03-22T14:28:32.256Z</time></trkpt><trkpt lat="44.5572303" lon="10.7877678"><ele>105.6</ele><time>2026-03-22T14:28:33.255Z</time></trkpt><trkpt lat="44.5573191" lon="10.7878144"><ele>105.19999999999999</ele><time>2026-03-22T14:28:34.254Z</time></trkpt><trkpt lat="44.5574069" lon="10.7878915"><ele>104.80000000000001</ele><time>2026-03-22T14:28:35.27Z</time></trkpt><trkpt lat="44.5574708" lon="10.7879986"><ele>104.4</ele><time>2026-03-22T14:28:36.25Z</time></trkpt><trkpt lat="44.5575229" lon="10.7881161"><ele>104.0</ele><time>2026-03-22T14:28:37.251Z</time></trkpt><trkpt lat="44.557577" lon="10.7882395"><ele>104.0</ele><time>2026-03-22T14:28:38.254Z</time></trkpt><trkpt lat="44.5576451" lon="10.7883439"><ele>104.0</ele><time>2026-03-22T14:28:39.25Z</time></trkpt><trkpt lat="44.5577215" lon="10.7884036"><ele>104.0</ele><time>2026-03-22T14:28:40.258Z</time></trkpt><trkpt lat="44.5578094" lon="10.7884315"><ele>104.0</ele><time>2026-03-22T14:28:41.251Z</time></trkpt><trkpt lat="44.5579065" lon="10.7884159"><ele>104.0</ele><time>2026-03-22T14:28:42.267Z</time></trkpt><trkpt lat="44.5580138" lon="10.7883923"><ele>103.5</ele><time>2026-03-22T14:28:43.25Z</time></trkpt><trkpt lat="44.5581374" lon="10.7883617"><ele>103.0</ele><time>2026-03-22T14:28:44.252Z</time></trkpt><trkpt lat="44.5582686" lon="10.7883763"><ele>102.5</ele><time>2026-03-22T14:28:45.252Z</time></trkpt><trkpt lat="44.5584112" lon="10.7884316"><ele>102.0</ele><time>2026-03-22T14:28:46.247Z</time></trkpt><trkpt lat="44.558558" lon="10.7885142"><ele>102.66666666666666</ele><time>2026-03-22T14:28:47.25Z</time></trkpt><trkpt lat="44.5587184" lon="10.7886078"><ele>103.33333333333333</ele><time>2026-03-22T14:28:48.247Z</time></trkpt><trkpt lat="44.5588796" lon="10.7887044"><ele>104.0</ele><time>2026-03-22T14:28:49.252Z</time></trkpt><trkpt lat="44.55907" lon="10.7888116"><ele>104.0</ele><time>2026-03-22T14:28:50.252Z</time></trkpt><trkpt lat="44.5592593" lon="10.7889148"><ele>104.0</ele><time>2026-03-22T14:28:51.256Z</time></trkpt><trkpt lat="44.5594324" lon="10.7890149"><ele>104.0</ele><time>2026-03-22T14:28:52.249Z</time></trkpt><trkpt lat="44.5595935" lon="10.7890995"><ele>104.0</ele><time>2026-03-22T14:28:53.249Z</time></trkpt><trkpt lat="44.5597407" lon="10.7891843"><ele>104.0</ele><time>2026-03-22T14:28:54.261Z</time></trkpt><trkpt lat="44.5598859" lon="10.789268"><ele>104.0</ele><time>2026-03-22T14:28:55.25Z</time></trkpt><trkpt lat="44.5600318" lon="10.7893528"><ele>104.25</ele><time>2026-03-22T14:28:56.264Z</time></trkpt><trkpt lat="44.560173" lon="10.789435"><ele>104.5</ele><time>2026-03-22T14:28:57.251Z</time></trkpt><trkpt lat="44.5603103" lon="10.7895173"><ele>104.75</ele><time>2026-03-22T14:28:58.252Z</time></trkpt><trkpt lat="44.5604434" lon="10.7895948"><ele>105.0</ele><time>2026-03-22T14:28:59.251Z</time></trkpt><trkpt lat="44.5605782" lon="10.7896745"><ele>104.0</ele><time>2026-03-22T14:29:00.249Z</time></trkpt><trkpt lat="44.560717" lon="10.7897556"><ele>103.0</ele><time>2026-03-22T14:29:01.251Z</time></trkpt><trkpt lat="44.5608575" lon="10.7898383"><ele>102.0</ele><time>2026-03-22T14:29:02.272Z</time></trkpt><trkpt lat="44.5609993" lon="10.78992"><ele>102.0</ele><time>2026-03-22T14:29:03.251Z</time></trkpt><trkpt lat="44.5611413" lon="10.7899996"><ele>102.0</ele><time>2026-03-22T14:29:04.251Z</time></trkpt><trkpt lat="44.5612832" lon="10.7900813"><ele>102.0</ele><time>2026-03-22T14:29:05.252Z</time></trkpt><trkpt lat="44.5614259" lon="10.7901675"><ele>101.33333333333334</ele><time>2026-03-22T14:29:06.255Z</time></trkpt><trkpt lat="44.5615733" lon="10.7902547"><ele>100.66666666666667</ele><time>2026-03-22T14:29:07.251Z</time></trkpt><trkpt lat="44.5617248" lon="10.790342"><ele>100.0</ele><time>2026-03-22T14:29:08.267Z</time></trkpt><trkpt lat="44.5618788" lon="10.7904307"><ele>99.66666666666667</ele><time>2026-03-22T14:29:09.251Z</time></trkpt><trkpt lat="44.5620357" lon="10.7905256"><ele>99.33333333333334</ele><time>2026-03-22T14:29:10.249Z</time></trkpt><trkpt lat="44.562196" lon="10.7906233"><ele>99.0</ele><time>2026-03-22T14:29:11.248Z</time></trkpt><trkpt lat="44.5623596" lon="10.7907197"><ele>99.0</ele><time>2026-03-22T14:29:12.252Z</time></trkpt><trkpt lat="44.5625273" lon="10.7908142"><ele>99.0</ele><time>2026-03-22T14:29:13.251Z</time></trkpt><trkpt lat="44.5626942" lon="10.7909083"><ele>99.0</ele><time>2026-03-22T14:29:14.274Z</time></trkpt><trkpt lat="44.562861" lon="10.7910058"><ele>99.33333333333334</ele><time>2026-03-22T14:29:15.249Z</time></trkpt><trkpt lat="44.5630285" lon="10.7911039"><ele>99.66666666666667</ele><time>2026-03-22T14:29:16.254Z</time></trkpt><trkpt lat="44.5631954" lon="10.7912011"><ele>100.0</ele><time>2026-03-22T14:29:17.251Z</time></trkpt><trkpt lat="44.5633525" lon="10.7912923"><ele>100.0</ele><time>2026-03-22T14:29:18.252Z</time></trkpt><trkpt lat="44.5635022" lon="10.7913784"><ele>100.0</ele><time>2026-03-22T14:29:19.248Z</time></trkpt><trkpt lat="44.5636497" lon="10.7914664"><ele>100.0</ele><time>2026-03-22T14:29:20.265Z</time></trkpt><trkpt lat="44.5637968" lon="10.791558"><ele>99.5</ele><time>2026-03-22T14:29:21.251Z</time></trkpt><trkpt lat="44.563939" lon="10.7916516"><ele>99.0</ele><time>2026-03-22T14:29:22.247Z</time></trkpt><trkpt lat="44.5640731" lon="10.7917431"><ele>98.5</ele><time>2026-03-22T14:29:23.26Z</time></trkpt><trkpt lat="44.5641964" lon="10.7918254"><ele>98.0</ele><time>2026-03-22T14:29:24.25Z</time></trkpt><trkpt lat="44.56431" lon="10.791902"><ele>98.0</ele><time>2026-03-22T14:29:25.276Z</time></trkpt><trkpt lat="44.5644154" lon="10.7919889"><ele>98.0</ele><time>2026-03-22T14:29:26.249Z</time></trkpt><trkpt lat="44.5645103" lon="10.7920858"><ele>98.0</ele><time>2026-03-22T14:29:27.251Z</time></trkpt><trkpt lat="44.5645796" lon="10.792219"><ele>98.0</ele><time>2026-03-22T14:29:28.256Z</time></trkpt><trkpt lat="44.5646355" lon="10.7923806"><ele>98.5</ele><time>2026-03-22T14:29:29.255Z</time></trkpt><trkpt lat="44.5646815" lon="10.7925444"><ele>99.0</ele><time>2026-03-22T14:29:30.251Z</time></trkpt><trkpt lat="44.5646925" lon="10.7927411"><ele>99.5</ele><time>2026-03-22T14:29:31.259Z</time></trkpt><trkpt lat="44.5646924" lon="10.7929406"><ele>100.0</ele><time>2026-03-22T14:29:32.259Z</time></trkpt><trkpt lat="44.5646852" lon="10.7931374"><ele>100.0</ele><time>2026-03-22T14:29:33.255Z</time></trkpt><trkpt lat="44.5646838" lon="10.7933342"><ele>100.0</ele><time>2026-03-22T14:29:34.255Z</time></trkpt><trkpt lat="44.5646745" lon="10.7935316"><ele>100.0</ele><time>2026-03-22T14:29:35.25Z</time></trkpt><trkpt lat="44.564651" lon="10.7937324"><ele>100.0</ele><time>2026-03-22T14:29:36.269Z</time></trkpt><trkpt lat="44.5646139" lon="10.793939"><ele>100.0</ele><time>2026-03-22T14:29:37.254Z</time></trkpt><trkpt lat="44.564569" lon="10.7941446"><ele>100.0</ele><time>2026-03-22T14:29:38.254Z</time></trkpt><trkpt lat="44.5645214" lon="10.794366"><ele>100.0</ele><time>2026-03-22T14:29:39.257Z</time></trkpt><trkpt lat="44.564471" lon="10.79461"><ele>100.0</ele><time>2026-03-22T14:29:40.249Z</time></trkpt><trkpt lat="44.56441" lon="10.7948776"><ele>100.0</ele><time>2026-03-22T14:29:41.277Z</time></trkpt><trkpt lat="44.5643457" lon="10.7951656"><ele>100.0</ele><time>2026-03-22T14:29:42.255Z</time></trkpt><trkpt lat="44.5642782" lon="10.7954634"><ele>100.33333333333334</ele><time>2026-03-22T14:29:43.252Z</time></trkpt><trkpt lat="44.5642157" lon="10.7957532"><ele>100.66666666666666</ele><time>2026-03-22T14:29:44.258Z</time></trkpt><trkpt lat="44.5641581" lon="10.7960225"><ele>101.0</ele><time>2026-03-22T14:29:45.251Z</time></trkpt><trkpt lat="44.5641042" lon="10.7962687"><ele>101.33333333333333</ele><time>2026-03-22T14:29:46.254Z</time></trkpt><trkpt lat="44.5640506" lon="10.7964976"><ele>101.66666666666666</ele><time>2026-03-22T14:29:47.251Z</time></trkpt><trkpt lat="44.5639959" lon="10.7967158"><ele>102.0</ele><time>2026-03-22T14:29:48.257Z</time></trkpt><trkpt lat="44.5639291" lon="10.7969293"><ele>102.0</ele><time>2026-03-22T14:29:49.25Z</time></trkpt><trkpt lat="44.5638484" lon="10.7971363"><ele>102.0</ele><time>2026-03-22T14:29:50.254Z</time></trkpt><trkpt lat="44.5637685" lon="10.7973315"><ele>102.0</ele><time>2026-03-22T14:29:51.251Z</time></trkpt><trkpt lat="44.5636873" lon="10.7975213"><ele>101.75</ele><time>2026-03-22T14:29:52.256Z</time></trkpt><trkpt lat="44.5636023" lon="10.7976965"><ele>101.5</ele><time>2026-03-22T14:29:53.253Z</time></trkpt><trkpt lat="44.5635235" lon="10.7978637"><ele>101.25</ele><time>2026-03-22T14:29:54.248Z</time></trkpt><trkpt lat="44.5634474" lon="10.7980199"><ele>101.0</ele><time>2026-03-22T14:29:55.254Z</time></trkpt><trkpt lat="44.5633748" lon="10.7981785"><ele>101.0</ele><time>2026-03-22T14:29:56.249Z</time></trkpt><trkpt lat="44.5633041" lon="10.7983421"><ele>101.0</ele><time>2026-03-22T14:29:57.264Z</time></trkpt><trkpt lat="44.563239" lon="10.7985065"><ele>101.0</ele><time>2026-03-22T14:29:58.247Z</time></trkpt><trkpt lat="44.5631817" lon="10.798665"><ele>101.0</ele><time>2026-03-22T14:29:59.25Z</time></trkpt><trkpt lat="44.563128" lon="10.7988122"><ele>101.25</ele><time>2026-03-22T14:30:00.249Z</time></trkpt><trkpt lat="44.5630717" lon="10.7989528"><ele>101.5</ele><time>2026-03-22T14:30:01.257Z</time></trkpt><trkpt lat="44.5630063" lon="10.7990919"><ele>101.75</ele><time>2026-03-22T14:30:02.252Z</time></trkpt><trkpt lat="44.5629474" lon="10.7992482"><ele>102.0</ele><time>2026-03-22T14:30:03.249Z</time></trkpt><trkpt lat="44.5628868" lon="10.7994233"><ele>101.75</ele><time>2026-03-22T14:30:04.255Z</time></trkpt><trkpt lat="44.5628381" lon="10.7996114"><ele>101.5</ele><time>2026-03-22T14:30:05.247Z</time></trkpt><trkpt lat="44.5628004" lon="10.7998011"><ele>101.25</ele><time>2026-03-22T14:30:06.274Z</time></trkpt><trkpt lat="44.5627681" lon="10.7999948"><ele>101.0</ele><time>2026-03-22T14:30:07.247Z</time></trkpt><trkpt lat="44.5627346" lon="10.8001921"><ele>101.0</ele><time>2026-03-22T14:30:08.254Z</time></trkpt><trkpt lat="44.5626998" lon="10.8003964"><ele>101.0</ele><time>2026-03-22T14:30:09.256Z</time></trkpt><trkpt lat="44.5626608" lon="10.80061"><ele>101.0</ele><time>2026-03-22T14:30:10.252Z</time></trkpt><trkpt lat="44.5626168" lon="10.800833"><ele>100.33333333333333</ele><time>2026-03-22T14:30:11.26Z</time></trkpt><trkpt lat="44.5625688" lon="10.8010614"><ele>99.66666666666666</ele><time>2026-03-22T14:30:12.254Z</time></trkpt><trkpt lat="44.5625204" lon="10.8012825"><ele>99.0</ele><time>2026-03-22T14:30:13.256Z</time></trkpt><trkpt lat="44.5624713" lon="10.8015017"><ele>99.0</ele><time>2026-03-22T14:30:14.25Z</time></trkpt><trkpt lat="44.5624227" lon="10.8017188"><ele>99.0</ele><time>2026-03-22T14:30:15.251Z</time></trkpt><trkpt lat="44.5623744" lon="10.80193"><ele>99.0</ele><time>2026-03-22T14:30:16.255Z</time></trkpt><trkpt lat="44.5623292" lon="10.8021325"><ele>99.25</ele><time>2026-03-22T14:30:17.262Z</time></trkpt><trkpt lat="44.5622857" lon="10.8023321"><ele>99.5</ele><time>2026-03-22T14:30:18.27Z</time></trkpt><trkpt lat="44.5622423" lon="10.802533"><ele>99.75</ele><time>2026-03-22T14:30:19.253Z</time></trkpt><trkpt lat="44.5621989" lon="10.8027353"><ele>100.0</ele><time>2026-03-22T14:30:20.251Z</time></trkpt><trkpt lat="44.5621518" lon="10.8029395"><ele>100.5</ele><time>2026-03-22T14:30:21.253Z</time></trkpt><trkpt lat="44.5621013" lon="10.8031389"><ele>101.0</ele><time>2026-03-22T14:30:22.25Z</time></trkpt><trkpt lat="44.5620519" lon="10.803325"><ele>101.5</ele><time>2026-03-22T14:30:23.268Z</time></trkpt><trkpt lat="44.5620041" lon="10.8034939"><ele>102.0</ele><time>2026-03-22T14:30:24.252Z</time></trkpt><trkpt lat="44.5619592" lon="10.8036503"><ele>102.16666666666667</ele><time>2026-03-22T14:30:25.252Z</time></trkpt><trkpt lat="44.5619197" lon="10.8037932"><ele>102.33333333333334</ele><time>2026-03-22T14:30:26.256Z</time></trkpt><trkpt lat="44.5618829" lon="10.8039232"><ele>102.5</ele><time>2026-03-22T14:30:27.249Z</time></trkpt><trkpt lat="44.561849" lon="10.8040196"><ele>102.66666666666667</ele><time>2026-03-22T14:30:28.257Z</time></trkpt><trkpt lat="44.5618085" lon="10.8041042"><ele>102.83333333333334</ele><time>2026-03-22T14:30:30.258Z</time></trkpt><trkpt lat="44.5617597" lon="10.8041855"><ele>103.0</ele><time>2026-03-22T14:30:32.257Z</time></trkpt><trkpt lat="44.5617201" lon="10.8042752"><ele>103.0</ele><time>2026-03-22T14:30:33.252Z</time></trkpt><trkpt lat="44.5617055" lon="10.8043679"><ele>103.0</ele><time>2026-03-22T14:30:34.257Z</time></trkpt><trkpt lat="44.5617703" lon="10.8045212"><ele>103.0</ele><time>2026-03-22T14:30:36.254Z</time></trkpt><trkpt lat="44.5618448" lon="10.8045901"><ele>103.0</ele><time>2026-03-22T14:30:37.252Z</time></trkpt><trkpt lat="44.5619397" lon="10.8046877"><ele>103.0</ele><time>2026-03-22T14:30:38.254Z</time></trkpt><trkpt lat="44.5620402" lon="10.8048192"><ele>102.66666666666667</ele><time>2026-03-22T14:30:39.255Z</time></trkpt><trkpt lat="44.5621594" lon="10.8049783"><ele>102.33333333333334</ele><time>2026-03-22T14:30:40.256Z</time></trkpt><trkpt lat="44.5622879" lon="10.8051392"><ele>102.0</ele><time>2026-03-22T14:30:41.253Z</time></trkpt><trkpt lat="44.5624341" lon="10.805315"><ele>102.0</ele><time>2026-03-22T14:30:42.261Z</time></trkpt><trkpt lat="44.5625775" lon="10.8054901"><ele>102.0</ele><time>2026-03-22T14:30:43.252Z</time></trkpt><trkpt lat="44.5627288" lon="10.8056605"><ele>102.0</ele><time>2026-03-22T14:30:44.254Z</time></trkpt><trkpt lat="44.5628635" lon="10.8058183"><ele>102.33333333333334</ele><time>2026-03-22T14:30:45.254Z</time></trkpt><trkpt lat="44.5629887" lon="10.8059712"><ele>102.66666666666667</ele><time>2026-03-22T14:30:46.247Z</time></trkpt><trkpt lat="44.5631123" lon="10.8061178"><ele>103.0</ele><time>2026-03-22T14:30:47.252Z</time></trkpt><trkpt lat="44.5632344" lon="10.8062614"><ele>103.0</ele><time>2026-03-22T14:30:48.249Z</time></trkpt><trkpt lat="44.5633521" lon="10.8064057"><ele>103.0</ele><time>2026-03-22T14:30:49.274Z</time></trkpt><trkpt lat="44.5634726" lon="10.8065514"><ele>103.0</ele><time>2026-03-22T14:30:50.253Z</time></trkpt><trkpt lat="44.5635915" lon="10.8066908"><ele>102.0</ele><time>2026-03-22T14:30:51.252Z</time></trkpt><trkpt lat="44.5637058" lon="10.806817"><ele>101.0</ele><time>2026-03-22T14:30:52.253Z</time></trkpt><trkpt lat="44.5638287" lon="10.8069436"><ele>100.0</ele><time>2026-03-22T14:30:53.251Z</time></trkpt><trkpt lat="44.5639632" lon="10.8070741"><ele>99.33333333333334</ele><time>2026-03-22T14:30:54.263Z</time></trkpt><trkpt lat="44.5641047" lon="10.8072108"><ele>98.66666666666666</ele><time>2026-03-22T14:30:55.256Z</time></trkpt><trkpt lat="44.5642517" lon="10.8073522"><ele>98.0</ele><time>2026-03-22T14:30:56.251Z</time></trkpt><trkpt lat="44.5643961" lon="10.8074889"><ele>98.66666666666666</ele><time>2026-03-22T14:30:57.25Z</time></trkpt><trkpt lat="44.5645369" lon="10.8076218"><ele>99.33333333333334</ele><time>2026-03-22T14:30:58.254Z</time></trkpt><trkpt lat="44.564675" lon="10.8077524"><ele>100.0</ele><time>2026-03-22T14:30:59.247Z</time></trkpt><trkpt lat="44.5648118" lon="10.8078826"><ele>100.0</ele><time>2026-03-22T14:31:00.266Z</time></trkpt><trkpt lat="44.5649468" lon="10.8080136"><ele>100.0</ele><time>2026-03-22T14:31:01.255Z</time></trkpt><trkpt lat="44.5650828" lon="10.808144"><ele>100.0</ele><time>2026-03-22T14:31:02.25Z</time></trkpt><trkpt lat="44.5652202" lon="10.8082791"><ele>100.0</ele><time>2026-03-22T14:31:03.249Z</time></trkpt><trkpt lat="44.5653557" lon="10.8084195"><ele>100.0</ele><time>2026-03-22T14:31:04.25Z</time></trkpt><trkpt lat="44.5654845" lon="10.8085673"><ele>100.0</ele><time>2026-03-22T14:31:05.25Z</time></trkpt><trkpt lat="44.5656068" lon="10.8087232"><ele>100.33333333333334</ele><time>2026-03-22T14:31:06.254Z</time></trkpt><trkpt lat="44.5657192" lon="10.8088844"><ele>100.66666666666666</ele><time>2026-03-22T14:31:07.271Z</time></trkpt><trkpt lat="44.565827" lon="10.809052"><ele>101.0</ele><time>2026-03-22T14:31:08.251Z</time></trkpt><trkpt lat="44.5659347" lon="10.809222"><ele>100.33333333333333</ele><time>2026-03-22T14:31:09.254Z</time></trkpt><trkpt lat="44.5660442" lon="10.8093924"><ele>99.66666666666666</ele><time>2026-03-22T14:31:10.253Z</time></trkpt><trkpt lat="44.5661566" lon="10.8095634"><ele>99.0</ele><time>2026-03-22T14:31:11.26Z</time></trkpt><trkpt lat="44.566272" lon="10.8097364"><ele>99.0</ele><time>2026-03-22T14:31:12.262Z</time></trkpt><trkpt lat="44.5663882" lon="10.8099136"><ele>99.0</ele><time>2026-03-22T14:31:13.275Z</time></trkpt><trkpt lat="44.5664996" lon="10.8100911"><ele>99.0</ele><time>2026-03-22T14:31:14.256Z</time></trkpt><trkpt lat="44.5666038" lon="10.8102691"><ele>98.66666666666666</ele><time>2026-03-22T14:31:15.25Z</time></trkpt><trkpt lat="44.5667018" lon="10.8104528"><ele>98.33333333333333</ele><time>2026-03-22T14:31:16.252Z</time></trkpt><trkpt lat="44.5667952" lon="10.8106468"><ele>98.0</ele><time>2026-03-22T14:31:17.261Z</time></trkpt><trkpt lat="44.5668819" lon="10.8108461"><ele>97.66666666666666</ele><time>2026-03-22T14:31:18.253Z</time></trkpt><trkpt lat="44.5669614" lon="10.811045"><ele>97.33333333333334</ele><time>2026-03-22T14:31:19.271Z</time></trkpt><trkpt lat="44.5670358" lon="10.8112431"><ele>97.0</ele><time>2026-03-22T14:31:20.254Z</time></trkpt><trkpt lat="44.5671105" lon="10.8114429"><ele>97.0</ele><time>2026-03-22T14:31:21.252Z</time></trkpt><trkpt lat="44.5671865" lon="10.8116462"><ele>97.0</ele><time>2026-03-22T14:31:22.256Z</time></trkpt><trkpt lat="44.5672634" lon="10.8118548"><ele>97.0</ele><time>2026-03-22T14:31:23.251Z</time></trkpt><trkpt lat="44.5673417" lon="10.812073"><ele>97.0</ele><time>2026-03-22T14:31:24.255Z</time></trkpt><trkpt lat="44.5674214" lon="10.8122919"><ele>97.0</ele><time>2026-03-22T14:31:25.256Z</time></trkpt><trkpt lat="44.5675011" lon="10.8125069"><ele>97.0</ele><time>2026-03-22T14:31:26.26Z</time></trkpt><trkpt lat="44.5675776" lon="10.8127153"><ele>97.0</ele><time>2026-03-22T14:31:27.253Z</time></trkpt><trkpt lat="44.5676526" lon="10.8129215"><ele>97.0</ele><time>2026-03-22T14:31:28.25Z</time></trkpt><trkpt lat="44.5677281" lon="10.81313"><ele>97.0</ele><time>2026-03-22T14:31:29.252Z</time></trkpt><trkpt lat="44.567804" lon="10.8133385"><ele>96.66666666666667</ele><time>2026-03-22T14:31:30.25Z</time></trkpt><trkpt lat="44.5678796" lon="10.8135436"><ele>96.33333333333334</ele><time>2026-03-22T14:31:31.254Z</time></trkpt><trkpt lat="44.5679526" lon="10.8137431"><ele>96.0</ele><time>2026-03-22T14:31:32.252Z</time></trkpt><trkpt lat="44.5680228" lon="10.8139352"><ele>96.0</ele><time>2026-03-22T14:31:33.253Z</time></trkpt><trkpt lat="44.568088" lon="10.8141106"><ele>96.0</ele><time>2026-03-22T14:31:34.256Z</time></trkpt><trkpt lat="44.5681489" lon="10.8142701"><ele>96.0</ele><time>2026-03-22T14:31:35.255Z</time></trkpt><trkpt lat="44.5682048" lon="10.8144158"><ele>96.0</ele><time>2026-03-22T14:31:36.269Z</time></trkpt><trkpt lat="44.5682526" lon="10.8145528"><ele>96.19999999999999</ele><time>2026-03-22T14:31:37.257Z</time></trkpt><trkpt lat="44.56828" lon="10.8146855"><ele>96.39999999999999</ele><time>2026-03-22T14:31:38.259Z</time></trkpt><trkpt lat="44.5682753" lon="10.8148136"><ele>96.6</ele><time>2026-03-22T14:31:39.252Z</time></trkpt><trkpt lat="44.5682361" lon="10.8149321"><ele>96.8</ele><time>2026-03-22T14:31:40.253Z</time></trkpt><trkpt lat="44.5681679" lon="10.8150571"><ele>97.0</ele><time>2026-03-22T14:31:41.248Z</time></trkpt><trkpt lat="44.5681021" lon="10.8151633"><ele>97.0</ele><time>2026-03-22T14:31:42.251Z</time></trkpt><trkpt lat="44.5680262" lon="10.81526"><ele>97.0</ele><time>2026-03-22T14:31:43.25Z</time></trkpt><trkpt lat="44.5679414" lon="10.8153909"><ele>97.0</ele><time>2026-03-22T14:31:44.254Z</time></trkpt><trkpt lat="44.5678585" lon="10.8155138"><ele>97.0</ele><time>2026-03-22T14:31:45.251Z</time></trkpt><trkpt lat="44.5677789" lon="10.8156226"><ele>97.00000000000001</ele><time>2026-03-22T14:31:46.258Z</time></trkpt><trkpt lat="44.5677252" lon="10.8157112"><ele>97.0</ele><time>2026-03-22T14:31:47.251Z</time></trkpt><trkpt lat="44.5676854" lon="10.8157934"><ele>97.0</ele><time>2026-03-22T14:31:48.254Z</time></trkpt><trkpt lat="44.5676597" lon="10.8158831"><ele>97.0</ele><time>2026-03-22T14:31:49.252Z</time></trkpt><trkpt lat="44.5676764" lon="10.8159925"><ele>97.00000000000001</ele><time>2026-03-22T14:31:50.264Z</time></trkpt><trkpt lat="44.5677101" lon="10.8161044"><ele>97.0</ele><time>2026-03-22T14:31:51.251Z</time></trkpt><trkpt lat="44.5677572" lon="10.8162098"><ele>96.8</ele><time>2026-03-22T14:31:52.252Z</time></trkpt><trkpt lat="44.5678327" lon="10.8163041"><ele>96.6</ele><time>2026-03-22T14:31:53.251Z</time></trkpt><trkpt lat="44.5679245" lon="10.8163626"><ele>96.39999999999999</ele><time>2026-03-22T14:31:54.256Z</time></trkpt><trkpt lat="44.5680325" lon="10.8163807"><ele>96.19999999999999</ele><time>2026-03-22T14:31:55.266Z</time></trkpt><trkpt lat="44.5681475" lon="10.8163496"><ele>96.0</ele><time>2026-03-22T14:31:56.254Z</time></trkpt><trkpt lat="44.5682754" lon="10.8162713"><ele>96.0</ele><time>2026-03-22T14:31:57.255Z</time></trkpt><trkpt lat="44.5683981" lon="10.8161766"><ele>96.0</ele><time>2026-03-22T14:31:58.258Z</time></trkpt><trkpt lat="44.5685045" lon="10.8160911"><ele>96.0</ele><time>2026-03-22T14:31:59.251Z</time></trkpt><trkpt lat="44.5686021" lon="10.8160184"><ele>96.0</ele><time>2026-03-22T14:32:00.251Z</time></trkpt><trkpt lat="44.5686892" lon="10.8159605"><ele>95.8</ele><time>2026-03-22T14:32:01.248Z</time></trkpt><trkpt lat="44.5687714" lon="10.815943"><ele>95.6</ele><time>2026-03-22T14:32:02.253Z</time></trkpt><trkpt lat="44.5688416" lon="10.8159789"><ele>95.4</ele><time>2026-03-22T14:32:03.257Z</time></trkpt><trkpt lat="44.5688976" lon="10.8160662"><ele>95.2</ele><time>2026-03-22T14:32:04.255Z</time></trkpt><trkpt lat="44.5689424" lon="10.8161952"><ele>95.0</ele><time>2026-03-22T14:32:05.265Z</time></trkpt><trkpt lat="44.5689945" lon="10.8163518"><ele>94.66666666666667</ele><time>2026-03-22T14:32:06.255Z</time></trkpt><trkpt lat="44.5690519" lon="10.816525"><ele>94.33333333333333</ele><time>2026-03-22T14:32:07.252Z</time></trkpt><trkpt lat="44.569117" lon="10.8167226"><ele>94.0</ele><time>2026-03-22T14:32:08.253Z</time></trkpt><trkpt lat="44.5691931" lon="10.8169534"><ele>93.66666666666666</ele><time>2026-03-22T14:32:09.252Z</time></trkpt><trkpt lat="44.5692709" lon="10.817195"><ele>93.33333333333333</ele><time>2026-03-22T14:32:10.252Z</time></trkpt><trkpt lat="44.5693532" lon="10.8174525"><ele>93.0</ele><time>2026-03-22T14:32:11.273Z</time></trkpt><trkpt lat="44.5694411" lon="10.8177271"><ele>92.66666666666667</ele><time>2026-03-22T14:32:12.255Z</time></trkpt><trkpt lat="44.5695276" lon="10.8179933"><ele>92.33333333333334</ele><time>2026-03-22T14:32:13.257Z</time></trkpt><trkpt lat="44.5696123" lon="10.8182394"><ele>92.0</ele><time>2026-03-22T14:32:14.251Z</time></trkpt><trkpt lat="44.5697018" lon="10.8184702"><ele>91.33333333333334</ele><time>2026-03-22T14:32:15.252Z</time></trkpt><trkpt lat="44.5697994" lon="10.8186775"><ele>90.66666666666667</ele><time>2026-03-22T14:32:16.255Z</time></trkpt><trkpt lat="44.5699093" lon="10.8188665"><ele>90.0</ele><time>2026-03-22T14:32:17.257Z</time></trkpt><trkpt lat="44.5700287" lon="10.8190439"><ele>90.0</ele><time>2026-03-22T14:32:18.26Z</time></trkpt><trkpt lat="44.5701563" lon="10.8192125"><ele>90.0</ele><time>2026-03-22T14:32:19.269Z</time></trkpt><trkpt lat="44.5702883" lon="10.8193739"><ele>90.0</ele><time>2026-03-22T14:32:20.255Z</time></trkpt><trkpt lat="44.5704255" lon="10.8195276"><ele>89.66666666666667</ele><time>2026-03-22T14:32:21.254Z</time></trkpt><trkpt lat="44.5705686" lon="10.8196732"><ele>89.33333333333334</ele><time>2026-03-22T14:32:22.253Z</time></trkpt><trkpt lat="44.5707165" lon="10.8198142"><ele>89.0</ele><time>2026-03-22T14:32:23.255Z</time></trkpt><trkpt lat="44.5708684" lon="10.8199537"><ele>89.0</ele><time>2026-03-22T14:32:24.258Z</time></trkpt><trkpt lat="44.5710237" lon="10.8200873"><ele>89.0</ele><time>2026-03-22T14:32:25.254Z</time></trkpt><trkpt lat="44.5711843" lon="10.8202176"><ele>89.0</ele><time>2026-03-22T14:32:26.274Z</time></trkpt><trkpt lat="44.5713519" lon="10.8203419"><ele>89.0</ele><time>2026-03-22T14:32:27.254Z</time></trkpt><trkpt lat="44.5715233" lon="10.8204515"><ele>89.0</ele><time>2026-03-22T14:32:28.252Z</time></trkpt><trkpt lat="44.5716984" lon="10.8205477"><ele>89.0</ele><time>2026-03-22T14:32:29.255Z</time></trkpt><trkpt lat="44.571874" lon="10.8206385"><ele>88.33333333333334</ele><time>2026-03-22T14:32:30.252Z</time></trkpt><trkpt lat="44.572043" lon="10.8207275"><ele>87.66666666666667</ele><time>2026-03-22T14:32:31.272Z</time></trkpt><trkpt lat="44.5722071" lon="10.8208279"><ele>87.0</ele><time>2026-03-22T14:32:32.251Z</time></trkpt><trkpt lat="44.5723636" lon="10.820954"><ele>87.33333333333333</ele><time>2026-03-22T14:32:33.252Z</time></trkpt><trkpt lat="44.5725097" lon="10.8211075"><ele>87.66666666666666</ele><time>2026-03-22T14:32:34.255Z</time></trkpt><trkpt lat="44.5726461" lon="10.8212755"><ele>88.0</ele><time>2026-03-22T14:32:35.256Z</time></trkpt><trkpt lat="44.5727803" lon="10.8214473"><ele>87.66666666666666</ele><time>2026-03-22T14:32:36.259Z</time></trkpt><trkpt lat="44.5729178" lon="10.821616"><ele>87.33333333333333</ele><time>2026-03-22T14:32:37.252Z</time></trkpt><trkpt lat="44.5730577" lon="10.8217768"><ele>87.0</ele><time>2026-03-22T14:32:38.253Z</time></trkpt><trkpt lat="44.5732006" lon="10.8219357"><ele>87.0</ele><time>2026-03-22T14:32:39.253Z</time></trkpt><trkpt lat="44.5733431" lon="10.8220911"><ele>87.0</ele><time>2026-03-22T14:32:40.251Z</time></trkpt><trkpt lat="44.5734858" lon="10.822242"><ele>87.0</ele><time>2026-03-22T14:32:41.257Z</time></trkpt><trkpt lat="44.573629" lon="10.8223884"><ele>86.66666666666667</ele><time>2026-03-22T14:32:42.253Z</time></trkpt><trkpt lat="44.5737721" lon="10.8225304"><ele>86.33333333333334</ele><time>2026-03-22T14:32:43.258Z</time></trkpt><trkpt lat="44.5739143" lon="10.82267"><ele>86.0</ele><time>2026-03-22T14:32:44.254Z</time></trkpt><trkpt lat="44.5740559" lon="10.8228075"><ele>86.0</ele><time>2026-03-22T14:32:45.26Z</time></trkpt><trkpt lat="44.5741979" lon="10.8229468"><ele>86.0</ele><time>2026-03-22T14:32:46.252Z</time></trkpt><trkpt lat="44.5743409" lon="10.8230873"><ele>86.0</ele><time>2026-03-22T14:32:47.254Z</time></trkpt><trkpt lat="44.5744847" lon="10.8232285"><ele>85.66666666666667</ele><time>2026-03-22T14:32:48.258Z</time></trkpt><trkpt lat="44.5746299" lon="10.823369"><ele>85.33333333333333</ele><time>2026-03-22T14:32:49.254Z</time></trkpt><trkpt lat="44.5747748" lon="10.8235128"><ele>85.0</ele><time>2026-03-22T14:32:50.255Z</time></trkpt><trkpt lat="44.5749181" lon="10.8236572"><ele>85.0</ele><time>2026-03-22T14:32:51.281Z</time></trkpt><trkpt lat="44.5750548" lon="10.8237964"><ele>85.0</ele><time>2026-03-22T14:32:52.26Z</time></trkpt><trkpt lat="44.5751881" lon="10.8239308"><ele>85.0</ele><time>2026-03-22T14:32:53.262Z</time></trkpt><trkpt lat="44.575325" lon="10.8240645"><ele>85.0</ele><time>2026-03-22T14:32:54.256Z</time></trkpt><trkpt lat="44.575465" lon="10.8241974"><ele>85.0</ele><time>2026-03-22T14:32:55.254Z</time></trkpt><trkpt lat="44.5756072" lon="10.8243314"><ele>85.0</ele><time>2026-03-22T14:32:56.262Z</time></trkpt><trkpt lat="44.5757512" lon="10.8244634"><ele>85.0</ele><time>2026-03-22T14:32:57.251Z</time></trkpt><trkpt lat="44.575897" lon="10.824589"><ele>85.0</ele><time>2026-03-22T14:32:58.255Z</time></trkpt><trkpt lat="44.5760433" lon="10.8246937"><ele>85.0</ele><time>2026-03-22T14:32:59.251Z</time></trkpt><trkpt lat="44.5761979" lon="10.8247818"><ele>85.0</ele><time>2026-03-22T14:33:00.26Z</time></trkpt><trkpt lat="44.5763478" lon="10.8248743"><ele>85.0</ele><time>2026-03-22T14:33:01.255Z</time></trkpt><trkpt lat="44.5764936" lon="10.8249667"><ele>85.0</ele><time>2026-03-22T14:33:02.253Z</time></trkpt><trkpt lat="44.5766321" lon="10.8250596"><ele>85.5</ele><time>2026-03-22T14:33:03.261Z</time></trkpt><trkpt lat="44.5767605" lon="10.8251557"><ele>86.0</ele><time>2026-03-22T14:33:04.253Z</time></trkpt><trkpt lat="44.5768743" lon="10.8252523"><ele>86.5</ele><time>2026-03-22T14:33:05.276Z</time></trkpt><trkpt lat="44.5769781" lon="10.8253469"><ele>87.0</ele><time>2026-03-22T14:33:06.294Z</time></trkpt><trkpt lat="44.5770737" lon="10.8254337"><ele>86.19999999999999</ele><time>2026-03-22T14:33:07.252Z</time></trkpt><trkpt lat="44.5771613" lon="10.8255152"><ele>85.4</ele><time>2026-03-22T14:33:08.267Z</time></trkpt><trkpt lat="44.577239" lon="10.8255982"><ele>84.6</ele><time>2026-03-22T14:33:09.258Z</time></trkpt><trkpt lat="44.5773003" lon="10.8256892"><ele>83.80000000000001</ele><time>2026-03-22T14:33:10.258Z</time></trkpt><trkpt lat="44.5773439" lon="10.8257907"><ele>83.0</ele><time>2026-03-22T14:33:11.262Z</time></trkpt><trkpt lat="44.5773746" lon="10.8258911"><ele>83.0</ele><time>2026-03-22T14:33:12.26Z</time></trkpt><trkpt lat="44.5774162" lon="10.8259769"><ele>83.0</ele><time>2026-03-22T14:33:13.257Z</time></trkpt><trkpt lat="44.5774758" lon="10.8260193"><ele>83.0</ele><time>2026-03-22T14:33:14.255Z</time></trkpt><trkpt lat="44.5775463" lon="10.8260174"><ele>83.0</ele><time>2026-03-22T14:33:15.276Z</time></trkpt><trkpt lat="44.5776313" lon="10.8259926"><ele>83.0</ele><time>2026-03-22T14:33:16.255Z</time></trkpt><trkpt lat="44.5777261" lon="10.8259903"><ele>83.0</ele><time>2026-03-22T14:33:17.262Z</time></trkpt><trkpt lat="44.5778169" lon="10.8259941"><ele>83.80000000000001</ele><time>2026-03-22T14:33:18.255Z</time></trkpt><trkpt lat="44.5779136" lon="10.8260426"><ele>84.6</ele><time>2026-03-22T14:33:19.252Z</time></trkpt><trkpt lat="44.5780193" lon="10.8260972"><ele>85.4</ele><time>2026-03-22T14:33:20.253Z</time></trkpt><trkpt lat="44.5781245" lon="10.8261587"><ele>86.19999999999999</ele><time>2026-03-22T14:33:21.284Z</time></trkpt><trkpt lat="44.5782352" lon="10.8262181"><ele>87.0</ele><time>2026-03-22T14:33:22.252Z</time></trkpt><trkpt lat="44.5783484" lon="10.8262794"><ele>87.0</ele><time>2026-03-22T14:33:23.265Z</time></trkpt><trkpt lat="44.5784551" lon="10.8263371"><ele>87.0</ele><time>2026-03-22T14:33:24.257Z</time></trkpt><trkpt lat="44.578565" lon="10.8263895"><ele>87.0</ele><time>2026-03-22T14:33:25.259Z</time></trkpt><trkpt lat="44.5786709" lon="10.8264425"><ele>87.0</ele><time>2026-03-22T14:33:26.258Z</time></trkpt><trkpt lat="44.5787756" lon="10.8264903"><ele>86.39999999999999</ele><time>2026-03-22T14:33:27.255Z</time></trkpt><trkpt lat="44.5788805" lon="10.8265405"><ele>85.8</ele><time>2026-03-22T14:33:28.259Z</time></trkpt><trkpt lat="44.5789853" lon="10.8265934"><ele>85.2</ele><time>2026-03-22T14:33:29.257Z</time></trkpt><trkpt lat="44.5790881" lon="10.8266503"><ele>84.6</ele><time>2026-03-22T14:33:30.256Z</time></trkpt><trkpt lat="44.5791939" lon="10.8267155"><ele>84.0</ele><time>2026-03-22T14:33:31.274Z</time></trkpt><trkpt lat="44.579298" lon="10.8267856"><ele>83.80000000000001</ele><time>2026-03-22T14:33:32.253Z</time></trkpt><trkpt lat="44.5793982" lon="10.8268613"><ele>83.60000000000001</ele><time>2026-03-22T14:33:33.263Z</time></trkpt><trkpt lat="44.5794964" lon="10.8269366"><ele>83.4</ele><time>2026-03-22T14:33:34.261Z</time></trkpt><trkpt lat="44.5795927" lon="10.8270103"><ele>83.2</ele><time>2026-03-22T14:33:35.255Z</time></trkpt><trkpt lat="44.5796811" lon="10.8270828"><ele>83.0</ele><time>2026-03-22T14:33:36.262Z</time></trkpt><trkpt lat="44.5797641" lon="10.8271511"><ele>83.0</ele><time>2026-03-22T14:33:37.255Z</time></trkpt><trkpt lat="44.5798408" lon="10.8272171"><ele>83.0</ele><time>2026-03-22T14:33:38.251Z</time></trkpt><trkpt lat="44.5799087" lon="10.827287"><ele>83.0</ele><time>2026-03-22T14:33:39.254Z</time></trkpt><trkpt lat="44.5799789" lon="10.8273659"><ele>83.0</ele><time>2026-03-22T14:33:40.262Z</time></trkpt><trkpt lat="44.580057" lon="10.8274508"><ele>83.0</ele><time>2026-03-22T14:33:41.26Z</time></trkpt><trkpt lat="44.5801382" lon="10.8275441"><ele>83.0</ele><time>2026-03-22T14:33:42.251Z</time></trkpt><trkpt lat="44.5802197" lon="10.8276416"><ele>83.0</ele><time>2026-03-22T14:33:43.254Z</time></trkpt><trkpt lat="44.5802992" lon="10.8277431"><ele>83.0</ele><time>2026-03-22T14:33:44.255Z</time></trkpt><trkpt lat="44.5803792" lon="10.827848"><ele>83.0</ele><time>2026-03-22T14:33:45.256Z</time></trkpt><trkpt lat="44.5804575" lon="10.8279626"><ele>83.0</ele><time>2026-03-22T14:33:46.255Z</time></trkpt><trkpt lat="44.5805329" lon="10.828095"><ele>83.0</ele><time>2026-03-22T14:33:47.251Z</time></trkpt><trkpt lat="44.5806029" lon="10.8282318"><ele>83.0</ele><time>2026-03-22T14:33:48.256Z</time></trkpt><trkpt lat="44.5806681" lon="10.828372"><ele>83.0</ele><time>2026-03-22T14:33:49.258Z</time></trkpt><trkpt lat="44.5807332" lon="10.8285142"><ele>83.0</ele><time>2026-03-22T14:33:50.259Z</time></trkpt><trkpt lat="44.5807898" lon="10.8286441"><ele>83.0</ele><time>2026-03-22T14:33:51.256Z</time></trkpt><trkpt lat="44.5808487" lon="10.8287742"><ele>83.0</ele><time>2026-03-22T14:33:52.274Z</time></trkpt><trkpt lat="44.5809097" lon="10.8288991"><ele>83.0</ele><time>2026-03-22T14:33:53.258Z</time></trkpt><trkpt lat="44.5809582" lon="10.8290101"><ele>83.0</ele><time>2026-03-22T14:33:54.253Z</time></trkpt><trkpt lat="44.5809991" lon="10.8291012"><ele>83.0</ele><time>2026-03-22T14:33:55.255Z</time></trkpt><trkpt lat="44.5810343" lon="10.8291834"><ele>83.0</ele><time>2026-03-22T14:33:56.257Z</time></trkpt><trkpt lat="44.5810731" lon="10.8292851"><ele>83.0</ele><time>2026-03-22T14:33:58.268Z</time></trkpt><trkpt lat="44.5811452" lon="10.8293947"><ele>83.0</ele><time>2026-03-22T14:34:45.262Z</time></trkpt><trkpt lat="44.5812017" lon="10.8295022"><ele>83.0</ele><time>2026-03-22T14:34:46.255Z</time></trkpt><trkpt lat="44.5812732" lon="10.8296587"><ele>83.0</ele><time>2026-03-22T14:34:47.252Z</time></trkpt><trkpt lat="44.5813591" lon="10.8298497"><ele>82.66666666666667</ele><time>2026-03-22T14:34:48.255Z</time></trkpt><trkpt lat="44.5814638" lon="10.830067"><ele>82.33333333333333</ele><time>2026-03-22T14:34:49.251Z</time></trkpt><trkpt lat="44.5815771" lon="10.8303038"><ele>82.0</ele><time>2026-03-22T14:34:50.251Z</time></trkpt><trkpt lat="44.5817019" lon="10.8305569"><ele>82.0</ele><time>2026-03-22T14:34:51.255Z</time></trkpt><trkpt lat="44.5818304" lon="10.8308281"><ele>82.0</ele><time>2026-03-22T14:34:52.251Z</time></trkpt><trkpt lat="44.5819678" lon="10.8311065"><ele>80.0</ele><time>2026-03-22T14:34:53.252Z</time></trkpt><trkpt lat="44.5820973" lon="10.8313856"><ele>78.0</ele><time>2026-03-22T14:34:54.25Z</time></trkpt><trkpt lat="44.5822249" lon="10.8316525"><ele>78.0</ele><time>2026-03-22T14:34:55.265Z</time></trkpt><trkpt lat="44.5823539" lon="10.8319196"><ele>78.0</ele><time>2026-03-22T14:34:56.258Z</time></trkpt><trkpt lat="44.5824791" lon="10.8321817"><ele>78.0</ele><time>2026-03-22T14:34:57.254Z</time></trkpt><trkpt lat="44.5826025" lon="10.8324385"><ele>78.0</ele><time>2026-03-22T14:34:58.369Z</time></trkpt><trkpt lat="44.5827246" lon="10.8326899"><ele>78.0</ele><time>2026-03-22T14:34:59.272Z</time></trkpt><trkpt lat="44.5828434" lon="10.8329392"><ele>78.0</ele><time>2026-03-22T14:35:00.265Z</time></trkpt><trkpt lat="44.582961" lon="10.8331846"><ele>78.0</ele><time>2026-03-22T14:35:01.253Z</time></trkpt><trkpt lat="44.5830774" lon="10.8334295"><ele>78.0</ele><time>2026-03-22T14:35:02.251Z</time></trkpt><trkpt lat="44.5831925" lon="10.8336725"><ele>77.33333333333333</ele><time>2026-03-22T14:35:03.251Z</time></trkpt><trkpt lat="44.5833052" lon="10.8339132"><ele>76.66666666666666</ele><time>2026-03-22T14:35:04.258Z</time></trkpt><trkpt lat="44.5834026" lon="10.8341493"><ele>76.0</ele><time>2026-03-22T14:35:05.27Z</time></trkpt><trkpt lat="44.5835015" lon="10.8343708"><ele>76.0</ele><time>2026-03-22T14:35:06.257Z</time></trkpt><trkpt lat="44.5836052" lon="10.8345928"><ele>76.0</ele><time>2026-03-22T14:35:07.257Z</time></trkpt><trkpt lat="44.5837095" lon="10.8348046"><ele>76.0</ele><time>2026-03-22T14:35:08.257Z</time></trkpt><trkpt lat="44.5838099" lon="10.8350045"><ele>76.33333333333333</ele><time>2026-03-22T14:35:09.254Z</time></trkpt><trkpt lat="44.5839048" lon="10.8351894"><ele>76.66666666666667</ele><time>2026-03-22T14:35:10.251Z</time></trkpt><trkpt lat="44.5839971" lon="10.8353604"><ele>77.0</ele><time>2026-03-22T14:35:11.256Z</time></trkpt><trkpt lat="44.5840788" lon="10.835525"><ele>77.0</ele><time>2026-03-22T14:35:12.254Z</time></trkpt><trkpt lat="44.5841573" lon="10.8356843"><ele>77.0</ele><time>2026-03-22T14:35:13.255Z</time></trkpt><trkpt lat="44.5842463" lon="10.8358555"><ele>77.0</ele><time>2026-03-22T14:35:14.258Z</time></trkpt><trkpt lat="44.584345" lon="10.8360568"><ele>76.0</ele><time>2026-03-22T14:35:15.253Z</time></trkpt><trkpt lat="44.5844495" lon="10.836268"><ele>75.0</ele><time>2026-03-22T14:35:16.258Z</time></trkpt><trkpt lat="44.5845481" lon="10.83647"><ele>74.0</ele><time>2026-03-22T14:35:17.255Z</time></trkpt><trkpt lat="44.5846423" lon="10.8366656"><ele>73.75</ele><time>2026-03-22T14:35:18.253Z</time></trkpt><trkpt lat="44.584732" lon="10.8368533"><ele>73.5</ele><time>2026-03-22T14:35:19.257Z</time></trkpt><trkpt lat="44.5848156" lon="10.8370262"><ele>73.25</ele><time>2026-03-22T14:35:20.252Z</time></trkpt><trkpt lat="44.5848922" lon="10.8371844"><ele>73.0</ele><time>2026-03-22T14:35:21.273Z</time></trkpt><trkpt lat="44.5849587" lon="10.8373231"><ele>73.0</ele><time>2026-03-22T14:35:22.261Z</time></trkpt><trkpt lat="44.5850062" lon="10.8374332"><ele>73.0</ele><time>2026-03-22T14:35:23.256Z</time></trkpt><trkpt lat="44.5850425" lon="10.8375179"><ele>73.0</ele><time>2026-03-22T14:35:24.257Z</time></trkpt></trkseg></trk></gpx>